GFSSE_sfc_wetblb_000.txt.gz
Wetbulb
71.14 73.23 76.10 76.48 76.38 76.09 76.48 76.47 76.25 76.12 76.56 76.75 77.37 77.70 78.30 78.23 78.34 78.59 78.45 78.02 77.79 77.93 77.29 76.97 76.91 76.99 76.73 76.29 76.22 75.67 75.87 75.90 75.53 75.33 75.12 75.11 74.67 74.67 74.56 74.40 74.36 73.49 74.62
71.85 73.76 76.38 76.74 76.64 76.15 76.16 76.39 76.35 76.10 76.92 77.80 77.75 78.49 78.27 78.22 77.93 78.28 78.10 77.95 77.73 77.53 77.07 76.72 77.04 76.77 76.08 75.37 75.34 75.25 75.06 75.51 75.44 75.58 75.65 75.29 74.64 73.93 74.69 74.19 74.23 73.08 74.00
71.63 73.83 74.43 77.53 76.54 76.17 76.30 76.27 76.19 76.43 77.32 77.96 78.32 78.49 78.27 77.99 78.15 77.70 77.55 77.76 77.62 77.17 76.88 76.86 76.89 76.70 76.24 75.64 74.79 74.07 74.46 74.78 75.04 75.24 75.84 74.78 74.51 74.92 74.39 74.39 74.28 74.62 74.41
73.02 73.46 74.96 76.97 77.19 76.71 76.88 77.06 76.81 76.82 77.69 78.53 78.66 78.96 78.61 78.51 78.22 78.03 77.69 77.41 77.06 76.89 76.77 76.55 76.20 75.73 75.37 75.22 75.02 74.69 74.35 73.99 74.62 74.90 74.57 74.42 74.15 75.14 74.55 73.65 74.49 74.30 74.02
73.79 74.61 75.06 77.12 77.20 77.42 77.55 77.78 78.22 78.43 78.63 78.28 78.75 78.55 78.67 78.76 78.27 77.71 77.40 77.18 77.06 76.74 76.14 75.73 75.65 75.51 74.88 75.20 75.24 75.21 74.72 74.45 74.12 73.53 73.85 73.88 73.95 74.92 75.06 73.86 74.11 73.52 73.89
74.37 75.14 77.08 77.58 77.65 77.78 77.85 77.82 78.02 78.64 78.62 78.93 79.13 78.45 78.58 78.06 77.45 77.12 76.67 76.87 76.47 76.09 75.65 75.37 75.29 75.26 75.25 75.52 75.82 75.65 75.14 74.77 73.90 73.43 73.38 73.63 74.48 75.08 74.83 72.75 74.34 72.75 72.94
74.54 75.79 76.25 78.19 78.40 77.79 77.65 77.86 78.64 78.88 78.51 78.95 78.93 78.42 78.16 77.80 77.40 77.20 77.00 76.76 76.23 75.82 75.65 75.54 75.76 75.73 75.76 75.72 76.13 76.07 75.52 75.22 74.06 73.43 73.23 73.43 74.38 75.10 74.80 74.35 74.41 74.00 73.94
75.43 76.10 76.27 78.00 78.01 78.28 78.72 78.73 78.95 78.97 79.01 78.95 78.20 77.92 77.85 77.65 77.58 77.28 76.82 76.15 75.57 75.45 75.65 75.68 76.12 76.20 76.19 76.45 76.63 75.90 75.61 75.59 74.22 73.68 73.56 73.83 74.20 75.38 75.43 74.88 74.22 74.44 74.21
75.85 75.95 76.42 77.00 77.57 78.77 79.33 78.92 78.94 78.08 78.23 77.98 77.79 78.02 77.82 77.57 77.55 77.08 76.87 76.43 76.01 75.98 76.20 76.32 76.54 76.57 76.45 76.61 76.35 75.84 75.85 75.78 74.96 74.32 73.83 73.69 74.27 75.43 74.83 75.04 74.48 74.09 74.23
75.46 76.26 76.22 76.41 76.59 76.27 77.66 78.15 77.80 77.86 77.63 77.67 77.79 77.75 77.65 77.28 77.04 76.62 77.28 77.04 76.65 76.71 77.10 76.50 76.31 76.20 76.22 75.84 75.79 75.46 74.69 74.81 74.58 73.99 74.55 73.58 74.00 75.39 75.27 74.53 75.26 74.64 74.21
74.20 74.53 75.30 75.52 75.52 76.77 77.12 77.01 77.49 77.15 77.52 77.36 77.05 77.59 77.85 75.94 75.58 75.88 74.89 75.99 75.84 75.93 76.19 76.88 76.06 76.03 76.05 75.39 74.85 75.32 74.89 74.98 74.29 74.23 74.41 74.21 75.05 75.30 75.90 74.83 75.29 74.63 74.54
72.04 73.83 75.12 75.45 75.69 76.39 77.66 76.78 75.34 75.73 75.99 75.92 75.98 76.15 75.66 74.74 74.34 72.26 74.90 75.47 75.09 74.68 76.33 76.21 75.58 76.05 74.77 73.21 72.51 73.07 72.05 72.94 74.06 74.16 73.70 74.35 75.07 74.95 75.81 74.96 75.05 74.53 74.96
72.60 73.97 74.71 75.15 75.33 75.92 76.44 75.97 75.34 75.72 75.12 75.36 75.43 75.30 74.96 73.28 73.12 73.66 72.09 72.38 73.12 74.54 73.95 74.00 73.52 72.84 72.71 72.39 72.50 72.24 72.22 72.44 72.37 72.23 73.61 74.55 75.47 75.10 75.60 75.80 74.35 74.61 74.70
72.19 73.64 74.58 74.96 75.25 75.22 74.98 75.32 74.52 74.62 74.81 74.20 74.12 74.56 73.56 72.01 71.53 71.74 72.00 72.59 72.90 72.94 72.15 71.94 71.68 72.06 71.95 71.76 71.49 71.66 72.02 72.02 72.45 72.28 72.21 74.65 75.58 75.69 76.10 75.22 75.96 74.50 73.94
71.82 73.17 73.91 74.65 74.70 75.50 74.48 74.84 74.21 74.05 74.26 74.30 74.40 74.15 73.56 72.34 70.18 70.53 72.25 72.79 72.51 72.58 71.76 71.54 71.55 71.05 70.39 70.76 71.14 71.01 70.89 71.33 71.87 72.13 71.64 73.49 75.78 75.92 75.92 75.60 75.59 75.67 74.78
72.46 72.88 73.83 74.40 74.94 74.79 74.16 74.38 73.80 73.57 74.19 74.07 73.83 74.01 73.98 71.79 71.40 71.15 71.77 71.41 71.46 71.87 71.13 71.60 71.00 70.05 69.19 69.27 69.51 69.92 70.22 70.31 70.92 71.13 71.67 72.47 73.94 76.14 76.54 76.09 75.92 75.79 75.98
72.52 73.31 73.67 74.16 75.21 74.37 74.41 72.76 73.17 73.85 73.83 73.39 73.54 73.64 73.23 72.90 71.60 71.44 70.75 70.81 71.27 70.50 70.66 70.50 69.79 68.61 68.19 68.45 68.44 68.68 68.88 69.44 69.96 70.31 71.35 72.38 72.89 73.97 75.28 77.04 76.84 76.22 75.84
72.53 72.34 73.40 74.94 74.81 73.97 73.68 72.73 72.88 73.11 73.17 73.09 73.26 72.97 72.56 73.32 72.86 71.28 70.59 69.94 70.73 70.67 69.92 69.75 68.29 67.65 67.83 67.35 67.20 67.87 68.20 68.87 69.30 69.71 70.62 71.30 72.47 73.11 74.28 75.29 76.56 76.27 75.80
72.07 72.23 72.66 74.20 74.16 73.79 72.37 73.33 73.30 73.35 72.51 72.54 72.89 72.41 72.32 72.65 72.97 72.11 70.32 70.47 70.79 70.47 69.78 68.82 67.89 67.39 67.17 67.02 67.28 68.37 68.47 68.63 69.12 69.71 69.85 70.37 70.81 71.82 72.33 73.46 75.12 75.41 75.86
71.79 72.61 73.03 73.72 73.85 72.25 73.29 72.82 72.23 72.70 72.57 72.73 72.85 72.16 72.44 72.48 72.50 71.98 70.84 70.56 70.90 69.94 68.87 68.22 67.71 67.66 67.26 66.79 67.20 67.28 67.35 67.42 68.37 68.67 68.89 69.90 70.44 71.03 71.64 72.66 74.99 74.47 74.82
70.80 71.67 72.39 72.62 73.19 72.98 72.37 71.68 71.48 71.16 71.73 71.72 72.01 72.30 72.38 71.91 72.27 71.79 71.24 70.41 70.13 69.41 69.11 68.66 67.93 67.35 67.01 67.12 66.44 65.96 65.72 65.53 66.50 66.24 67.83 68.56 67.26 68.26 70.79 72.81 73.77 74.60 74.07
69.25 71.25 71.87 72.68 72.87 73.24 72.63 72.05 72.24 71.64 71.68 72.16 72.26 72.25 72.63 72.49 72.05 71.03 70.68 69.91 70.03 69.11 68.25 67.63 67.37 66.40 66.74 67.62 65.43 62.74 61.40 63.07 64.44 65.73 66.74 66.93 65.41 66.24 67.03 69.17 70.58 71.04 72.00
68.37 70.14 71.14 71.80 72.69 73.33 72.78 71.63 71.99 72.33 72.47 71.67 71.80 72.33 72.72 71.81 71.69 71.48 70.53 70.05 68.80 67.74 67.38 66.85 66.45 66.23 65.49 66.49 66.70 64.38 60.14 59.09 61.91 64.12 65.03 64.93 64.87 65.62 66.54 67.41 68.12 68.67 70.41
68.35 70.08 70.99 71.34 71.93 72.56 72.59 71.55 71.32 70.53 70.03 70.68 69.66 71.12 71.24 70.75 70.30 69.77 68.95 68.13 67.50 67.23 66.76 66.74 67.79 67.10 66.38 64.81 65.82 66.29 65.31 64.39 60.68 59.53 62.34 62.69 63.05 63.36 64.97 66.31 66.71 67.68 68.88
68.91 69.44 70.32 70.57 70.78 71.93 72.44 72.49 71.50 70.45 70.70 67.23 66.88 68.49 68.67 67.59 66.69 67.61 67.25 67.11 67.40 66.40 66.09 66.52 67.03 66.72 66.29 65.48 64.81 64.47 63.83 62.83 62.79 60.21 57.85 59.45 60.80 63.27 64.22 64.81 65.43 66.49 67.40
68.92 69.46 70.05 69.87 70.43 71.71 72.21 72.03 71.51 70.84 68.15 65.44 65.18 66.52 65.29 64.23 64.44 65.83 66.78 67.69 66.91 65.71 65.89 66.19 66.33 66.09 66.23 66.34 65.71 64.85 63.30 61.15 60.92 60.70 59.45 59.01 58.98 60.65 63.00 64.11 64.60 64.93 65.15

GFSSE_sfc_wetblb_003.txt.gz
Wetbulb
72.10 74.57 75.79 75.75 75.87 75.92 75.79 75.91 76.90 77.16 77.21 77.99 78.10 78.38 78.14 78.07 77.80 77.99 78.09 77.70 77.89 77.77 77.24 77.16 77.38 76.93 76.80 76.59 76.29 76.22 75.94 75.68 75.69 75.52 75.89 75.41 75.39 74.79 74.87 74.31 74.55 74.03 74.93
73.88 74.74 75.89 76.54 75.90 76.41 76.05 75.72 76.58 76.78 77.73 77.86 78.22 78.27 77.72 77.24 77.61 77.78 77.74 77.78 77.88 77.40 76.92 77.24 77.22 76.71 76.20 75.73 75.53 75.69 74.72 75.16 75.56 75.87 76.01 75.51 75.02 74.64 74.66 74.51 73.38 74.11 74.43
73.74 75.04 75.65 76.86 76.32 76.40 76.20 75.91 76.54 76.83 77.54 78.23 78.15 78.10 77.54 76.93 77.27 77.35 77.74 77.89 77.73 77.34 77.28 77.31 76.73 76.77 76.38 76.13 75.84 75.42 75.11 74.29 74.50 75.30 75.82 74.98 74.88 74.60 74.69 74.75 74.70 74.68 74.66
73.95 75.22 75.44 76.34 76.78 76.37 76.25 76.45 76.47 77.54 77.46 77.86 78.55 78.05 77.43 77.50 77.31 77.27 77.61 77.52 77.35 77.41 77.15 76.77 76.45 76.14 76.02 76.02 76.08 75.54 75.27 74.74 74.63 74.67 75.39 74.86 74.67 74.86 74.88 74.77 74.75 74.80 74.49
74.43 75.61 76.20 76.23 76.41 76.60 76.76 76.83 77.04 78.25 77.64 77.70 78.09 77.89 77.60 77.53 77.82 77.70 77.40 77.12 77.14 77.12 76.60 76.39 76.09 75.98 75.95 75.94 76.06 75.91 75.28 75.08 74.50 74.35 75.69 75.81 76.43 75.64 75.19 74.30 73.98 74.44 73.73
74.68 75.67 76.52 76.84 77.08 76.77 76.97 76.72 77.56 78.30 77.82 78.13 78.42 78.11 78.03 78.00 77.34 76.97 76.70 76.66 76.94 76.58 76.42 76.06 76.00 76.09 76.25 76.33 76.28 76.22 76.17 75.29 74.72 75.34 76.20 75.92 76.05 75.85 75.05 73.60 74.11 73.79 74.37
74.91 75.90 76.98 77.76 77.22 77.35 77.57 77.58 78.43 78.58 77.89 78.46 78.29 78.00 77.87 77.53 76.98 76.90 77.11 77.00 76.66 76.25 75.90 75.93 76.01 76.23 76.37 76.60 76.67 76.48 76.22 75.40 75.27 76.07 76.09 76.20 76.38 75.28 74.54 73.76 73.87 73.45 73.69
74.69 76.47 76.93 77.52 77.53 77.68 77.70 77.68 77.94 78.83 78.41 78.55 78.19 78.00 77.70 77.53 77.42 77.14 76.83 76.40 76.20 75.98 76.03 76.31 76.54 76.70 76.86 76.87 77.23 76.08 76.12 76.11 75.18 75.58 76.20 76.27 75.05 75.30 75.07 74.87 74.74 74.46 74.53
76.12 76.03 77.48 77.79 78.32 78.05 78.59 78.47 78.67 79.04 78.59 78.14 78.15 77.88 77.78 77.77 77.34 77.11 76.73 76.42 76.26 76.29 76.59 76.73 76.68 76.53 76.46 76.48 76.53 75.81 76.11 75.61 76.09 76.20 75.76 77.02 74.56 75.62 76.03 75.37 74.72 74.67 74.23
75.67 76.20 76.90 77.54 77.88 78.21 77.84 78.92 77.94 78.48 78.11 77.76 77.82 77.59 77.63 76.97 76.90 76.59 76.41 76.84 76.97 76.97 76.64 77.15 76.58 76.17 75.95 76.14 76.22 76.00 75.92 75.62 76.02 76.45 76.43 76.29 73.89 75.63 75.65 75.80 74.87 74.73 74.59
75.18 76.29 76.91 77.00 77.90 78.41 78.04 77.87 78.27 77.68 77.66 77.80 77.59 77.14 77.07 78.28 77.59 76.79 76.00 76.31 76.23 76.04 76.32 76.74 76.42 76.27 76.03 75.11 75.11 75.26 74.71 75.73 76.12 76.59 76.72 75.12 74.75 74.82 75.72 75.08 75.00 75.37 74.51
73.15 75.16 76.67 77.28 77.26 77.31 77.10 77.62 78.05 77.14 76.66 76.82 77.36 77.49 77.61 77.94 78.00 76.63 75.63 75.86 75.86 75.29 76.00 76.12 75.89 75.56 75.13 75.49 75.40 74.67 75.34 75.49 75.61 75.76 76.23 74.69 75.02 75.05 75.51 75.51 75.04 74.80 74.84
73.54 74.56 75.85 76.87 77.49 77.14 77.69 77.80 77.96 77.43 77.36 77.20 77.73 77.47 77.90 77.62 77.11 76.47 76.85 75.96 75.52 75.73 76.66 75.83 75.80 75.70 75.43 74.90 74.07 74.23 74.63 74.88 75.37 75.61 75.74 73.71 74.72 75.19 75.23 75.91 75.23 75.17 74.78
72.88 74.43 75.41 76.57 77.23 77.61 78.55 76.84 78.39 76.81 77.14 76.02 76.61 78.03 77.24 76.38 76.05 76.37 76.37 76.97 77.72 76.90 76.47 75.80 75.32 75.20 74.60 74.06 73.62 73.22 73.65 73.71 73.81 74.75 75.88 74.27 75.26 75.85 75.53 75.39 75.81 75.07 74.81
72.68 74.51 75.81 76.71 77.11 77.34 77.21 76.39 76.31 77.25 75.94 76.20 76.79 77.01 76.63 75.73 75.88 76.20 76.09 76.83 77.26 76.99 76.49 76.04 75.26 74.46 73.85 73.11 73.31 72.87 72.54 73.09 73.46 73.72 74.64 74.55 74.42 75.26 75.79 75.97 75.85 75.56 74.96
73.48 74.27 76.01 76.73 77.57 77.82 77.14 77.66 77.17 77.48 77.51 76.99 76.80 76.59 77.28 76.73 76.45 77.55 75.92 76.68 76.49 76.50 75.98 75.78 74.79 73.77 72.83 72.93 72.17 72.48 72.04 72.13 72.69 73.08 73.22 74.76 73.57 74.38 75.56 76.21 76.24 75.76 75.62
74.50 74.68 74.84 75.98 77.17 77.50 77.64 77.97 77.38 77.20 77.02 75.99 76.07 76.98 77.34 77.52 77.25 77.30 77.15 76.44 76.23 76.03 75.36 74.90 74.34 74.07 72.65 72.38 71.83 71.72 72.17 72.25 71.91 72.91 73.07 73.61 74.89 74.15 74.77 75.48 76.99 76.91 75.71
75.11 74.87 75.17 75.20 75.98 76.76 76.93 77.61 76.67 77.03 76.75 76.59 76.69 77.42 77.22 77.42 77.92 77.72 77.50 77.44 75.79 75.26 74.74 74.31 73.49 72.46 72.89 72.04 71.26 71.63 71.66 71.47 72.49 72.79 73.30 73.34 73.16 73.69 75.07 75.04 75.14 76.52 76.86
75.54 75.66 75.63 76.54 76.45 77.19 77.83 77.94 77.42 77.87 77.48 77.55 77.31 77.15 77.64 77.02 76.73 77.57 77.66 76.97 75.57 74.65 75.08 74.18 73.49 72.84 71.68 71.31 70.93 70.99 70.90 70.86 72.07 71.95 72.38 73.27 73.75 73.82 73.59 75.78 74.98 74.84 75.54
75.70 76.26 76.44 76.32 77.11 77.76 78.03 78.04 78.29 78.26 78.66 77.36 76.98 76.70 77.13 77.03 76.54 76.19 75.80 75.45 74.86 74.79 74.45 73.69 72.99 73.17 71.97 71.42 70.03 69.59 70.81 71.40 70.88 71.29 71.35 71.07 69.96 72.71 73.94 74.84 75.39 75.83 74.86
75.51 75.65 75.98 76.05 77.00 77.16 76.12 75.45 75.59 74.40 76.23 76.36 76.91 77.12 76.76 77.09 76.55 76.55 76.38 75.09 74.87 73.80 73.89 73.34 73.05 71.81 71.24 72.37 69.63 68.35 70.17 70.53 69.24 69.96 69.94 67.62 66.96 68.55 70.54 72.29 73.70 74.50 75.33
74.71 75.34 76.05 76.42 77.27 77.38 76.79 77.04 76.45 76.29 76.36 76.32 76.97 77.19 76.88 76.41 76.63 76.33 75.64 74.30 73.96 72.70 72.97 72.50 72.10 70.65 70.99 72.21 68.77 67.87 64.06 66.66 69.59 68.49 67.43 64.43 66.04 66.55 67.36 69.71 70.56 71.87 72.99
73.75 74.75 75.50 76.71 77.66 77.47 77.73 77.11 76.68 76.69 76.73 75.70 75.98 76.04 76.37 76.63 76.42 75.84 75.16 74.27 73.81 72.71 70.61 71.94 71.28 70.60 68.67 71.06 70.47 67.50 63.42 62.34 64.28 68.36 67.67 65.50 65.41 65.10 66.16 67.90 69.22 70.06 69.72
73.37 74.58 75.94 76.64 77.47 77.77 78.08 76.62 76.37 74.59 73.52 74.90 76.03 76.29 76.48 76.71 75.48 75.15 74.78 73.36 73.18 71.98 72.30 71.98 71.68 71.95 71.26 68.45 70.09 70.36 69.53 67.67 62.71 61.91 66.08 65.75 65.17 63.74 65.28 65.35 66.53 67.68 67.30
73.44 73.60 74.70 76.69 77.29 78.31 78.02 77.90 76.01 75.49 75.39 76.19 75.42 75.18 76.46 76.01 75.23 73.93 73.19 72.79 72.65 71.79 72.01 70.98 71.84 71.46 70.83 69.19 68.23 68.76 68.26 67.71 67.35 63.36 59.26 61.73 64.68 65.85 64.94 64.79 65.80 66.00 66.22
72.90 73.33 74.03 76.00 76.85 76.92 77.06 77.14 76.63 76.41 75.96 75.20 74.54 72.62 73.13 73.96 72.78 72.38 71.87 72.43 73.00 72.44 71.17 70.35 71.11 70.45 70.23 69.83 69.44 68.58 65.96 63.95 63.93 62.98 61.33 61.85 61.77 63.60 64.71 65.12 64.83 65.41 65.39

GFSSE_sfc_wetblb_009.txt.gz
Wetbulb
73.40 74.57 75.42 75.78 75.76 76.71 76.68 77.69 77.66 78.41 78.75 78.60 78.80 78.77 78.80 78.88 78.72 78.51 78.84 78.10 77.68 78.14 77.46 77.13 76.94 76.80 76.50 76.28 76.19 76.16 75.88 75.60 75.79 75.35 75.55 75.18 75.20 74.82 73.65 73.76 73.12 73.84 75.07
74.29 74.38 75.70 76.06 76.36 76.27 76.50 77.52 78.10 78.01 78.47 78.67 78.64 78.82 78.54 78.47 78.15 78.64 78.34 77.54 77.59 77.54 77.24 77.11 76.75 76.55 76.50 76.25 76.14 75.78 75.42 75.14 74.62 74.95 75.03 75.03 75.28 74.67 74.42 74.45 74.12 74.18 74.38
74.21 74.89 75.81 75.91 76.38 76.68 76.72 77.66 78.02 77.50 77.63 77.71 77.83 78.10 77.51 77.81 78.16 78.03 77.73 77.68 77.66 77.49 77.03 76.70 76.64 76.42 76.42 76.39 76.00 75.78 75.14 74.70 73.51 74.02 74.67 74.49 74.10 75.03 74.37 74.84 74.61 75.05 74.67
74.44 74.88 75.61 76.53 76.01 76.38 76.69 76.79 77.54 76.85 76.85 77.09 77.54 77.10 77.35 77.47 77.82 77.66 77.28 77.38 77.22 77.08 76.75 76.42 76.39 76.45 76.45 76.53 76.33 75.58 74.98 74.17 73.81 74.71 74.85 73.90 73.54 75.30 74.88 75.25 75.12 75.01 74.66
73.77 74.69 76.00 76.62 76.39 76.31 76.96 77.22 77.62 77.14 77.07 77.04 77.10 77.05 77.06 77.48 77.75 77.14 77.14 77.14 76.92 76.67 76.45 76.25 76.45 76.31 76.39 76.75 76.50 76.03 75.11 74.08 74.04 75.08 75.08 74.92 73.95 74.88 74.80 74.95 74.47 74.54 73.84
73.94 75.36 76.29 76.32 76.41 76.54 77.18 77.66 77.60 77.63 77.71 77.30 76.83 77.06 77.34 77.62 77.31 76.95 77.17 77.00 76.59 76.39 76.19 76.39 76.30 76.56 76.47 76.64 76.31 75.59 75.14 74.71 75.43 75.06 75.17 73.32 74.99 75.22 74.97 74.47 74.91 74.91 74.61
75.58 75.56 75.46 76.86 76.40 76.76 77.32 77.61 77.76 77.58 77.53 77.20 77.00 77.22 77.67 77.09 76.91 76.89 77.03 76.24 76.04 75.99 76.02 76.27 76.55 76.67 76.45 76.20 76.39 75.61 75.58 75.57 76.04 76.06 75.84 75.93 74.55 75.40 74.26 74.72 74.35 74.55 74.65
74.53 75.33 75.87 76.82 76.59 76.92 77.33 77.66 77.18 77.59 77.51 77.75 77.43 77.44 77.00 76.83 76.72 76.86 76.03 75.84 75.67 75.92 76.21 76.63 75.88 75.88 76.00 75.75 75.47 75.22 75.39 76.03 74.95 75.01 76.62 75.93 75.71 75.57 75.11 74.77 73.51 74.58 74.83
75.83 75.90 76.74 76.94 77.56 77.62 77.79 77.62 77.54 77.46 77.51 77.57 77.55 77.33 76.78 76.67 76.44 75.92 75.23 75.22 75.93 76.26 76.52 76.49 75.84 75.57 75.58 75.42 75.42 75.39 76.11 76.41 76.10 76.07 75.39 76.06 76.24 75.82 75.58 75.57 75.13 74.87 74.46
75.99 76.40 76.29 77.00 77.19 77.94 78.06 77.87 77.50 77.38 77.00 76.61 77.14 76.95 76.89 77.09 76.85 76.20 75.57 76.08 75.74 75.48 75.87 75.91 75.37 75.44 75.31 75.67 75.39 75.34 76.03 76.64 76.16 75.38 75.55 75.56 76.30 75.88 76.01 75.63 75.71 75.31 74.80
74.57 76.02 76.49 76.54 76.82 78.26 78.22 78.22 77.90 77.20 76.25 76.61 76.97 77.00 77.08 76.00 75.96 77.39 77.24 75.66 75.72 75.74 75.60 75.52 75.50 75.97 75.77 76.03 76.11 76.35 76.95 75.82 74.72 74.70 75.08 75.52 75.76 75.90 76.24 76.03 75.24 74.84 75.04
73.65 74.37 75.50 76.08 76.63 76.63 76.02 77.57 77.20 76.07 75.85 76.10 76.40 76.65 76.57 77.95 77.53 76.29 76.82 76.44 76.24 76.19 76.38 76.31 76.44 76.86 76.67 75.66 76.18 77.56 74.81 74.69 75.03 75.06 74.67 76.40 75.81 75.86 75.97 76.28 75.37 75.59 75.07
74.16 75.03 76.07 76.35 77.90 76.82 76.51 76.25 76.45 76.41 76.28 76.36 77.58 77.66 77.03 76.99 77.68 75.68 75.18 76.04 77.48 76.80 75.89 76.28 75.63 75.33 75.66 75.10 74.77 74.49 74.36 74.16 73.17 73.98 75.21 75.91 74.99 74.97 75.86 76.54 75.51 76.00 75.43
73.96 74.87 75.56 77.34 77.30 77.59 76.89 75.95 76.36 75.66 75.90 75.56 76.37 78.29 77.55 76.51 76.50 76.21 75.75 75.78 76.93 76.18 76.96 77.11 75.79 75.80 75.53 75.61 74.93 74.45 73.32 72.47 72.15 72.43 76.06 75.89 75.17 74.72 75.86 76.07 76.42 75.97 75.46
74.11 75.21 75.73 76.63 77.53 78.56 78.55 76.36 76.46 76.36 75.36 75.45 76.19 77.45 77.12 76.06 78.06 77.33 77.75 76.21 77.14 77.20 75.61 76.22 76.19 75.75 75.51 75.05 74.08 73.37 72.37 71.48 71.11 71.22 72.97 76.24 75.24 74.64 76.06 76.16 75.90 75.94 75.74
74.29 74.74 75.72 76.59 77.69 77.71 78.34 78.96 77.71 77.04 77.17 75.63 75.65 76.69 77.83 76.97 77.83 76.47 78.07 75.99 76.40 76.48 77.33 76.76 76.34 75.38 75.43 74.42 73.82 72.74 71.80 71.85 72.21 72.25 71.79 75.45 75.85 75.45 75.20 76.39 76.43 75.86 75.82
74.58 75.37 75.62 76.31 77.38 77.80 77.97 78.58 77.14 76.25 75.87 75.75 75.58 77.63 77.46 77.95 77.71 78.08 76.73 76.54 75.70 77.87 77.33 76.98 75.86 77.06 73.55 72.82 71.82 71.17 71.23 71.79 71.67 72.32 71.94 71.48 74.95 76.08 75.54 75.94 77.24 77.16 76.94
75.00 75.22 76.12 75.74 76.34 77.25 77.78 78.32 77.07 76.63 77.08 76.50 76.23 76.21 78.08 78.19 78.48 78.42 76.16 75.34 76.59 76.95 76.77 76.48 75.26 71.50 71.68 70.82 70.28 70.44 70.79 71.24 72.19 71.91 72.69 71.94 71.79 72.37 76.17 76.47 75.47 75.93 76.14
75.33 75.77 75.92 76.61 76.39 77.45 79.70 78.24 78.01 79.19 76.82 77.59 77.90 76.87 77.05 79.13 78.88 77.56 76.31 76.64 77.52 76.60 75.77 75.02 74.39 73.48 70.60 70.02 69.35 69.07 70.67 71.13 71.27 71.26 71.34 72.45 73.16 73.15 72.38 75.93 76.21 75.21 75.08
75.61 76.38 76.71 76.48 78.63 79.72 79.18 81.55 77.18 76.51 77.18 77.18 77.08 76.61 78.31 77.83 78.45 77.84 76.60 77.24 76.93 75.31 74.97 73.84 73.97 72.28 70.98 70.20 68.72 67.59 70.75 71.53 71.07 70.90 71.13 70.52 70.96 72.18 73.09 73.94 75.20 74.51 75.16
75.48 76.00 77.48 77.81 80.27 78.22 76.15 76.97 75.67 74.75 76.09 75.98 76.16 78.71 78.76 78.12 78.93 77.56 76.73 76.80 76.57 76.08 75.29 73.67 71.90 71.66 69.37 71.34 68.15 69.11 69.24 70.49 70.53 70.81 69.30 68.39 68.91 69.39 71.31 72.55 73.14 74.08 75.05
75.07 76.29 78.42 78.96 80.37 79.42 77.33 77.70 77.41 75.49 75.55 75.55 76.43 79.30 78.37 77.90 78.62 77.75 78.19 76.39 76.73 74.01 73.89 72.44 71.62 69.21 69.18 70.78 67.43 66.77 64.74 67.63 71.02 68.76 68.20 67.46 67.55 67.88 68.90 70.74 72.26 73.10 73.82
74.83 76.50 78.28 80.05 80.49 80.38 79.86 79.07 78.67 79.62 77.50 76.80 76.25 76.93 77.62 78.19 78.10 78.40 77.48 77.17 76.16 73.61 68.69 72.55 71.76 70.42 67.64 70.22 71.04 67.20 63.87 63.17 66.30 68.82 68.78 67.26 67.65 66.83 67.71 68.98 69.77 69.76 70.08
75.15 76.51 79.07 80.41 80.86 80.63 80.99 78.64 78.92 75.47 73.64 73.49 74.85 75.15 76.86 78.64 77.70 77.87 77.74 75.65 75.05 71.54 74.40 72.17 71.07 70.94 70.55 68.48 68.94 68.88 69.34 68.13 63.69 62.73 67.59 67.35 67.49 66.97 67.78 67.19 67.33 68.68 68.65
75.09 75.66 77.84 80.58 81.09 81.38 80.48 79.64 77.21 76.69 74.72 74.89 74.06 78.98 79.35 79.82 77.05 76.11 76.15 75.12 73.37 70.45 73.12 72.89 71.61 71.62 71.14 68.37 67.96 67.46 69.96 66.78 67.66 63.31 61.43 64.03 66.89 67.41 67.45 67.35 67.07 66.56 67.77
74.84 75.64 77.38 80.12 80.91 81.33 81.18 79.47 79.58 79.35 77.45 74.80 75.24 74.66 74.88 74.95 75.61 76.25 75.08 75.06 73.84 72.42 72.64 72.10 72.20 71.52 71.06 70.76 69.37 69.19 66.81 65.02 64.85 64.31 62.42 64.15 63.72 65.73 67.21 68.19 67.45 68.01 66.98

GFSSE_sfc_wetblb_012.txt.gz
Wetbulb
71.94 73.43 75.20 75.45 75.52 76.26 77.44 78.17 78.56 78.58 78.96 78.88 79.16 79.31 79.13 79.13 79.15 78.86 78.67 78.74 78.70 78.30 78.05 78.00 77.93 76.87 76.35 76.33 76.13 75.91 75.70 75.92 75.65 75.51 75.19 75.18 75.04 74.17 74.50 73.78 73.02 73.44 75.33
73.18 74.17 75.64 76.94 76.04 76.81 78.10 78.29 78.62 78.55 78.85 78.82 78.97 79.11 78.95 79.00 79.11 78.74 78.57 78.50 78.49 78.11 77.88 77.77 77.50 76.77 76.44 76.08 76.08 75.66 75.11 74.00 75.24 75.28 74.89 74.94 74.44 75.02 74.89 75.03 75.30 73.70 74.72
73.07 74.06 74.91 76.90 77.01 77.01 77.72 78.32 78.48 78.35 78.52 78.79 78.89 78.70 78.88 78.98 78.74 78.62 78.45 77.86 78.00 77.62 77.27 77.08 76.88 76.80 76.77 76.24 75.80 75.47 74.75 74.14 73.88 73.82 74.55 74.38 73.37 75.16 75.02 75.14 75.53 75.22 74.89
73.42 73.70 74.27 77.18 77.51 77.56 78.04 78.13 77.88 78.16 78.04 78.41 78.48 78.40 78.85 78.93 78.58 78.00 77.38 77.07 76.96 77.05 76.66 76.58 76.72 76.61 76.83 76.60 75.91 75.30 74.66 74.16 74.41 74.17 74.32 73.26 71.88 75.24 75.30 75.46 75.38 74.83 74.92
73.26 74.64 75.07 77.49 77.71 77.80 77.85 78.19 78.09 78.00 77.81 78.18 78.30 78.30 78.60 78.63 78.15 77.42 77.19 76.94 76.67 76.67 76.55 76.61 76.67 76.58 76.44 76.66 75.69 75.55 74.63 74.12 75.55 75.65 74.74 73.32 71.50 74.56 75.36 75.40 74.70 74.74 75.55
74.26 74.36 76.18 77.64 77.41 77.79 78.11 77.92 77.85 78.21 77.97 77.97 78.03 78.23 78.51 78.05 77.14 77.33 76.86 76.24 76.07 76.22 76.53 76.86 76.75 76.72 76.47 76.47 76.08 75.28 75.22 74.96 75.32 75.83 74.58 75.16 72.30 75.37 75.62 75.85 75.34 74.68 74.86
74.06 74.32 75.19 77.67 77.84 77.80 78.19 78.36 77.83 78.01 77.63 77.87 77.86 77.99 77.50 77.20 76.77 77.06 76.26 75.78 75.78 76.13 76.63 76.86 76.40 76.16 75.80 75.69 75.83 75.44 75.27 75.38 75.55 74.93 74.50 73.48 73.54 76.14 75.16 75.60 74.88 74.82 74.89
73.79 73.77 74.59 77.22 77.81 78.05 78.12 78.07 78.32 77.80 77.59 77.78 77.52 77.64 77.17 76.77 76.74 76.57 75.58 75.45 75.70 76.26 76.85 76.77 75.98 75.85 75.49 74.91 75.27 76.00 76.00 76.02 74.02 72.74 74.45 73.38 75.34 75.86 75.30 74.28 74.88 75.02 74.86
74.20 74.49 75.14 75.28 76.58 77.74 78.66 78.09 77.71 77.64 77.80 77.57 77.47 77.33 76.81 76.72 76.60 76.42 76.37 75.32 75.83 76.08 76.29 76.26 75.30 75.15 75.15 75.16 75.94 76.22 77.30 78.10 75.26 74.13 74.32 74.13 76.23 76.04 75.68 74.22 74.05 75.35 74.26
74.93 74.85 75.79 76.28 76.03 76.53 76.53 77.77 77.48 77.43 77.24 77.19 77.17 76.75 76.78 76.94 77.16 77.24 77.16 76.97 75.73 75.27 75.61 75.56 75.39 75.28 75.18 75.75 76.22 76.47 77.41 77.50 73.21 69.62 74.00 74.26 76.21 76.38 75.79 75.53 75.49 75.04 74.69
74.12 74.59 75.43 75.58 77.08 77.50 77.11 76.68 77.52 77.11 76.61 76.61 76.53 77.20 77.66 75.92 76.44 76.98 77.73 76.97 76.76 76.31 75.25 76.03 76.80 76.94 76.92 77.00 77.77 78.29 78.26 75.42 73.38 70.86 73.67 75.03 75.83 76.61 76.01 75.59 75.72 75.46 75.06
72.05 74.27 74.33 76.01 76.64 76.76 75.66 77.53 77.60 76.34 74.95 75.62 76.08 76.92 76.08 74.38 76.32 76.83 77.27 76.67 77.45 77.03 70.42 75.47 77.30 76.64 76.18 75.95 76.10 77.80 74.72 73.74 74.22 73.43 72.71 71.65 76.17 76.51 76.32 76.07 76.24 75.48 75.36
73.49 73.93 75.39 76.25 77.19 76.38 76.80 76.62 76.12 75.63 75.60 75.93 78.55 76.42 77.83 74.94 78.57 73.22 74.15 75.03 74.88 74.17 70.63 74.36 76.66 74.65 75.30 74.74 73.87 73.74 72.98 72.89 72.95 74.18 73.88 75.50 76.90 76.34 76.38 76.63 76.20 75.81 75.08
73.69 74.91 75.78 76.31 77.31 78.01 75.84 75.25 76.06 75.59 76.02 75.74 76.89 79.25 79.52 78.00 76.28 73.48 73.14 74.73 72.63 73.43 74.38 76.12 74.77 75.68 75.72 74.64 72.13 71.42 72.71 71.14 70.15 73.09 74.91 76.27 76.39 76.16 76.41 76.43 76.01 75.95 75.82
73.39 74.78 75.69 76.85 77.99 79.08 78.60 77.34 74.98 77.11 75.00 74.46 77.17 78.10 77.17 78.47 76.38 73.36 77.61 78.03 76.29 73.98 76.41 77.33 75.66 76.24 76.24 75.19 74.13 73.59 71.18 71.09 71.41 70.55 74.41 76.39 76.33 76.06 76.58 76.51 76.15 76.21 76.27
73.03 74.82 76.44 76.98 78.49 78.33 78.54 80.54 80.65 77.35 76.96 77.07 74.31 77.27 79.62 79.42 79.11 78.09 78.68 76.60 75.22 75.74 78.09 76.28 76.36 76.14 76.19 75.00 74.36 72.73 71.51 71.54 72.27 72.30 71.67 75.14 76.76 76.36 77.23 76.45 76.83 76.57 76.06
74.25 75.43 75.97 76.60 77.12 77.92 79.83 79.70 80.38 77.34 76.32 74.90 76.85 77.28 78.56 79.26 79.72 79.64 77.83 77.87 77.02 76.13 77.00 76.19 74.97 76.52 72.28 73.82 72.98 71.70 71.68 71.63 72.16 71.52 71.55 72.14 74.97 76.87 76.98 77.44 76.75 76.62 76.74
74.24 75.46 76.40 75.23 76.66 76.59 78.07 79.64 78.20 76.51 76.13 75.36 78.95 74.70 78.74 79.96 79.49 80.32 77.63 73.58 76.37 74.88 76.67 74.70 75.05 74.74 70.70 71.32 70.76 71.62 70.50 71.52 71.52 71.67 71.55 70.59 73.11 73.72 76.09 76.80 76.70 76.39 76.10
75.52 76.38 76.43 77.24 76.77 76.94 78.57 77.90 78.34 77.64 76.87 75.79 77.17 78.67 75.82 76.03 79.66 77.42 77.36 74.90 77.58 77.48 75.98 75.49 74.35 74.16 72.12 70.77 69.22 70.22 70.85 70.94 71.05 70.26 71.29 70.84 71.40 72.89 73.55 75.26 75.82 76.11 75.99
75.45 76.66 76.61 76.95 79.36 77.78 77.92 77.67 77.97 76.41 75.83 76.03 80.31 75.00 76.44 78.08 78.36 77.77 77.36 78.56 78.34 77.29 72.94 75.46 72.22 71.99 71.43 70.33 69.46 68.28 70.52 70.84 70.46 71.30 69.39 70.04 70.06 71.33 73.18 72.82 73.93 74.11 75.32
75.19 76.27 76.42 76.53 78.93 79.00 77.78 75.50 75.93 75.94 75.94 76.30 76.97 78.92 77.65 79.07 79.61 79.51 78.06 77.43 76.07 76.15 71.26 73.01 73.29 71.15 71.00 71.37 69.60 68.27 69.43 70.35 70.50 70.39 67.96 67.74 68.24 69.39 70.64 70.85 71.92 73.12 73.54
74.68 75.46 76.84 76.99 79.04 78.68 78.06 77.59 76.75 76.39 76.60 75.09 77.05 77.63 78.93 78.57 79.41 77.27 77.47 77.13 75.78 75.47 74.28 73.07 72.41 70.62 70.17 71.84 67.92 67.54 63.88 66.32 68.22 67.00 67.58 66.41 66.62 67.74 68.98 70.37 71.23 70.78 72.74
74.11 75.60 76.71 77.59 78.34 78.13 78.76 77.51 77.74 77.24 78.46 76.34 76.92 77.70 77.98 78.82 77.81 75.62 77.58 77.49 76.88 74.81 72.94 73.24 72.71 71.92 68.30 71.08 70.56 67.89 64.29 62.29 65.78 68.11 67.93 66.43 66.91 66.35 67.40 69.04 68.84 68.66 68.39
74.31 76.33 77.30 78.01 78.07 78.81 78.23 77.24 76.40 74.39 74.67 75.46 75.10 76.34 77.49 78.54 78.45 78.74 78.04 77.43 76.27 74.21 74.55 73.22 72.73 71.00 71.84 68.12 69.64 69.47 69.14 67.53 63.53 62.75 67.31 66.85 67.23 66.58 66.94 66.49 67.74 68.30 67.29
74.95 75.79 76.80 78.15 78.34 78.55 78.41 77.61 76.74 76.07 75.09 76.06 76.13 78.71 77.16 78.00 78.03 77.25 77.94 76.97 74.97 73.01 74.93 73.05 72.24 71.40 71.78 70.05 68.22 69.15 69.30 68.37 67.64 62.96 61.19 63.99 66.32 66.80 67.37 67.12 65.73 66.39 67.77
74.73 75.98 76.16 78.14 78.26 78.58 78.90 77.60 78.21 75.66 75.13 75.17 75.36 76.05 76.11 76.61 76.58 78.03 76.50 75.96 74.94 73.22 73.93 73.15 73.31 72.89 71.13 71.58 70.32 70.03 68.44 66.48 64.08 65.21 63.45 63.04 63.02 65.33 66.99 66.58 67.43 67.42 66.51

GFSSE_sfc_wetblb_015.txt.gz
Wetbulb
71.53 72.92 75.49 75.80 76.27 76.92 77.73 78.96 78.95 78.95 79.25 79.31 79.23 79.36 79.02 78.89 78.73 78.97 78.76 78.53 78.22 78.09 77.31 76.86 76.65 76.41 76.41 76.19 75.91 75.65 76.11 75.80 75.69 75.18 75.18 74.50 74.25 74.63 74.64 74.59 75.55 73.84 74.57
71.73 73.65 75.64 75.93 76.57 77.73 77.93 78.87 78.85 78.87 79.23 79.23 79.07 79.20 79.06 78.64 78.22 78.87 78.69 78.17 78.17 78.10 77.01 76.87 76.68 76.46 76.10 75.86 75.47 75.22 75.30 75.67 75.68 75.53 75.03 74.50 74.62 74.83 74.70 74.70 75.45 73.37 73.91
72.48 73.73 74.75 77.01 77.69 77.71 78.31 78.44 78.61 78.78 79.12 79.07 79.16 79.13 79.13 78.35 78.38 78.51 77.94 77.90 78.00 77.75 76.80 76.72 76.80 76.74 76.33 75.78 75.22 74.48 74.84 74.78 74.48 74.70 74.47 72.93 73.05 75.30 75.91 75.43 75.58 74.67 74.86
72.76 73.05 74.38 77.18 77.73 78.19 78.48 78.56 78.54 78.42 78.13 78.77 78.85 79.05 78.84 78.35 78.50 78.01 77.29 77.23 77.20 77.39 76.69 76.61 76.53 76.53 76.61 76.14 75.36 74.92 74.92 74.78 74.50 74.36 73.54 73.26 72.83 74.84 75.62 75.71 75.46 74.42 74.20
72.08 73.11 74.62 77.82 78.04 78.19 78.03 78.56 78.45 78.36 78.09 78.50 78.47 79.05 78.84 78.64 77.93 77.32 77.13 76.86 76.58 77.12 76.92 76.47 76.47 76.33 76.36 76.06 75.53 75.58 75.75 75.81 75.36 74.95 72.88 70.92 70.85 74.56 75.61 75.20 75.10 75.23 75.36
72.28 74.06 76.94 77.95 77.78 78.15 78.38 78.35 78.21 78.15 78.05 78.29 78.45 78.95 78.71 78.40 77.49 77.22 76.78 76.47 76.25 76.39 76.73 76.86 76.56 76.00 75.97 75.95 75.50 75.61 75.81 76.03 75.75 74.24 72.09 72.66 71.30 75.05 74.83 74.72 75.45 75.30 75.00
72.38 74.19 75.79 78.17 78.72 78.56 78.30 78.31 78.44 77.93 77.66 78.18 78.50 78.66 78.65 78.37 77.61 77.14 76.61 76.16 75.94 76.11 76.36 76.50 75.80 75.86 75.14 75.42 75.45 75.36 75.58 75.99 72.75 73.24 73.17 72.01 73.10 76.38 75.80 75.31 74.92 74.91 75.07
72.40 73.55 74.81 77.75 78.44 78.93 78.26 78.01 78.76 78.22 77.74 78.41 78.50 78.53 78.53 78.39 78.28 77.75 76.84 76.05 75.93 75.96 76.33 76.42 76.00 75.67 75.45 75.56 76.24 76.79 75.96 74.25 68.48 68.85 72.49 72.78 75.31 75.81 75.56 74.79 74.88 75.13 75.03
72.64 72.78 74.29 74.92 76.55 78.26 78.97 78.25 78.22 78.35 78.37 78.39 78.62 78.53 78.22 77.86 77.20 77.28 77.23 76.56 75.90 75.56 75.93 76.08 75.91 76.86 76.77 76.88 77.12 76.87 75.82 73.21 67.63 70.56 67.78 71.46 74.94 75.99 74.03 74.83 75.00 74.87 75.11
72.30 73.08 73.15 73.78 74.66 75.59 76.04 77.98 77.57 77.86 77.90 77.88 78.24 77.73 77.65 76.64 76.52 77.05 77.65 77.54 75.54 75.28 75.93 76.47 77.33 77.41 77.07 77.57 77.05 76.11 76.41 75.00 71.46 67.41 67.06 68.15 74.80 76.19 74.78 74.41 75.23 74.68 74.73
72.42 72.60 73.22 73.67 74.02 74.08 74.36 76.01 77.46 77.65 77.70 77.86 77.52 77.94 77.08 74.75 74.24 75.17 73.71 76.91 76.38 76.33 76.61 75.64 77.94 77.78 77.58 78.32 77.66 77.02 76.31 69.70 69.29 69.35 68.48 71.99 75.92 76.29 75.89 75.59 75.36 74.93 74.79
70.94 72.47 73.48 73.70 74.10 74.24 75.33 74.37 74.52 75.04 73.55 73.52 74.14 73.87 74.17 72.55 72.88 76.20 74.82 75.78 76.44 76.18 74.41 73.68 76.01 78.42 76.75 73.80 74.08 76.36 73.06 71.59 70.63 68.82 72.51 75.17 76.19 76.56 76.26 75.64 75.68 75.33 75.16
71.16 72.62 73.38 74.08 74.70 73.87 73.67 74.22 74.51 73.64 72.33 72.49 72.88 73.67 73.05 74.56 74.08 73.06 71.47 73.23 72.70 71.45 68.77 73.40 73.69 74.66 73.43 71.88 70.17 69.91 69.36 71.66 72.85 72.60 71.59 73.93 76.23 76.81 76.59 75.86 75.84 75.03 75.49
70.58 72.86 73.06 74.03 73.74 73.72 74.36 73.96 74.25 73.22 72.46 72.24 73.44 73.86 74.24 73.04 71.57 71.75 71.95 73.12 72.07 70.86 70.65 73.02 71.97 72.54 72.69 71.21 70.34 69.82 67.55 66.59 70.84 72.03 72.70 75.29 76.51 76.79 76.97 76.66 76.17 75.75 75.22
71.17 72.42 72.62 73.86 73.88 74.18 73.31 72.53 72.66 72.76 73.18 73.18 73.91 74.33 72.89 73.07 71.35 71.31 71.28 72.18 71.19 69.82 72.24 72.84 72.24 72.97 71.74 71.50 71.45 70.42 66.56 66.93 67.52 72.21 72.51 76.81 76.31 76.95 77.52 76.61 76.21 76.21 75.87
71.99 72.30 73.16 73.66 74.54 74.97 74.06 73.78 73.69 74.32 73.44 73.13 74.67 74.60 73.39 73.42 73.37 72.46 72.91 72.30 73.43 72.99 74.16 73.33 72.06 71.44 72.85 71.48 71.85 71.77 66.77 68.95 68.30 68.36 72.53 73.24 75.95 75.92 76.83 77.13 76.58 76.17 76.47
72.23 72.75 73.24 73.61 75.18 74.17 74.51 73.72 74.16 71.95 71.30 70.02 72.36 74.84 74.28 74.58 73.64 73.10 72.45 72.76 72.09 73.57 73.50 70.85 72.61 71.17 69.60 71.12 69.09 68.41 67.54 67.56 67.51 67.16 67.85 72.10 73.47 75.63 77.10 76.56 76.42 76.24 76.63
71.98 72.52 73.83 74.89 74.75 73.97 74.02 74.71 73.65 72.50 72.18 72.24 74.03 74.91 74.98 74.72 74.21 73.77 73.19 70.87 72.75 71.19 72.68 71.77 72.39 69.93 69.24 68.47 64.91 65.99 64.00 67.07 68.18 67.81 68.94 70.49 72.36 72.77 75.09 76.09 76.17 75.78 76.14
71.92 73.04 73.27 73.78 73.22 73.61 73.83 74.66 73.66 73.19 74.05 72.51 73.74 73.69 74.81 75.08 75.43 73.05 73.47 72.39 72.38 72.46 70.87 70.61 69.12 69.67 66.37 64.74 64.89 64.22 65.43 66.38 68.52 69.63 68.37 68.20 69.25 71.35 72.48 74.97 75.28 75.39 74.85
72.57 73.29 72.93 73.48 73.06 72.76 74.72 73.10 73.27 73.32 73.10 73.96 73.96 72.46 74.67 74.74 75.43 73.72 72.37 72.61 72.96 71.81 70.52 69.69 69.48 67.82 65.52 65.28 67.32 64.95 64.68 65.15 64.68 66.71 67.48 66.54 66.09 72.08 71.62 71.37 72.13 72.67 75.26
73.02 72.55 72.50 72.57 73.48 73.16 73.61 72.57 72.12 72.41 72.61 71.27 73.03 73.46 74.37 74.42 74.59 74.02 73.26 72.69 73.66 71.54 69.55 70.58 67.92 64.39 64.90 65.45 62.54 63.66 64.46 67.09 64.76 62.78 62.92 62.47 63.66 66.66 69.90 70.41 71.09 72.25 72.32
71.75 72.03 71.92 71.92 74.94 74.39 74.15 73.16 72.63 72.45 73.30 72.72 72.84 74.67 73.92 74.86 74.94 73.17 72.91 72.25 72.67 70.99 68.71 66.34 65.03 64.11 65.12 66.04 61.15 61.31 60.68 64.16 65.31 63.92 62.05 61.93 62.59 64.85 66.75 67.80 66.98 70.20 70.73
71.01 72.25 72.46 72.22 74.96 75.17 74.85 73.63 73.16 73.65 73.21 72.91 72.55 75.19 75.29 75.47 75.24 73.22 73.75 72.71 70.91 68.42 67.39 66.27 65.71 64.99 62.42 66.26 64.24 61.90 58.40 57.82 63.18 63.45 63.50 61.21 62.25 61.05 63.61 65.39 64.93 64.77 69.50
71.29 73.13 73.06 73.56 75.08 74.51 74.71 73.40 71.74 70.56 69.41 70.99 73.09 73.51 75.12 75.52 74.27 73.74 73.37 73.19 70.75 69.24 68.10 66.45 67.00 64.27 65.54 62.27 65.52 64.67 62.76 60.88 58.27 59.50 63.53 62.02 63.43 61.85 61.21 62.63 64.16 63.54 67.35
71.82 72.40 74.11 73.95 74.12 74.84 74.67 73.61 72.75 71.31 71.52 72.67 72.35 72.60 73.82 74.14 74.47 74.93 73.73 72.59 68.76 66.68 68.53 67.54 65.66 64.49 65.81 65.08 63.47 64.44 64.66 62.73 61.63 57.08 56.08 60.91 64.05 63.65 64.02 60.93 63.36 63.09 63.54
72.02 73.18 74.23 74.19 74.24 75.30 74.14 74.18 73.62 72.53 71.67 70.58 70.16 72.65 73.79 73.40 73.43 74.48 73.77 70.31 68.35 66.83 67.75 66.88 66.50 66.30 65.34 65.24 63.80 63.84 63.30 60.12 59.83 58.97 57.35 56.73 58.43 61.69 62.94 64.67 62.80 61.60 63.48

GFSSE_sfc_wetblb_018.txt.gz
Wetbulb
70.80 72.62 75.49 75.97 76.67 78.38 78.85 78.73 79.00 79.08 79.11 79.03 78.91 78.69 78.12 78.19 77.97 77.83 77.95 77.25 77.03 76.82 76.59 76.60 76.46 76.25 75.61 75.41 75.90 75.78 75.44 75.49 75.22 75.03 74.21 74.04 74.64 74.72 74.98 75.21 75.22 72.64 73.64
71.85 73.01 76.10 76.26 76.97 78.57 78.51 78.44 78.93 79.01 78.98 78.96 78.85 78.45 77.76 77.55 77.55 77.39 77.54 76.83 76.86 76.71 76.68 76.63 76.38 76.11 75.70 75.50 75.58 75.37 75.13 75.15 75.41 75.15 74.33 73.97 74.23 74.42 75.01 75.13 74.45 71.96 73.57
71.81 73.15 74.61 77.02 78.05 78.11 78.34 78.80 78.72 78.79 78.43 78.99 78.95 78.26 77.51 77.60 77.46 77.39 77.03 76.87 76.85 76.50 76.45 76.48 76.61 76.31 75.67 75.45 75.23 74.90 74.63 74.41 74.75 74.98 74.45 72.43 73.24 74.80 75.49 74.99 73.77 74.46 74.62
72.75 73.15 74.69 77.39 77.95 77.98 78.38 78.54 78.65 78.28 78.15 78.98 78.76 78.18 77.62 77.52 77.46 77.04 76.80 76.66 76.55 76.59 76.45 76.40 76.01 76.32 76.04 75.62 75.64 75.04 74.93 74.58 73.70 74.63 72.55 72.47 72.21 75.46 75.28 75.10 74.47 74.27 74.20
72.27 73.37 74.75 77.94 78.21 77.93 78.09 78.42 78.42 78.25 77.55 78.17 78.32 77.50 77.23 77.27 77.15 76.78 76.64 76.50 76.48 76.50 76.43 76.15 76.02 75.74 75.71 75.71 75.64 75.03 75.21 76.23 75.44 74.77 72.45 70.48 71.11 74.88 75.18 75.14 73.68 74.55 74.90
72.20 73.83 76.46 77.98 77.33 77.67 77.97 77.87 77.62 77.46 77.50 77.75 78.40 77.48 77.28 77.29 77.01 76.51 76.38 76.18 76.35 76.54 76.32 75.77 75.49 75.02 75.38 75.89 75.71 76.02 76.54 75.97 74.18 72.50 70.30 72.97 71.20 75.11 74.84 75.17 75.01 74.72 74.84
72.42 74.11 75.13 77.75 78.10 78.17 77.93 77.62 77.54 77.15 76.99 77.75 78.27 77.48 77.19 77.34 76.85 76.52 76.13 76.02 76.16 76.21 76.05 75.57 74.99 75.32 75.13 75.71 75.28 76.19 75.44 74.94 72.17 72.06 73.12 71.84 72.36 75.86 75.21 75.52 74.98 74.69 73.44
73.05 74.39 75.22 77.54 78.21 78.02 77.64 77.29 77.54 77.02 76.89 77.55 77.83 77.58 77.49 77.39 77.07 76.30 75.77 75.96 76.13 76.38 76.38 75.79 75.43 75.63 76.01 75.64 75.90 75.80 73.70 73.92 72.20 71.43 71.75 70.94 73.71 76.14 75.56 75.08 74.72 74.98 73.34
73.59 73.94 74.69 75.54 75.87 77.36 78.17 77.64 77.45 77.18 76.89 77.32 77.60 77.48 77.70 77.23 76.52 75.49 75.74 75.68 75.84 76.01 76.18 76.10 75.74 76.21 76.15 75.63 76.21 76.71 74.35 71.63 69.36 70.21 69.97 69.03 75.31 75.84 75.05 75.06 74.98 75.00 73.98
72.58 73.42 73.30 73.89 74.84 75.86 75.91 77.87 77.87 77.47 77.19 77.36 77.53 77.07 76.86 76.63 76.29 75.93 77.07 76.06 75.59 75.08 76.13 76.18 76.30 76.76 75.94 76.25 74.77 76.06 74.47 72.92 70.40 68.33 68.95 70.93 75.29 74.74 74.92 74.95 74.93 75.05 74.58
71.48 72.58 73.19 73.43 74.08 74.71 74.46 75.84 77.58 77.85 77.49 77.53 77.10 77.38 77.40 74.02 73.74 75.26 74.75 75.63 75.56 75.96 74.21 73.31 75.54 77.53 77.21 76.88 77.16 75.76 76.71 71.36 69.57 68.23 67.62 70.41 74.81 75.42 74.63 75.06 75.06 74.11 74.94
69.98 71.19 72.75 73.45 73.86 74.11 75.44 73.90 73.84 74.57 74.45 74.34 74.42 73.81 74.16 72.64 72.26 75.49 75.11 74.94 75.79 75.04 73.80 75.12 76.34 77.02 75.31 71.97 72.37 74.40 71.35 68.09 68.66 68.77 69.27 72.10 74.79 76.13 75.47 75.27 74.88 74.69 74.77
70.57 71.65 72.18 72.87 73.58 73.41 73.40 73.47 73.40 73.30 72.36 72.26 72.68 72.29 72.63 73.16 73.34 73.03 71.66 72.53 71.56 70.54 66.74 71.98 72.87 72.38 72.55 72.08 69.54 67.76 70.15 68.07 69.07 69.48 71.93 74.74 76.30 76.12 76.37 75.38 75.49 75.04 74.97
70.57 71.72 72.50 72.99 73.10 72.80 72.55 73.70 73.56 73.14 71.77 70.67 71.44 71.87 71.76 71.55 71.42 71.23 70.41 71.85 71.43 69.69 69.71 71.36 71.20 71.24 71.74 70.93 69.31 68.67 67.02 70.76 70.66 71.14 71.05 74.33 75.83 76.05 76.15 75.82 75.70 75.18 75.39
70.51 71.66 72.45 73.14 73.12 72.80 72.41 72.62 71.94 72.38 71.58 71.32 71.14 72.91 72.76 71.52 70.17 70.55 70.89 71.84 71.47 70.07 70.88 71.16 71.73 71.86 71.96 71.09 71.98 70.02 66.50 67.67 70.89 71.06 70.61 74.92 75.09 76.60 76.70 76.30 75.86 75.31 75.29
70.81 71.49 72.65 72.88 73.09 72.96 72.72 71.46 71.60 72.10 71.76 71.51 72.71 73.57 72.95 71.94 70.77 69.99 70.19 71.55 71.03 70.56 69.48 71.86 70.91 70.38 70.87 69.45 69.83 70.28 69.41 66.58 69.48 70.71 71.05 72.40 75.81 76.17 76.79 76.51 75.99 75.95 75.74
71.12 71.87 71.95 72.80 73.10 72.96 72.39 71.97 72.10 72.47 72.97 72.79 72.95 73.36 72.74 72.73 71.96 72.11 71.95 71.29 71.14 72.01 72.61 70.39 70.74 70.73 68.01 68.82 65.84 66.14 65.88 66.55 67.84 68.99 71.05 71.05 72.77 76.18 76.24 76.98 76.73 76.34 75.64
71.40 71.25 72.04 73.89 73.17 72.72 73.16 72.29 72.95 72.59 70.25 70.82 72.67 73.02 73.22 73.22 73.42 72.00 72.39 70.42 71.41 71.50 71.53 70.37 70.30 68.90 67.15 64.60 62.26 63.15 63.58 66.09 67.43 66.29 67.41 69.62 71.42 72.10 74.86 75.72 75.73 75.86 75.52
71.66 71.52 71.44 72.39 72.79 72.22 73.06 73.49 72.30 71.14 72.06 71.83 72.56 72.98 73.07 73.77 74.04 72.40 72.00 71.57 70.70 72.34 70.30 70.08 68.94 68.48 65.22 63.09 64.12 62.73 64.17 64.02 67.36 68.59 66.95 69.92 70.26 71.34 71.42 74.58 74.92 75.31 74.68
71.99 72.06 72.21 72.15 72.55 72.64 72.84 72.65 71.77 71.38 72.08 71.62 72.02 72.50 74.30 73.97 74.09 71.71 71.79 71.82 71.33 70.45 69.80 68.72 67.26 66.38 64.15 64.30 66.90 63.99 63.43 62.98 65.22 65.43 63.65 66.31 70.22 71.02 70.60 70.34 72.13 72.09 74.70
71.37 71.69 72.03 71.71 72.04 72.11 72.33 70.83 69.91 69.68 70.87 71.13 72.33 71.66 73.17 73.62 74.29 72.16 71.62 71.97 71.76 70.59 68.64 68.14 66.66 62.87 62.99 64.23 60.19 61.83 63.73 64.22 61.89 61.61 61.13 63.64 66.63 68.06 69.76 69.83 70.69 72.28 72.72
70.82 71.66 71.78 71.71 71.30 71.50 72.55 72.48 70.75 70.83 71.52 71.81 70.67 71.71 73.04 73.04 73.45 72.83 72.18 71.36 71.31 68.59 67.34 65.03 63.48 62.51 63.46 63.50 59.61 59.79 58.90 62.84 62.76 62.33 59.86 63.90 64.35 66.38 67.34 68.43 69.32 70.02 69.24
70.60 71.06 71.24 71.86 71.77 71.64 72.15 71.95 71.31 71.98 72.33 71.38 70.82 71.96 73.08 73.43 73.74 73.10 72.00 71.66 70.72 69.48 66.90 64.91 64.25 62.82 60.78 63.59 62.01 60.52 57.16 57.21 61.96 62.91 60.41 60.38 60.61 61.40 63.62 64.03 67.34 68.95 68.21
70.31 71.56 71.41 72.54 72.54 72.50 72.77 72.10 71.10 70.42 69.79 70.32 70.59 72.32 73.15 73.72 73.65 72.54 72.37 71.59 67.84 68.12 65.80 65.19 66.03 64.30 62.76 60.89 63.84 63.31 60.89 59.75 57.53 57.12 61.00 59.43 60.13 60.03 61.17 62.86 62.70 66.34 67.47
70.68 70.88 71.17 71.36 73.22 73.50 73.33 72.46 71.62 70.19 70.40 69.95 70.77 71.19 72.53 73.66 73.37 73.02 72.35 71.48 67.70 67.22 66.51 65.50 64.59 63.66 64.74 62.78 62.00 62.68 61.74 61.16 57.29 55.75 55.99 57.96 61.24 60.88 59.93 59.91 62.75 62.68 67.00
70.48 71.41 71.41 70.70 73.00 73.74 73.48 72.64 71.46 70.38 69.63 68.98 69.65 70.07 72.12 73.38 73.16 72.90 73.00 71.20 67.19 66.45 67.02 65.44 64.21 63.41 64.45 64.62 63.07 63.21 61.78 57.96 58.26 56.75 55.58 55.51 56.50 59.97 60.90 61.52 60.75 61.62 63.12

GFSSE_sfc_wetblb_021.txt.gz
Wetbulb
70.94 72.39 75.00 76.34 76.81 77.81 78.55 78.56 78.68 78.74 78.71 78.56 78.17 77.98 77.45 76.92 77.10 77.09 76.95 76.60 76.39 76.37 76.30 76.22 76.28 75.98 75.69 75.77 75.52 75.51 75.45 74.96 74.57 73.85 74.03 74.54 74.97 75.09 74.77 74.91 73.92 72.08 74.92
71.25 72.74 75.63 76.44 77.43 78.30 78.26 78.32 78.35 78.69 78.27 77.86 77.85 77.55 76.88 77.01 77.10 76.92 76.67 76.61 76.43 76.57 76.33 76.28 76.12 75.97 75.88 75.58 75.11 75.48 75.13 75.04 74.63 74.13 73.74 74.66 74.28 74.78 75.09 74.88 73.15 71.74 73.68
71.06 72.74 74.26 76.63 77.71 77.63 77.88 78.34 78.02 78.17 77.91 77.67 77.50 77.20 76.91 77.18 76.96 76.86 76.82 76.55 76.34 76.21 75.99 76.59 76.43 75.87 75.63 75.47 75.14 74.89 74.26 74.44 75.12 74.29 74.75 72.51 72.12 75.16 75.10 73.73 73.83 74.20 74.42
72.22 72.62 74.12 76.52 77.94 77.30 77.93 78.02 78.20 77.75 77.69 77.45 77.24 77.28 77.26 77.08 76.82 76.67 76.45 76.15 76.15 76.04 75.94 75.94 76.02 76.21 75.85 75.35 75.06 74.78 74.67 74.42 75.17 74.67 72.06 71.49 72.69 75.28 74.93 74.00 74.57 74.21 74.30
72.16 73.28 74.28 77.16 78.09 77.21 77.39 77.75 77.96 78.28 77.37 77.14 77.12 77.21 77.16 76.93 76.62 76.29 76.02 75.96 75.93 75.97 75.94 76.11 75.91 75.74 75.93 75.47 74.60 74.73 74.95 75.21 75.43 73.85 71.21 70.20 71.63 74.42 74.84 74.00 73.79 74.51 74.54
72.32 73.60 75.67 77.47 77.09 77.10 77.04 77.06 77.09 77.34 77.47 77.12 77.05 76.97 77.09 76.72 76.33 76.00 75.86 75.70 75.70 75.86 76.17 75.70 75.81 75.61 75.75 75.42 75.32 75.54 75.48 74.18 74.04 72.04 70.18 73.11 71.74 74.85 75.09 74.16 74.64 74.74 74.80
72.01 73.52 75.00 77.77 77.78 77.22 76.97 76.84 76.60 76.82 77.30 77.43 77.00 77.02 77.19 76.75 76.23 75.81 75.54 75.37 75.54 76.20 76.34 75.65 75.67 75.70 75.37 75.32 75.75 75.45 75.76 75.33 71.25 71.78 71.94 71.21 71.57 75.10 75.04 75.17 75.08 74.62 74.61
72.51 73.45 74.65 76.84 77.33 77.12 76.84 76.94 76.68 76.52 76.85 77.25 77.09 76.97 76.97 76.73 76.20 75.76 75.32 75.31 75.84 75.98 76.04 75.84 75.67 75.53 75.12 75.40 75.92 75.15 74.49 74.81 71.85 70.13 71.63 72.18 74.02 75.37 75.16 75.16 74.61 73.25 74.21
73.43 73.56 73.90 73.91 75.28 77.02 77.13 76.84 76.76 76.44 76.76 77.16 76.93 76.86 76.79 76.76 76.09 75.59 75.06 75.31 75.06 75.31 75.70 75.82 75.70 75.34 75.40 75.73 75.94 75.11 74.25 74.91 70.28 70.89 70.68 70.86 75.96 75.63 75.19 74.50 74.75 73.68 73.52
73.29 73.65 73.59 73.56 73.38 74.19 74.75 76.85 76.88 76.69 76.66 76.96 76.88 76.72 76.68 76.48 75.98 75.73 76.31 75.47 75.37 74.83 75.59 75.94 75.80 75.62 75.34 75.51 76.00 76.19 74.69 72.95 69.33 68.91 68.72 69.10 75.96 75.25 74.83 74.47 74.65 74.53 72.95
72.02 72.79 72.94 73.42 73.67 74.46 74.64 75.69 76.96 77.10 76.86 76.88 76.84 76.84 76.80 73.66 73.43 74.63 74.93 74.95 75.37 75.34 74.54 74.48 74.32 76.75 75.74 75.34 77.49 77.00 75.57 71.24 69.26 67.73 67.65 71.68 75.25 74.43 74.51 74.98 74.61 74.67 74.19
69.97 71.77 72.98 72.96 74.09 73.99 75.54 73.94 74.23 74.57 74.22 74.44 74.45 73.89 74.21 72.48 72.00 74.58 74.77 75.48 75.42 75.64 72.40 75.02 76.04 75.85 74.38 71.03 70.13 74.60 73.16 70.43 68.37 67.51 66.73 71.22 74.58 74.81 74.73 74.68 74.58 74.33 74.79
69.96 71.27 72.55 73.00 73.99 73.59 73.71 72.81 73.04 73.01 72.99 73.12 73.05 72.49 72.70 72.35 71.10 73.41 71.66 71.91 71.26 70.62 65.78 70.34 71.48 71.18 71.82 70.69 68.48 67.10 69.59 67.41 68.18 67.81 69.13 73.18 74.56 75.57 75.23 74.92 74.77 74.39 74.70
69.40 70.36 71.89 72.95 73.25 72.95 72.07 72.98 72.74 72.49 71.77 70.87 71.15 71.48 70.80 71.20 70.88 71.27 70.11 70.59 70.64 69.79 67.62 70.51 70.57 71.75 71.11 70.42 68.25 67.01 68.39 67.33 68.72 69.20 70.16 74.07 75.49 75.69 75.30 75.46 75.60 74.84 74.75
69.13 70.44 71.21 72.44 72.71 72.73 71.03 72.80 71.71 71.53 71.54 70.40 70.08 71.18 71.55 70.75 70.03 70.34 69.93 70.36 70.66 70.04 69.94 69.69 70.25 70.82 70.90 70.44 70.05 68.54 65.64 69.36 69.91 70.05 69.74 74.08 75.43 75.94 75.42 75.01 75.69 75.00 74.93
69.97 70.74 71.53 71.61 72.22 72.21 71.35 70.80 71.47 71.65 71.18 70.38 70.62 71.40 72.37 71.19 69.97 69.73 69.57 70.05 70.61 70.52 68.96 69.77 70.76 69.94 70.39 68.59 69.17 68.44 68.54 65.35 69.54 70.15 69.79 70.73 75.35 76.04 76.52 75.15 75.22 75.34 74.89
70.28 71.35 71.18 71.85 72.19 71.65 71.30 71.35 70.68 71.13 71.67 70.68 71.32 72.71 72.28 71.72 70.44 69.94 69.64 70.68 70.92 71.08 70.78 70.65 69.49 69.48 67.81 66.17 65.32 64.59 65.06 65.83 69.61 69.55 69.84 70.14 71.69 75.68 76.56 76.42 75.85 75.35 74.92
70.41 70.58 71.71 73.03 72.48 71.80 71.70 71.30 71.43 71.01 70.95 71.47 72.54 71.83 72.41 72.44 71.54 70.64 70.78 70.55 70.27 71.11 70.82 69.40 69.50 68.04 65.81 65.02 63.56 62.65 62.52 65.58 65.99 67.56 69.12 70.00 70.46 71.13 73.71 75.81 75.94 75.69 74.71
70.32 70.84 71.01 72.18 71.96 71.85 71.94 71.69 71.35 71.86 70.89 70.70 70.77 71.65 72.13 72.61 72.94 71.54 71.64 70.22 70.37 70.18 70.00 69.59 67.88 67.26 64.16 62.55 63.92 61.90 63.50 63.30 66.87 67.19 66.10 69.51 70.14 70.89 70.58 74.39 74.35 75.41 74.53
70.63 71.05 71.03 71.75 72.04 72.19 72.07 72.14 70.86 70.07 70.85 70.71 71.41 71.80 72.31 72.73 73.28 71.77 71.13 70.97 70.01 70.04 69.10 67.99 66.80 65.37 62.96 63.22 65.95 62.67 62.96 62.49 64.43 63.68 63.14 68.51 68.99 70.36 69.85 69.75 71.01 71.73 74.36
70.40 70.38 70.45 71.00 71.59 71.54 71.26 70.97 69.57 69.70 69.92 70.38 70.92 71.79 72.45 72.80 73.35 71.08 70.57 71.15 70.37 69.32 68.50 67.34 66.09 62.74 61.31 62.87 59.05 59.59 62.68 61.63 61.03 60.29 62.14 67.36 67.79 68.76 68.86 68.87 69.88 71.24 72.49
69.51 70.33 70.49 70.73 70.80 71.43 71.53 72.16 70.79 69.61 69.76 70.42 71.35 70.98 72.44 73.23 73.25 71.67 70.76 70.94 70.81 69.57 67.61 66.58 63.01 61.67 62.36 62.23 59.00 58.42 57.85 61.29 60.61 60.43 59.96 65.69 66.30 67.63 68.14 68.97 69.32 69.63 69.34
69.06 70.04 70.57 70.86 70.93 71.21 71.55 71.58 70.20 70.69 70.90 69.95 69.31 70.04 71.01 72.39 72.76 73.17 71.49 71.06 70.43 68.24 66.63 64.18 63.30 62.07 60.18 62.85 60.81 59.92 56.95 56.35 58.82 60.29 58.97 62.16 63.12 63.84 64.28 66.29 68.19 68.09 66.77
69.22 70.59 70.90 71.32 71.05 71.03 71.29 70.88 70.86 69.56 68.77 69.57 69.88 70.58 71.23 72.24 72.94 72.44 71.83 71.11 69.93 69.54 66.59 64.55 64.46 62.30 61.44 61.65 62.69 62.02 59.59 59.45 56.36 54.79 59.19 58.74 58.81 59.49 61.81 62.17 65.39 67.74 67.26
69.62 70.18 71.10 71.08 71.15 70.98 70.90 71.15 70.62 69.09 69.34 69.73 70.10 70.42 71.29 71.95 72.18 72.49 71.66 70.79 67.41 67.73 66.25 64.92 64.06 63.85 62.59 60.61 60.96 60.70 60.11 59.84 55.98 56.01 54.06 56.96 59.71 59.58 58.90 61.48 61.66 62.64 67.49
69.50 70.34 70.77 70.54 70.81 71.18 70.85 70.85 70.43 69.86 68.70 68.31 68.72 69.39 70.05 71.61 71.84 71.79 71.73 70.97 68.08 66.38 65.67 64.91 64.28 63.11 64.26 63.36 62.76 62.60 60.93 56.97 57.72 55.56 54.94 55.33 56.10 58.34 60.12 60.03 59.40 61.38 63.80

GFSSE_sfc_wetblb_024.txt.gz
Wetbulb
70.58 72.31 75.10 75.46 76.96 77.36 77.94 77.74 78.45 78.61 78.56 78.31 78.43 77.80 77.06 76.77 76.73 76.81 76.69 76.42 76.46 76.32 76.49 76.36 75.64 75.80 75.73 75.31 75.78 74.99 74.83 74.30 73.60 74.00 74.44 75.29 75.34 74.85 74.85 74.31 74.45 74.04 75.58
71.34 73.02 75.33 75.38 76.76 77.71 78.09 78.31 78.51 78.28 78.09 77.99 77.91 77.53 77.12 77.15 76.91 76.58 76.59 76.51 76.72 76.59 76.26 76.07 75.88 75.83 75.34 75.28 75.21 75.33 74.99 74.58 73.74 73.96 74.80 74.85 74.92 74.85 75.11 73.56 73.65 73.89 75.13
70.84 72.79 73.95 76.41 77.58 77.98 78.07 78.28 77.88 77.50 77.35 77.54 77.58 77.25 76.98 76.84 76.64 76.68 76.41 76.20 76.13 76.05 76.04 76.21 75.94 75.56 75.35 75.22 74.71 74.59 74.64 74.76 74.15 74.57 74.78 73.38 73.97 75.01 74.00 73.41 73.54 73.86 74.44
71.73 72.40 73.46 75.88 77.74 77.82 77.83 78.14 78.12 77.17 77.10 77.21 77.21 77.23 77.14 76.76 76.58 76.34 76.21 76.04 76.19 76.17 75.96 75.74 75.61 75.58 75.07 74.87 74.62 74.72 74.51 75.01 74.40 74.69 73.13 72.86 73.74 75.09 73.90 75.15 74.59 74.74 74.92
71.43 72.89 73.60 77.09 77.97 77.68 77.57 78.10 78.31 77.69 77.14 77.10 77.04 77.14 76.76 76.64 76.23 76.02 76.02 76.07 76.07 76.15 76.16 76.00 75.72 75.04 75.15 74.38 74.38 74.60 75.03 75.19 75.30 73.45 72.20 73.09 74.01 74.59 74.56 74.45 74.55 74.68 74.54
71.99 73.36 75.71 77.45 77.24 77.35 77.53 77.65 77.61 77.03 76.78 76.86 76.91 76.95 76.75 76.40 76.14 75.83 75.89 75.94 76.21 76.27 75.92 75.78 75.45 75.51 74.90 74.59 74.73 75.24 74.81 74.72 75.15 72.51 71.85 74.49 74.12 75.24 73.74 74.59 75.26 75.23 74.65
72.25 73.22 74.60 77.57 77.62 77.40 77.07 77.31 77.21 77.14 77.06 76.91 77.06 77.04 76.74 76.36 75.90 75.68 75.48 75.70 76.20 76.45 75.98 75.82 75.65 75.35 75.04 74.99 74.86 75.21 75.27 75.15 72.32 72.39 73.17 73.02 73.96 75.57 74.68 74.84 74.95 74.85 74.89
72.53 73.43 74.56 77.05 77.20 76.94 76.82 76.68 76.82 77.02 77.23 77.06 76.88 76.85 76.68 76.31 75.92 75.54 75.35 75.79 76.26 76.23 76.26 75.60 75.51 75.37 74.96 75.42 75.16 75.30 75.04 74.02 70.76 72.48 72.69 72.91 74.98 75.33 74.95 75.13 74.50 74.69 74.69
73.12 73.23 73.90 74.28 75.75 76.91 76.71 76.58 76.44 76.59 77.04 77.08 76.85 76.56 76.70 76.30 75.48 75.04 75.04 75.68 75.62 76.15 76.09 75.65 75.40 75.37 75.21 74.99 75.49 74.55 75.02 74.94 71.45 71.92 71.81 73.18 75.36 75.47 75.07 74.24 73.79 73.39 74.44
72.79 73.12 72.65 72.85 73.31 73.92 74.36 76.88 76.56 76.36 76.64 76.96 76.75 76.54 76.16 75.95 75.45 75.45 75.68 75.54 75.71 75.65 74.95 75.57 75.48 75.54 75.76 75.37 75.10 75.85 74.19 74.29 71.22 71.26 70.54 71.77 75.79 75.37 75.10 73.77 74.79 72.64 74.57
72.39 72.54 72.75 72.51 72.51 73.79 74.14 74.85 76.45 76.57 76.40 76.58 76.44 76.57 75.88 74.83 74.19 75.07 75.02 74.90 75.43 75.54 74.71 74.14 74.82 76.64 75.58 75.12 76.25 75.68 75.22 72.09 70.11 69.32 68.74 70.67 74.69 75.06 74.68 74.50 74.31 73.29 73.45
70.20 72.03 72.54 72.65 72.77 74.04 75.11 74.66 74.42 74.53 74.53 74.40 75.13 74.90 75.27 74.29 73.85 75.30 75.43 75.53 75.46 75.51 71.80 75.01 75.98 75.33 74.13 72.27 71.15 75.00 74.37 71.95 69.83 69.28 68.84 71.35 74.75 74.57 74.27 74.88 74.38 74.53 73.98
70.03 71.94 72.66 72.87 73.39 73.86 74.31 73.58 73.72 73.95 74.12 74.23 74.27 74.22 73.93 73.72 72.67 74.30 73.30 72.96 73.00 72.25 67.84 71.81 72.13 72.67 72.99 71.47 69.90 70.12 72.10 71.26 69.78 69.21 68.89 71.86 74.26 74.86 74.68 74.62 74.55 74.27 74.26
69.37 71.04 72.33 73.06 73.60 73.34 73.03 73.18 73.16 72.91 72.86 72.68 72.99 72.99 72.11 72.50 72.23 73.15 72.13 71.66 72.51 71.83 70.14 72.33 72.50 72.92 72.66 71.55 69.96 70.04 69.95 69.15 70.07 69.99 70.76 73.33 74.01 74.66 74.60 75.11 74.57 74.62 74.48
68.82 70.36 71.75 72.82 73.35 73.23 71.84 72.64 72.39 72.36 72.57 71.70 71.41 71.88 72.14 71.15 71.34 72.24 71.90 71.57 72.31 72.37 71.59 71.53 72.29 72.55 73.12 72.16 71.81 69.51 69.33 70.60 71.03 70.91 71.61 72.94 74.47 75.13 74.55 74.73 75.62 75.02 74.56
68.98 69.71 71.30 72.30 72.91 73.09 71.80 71.53 72.16 71.80 71.79 71.58 70.82 71.03 72.43 72.08 71.64 71.61 71.36 71.59 72.03 72.22 71.68 72.04 72.58 72.05 71.53 69.69 70.07 70.82 70.78 68.63 70.95 71.56 71.77 71.47 74.95 75.15 75.10 75.08 74.50 75.38 74.76
69.13 69.72 70.36 71.42 72.48 72.23 71.70 70.72 71.05 71.69 72.05 71.21 71.03 71.73 72.86 72.70 72.13 71.74 70.95 71.26 72.25 72.72 72.84 72.41 71.75 72.06 69.84 67.88 66.60 67.40 68.09 68.66 69.40 71.75 71.86 71.61 72.89 74.02 75.34 74.98 74.95 74.20 74.54
69.81 69.92 70.87 71.84 71.84 71.64 71.31 70.91 70.72 70.83 71.04 71.50 71.53 72.30 72.84 72.98 72.78 71.95 71.37 72.11 72.60 73.02 72.74 71.63 71.83 70.94 68.46 66.20 66.70 65.98 66.64 68.57 69.17 71.15 71.42 72.08 72.30 72.75 73.92 74.89 75.15 75.65 74.35
69.95 70.35 70.62 71.48 71.12 71.28 71.07 70.94 71.14 70.88 70.76 71.17 71.59 71.89 72.81 73.23 73.40 71.97 72.00 72.64 72.05 72.19 71.50 71.53 70.19 69.71 66.73 66.12 67.10 65.86 66.56 66.86 67.98 68.64 69.00 70.65 71.31 72.86 72.37 74.15 74.51 74.91 73.82
70.23 70.67 70.92 71.48 71.68 71.63 71.26 71.31 71.10 71.47 71.42 71.51 70.99 71.64 72.78 73.13 73.69 72.75 72.49 72.43 71.78 71.68 70.82 70.33 69.96 67.65 66.31 66.18 65.15 65.24 65.86 65.74 67.60 67.30 67.26 70.33 71.54 72.54 72.33 72.51 73.63 73.71 74.16
69.77 70.08 70.35 70.85 71.50 71.41 70.71 70.30 69.98 70.09 70.49 71.11 71.47 72.49 72.81 73.09 73.67 73.14 72.39 72.38 71.43 71.61 71.22 70.16 68.44 66.99 64.98 65.17 63.66 64.15 65.34 64.21 63.91 63.97 68.33 70.50 71.43 71.75 71.43 71.49 72.19 72.78 73.55
68.85 69.78 70.25 70.67 71.32 71.49 71.52 71.56 71.43 71.04 70.38 71.86 72.19 72.46 73.03 73.18 73.56 73.08 72.22 72.01 71.87 71.58 70.42 69.49 67.51 64.91 64.71 64.48 62.88 61.83 61.89 63.78 64.22 63.54 65.86 67.99 69.28 70.52 70.58 71.29 72.28 72.37 72.15
68.07 69.24 69.89 70.57 71.24 71.73 71.82 71.56 70.52 70.92 71.03 70.71 71.00 71.55 71.89 73.48 73.66 73.52 72.33 72.38 72.09 71.60 70.01 68.70 66.67 65.65 64.31 65.80 64.00 63.59 60.50 60.38 62.02 63.56 63.74 64.64 66.90 67.81 68.11 69.84 70.80 70.77 69.98
67.95 69.81 70.31 70.55 70.87 71.48 71.75 71.05 70.82 70.05 69.25 70.20 70.50 71.05 71.69 72.91 73.46 73.67 73.14 72.51 72.13 71.28 69.30 68.25 66.76 65.55 65.17 65.25 65.11 63.75 63.23 63.53 60.80 59.88 63.21 63.07 63.40 64.49 65.89 66.63 69.28 70.31 69.81
69.10 68.97 70.08 70.35 70.62 71.07 71.31 71.12 70.69 70.45 70.75 70.27 70.70 70.77 71.23 72.04 72.65 73.22 73.21 72.61 71.81 71.11 70.56 68.29 66.76 66.41 65.05 65.03 64.43 63.33 63.10 61.70 60.45 60.34 58.98 61.35 63.12 64.00 63.44 65.60 65.72 67.33 70.08
69.04 69.25 69.91 70.04 70.23 70.82 70.84 70.92 70.36 70.32 69.15 69.30 69.95 70.07 70.78 71.95 72.25 72.85 72.97 72.58 71.66 69.90 69.94 68.50 67.49 66.92 66.62 65.62 65.20 65.25 64.15 62.31 61.25 59.82 59.60 59.91 60.78 63.07 64.05 63.95 64.07 65.50 66.38

GFSSE_sfc_wetblb_027.txt.gz
Wetbulb
71.80 73.46 75.28 75.78 76.09 76.57 77.47 78.11 78.12 78.61 78.48 78.32 78.36 77.91 77.19 76.88 76.95 76.73 76.69 76.45 76.48 76.34 76.35 75.93 76.03 75.90 75.38 75.73 75.15 75.12 74.62 74.00 74.21 74.40 75.19 75.17 74.82 74.84 75.00 75.35 75.24 75.04 75.68
73.09 73.89 75.27 76.14 76.72 77.41 77.42 77.94 77.99 78.55 78.32 78.19 77.81 77.11 77.15 76.95 76.80 76.74 76.61 76.70 76.78 76.39 76.19 75.95 75.85 75.58 75.44 75.45 75.47 75.40 74.93 74.08 73.86 74.76 74.85 75.37 75.12 75.26 74.09 74.49 74.77 75.36 75.60
72.35 73.51 74.34 76.44 77.15 77.51 77.62 78.19 78.21 78.14 77.72 77.63 77.64 77.34 77.06 76.81 76.81 76.79 76.41 76.26 76.30 76.35 76.18 76.04 75.79 75.71 75.27 75.14 75.21 74.82 75.01 74.52 74.11 74.93 74.38 74.63 74.58 74.76 73.42 73.64 74.84 75.20 75.22
72.80 73.53 74.68 76.58 77.74 77.44 78.01 78.32 78.30 77.40 77.37 77.29 77.25 77.15 76.98 76.73 76.65 76.47 76.45 76.43 76.60 76.33 75.88 75.65 75.60 75.24 75.13 74.61 74.44 74.61 74.87 74.88 74.50 74.74 74.54 74.57 74.39 73.84 74.52 74.48 74.98 74.74 74.40
73.13 74.46 75.25 77.39 78.12 77.99 78.05 78.17 78.09 77.74 77.26 77.19 77.18 77.11 76.84 76.55 76.37 76.28 76.30 76.41 76.63 76.64 76.24 76.04 75.47 75.05 74.72 74.19 74.25 74.60 75.34 75.47 74.54 73.27 74.97 75.42 75.06 74.12 75.04 74.96 75.17 75.07 74.41
73.27 74.29 76.37 77.46 77.39 77.96 78.00 78.05 77.31 77.23 77.18 77.13 77.30 76.87 76.66 76.18 76.15 76.32 76.34 76.61 76.63 76.69 75.88 75.80 75.74 75.41 74.66 74.35 73.60 73.64 74.25 75.11 74.90 73.57 74.61 74.93 75.27 74.47 74.51 74.87 74.84 74.89 74.47
73.06 74.76 76.32 77.74 77.96 77.97 78.12 77.78 77.27 76.91 77.10 77.23 77.02 76.88 76.64 76.18 76.05 75.99 76.21 76.32 76.41 76.24 75.77 75.77 75.63 75.25 75.22 75.30 74.40 75.38 74.48 74.92 74.93 74.09 74.57 75.19 75.21 74.44 75.07 75.63 75.15 75.06 75.15
73.23 74.61 75.91 77.43 77.67 77.76 77.77 77.46 77.38 77.14 77.10 77.10 77.08 76.91 76.70 76.32 75.99 76.02 76.11 76.50 76.52 76.22 75.91 75.75 75.63 74.94 75.02 75.62 75.39 75.40 75.24 74.09 74.09 74.28 74.15 74.92 74.52 74.92 75.30 75.20 75.00 75.15 75.11
73.94 74.48 75.23 76.08 76.77 77.20 77.27 77.16 77.13 77.18 77.10 77.00 76.91 76.82 76.61 76.27 75.77 75.50 75.97 75.77 76.05 75.96 75.79 75.74 75.36 75.08 75.02 75.55 75.36 75.27 75.25 73.24 73.74 74.58 73.04 74.68 74.33 74.67 75.22 74.33 74.48 74.83 74.21
73.95 74.41 74.92 75.47 75.80 76.17 76.47 76.69 76.74 76.86 76.91 76.95 76.74 76.45 76.12 75.69 75.58 75.83 74.82 75.96 75.38 75.31 75.40 75.60 74.98 74.73 74.68 74.91 75.71 75.40 75.45 74.26 73.63 73.55 74.56 74.64 74.90 75.06 74.53 74.76 73.20 74.01 73.44
73.17 74.06 74.56 74.88 76.13 76.72 76.65 76.38 76.46 76.17 76.55 76.74 76.49 76.09 76.41 77.71 77.30 76.34 75.63 75.00 75.52 75.19 75.55 74.96 75.44 75.77 74.97 75.22 75.47 75.44 75.49 75.28 73.01 72.69 73.51 72.31 74.36 75.18 74.66 74.97 74.09 74.08 73.07
71.75 73.25 74.11 74.30 75.03 75.75 75.28 76.80 76.99 76.29 75.65 76.05 76.24 76.83 77.43 77.37 77.42 76.66 76.77 75.73 75.97 73.81 73.34 75.23 75.44 75.40 75.43 75.08 73.79 76.17 76.88 75.63 73.37 72.96 73.44 71.46 74.20 74.78 74.44 74.39 75.03 73.24 73.60
71.38 72.41 73.58 74.19 75.38 75.21 74.86 75.65 75.89 76.00 76.04 76.09 76.94 77.05 76.91 77.07 76.87 77.26 77.55 76.47 77.25 73.60 74.49 75.56 76.08 76.67 75.17 74.13 73.30 73.20 75.73 75.74 74.79 74.02 72.23 71.52 73.89 74.26 74.47 74.88 74.16 74.43 74.14
70.90 71.75 73.04 74.08 75.04 75.41 75.24 75.09 75.62 75.49 75.70 75.42 75.62 77.04 76.36 75.64 76.63 77.10 77.01 76.63 76.79 76.41 75.46 76.60 76.68 76.76 76.44 75.87 74.37 73.06 73.72 74.31 74.16 74.48 72.94 71.93 73.50 73.62 74.32 74.91 74.83 74.33 74.51
70.46 71.52 72.77 74.14 74.88 75.42 75.60 75.28 75.46 75.99 75.40 75.41 75.78 75.98 75.46 74.57 75.30 76.52 77.33 76.22 76.25 76.97 75.96 76.18 77.37 76.76 75.16 74.24 73.20 74.40 73.94 74.28 74.83 75.13 74.87 73.11 74.31 74.52 74.02 74.22 74.89 75.22 74.52
70.85 71.61 73.10 73.86 74.93 75.54 75.22 75.77 75.43 76.05 75.67 75.74 75.00 74.87 75.77 75.26 76.05 76.63 76.89 76.01 75.75 76.97 76.67 75.80 76.35 75.91 72.07 71.74 72.32 74.67 74.62 74.23 74.57 74.83 74.93 74.21 73.20 74.57 74.12 74.05 74.37 74.99 74.60
71.42 72.46 73.04 73.97 74.99 75.50 75.56 75.45 75.38 75.23 74.93 74.67 74.39 75.44 75.00 75.72 76.43 76.73 76.24 75.61 75.97 77.54 76.80 75.71 75.58 76.79 73.40 70.67 69.68 73.15 73.50 72.23 73.19 74.26 75.29 75.47 74.37 73.69 74.48 74.24 74.18 74.31 74.99
72.15 72.32 73.31 73.65 74.30 75.16 75.48 75.59 74.94 74.85 74.61 74.29 74.34 74.57 75.07 75.41 76.78 76.82 76.10 75.74 77.31 77.23 77.42 76.73 76.84 75.93 74.47 69.34 69.95 71.42 72.82 72.64 72.29 74.39 75.39 75.44 75.63 74.79 73.85 74.67 74.35 73.94 73.79
72.72 72.71 72.75 73.70 73.78 74.44 75.28 75.17 74.99 74.74 74.37 74.20 74.37 74.59 75.48 75.89 76.80 76.47 76.20 76.42 77.58 76.80 76.57 76.36 75.86 74.78 72.53 71.17 71.51 71.68 71.90 71.71 70.63 72.20 73.32 74.69 75.15 75.48 75.36 73.18 74.69 74.33 73.84
72.95 73.34 73.53 73.56 74.03 74.92 74.60 74.76 74.20 73.70 73.33 73.98 74.05 74.34 76.19 76.37 76.83 76.83 76.27 76.80 76.83 75.85 75.62 75.72 75.53 73.77 72.18 71.82 69.83 70.25 70.95 72.09 73.17 72.29 72.88 74.16 75.32 75.14 75.61 75.42 75.27 74.44 74.08
72.71 73.18 73.73 73.73 74.74 74.20 73.35 72.46 72.38 71.53 72.73 73.89 75.14 76.08 76.30 76.66 77.10 77.23 76.39 76.86 76.33 75.14 75.72 75.65 74.19 72.35 71.13 71.61 69.50 69.50 69.62 70.70 69.93 70.96 73.98 73.09 74.07 74.35 74.35 75.11 75.45 75.63 74.70
72.05 73.18 74.27 74.40 75.41 74.83 74.15 74.25 73.49 73.41 73.20 74.92 76.26 76.83 76.94 76.75 77.31 77.18 77.15 76.52 76.45 75.14 75.59 75.02 73.72 71.38 70.63 71.50 68.88 68.84 65.25 67.59 69.18 69.32 72.89 72.42 72.87 72.86 71.74 72.16 74.56 75.03 74.55
71.89 73.12 74.11 75.29 75.95 75.72 76.06 74.84 74.34 74.64 74.69 74.47 75.18 75.48 76.23 77.08 77.47 77.51 77.47 76.86 76.69 76.16 74.85 75.20 73.42 71.92 69.39 71.14 69.65 68.42 64.52 63.43 67.51 69.03 70.30 71.97 72.44 72.27 71.51 71.99 72.70 73.52 73.85
72.59 73.24 74.66 75.36 76.09 75.51 76.62 75.27 75.05 72.52 71.63 73.36 74.77 75.78 76.17 77.14 77.22 77.42 77.45 76.89 76.88 76.06 76.00 75.22 73.50 72.24 70.72 68.63 69.38 69.63 69.46 69.30 64.99 63.74 67.71 69.90 71.01 70.35 71.41 71.53 72.03 72.28 73.58
72.41 72.32 74.01 75.36 75.86 76.31 76.49 76.35 74.75 74.59 73.76 74.53 74.72 76.49 77.77 77.39 77.16 77.13 77.54 77.13 76.90 76.05 76.34 75.19 73.12 72.26 70.69 69.62 69.46 68.27 68.60 68.37 68.66 66.38 63.73 65.41 68.55 69.34 69.74 69.96 70.78 71.56 72.07
72.18 72.07 73.13 74.77 75.13 76.20 76.15 76.08 76.17 75.92 75.16 73.76 74.11 73.90 74.36 75.16 75.82 76.70 77.08 77.45 77.47 76.70 76.37 75.54 74.40 73.17 71.91 70.60 70.50 69.88 67.93 66.86 65.80 66.10 65.36 66.08 65.56 67.34 68.33 68.82 69.22 69.81 70.32

GFSSE_sfc_wetblb_030.txt.gz
Wetbulb
68.31 73.25 75.22 75.42 75.93 76.85 77.87 77.99 78.96 78.93 78.10 77.62 77.69 77.53 77.00 76.95 76.92 76.78 76.74 76.60 75.93 76.23 76.35 76.18 76.05 75.83 75.97 75.31 75.39 74.89 74.23 74.36 74.56 75.48 75.36 75.27 75.30 75.22 75.28 75.33 75.89 75.28 76.05
72.84 74.12 75.02 75.84 76.16 77.20 77.15 78.54 78.60 78.37 77.78 77.98 77.48 77.09 77.06 76.90 76.87 76.81 76.40 76.54 76.43 76.40 76.46 76.39 75.86 75.56 75.77 75.85 75.58 75.38 74.48 73.98 74.69 75.26 75.32 75.25 75.22 74.54 74.86 74.94 77.31 76.06 75.81
72.11 74.66 76.01 76.63 76.79 76.90 78.11 78.19 78.31 78.02 77.65 77.34 77.28 77.29 76.99 77.08 76.78 76.73 76.38 76.65 76.78 76.60 76.44 76.11 75.86 75.42 75.25 75.45 75.08 75.36 75.00 74.34 75.05 74.70 75.05 74.92 75.45 73.98 73.70 75.46 76.03 75.61 75.63
74.35 73.60 76.21 76.58 77.47 77.62 77.71 78.36 78.27 77.48 77.30 77.49 77.30 77.21 76.96 76.95 76.82 76.57 76.51 76.88 76.05 76.33 76.02 75.95 75.78 75.34 75.20 74.64 74.75 75.19 75.11 74.28 75.05 74.28 74.44 74.30 72.95 73.43 73.79 74.98 75.10 75.30 75.63
72.14 75.00 76.65 76.76 77.56 77.75 77.98 78.39 78.29 77.66 77.31 77.30 77.21 76.96 76.89 76.71 76.57 76.38 76.39 76.91 76.66 76.30 76.36 76.06 75.55 75.58 75.13 74.37 74.16 74.84 75.07 74.51 74.26 74.86 74.65 75.76 73.73 74.88 74.85 74.58 75.30 74.67 74.23
74.55 75.42 76.81 77.46 77.64 78.01 78.01 77.93 77.39 77.43 77.29 77.46 77.19 76.81 76.57 76.52 76.64 76.50 76.96 76.77 76.72 76.17 76.17 76.09 75.89 75.83 75.21 74.46 74.35 74.31 74.75 74.81 74.53 73.61 75.45 74.57 74.46 74.94 74.76 74.63 75.16 74.46 74.15
74.86 75.69 77.10 78.02 78.29 78.33 77.87 77.47 77.54 77.43 77.43 77.29 77.05 76.79 76.64 76.50 76.33 76.53 76.86 76.61 76.50 76.14 76.00 75.86 75.72 75.72 75.86 75.49 75.75 75.34 74.72 74.49 74.97 73.99 75.10 75.27 73.98 74.67 74.44 74.97 74.96 74.66 74.73
74.64 75.31 76.26 77.91 78.07 78.56 78.03 77.43 77.21 77.32 77.31 77.26 77.17 77.05 76.69 76.50 76.36 76.31 76.53 76.67 76.52 75.91 75.80 75.60 75.60 75.46 76.03 75.86 75.78 75.72 75.14 73.71 75.03 73.67 74.24 75.28 74.70 74.80 75.34 75.42 75.35 75.14 74.82
74.98 74.66 75.29 76.05 77.69 77.88 77.89 77.40 77.27 77.27 77.32 77.24 77.26 77.02 76.64 76.25 76.08 76.00 76.06 75.97 76.26 76.00 75.92 75.59 75.46 75.41 75.52 75.86 75.69 75.65 74.14 72.93 75.59 74.55 73.53 73.80 74.24 74.63 75.17 75.08 75.32 75.10 75.07
74.41 74.37 74.79 75.70 76.30 77.12 77.39 77.27 77.39 77.24 77.30 77.15 76.82 76.86 76.55 76.22 75.97 76.20 75.58 76.17 75.68 75.47 75.42 75.73 75.50 75.33 75.04 75.41 75.83 75.74 75.56 74.36 75.00 74.88 74.18 75.25 74.90 74.86 74.67 73.46 74.68 74.22 73.76
73.07 73.75 74.60 74.94 75.82 76.79 76.45 76.85 76.92 76.89 76.84 76.79 76.86 76.53 76.95 78.12 77.80 77.41 76.20 75.72 75.63 75.23 74.81 75.89 75.88 75.66 75.26 76.33 76.20 76.28 76.36 74.86 74.39 74.16 74.45 74.56 74.54 74.66 74.83 74.46 73.29 73.99 72.88
71.98 73.10 73.99 74.61 75.21 75.90 75.19 76.50 76.74 75.87 75.60 76.21 76.22 77.08 78.20 78.33 78.27 77.38 76.82 75.45 76.50 72.55 74.48 75.09 74.86 75.66 76.65 73.21 74.03 76.29 75.74 74.88 74.57 74.73 73.76 74.14 74.20 75.07 74.27 75.30 73.91 74.54 72.98
73.79 73.27 73.57 74.73 75.70 75.49 75.35 75.84 75.70 75.59 75.80 76.41 77.36 77.82 78.53 78.84 78.62 79.15 77.45 76.48 76.78 73.95 76.16 76.37 76.42 75.69 74.30 73.28 71.83 71.88 73.71 73.94 73.13 73.18 73.02 72.60 74.03 73.92 74.11 74.48 74.81 73.72 73.71
73.49 73.54 73.81 74.54 75.41 75.58 75.25 75.10 75.41 74.94 75.47 74.88 75.50 77.62 78.16 77.04 78.07 78.74 77.48 77.15 77.10 77.39 77.29 77.41 75.05 76.10 75.99 75.05 73.20 72.27 71.93 73.74 73.32 73.16 73.39 73.29 73.84 73.18 74.39 75.16 74.91 74.77 74.46
72.84 73.73 74.25 74.97 75.70 75.75 75.81 74.88 74.73 75.21 75.01 74.84 75.55 76.64 77.41 77.46 78.21 78.39 78.00 78.19 77.84 78.47 76.81 76.94 75.81 75.44 76.56 74.29 75.39 73.72 72.60 72.76 73.57 74.11 74.12 74.03 74.02 73.93 73.90 74.58 75.26 74.70 74.87
73.03 73.21 74.10 74.75 75.78 75.96 75.93 76.57 75.83 76.04 75.63 75.55 74.94 75.22 77.04 77.14 78.65 78.62 77.70 77.86 78.26 78.74 78.46 77.33 76.42 75.90 76.03 74.17 73.97 74.16 71.92 72.56 72.92 73.77 73.56 74.48 74.30 74.54 73.95 74.39 74.71 75.20 75.03
73.02 73.58 73.83 74.75 75.54 75.93 76.37 76.75 76.41 75.88 75.80 75.06 74.51 76.04 76.84 77.46 78.27 78.76 78.77 76.68 78.31 78.53 77.46 77.65 77.02 77.12 73.43 73.63 73.13 72.13 72.67 72.79 72.71 72.57 74.76 74.35 73.89 74.19 74.36 73.87 74.58 74.78 75.16
73.39 73.47 74.54 74.50 75.17 75.94 76.37 76.57 75.96 75.77 75.77 74.82 74.19 75.27 76.68 76.98 78.26 78.59 78.05 76.97 78.58 78.53 77.96 76.85 75.70 74.80 73.67 73.20 72.25 73.36 72.87 72.51 73.32 73.08 73.59 75.19 74.90 73.51 74.12 73.73 73.59 74.24 74.05
73.91 74.32 74.67 75.53 75.24 76.00 77.03 76.76 76.56 76.71 75.50 74.47 74.44 75.08 76.79 77.17 77.84 78.42 77.91 77.70 79.31 78.58 77.09 77.22 75.84 75.95 73.06 72.60 71.83 72.84 72.33 71.89 72.43 71.35 72.35 74.29 74.27 74.16 74.00 73.75 73.65 73.40 73.32
74.73 75.00 75.53 75.57 76.15 76.90 76.76 76.91 76.11 75.24 74.77 74.52 74.57 75.02 76.64 77.25 77.78 78.47 77.73 78.09 77.15 77.98 76.84 76.66 75.36 75.83 74.43 73.02 70.24 69.88 72.38 72.05 72.56 72.20 71.61 72.15 73.98 74.12 74.22 75.28 74.75 73.51 73.76
74.54 74.96 75.41 75.38 76.79 76.22 75.61 74.74 74.24 72.84 73.39 73.72 74.54 76.39 77.23 78.16 78.82 79.42 77.86 77.74 77.96 76.97 76.97 76.19 75.46 74.46 72.81 74.17 68.82 69.52 70.44 71.13 71.37 72.24 72.51 71.10 71.84 72.70 72.47 73.41 73.98 74.65 73.63
73.82 74.65 75.30 75.79 76.97 76.69 76.06 75.99 74.87 73.98 73.65 74.10 75.07 76.87 78.25 78.58 79.37 79.05 79.33 78.53 78.24 77.26 77.30 76.82 76.13 74.36 73.51 71.17 69.34 69.20 65.56 67.58 69.42 71.56 71.65 70.97 70.85 70.87 70.52 72.19 74.34 74.61 74.48
73.20 74.31 75.47 76.46 77.25 77.28 77.82 76.41 75.56 75.09 74.47 73.71 74.87 76.70 78.38 79.02 79.12 79.70 79.28 77.62 78.76 77.91 76.29 77.04 76.33 74.58 71.48 70.71 72.07 69.44 65.52 65.20 66.79 69.38 71.37 71.01 71.37 70.47 70.45 71.66 71.96 73.28 73.99
73.40 74.77 76.00 77.11 77.47 77.60 77.89 77.14 77.50 73.38 72.17 73.40 75.24 76.52 77.30 78.74 78.90 79.06 79.25 78.81 79.33 77.71 78.01 78.43 76.73 75.68 74.35 69.25 70.55 70.79 72.14 71.61 65.95 65.10 68.92 70.18 70.83 70.41 71.22 71.07 71.06 71.70 72.11
73.91 74.40 75.38 77.41 78.57 78.96 79.07 78.81 76.27 75.94 74.24 74.27 74.82 78.93 79.80 79.35 78.99 78.58 79.23 79.37 79.09 78.22 78.14 78.33 76.85 76.17 74.42 70.53 69.53 69.62 70.44 69.30 70.35 66.85 65.53 67.03 69.97 70.17 70.73 70.85 71.42 71.33 71.95
74.07 74.66 75.18 77.45 78.50 78.60 78.15 77.64 78.76 78.23 77.41 74.69 76.11 75.04 75.57 76.40 77.51 78.60 78.83 79.36 79.47 79.00 78.43 78.31 77.93 76.75 75.76 73.39 70.87 71.40 68.87 67.48 67.33 67.35 66.17 67.71 67.49 69.40 70.16 70.30 70.63 70.90 71.34

GFSSE_sfc_wetblb_033.txt.gz
Wetbulb
70.35 72.71 74.20 75.57 76.74 77.16 77.88 77.99 77.98 78.03 77.38 77.31 77.66 76.94 77.14 77.06 76.76 76.93 76.42 76.47 76.57 76.42 76.28 76.29 75.85 76.24 75.41 75.74 75.38 74.22 74.11 74.52 75.67 75.75 75.72 75.87 75.69 75.24 74.90 74.86 76.02 75.13 76.06
69.61 72.49 75.04 75.87 76.85 77.22 77.99 78.71 78.25 77.86 77.39 77.66 77.05 77.23 76.93 76.99 77.19 76.86 76.74 76.86 76.34 76.35 76.32 76.10 75.83 75.96 75.80 75.93 75.43 74.61 74.17 74.77 75.21 75.27 75.47 75.60 75.01 75.00 75.22 75.52 77.13 76.01 76.03
70.39 73.57 75.40 77.08 77.50 77.19 77.88 78.38 77.71 77.52 77.62 77.22 77.25 77.10 76.94 77.19 76.79 76.57 76.84 76.78 76.62 76.43 76.32 76.07 75.74 75.60 75.63 75.49 75.55 75.35 74.61 75.23 74.83 74.56 74.86 74.19 73.57 73.61 75.42 75.91 76.25 76.03 75.92
72.24 74.59 75.11 77.21 77.60 77.94 77.94 78.11 78.14 77.31 77.34 77.52 77.15 77.07 77.25 77.12 76.68 76.77 76.85 76.38 76.63 76.29 76.19 75.83 75.66 75.55 74.93 74.79 75.30 75.52 74.58 74.80 73.92 73.46 74.55 72.85 71.39 73.36 74.88 75.58 75.65 75.77 75.45
72.98 75.29 76.70 77.23 77.66 77.76 77.74 77.88 77.79 77.17 77.36 77.17 77.05 77.16 76.84 76.76 76.33 76.55 76.52 76.72 76.41 76.52 76.27 75.63 75.65 75.42 74.77 74.54 74.62 75.34 74.74 73.69 74.00 74.15 74.73 75.00 74.77 74.86 74.13 74.95 74.54 74.93 74.85
74.54 75.18 76.38 77.26 77.35 77.63 77.58 77.47 77.26 77.13 77.34 77.16 76.87 76.68 76.57 76.82 76.71 76.94 76.58 76.88 76.13 76.24 76.05 76.07 75.79 75.70 75.44 75.06 74.71 74.65 74.24 74.16 74.47 74.20 75.03 74.56 74.90 74.71 74.37 74.38 75.06 74.16 74.69
75.26 76.00 77.04 77.51 77.94 77.95 77.64 77.37 77.18 77.35 77.29 76.91 76.82 76.60 76.69 76.49 76.47 76.91 76.80 76.66 76.18 76.24 76.12 75.90 75.92 75.93 75.99 75.82 75.63 74.87 74.42 74.25 74.54 73.46 74.48 73.64 74.12 75.07 75.23 75.24 74.98 74.74 74.50
74.10 75.06 76.85 77.84 78.02 77.92 77.38 77.24 77.29 77.35 77.13 77.03 76.90 76.57 76.58 76.44 76.61 76.69 76.83 76.71 76.39 76.11 76.11 75.86 75.75 76.10 76.08 75.97 75.65 74.91 74.10 74.22 73.96 73.85 75.30 74.11 75.30 75.31 75.40 75.32 75.18 75.05 74.71
74.11 74.60 75.99 76.69 77.52 77.55 77.65 77.10 77.05 77.19 77.16 77.17 76.93 76.74 76.55 76.38 76.13 76.24 76.41 76.59 76.30 76.09 75.90 75.85 75.38 75.36 76.07 75.97 75.91 74.85 73.21 73.97 75.38 73.11 73.22 74.06 75.66 75.03 75.34 75.28 75.22 74.98 75.13
73.74 73.74 74.39 75.25 76.21 76.79 76.77 77.18 76.98 76.97 77.12 77.18 77.10 76.88 76.72 76.63 76.63 76.10 76.55 76.40 75.84 75.50 75.27 75.58 75.12 75.26 75.87 76.38 76.05 76.01 75.24 74.82 74.01 73.20 74.27 74.75 75.05 75.11 74.47 75.50 74.84 74.68 74.74
72.62 73.29 73.56 74.25 75.67 76.75 76.46 77.00 77.19 77.01 77.02 76.85 76.99 77.11 76.71 78.07 77.63 77.41 76.94 75.94 75.26 74.86 74.95 75.52 76.22 76.29 76.36 76.55 77.06 76.63 76.35 73.57 72.94 73.65 74.36 75.43 75.43 75.18 74.71 73.31 75.22 73.31 74.34
71.38 72.42 73.50 74.31 74.72 75.52 74.72 76.55 76.48 75.88 75.74 76.37 75.91 77.02 75.24 77.63 77.24 76.84 76.84 76.34 76.48 73.90 75.80 76.13 75.44 76.43 76.99 74.91 75.74 77.08 74.99 74.11 73.17 73.75 74.08 75.90 75.55 75.13 75.38 74.00 74.97 73.00 72.98
72.69 72.93 73.55 74.38 75.32 74.86 76.05 74.57 75.00 74.54 75.20 76.22 77.65 77.90 75.71 77.13 77.09 73.57 75.49 75.51 75.82 75.46 73.77 74.89 75.53 76.29 74.02 73.92 71.87 74.92 74.23 73.72 72.57 73.03 73.96 74.97 74.87 75.35 74.65 75.55 74.31 74.16 72.90
73.06 72.77 73.45 74.60 75.26 75.07 75.30 74.51 74.75 74.34 74.80 74.66 76.34 78.10 79.01 76.51 77.34 74.49 75.18 76.27 76.70 76.14 76.27 75.77 75.26 75.91 74.36 74.59 73.40 71.52 71.88 71.80 71.55 73.40 73.22 74.23 73.80 74.41 74.77 74.94 74.89 74.34 74.14
72.73 73.01 73.42 74.80 76.77 76.94 76.46 74.82 74.99 74.70 74.25 74.44 75.62 77.46 77.49 76.33 77.37 75.87 76.68 75.87 76.36 76.16 76.20 76.62 75.88 75.95 75.46 74.37 74.66 74.55 72.05 71.07 71.93 72.44 72.92 74.24 74.22 74.14 74.82 75.19 75.18 74.89 74.96
73.53 73.37 74.07 74.44 75.85 76.29 76.66 77.51 75.40 75.16 75.22 74.85 74.85 75.93 77.90 77.58 77.54 76.33 76.50 75.74 76.47 76.19 74.72 76.16 76.11 74.46 74.16 74.41 73.36 73.77 72.10 72.37 72.46 73.65 73.00 74.03 75.28 74.81 74.44 74.58 75.53 75.55 74.97
73.61 74.18 74.24 74.82 75.55 75.88 76.30 76.44 76.04 75.39 75.13 74.71 74.80 76.51 77.28 77.88 78.36 78.94 76.52 75.63 76.60 77.56 77.34 76.77 76.49 75.53 73.62 72.62 72.71 71.13 71.57 72.22 71.59 72.24 73.40 72.81 74.03 75.50 74.80 74.52 74.87 75.48 75.62
73.99 74.30 74.69 74.45 75.05 75.71 76.16 76.78 75.99 75.54 75.28 74.89 74.57 75.42 77.10 77.92 78.85 79.19 76.84 76.42 76.60 77.63 76.35 76.02 74.96 73.88 73.31 71.74 71.28 71.23 72.21 71.73 72.57 71.64 72.99 73.43 73.59 72.68 75.11 75.13 74.55 74.70 74.59
74.24 74.58 74.54 74.96 74.77 75.64 77.69 76.92 76.60 78.30 75.61 74.98 74.57 74.67 78.12 77.72 78.10 78.65 74.16 74.54 79.20 76.71 75.95 75.14 73.72 74.70 71.19 71.00 70.97 71.09 71.45 70.73 73.20 71.11 71.85 72.27 73.74 72.62 72.53 75.26 75.22 74.51 74.17
74.21 74.60 75.65 75.03 77.65 78.61 77.17 78.04 76.33 75.50 75.54 75.06 74.25 74.39 78.52 77.67 78.09 78.69 77.60 78.03 77.55 76.87 75.26 74.00 75.69 73.61 73.14 71.11 69.87 69.22 70.95 71.78 71.83 71.74 71.10 73.26 72.12 72.40 73.07 74.78 73.56 73.33 74.93
73.96 74.51 76.19 76.52 78.55 77.19 75.76 74.72 74.77 73.66 74.77 73.86 74.31 77.05 77.61 77.63 78.52 79.17 77.95 78.85 77.49 77.45 76.64 76.14 75.32 74.28 73.11 71.68 69.12 68.92 69.96 70.77 70.95 70.59 71.21 71.30 71.69 70.82 71.96 72.66 73.79 72.97 72.70
73.90 75.78 77.25 77.94 79.45 78.55 76.72 77.22 76.21 76.03 74.11 73.87 74.18 77.77 77.26 77.78 78.84 79.07 79.74 77.53 78.49 74.97 77.09 76.76 75.77 73.17 71.45 70.50 69.95 68.13 65.56 67.33 69.11 70.22 70.12 70.00 70.78 70.16 70.24 71.51 72.42 74.66 73.11
73.85 75.79 77.12 78.49 79.19 78.82 79.09 78.11 77.89 76.94 76.06 73.40 73.97 74.57 76.94 78.29 78.82 80.51 79.19 78.34 78.94 78.39 78.13 77.20 76.05 75.27 70.87 69.74 73.45 70.06 66.70 63.95 66.36 68.96 70.10 70.44 71.13 69.55 70.13 71.30 71.84 72.44 73.17
73.84 75.10 77.85 78.94 79.36 79.12 79.82 77.30 77.57 73.91 72.09 72.91 74.13 74.53 76.59 79.40 78.77 79.05 79.04 78.30 79.34 77.80 77.85 77.37 76.62 76.36 75.07 70.05 69.76 71.09 73.21 71.97 66.14 65.05 69.38 70.06 70.65 70.18 70.71 70.71 71.05 71.41 72.04
73.61 74.37 76.57 79.09 79.43 79.47 79.35 78.98 76.55 76.15 73.51 73.76 73.94 77.59 78.56 80.67 79.39 78.19 80.00 79.50 79.51 78.27 80.23 78.00 78.06 77.19 74.71 72.60 69.81 69.22 70.77 69.10 70.72 68.06 64.65 68.17 69.52 70.13 71.13 70.87 71.41 71.20 71.98
73.31 74.14 76.30 78.73 79.57 80.14 80.16 79.28 79.74 77.35 76.77 73.85 74.57 74.37 75.11 75.83 77.94 80.21 79.25 80.72 80.76 79.97 78.84 78.42 79.01 77.76 76.79 75.24 72.06 71.39 69.46 68.33 68.14 67.68 66.71 68.90 68.38 69.90 70.10 70.86 70.86 70.81 71.53

GFSSE_sfc_wetblb_036.txt.gz
Wetbulb
71.49 73.50 74.92 76.61 77.89 77.99 78.16 77.81 78.03 77.93 77.88 78.29 78.04 78.11 77.79 77.88 77.93 77.66 77.67 77.59 77.23 77.15 77.14 76.72 76.48 75.98 76.17 76.05 74.44 74.16 74.63 75.69 75.93 75.92 76.13 76.04 75.80 75.70 75.67 74.88 76.84 74.64 76.65
72.09 73.88 75.13 76.54 77.41 78.04 78.43 78.29 78.11 78.06 78.31 77.92 78.04 77.76 77.71 77.47 76.98 77.99 77.63 76.97 76.93 76.90 76.48 76.18 76.23 76.20 76.28 75.92 75.02 74.74 75.14 75.20 75.28 75.46 75.37 75.53 75.69 75.74 75.99 77.10 76.53 75.48 75.89
72.00 73.72 75.18 77.17 77.21 78.01 78.39 78.26 78.05 78.33 77.91 78.19 77.82 77.79 77.89 77.41 77.65 77.63 76.93 77.07 76.96 76.78 76.45 75.93 75.96 76.13 76.01 75.76 75.57 74.33 75.33 75.18 74.67 74.49 74.51 73.32 73.06 75.58 75.52 76.04 76.38 76.40 75.94
72.09 73.68 74.43 77.33 77.89 77.84 78.30 78.13 78.16 77.63 77.73 77.95 77.40 78.20 77.99 77.40 77.59 77.06 76.78 76.97 76.67 76.48 76.38 75.99 75.85 75.65 75.32 75.63 75.57 74.63 74.41 74.85 74.24 73.22 73.44 73.07 70.84 75.20 75.16 75.84 75.76 75.95 76.05
72.47 73.70 75.99 77.82 77.76 77.74 77.95 78.12 78.08 77.99 77.73 77.41 77.33 77.65 77.24 77.25 77.23 76.65 76.90 76.82 76.70 76.68 76.18 76.18 75.87 75.53 75.07 75.06 75.18 74.90 73.97 73.74 73.86 74.49 74.18 73.36 71.17 74.16 75.00 75.27 75.35 75.25 75.70
72.87 74.50 76.59 77.43 77.66 78.01 78.35 78.03 77.91 77.64 77.25 77.52 77.15 76.75 77.06 77.15 77.18 76.91 76.96 76.66 76.74 76.63 76.54 76.54 76.32 76.18 75.70 75.17 74.93 74.35 73.93 73.84 74.12 73.77 73.75 74.29 73.13 75.03 74.93 75.73 75.11 75.18 75.06
73.86 75.05 75.53 78.26 78.50 78.35 78.00 77.86 77.81 77.42 77.07 77.13 76.97 76.76 76.79 76.76 77.04 77.04 76.91 76.77 76.71 76.68 76.51 76.49 76.57 76.35 76.15 75.68 75.04 74.84 74.58 74.20 73.10 72.62 71.87 73.40 74.46 76.02 75.55 74.81 74.73 74.66 75.09
73.73 74.85 75.71 77.70 78.32 78.31 77.79 77.73 77.96 77.37 76.83 76.94 76.84 76.76 76.62 76.85 77.07 77.30 77.27 76.99 76.84 76.65 76.45 76.29 76.21 76.27 76.24 75.65 75.41 74.71 74.04 74.87 74.46 74.55 73.03 73.46 75.72 76.19 75.52 75.43 75.12 74.83 74.97
74.10 74.75 75.48 76.42 77.04 77.66 78.08 77.45 77.38 77.05 77.03 77.06 76.87 76.71 76.57 76.46 76.71 76.91 77.44 77.38 76.98 76.72 76.35 75.65 75.55 75.93 75.99 76.04 75.62 75.32 74.45 74.24 73.68 73.68 73.29 74.14 76.24 76.17 75.89 75.49 75.36 75.19 74.93
73.06 73.70 75.16 75.99 75.43 75.62 75.81 77.16 77.06 76.92 76.98 77.01 76.79 76.29 76.07 75.89 75.60 76.48 78.05 77.85 76.56 76.38 75.54 75.31 75.00 75.11 76.38 76.78 76.58 75.49 74.07 75.15 73.96 73.51 73.55 74.34 76.02 75.30 75.80 75.28 75.43 75.24 75.19
72.69 73.15 73.84 73.66 75.42 76.45 76.25 76.34 76.93 76.90 76.93 77.07 76.37 76.40 76.32 77.64 77.16 75.97 77.88 77.47 76.00 75.50 75.00 75.27 75.11 76.06 77.57 77.28 77.10 76.70 76.02 73.47 73.00 72.69 72.81 75.32 76.13 74.57 74.38 75.33 73.92 75.18 75.07
69.82 71.59 72.82 73.65 74.72 75.27 74.13 76.42 76.88 75.96 75.58 75.92 74.79 71.83 73.21 76.55 76.16 76.73 76.95 77.91 76.78 74.78 74.84 76.18 75.30 76.18 76.99 74.96 75.36 77.30 74.41 75.35 73.52 72.99 73.69 76.17 76.33 75.76 74.13 74.40 73.78 73.54 74.40
70.95 71.26 72.76 74.17 75.33 74.49 74.68 75.31 75.35 75.34 75.49 74.87 73.02 71.40 71.06 74.44 74.69 77.07 75.01 75.27 76.46 75.99 73.76 70.44 72.11 74.38 75.46 74.43 73.39 73.97 73.81 74.90 72.45 72.07 74.69 76.31 76.51 75.43 75.74 74.55 74.63 72.95 72.89
70.55 71.68 72.70 74.50 75.51 75.33 74.83 73.67 74.82 74.18 73.92 75.81 75.21 73.50 73.66 73.68 73.58 74.52 76.46 76.54 76.23 74.02 72.86 73.42 73.73 75.53 73.22 72.84 73.62 73.79 72.60 70.95 71.67 71.74 74.54 75.97 76.24 76.33 75.51 75.39 74.62 74.30 73.33
70.95 72.03 72.97 74.51 75.82 77.62 76.79 74.21 74.18 75.35 75.30 75.38 77.25 79.32 72.92 75.09 74.64 74.57 75.45 73.13 76.06 74.85 73.85 74.47 75.57 74.05 76.07 73.84 73.54 73.39 71.23 69.96 72.13 71.02 72.33 75.81 75.56 76.36 75.93 75.59 74.96 74.84 74.59
72.73 72.28 74.37 74.57 76.09 78.41 78.39 80.98 76.45 78.79 74.86 76.74 74.96 77.07 79.37 75.97 76.23 76.76 77.79 75.28 75.59 74.94 73.84 75.85 77.74 75.97 71.89 73.99 73.77 73.95 70.90 72.59 71.30 71.27 72.22 73.94 75.80 75.90 76.28 76.07 75.52 75.15 74.77
72.95 73.23 73.87 74.65 75.48 77.54 78.00 79.09 79.23 78.16 74.14 75.76 76.44 78.20 78.69 79.48 79.07 74.71 77.68 76.86 77.34 78.53 78.19 77.88 73.56 74.65 72.75 72.04 73.13 73.40 72.13 70.12 72.60 70.91 71.54 71.73 74.19 76.07 76.12 76.07 76.40 76.43 75.30
72.98 73.41 74.02 73.25 74.56 75.48 76.58 77.81 77.75 76.00 77.12 76.98 76.83 76.76 78.16 79.30 80.99 80.61 76.92 75.26 74.18 75.49 77.68 73.33 75.94 72.97 73.15 72.78 71.46 70.54 71.00 72.04 71.96 72.02 71.78 72.36 72.76 72.80 75.31 76.22 76.22 75.95 74.81
73.93 74.44 74.43 74.63 74.45 74.93 77.02 76.97 76.55 77.34 77.72 77.65 78.18 76.79 78.28 78.87 79.52 79.79 76.74 73.87 77.78 78.06 76.38 76.24 75.49 72.76 72.87 72.32 69.13 71.83 72.28 68.27 69.96 70.37 72.00 72.38 73.07 71.75 71.87 75.56 75.84 75.92 74.92
74.92 75.20 75.43 75.17 76.46 76.10 76.14 76.88 76.36 75.99 77.14 77.26 77.87 77.59 78.14 78.63 79.02 79.41 77.44 77.93 78.74 77.59 75.36 75.54 76.31 74.93 73.64 72.07 68.60 69.90 69.25 71.17 69.80 71.68 70.94 71.74 72.82 72.59 71.72 72.32 73.89 73.55 75.47
74.40 74.92 74.64 75.29 76.93 75.85 75.09 74.46 74.92 73.58 75.53 76.48 77.39 78.68 78.89 78.88 79.48 80.33 78.14 73.92 77.72 77.39 77.38 77.21 76.01 73.23 71.66 71.90 71.18 70.03 70.46 70.54 70.02 69.32 70.11 69.72 70.99 71.29 71.32 73.26 73.03 72.08 73.57
73.29 74.42 74.89 75.22 76.65 76.46 75.89 75.77 75.71 76.06 75.41 75.57 76.39 78.57 78.75 78.43 80.27 79.76 78.86 78.03 79.07 73.99 77.64 77.15 76.40 73.45 72.75 71.79 70.65 67.67 65.75 67.94 67.99 68.65 70.48 69.54 70.49 70.15 69.61 72.76 72.06 73.23 72.18
73.13 74.11 74.70 75.35 77.04 77.26 76.88 77.32 77.66 77.91 78.02 75.07 74.63 75.86 77.01 78.39 78.97 79.23 79.15 78.27 78.12 77.52 75.83 76.39 76.41 76.64 71.58 71.17 74.16 70.85 64.41 62.39 67.13 69.34 69.38 68.99 69.96 68.89 69.38 71.48 72.06 73.35 72.10
73.11 74.42 75.52 75.96 76.73 77.40 77.95 76.10 76.48 73.64 72.31 73.73 74.25 75.40 75.96 77.25 78.40 78.42 78.47 79.32 79.16 77.76 77.08 77.53 77.96 77.26 75.27 69.52 70.86 72.12 73.03 71.82 66.17 63.01 69.18 69.11 70.27 68.76 70.40 69.59 70.28 71.11 72.13
73.40 74.72 75.54 76.29 76.73 77.68 76.47 77.81 75.79 75.09 74.24 74.18 75.34 76.04 76.85 77.51 78.73 78.93 78.51 79.56 79.52 78.91 78.08 77.21 78.37 77.48 76.78 74.24 70.70 70.18 71.29 71.23 71.03 68.53 64.84 66.87 69.27 70.00 70.46 70.60 70.31 69.78 71.52
73.70 75.10 75.71 76.42 76.49 77.75 77.44 76.51 77.85 75.30 75.23 73.46 73.73 74.64 75.85 77.39 77.58 79.29 78.95 78.59 79.37 79.02 78.68 77.82 78.76 78.52 77.42 76.55 74.14 72.43 70.05 68.48 68.45 68.03 67.10 66.53 67.11 69.31 70.40 69.97 70.48 70.58 71.17

GFSSE_sfc_wetblb_039.txt.gz
Wetbulb
70.11 72.53 77.34 78.06 78.06 77.97 77.49 77.32 77.65 77.76 78.05 78.18 78.00 78.25 77.73 77.31 77.54 77.83 78.14 77.45 77.28 77.80 77.41 76.17 76.36 76.66 76.22 74.58 74.44 75.04 75.74 76.11 76.24 76.19 76.20 76.33 76.29 76.07 76.09 76.28 76.37 74.93 76.37
71.27 73.03 77.53 78.22 77.83 77.79 78.22 78.12 77.71 78.43 78.22 77.99 78.30 78.19 77.57 77.23 77.68 77.64 77.70 77.17 77.08 77.35 76.50 76.78 76.55 76.36 76.19 75.13 75.68 75.61 75.52 75.71 75.70 75.57 76.25 76.41 76.15 75.96 76.99 75.91 76.44 75.28 76.04
71.45 73.50 76.13 77.92 78.28 77.95 78.23 78.18 77.91 78.15 77.83 77.93 78.27 77.89 77.53 77.35 77.65 76.98 77.15 76.99 77.07 76.56 76.31 76.40 76.45 76.20 76.14 75.73 74.99 75.80 75.28 74.92 75.04 75.49 75.29 72.84 73.87 75.67 75.67 76.47 76.61 76.09 75.96
71.76 72.85 75.46 77.48 78.07 78.32 78.22 78.54 78.20 77.67 76.94 77.69 78.35 78.02 77.56 77.87 77.71 77.05 77.02 76.86 76.72 76.67 76.51 76.26 76.04 75.88 75.96 75.75 74.99 74.76 74.91 74.99 74.48 74.35 72.22 71.12 73.21 75.34 75.78 75.79 75.95 76.03 75.64
71.23 73.30 75.24 78.05 78.42 78.22 78.42 78.27 78.44 78.09 77.49 78.19 78.22 77.70 77.69 78.02 77.25 76.92 76.98 76.95 76.67 76.73 76.49 76.29 75.88 75.60 75.38 75.29 75.18 74.63 74.54 74.49 74.68 74.35 71.46 68.29 70.91 74.49 75.39 75.67 75.52 75.72 75.75
71.61 74.54 77.27 78.02 77.62 78.30 77.94 77.89 77.69 77.24 77.29 77.77 77.66 77.77 77.59 78.04 77.09 77.10 76.85 76.87 76.85 76.85 76.88 76.63 76.38 75.93 75.54 75.12 74.71 74.88 74.44 74.07 74.66 72.52 72.15 73.64 72.07 75.90 76.06 76.21 75.56 75.63 75.53
73.15 74.70 75.66 78.39 78.42 78.57 77.78 77.64 77.85 77.33 77.01 77.58 77.83 77.37 77.22 77.39 77.18 77.02 76.99 76.96 76.93 76.80 76.63 76.66 76.57 76.29 75.93 75.13 74.79 74.77 74.51 74.45 72.29 72.76 73.01 72.99 73.41 76.30 74.97 75.16 74.75 75.71 75.35
72.97 73.94 75.64 77.97 78.29 78.52 77.43 77.24 78.09 77.17 76.98 77.56 77.77 76.91 76.97 77.25 77.94 77.34 77.10 77.10 76.82 76.49 76.38 76.49 76.51 76.21 75.68 75.05 74.74 75.41 75.07 75.70 73.39 72.11 72.47 73.16 75.74 76.18 75.52 75.23 74.99 75.43 75.51
73.52 73.95 75.20 75.64 76.29 77.58 78.11 77.43 77.62 77.11 77.34 77.42 77.51 77.08 76.95 76.76 76.85 77.32 77.34 77.91 76.82 76.56 76.29 76.12 76.41 76.43 75.74 75.27 74.71 75.57 75.35 76.29 72.17 72.78 73.58 73.80 76.36 76.12 75.86 75.64 75.36 75.21 75.07
73.19 73.82 74.34 74.55 74.28 74.47 75.23 77.39 77.35 77.15 77.45 77.13 77.03 76.59 76.40 75.88 76.04 76.54 77.55 78.26 76.88 76.42 76.05 76.23 76.99 77.28 76.74 75.54 75.26 75.18 74.50 76.24 72.04 72.14 72.95 74.15 76.18 75.86 75.97 75.71 75.66 75.26 75.28
72.04 72.94 73.72 73.57 72.91 73.00 73.93 75.43 76.79 77.16 77.44 77.33 76.85 75.44 71.85 72.40 73.63 74.97 76.51 77.82 75.80 75.83 75.85 77.35 77.02 76.86 77.31 76.61 76.59 76.31 74.92 71.98 72.05 71.96 72.76 75.53 75.78 75.82 75.48 74.87 75.51 75.39 75.14
69.99 71.36 72.62 72.26 72.36 72.94 74.37 73.63 73.81 74.68 74.68 74.45 72.34 70.82 70.43 69.92 71.63 74.86 76.04 77.45 76.65 75.74 76.74 75.91 75.12 75.10 74.36 74.33 73.82 75.60 73.75 72.43 71.36 71.42 72.69 76.05 75.62 74.49 75.09 74.08 74.29 75.22 75.31
69.92 70.82 70.77 71.85 72.58 72.27 73.06 72.99 73.38 73.11 73.03 73.65 71.79 69.23 68.62 71.09 71.76 73.03 72.66 73.60 73.36 74.23 72.36 69.82 71.23 72.78 73.30 72.44 72.61 72.48 72.53 73.64 71.13 71.45 74.70 76.35 76.59 75.03 74.63 74.63 73.22 74.04 74.35
68.60 69.34 70.42 71.92 72.45 71.47 72.29 72.49 72.79 72.43 72.39 72.48 71.74 69.40 70.24 69.90 71.75 71.47 72.69 72.74 73.54 71.71 71.52 71.86 71.05 71.89 70.89 71.59 70.95 72.50 72.19 71.48 71.16 72.98 74.92 76.65 76.56 76.30 75.30 75.23 73.83 73.14 73.19
67.57 68.69 70.08 71.97 71.85 72.08 71.14 70.85 70.65 70.95 71.85 73.43 72.54 69.70 72.20 70.63 72.75 72.77 73.60 71.46 71.96 72.39 72.40 73.08 71.87 72.24 71.01 71.09 70.04 69.75 70.13 69.52 70.81 72.30 72.32 76.56 76.29 76.51 76.23 75.25 74.84 74.45 73.99
68.42 68.58 71.04 71.56 72.50 72.04 72.17 70.44 70.56 72.81 71.43 74.73 74.08 73.04 72.47 72.19 73.39 72.28 73.79 73.14 73.33 72.21 71.08 71.29 72.74 71.84 70.10 70.15 68.92 70.71 69.68 69.48 69.41 71.27 71.65 73.07 76.38 76.34 76.01 75.98 75.14 75.18 74.91
69.52 69.62 70.63 71.11 72.96 72.15 72.05 72.06 73.49 72.06 71.66 70.88 74.15 74.18 74.21 74.42 73.05 72.55 71.86 72.81 73.12 72.80 71.77 72.63 69.19 72.07 70.13 70.26 67.94 69.37 67.31 69.40 69.67 70.71 71.43 71.77 73.92 76.54 76.53 76.67 76.65 76.31 75.45
69.68 70.47 71.18 72.27 72.89 72.61 72.29 72.11 72.77 71.81 72.63 72.61 73.72 73.31 73.59 73.66 74.92 72.96 72.65 72.93 72.45 73.21 73.87 72.37 72.68 70.08 69.57 69.86 67.99 68.51 67.76 67.84 68.92 70.04 70.60 71.17 72.02 73.02 75.89 76.57 76.46 75.84 75.34
69.83 70.90 70.85 71.35 71.31 72.22 72.18 72.86 71.87 72.04 72.25 73.07 74.20 72.91 72.92 73.63 75.36 74.01 72.72 72.80 72.65 73.42 72.22 71.37 71.45 69.92 69.55 69.20 68.03 68.42 68.02 67.25 69.28 70.74 69.32 70.31 71.01 71.48 71.53 75.44 75.72 75.52 74.92
70.44 71.22 70.79 71.26 71.10 71.55 72.74 72.81 71.42 71.20 72.44 72.34 72.27 72.78 73.88 74.16 75.01 74.33 73.11 72.24 73.67 71.97 71.67 70.25 69.34 68.92 68.67 66.80 67.42 68.97 66.00 66.83 67.36 69.03 70.06 71.61 70.34 70.21 70.83 71.69 72.59 72.82 74.81
71.29 70.75 70.45 70.99 71.50 71.35 72.59 71.34 71.35 70.38 71.03 71.04 71.30 74.09 74.44 74.72 74.95 74.32 73.92 73.09 73.46 71.67 71.94 71.85 69.73 69.95 67.37 65.01 63.94 64.68 64.27 64.86 67.08 68.24 68.51 69.66 70.00 69.31 69.66 70.06 70.73 71.47 72.68
70.90 71.35 70.92 71.88 72.38 71.66 72.67 71.73 71.18 71.67 71.13 71.63 71.15 74.05 75.03 74.80 75.00 74.70 73.90 72.77 73.55 72.11 72.40 71.59 70.41 69.16 68.76 65.28 65.67 64.41 60.43 62.28 64.84 66.34 66.64 69.17 67.79 68.65 69.18 70.51 70.05 70.33 71.11
70.68 70.74 71.28 71.44 72.99 72.26 72.66 72.69 72.09 72.26 71.31 70.76 70.26 70.36 74.25 74.24 75.57 74.90 74.43 74.06 73.72 71.62 71.72 71.87 70.94 70.40 64.00 66.06 68.05 65.87 60.58 58.75 60.82 65.67 64.14 64.50 65.94 64.81 67.87 70.35 70.17 69.88 69.94
70.84 71.80 71.40 72.08 73.83 73.17 73.17 72.85 71.69 70.97 69.94 70.27 69.38 69.97 72.07 74.10 74.77 75.60 74.70 74.05 73.73 73.62 72.03 72.10 72.86 71.00 66.72 62.45 64.64 67.78 67.65 66.37 58.86 58.50 64.54 63.92 65.06 64.72 66.31 68.57 69.95 69.83 69.22
71.16 71.65 71.82 72.09 73.37 73.90 73.70 72.97 72.69 71.06 70.67 69.73 69.78 69.70 71.47 72.37 73.79 76.23 74.87 75.03 73.80 74.08 72.90 72.64 73.26 70.75 70.13 67.77 63.36 64.33 65.16 65.55 65.21 61.32 59.13 62.52 64.75 64.39 66.00 65.68 68.13 69.70 67.16
71.34 72.01 72.21 71.79 72.22 73.91 73.54 73.66 72.31 71.53 69.86 69.83 68.61 68.94 72.00 72.92 74.20 75.15 75.43 75.12 74.37 74.41 73.44 73.45 73.71 72.28 71.15 71.28 67.77 65.95 62.72 62.17 62.81 61.99 62.49 63.02 61.76 64.01 65.19 65.76 66.05 66.77 67.41

GFSSE_sfc_wetblb_042.txt.gz
Wetbulb
70.43 73.02 77.29 77.83 77.32 77.12 76.80 77.46 77.38 77.98 77.88 77.89 77.69 77.45 77.52 77.42 77.71 77.59 77.82 77.41 77.16 77.10 76.39 76.58 76.61 75.28 74.35 74.73 75.62 75.74 75.84 76.23 76.17 76.20 76.39 76.47 76.30 76.20 76.99 76.57 76.21 74.73 76.05
71.24 74.02 77.54 77.88 77.41 76.97 76.93 77.51 77.72 77.73 77.30 77.56 77.76 77.38 77.61 77.18 77.16 77.36 77.71 76.88 76.58 77.15 76.64 76.75 76.25 75.77 75.14 75.63 75.16 75.68 75.89 75.56 76.30 76.20 76.23 76.28 76.19 76.20 76.24 76.33 76.17 75.04 76.09
71.93 74.73 76.06 77.79 78.04 77.54 77.34 77.83 77.95 77.20 77.20 77.61 77.33 77.69 77.78 76.98 77.17 77.31 77.29 76.76 76.43 76.43 76.46 76.57 76.32 76.24 75.26 75.46 75.45 75.17 75.58 75.59 75.47 75.38 76.00 73.29 73.46 75.97 76.05 76.34 76.18 76.04 75.83
73.03 74.35 75.26 77.74 77.98 77.68 77.72 77.82 77.88 77.16 77.65 77.38 77.33 77.73 77.52 77.01 77.56 76.90 76.87 76.79 76.62 76.52 76.33 76.25 76.17 76.25 75.86 74.84 75.22 75.17 75.35 75.00 75.42 75.17 71.31 71.96 72.79 75.84 75.95 76.26 75.96 75.66 75.54
72.42 74.57 75.58 78.13 78.11 78.04 77.46 77.78 77.36 77.42 77.09 77.16 76.97 77.21 77.63 77.55 76.87 77.18 76.85 76.58 76.58 76.41 76.25 76.06 75.87 75.56 75.54 75.20 74.51 74.69 74.74 75.17 75.45 73.31 69.03 70.42 71.70 74.72 75.83 75.86 75.59 75.44 75.42
73.38 74.56 77.27 78.10 77.42 77.48 77.29 77.58 76.97 77.02 76.76 77.16 77.14 77.39 77.60 77.40 76.83 76.94 76.91 76.83 76.78 76.59 76.26 76.06 75.54 75.34 75.37 75.15 74.93 74.53 74.62 75.60 74.24 71.60 71.90 73.54 72.12 76.04 76.11 75.51 75.57 75.50 75.30
73.29 75.16 76.19 78.16 78.43 77.44 77.34 76.92 76.92 76.70 76.62 77.05 77.22 77.14 77.53 77.22 77.11 77.03 76.97 76.75 76.75 76.73 76.59 76.28 75.92 75.79 75.37 75.34 74.93 74.73 75.15 75.73 72.29 72.00 72.05 72.06 73.76 76.10 75.58 74.89 75.55 75.33 75.22
73.47 75.03 75.69 77.93 78.26 77.54 76.88 77.34 76.86 76.54 76.76 76.86 76.99 77.08 77.47 77.38 77.16 77.11 76.89 76.90 76.65 76.56 76.40 76.34 76.09 75.72 75.28 75.31 74.90 75.28 75.45 75.65 72.95 72.24 72.80 73.26 75.42 75.42 74.97 74.65 75.62 75.50 75.31
73.95 74.58 75.21 75.57 76.13 77.13 77.24 77.32 76.76 76.90 76.90 76.85 76.89 76.83 76.89 76.96 76.86 76.95 77.00 76.95 76.73 76.54 76.26 75.98 76.00 75.60 75.37 75.16 75.12 75.86 76.28 75.09 71.63 72.21 73.31 73.42 75.94 75.46 75.21 75.00 75.14 75.31 75.18
73.51 74.35 74.10 73.59 73.81 74.50 74.88 77.31 76.94 77.06 76.97 76.89 76.76 76.43 76.53 76.30 76.23 76.51 77.25 77.22 76.70 76.42 76.14 75.89 75.81 75.95 75.44 74.65 74.61 75.37 76.43 75.64 71.43 72.45 73.12 74.23 76.14 75.72 75.55 75.10 74.99 74.87 75.06
72.96 73.64 73.62 73.19 73.24 73.57 74.05 75.45 76.75 77.35 77.08 77.03 76.52 76.46 72.87 71.01 72.87 74.69 75.57 76.70 75.98 75.75 75.83 76.01 76.25 76.71 75.77 75.40 75.90 75.84 74.72 70.89 71.25 71.95 72.54 75.51 76.15 75.51 75.53 75.52 75.38 75.17 74.75
70.88 72.49 73.01 72.59 72.25 72.75 74.92 73.61 73.41 74.83 74.77 74.17 70.26 69.54 69.70 69.80 71.36 74.36 75.38 76.48 75.83 74.70 75.33 74.73 74.70 75.92 74.75 73.71 73.19 75.10 72.27 71.15 71.70 71.43 72.89 75.83 76.23 75.01 74.60 75.37 75.17 75.18 74.96
70.87 72.27 71.99 71.84 71.94 71.99 72.45 72.65 72.60 73.07 73.51 72.96 70.33 68.83 68.91 70.50 71.44 72.22 72.13 73.44 72.61 73.52 71.51 69.61 70.56 71.93 72.01 72.34 71.69 72.91 72.27 71.99 71.00 71.26 74.30 75.65 75.46 74.78 74.37 73.61 74.81 75.07 74.71
70.20 71.29 71.27 71.06 71.60 70.34 72.27 72.35 72.39 72.20 72.19 71.76 69.81 67.35 69.31 68.54 70.90 70.81 70.89 71.82 72.83 70.93 70.67 70.32 70.72 71.32 70.95 70.54 71.62 71.40 70.80 71.41 70.03 72.38 74.47 76.56 75.73 75.02 74.95 73.35 72.99 73.59 73.95
69.07 69.94 70.22 70.85 71.15 70.87 70.64 70.71 71.31 71.14 71.38 71.93 70.90 68.78 69.68 69.46 70.45 71.32 72.04 72.08 71.54 71.74 70.95 70.93 71.04 71.41 70.69 68.85 68.34 70.42 70.52 69.14 71.06 72.80 72.95 76.34 76.69 76.14 75.23 74.47 73.40 72.77 73.04
68.61 68.99 70.13 70.86 70.83 71.22 70.17 68.77 69.49 70.28 70.50 72.10 71.52 69.16 71.20 69.65 71.24 71.51 71.36 70.63 70.83 70.99 70.87 70.31 71.26 70.72 68.76 68.57 67.46 70.04 68.63 68.87 70.18 71.88 72.06 74.01 76.47 76.87 76.17 74.90 74.73 74.16 74.16
68.14 68.99 69.64 70.77 71.27 70.86 69.47 68.93 69.20 70.64 71.14 72.46 72.24 71.53 71.54 70.59 72.26 71.76 71.97 71.89 71.28 71.31 70.39 69.95 69.32 69.51 67.40 68.15 67.40 67.79 67.94 67.84 69.60 70.86 72.09 71.31 74.31 76.79 76.65 75.93 75.56 75.17 74.80
67.51 68.16 70.00 71.80 71.48 70.26 71.28 70.59 71.43 70.13 69.74 71.15 73.38 72.77 72.60 72.70 72.70 72.05 72.29 71.94 72.21 72.66 72.10 71.45 70.56 67.81 68.40 68.30 66.63 65.72 66.91 67.91 68.23 69.17 70.47 71.12 71.94 73.39 75.98 76.16 75.47 75.66 74.92
67.95 68.47 69.42 70.36 71.76 69.96 71.14 70.36 70.81 71.15 70.99 71.16 72.10 72.52 72.69 74.03 73.87 71.91 71.51 72.40 71.83 71.83 71.78 69.54 70.99 68.64 67.83 69.25 67.08 65.37 66.03 66.77 67.99 69.53 68.86 69.76 70.44 71.40 71.84 75.18 74.58 75.48 74.74
69.14 69.55 69.68 69.83 71.68 70.63 70.93 69.78 69.71 69.64 70.22 71.33 71.79 71.51 71.88 73.04 74.36 73.12 71.65 70.87 71.96 71.00 70.43 70.01 67.68 68.41 68.44 66.94 66.77 66.43 64.40 65.93 67.90 68.13 68.74 70.14 69.57 69.78 70.12 71.61 71.77 72.79 74.40
69.52 69.42 69.25 69.06 70.81 70.76 70.10 69.41 68.25 67.57 68.64 70.03 70.64 71.92 72.20 72.96 73.63 73.16 72.65 73.09 72.34 71.55 71.20 69.32 68.58 67.98 65.85 64.06 63.11 62.79 62.38 65.24 65.72 67.55 68.65 68.66 68.76 68.76 69.54 70.06 70.79 70.67 71.92
68.86 69.45 69.39 69.31 69.97 70.90 70.61 70.55 69.82 68.87 69.08 70.08 69.84 72.22 73.01 73.31 73.90 73.41 72.43 71.70 71.91 71.68 70.98 70.47 69.11 67.47 65.90 63.92 64.41 61.15 57.63 60.10 63.38 65.21 67.14 68.52 67.66 68.20 68.56 69.30 69.48 69.68 70.69
68.78 69.23 69.23 69.67 69.54 70.29 70.84 69.86 70.06 70.81 69.61 69.37 69.01 70.92 72.68 73.51 74.03 73.51 73.14 72.32 72.16 71.05 70.85 70.50 69.84 67.74 62.16 64.98 65.29 62.96 58.07 56.45 59.05 63.02 63.55 66.47 66.77 66.50 67.26 68.87 69.14 69.67 69.99
69.45 69.71 69.75 70.22 70.24 70.21 71.24 70.04 69.73 70.01 69.79 69.45 68.82 68.62 72.29 73.33 73.90 73.92 73.45 72.85 72.79 71.61 70.53 71.00 71.15 69.41 62.25 62.47 63.36 66.97 65.80 63.45 57.06 56.95 61.89 62.18 64.39 64.97 65.40 68.79 68.87 69.01 69.06
70.34 70.00 69.80 71.03 70.58 70.88 71.59 70.83 69.92 69.19 69.89 69.30 68.62 68.42 70.40 72.46 73.34 74.13 73.39 72.79 72.48 72.59 71.43 71.11 71.69 70.17 66.59 62.59 61.07 63.71 63.42 64.06 62.68 58.71 57.57 60.27 63.44 62.74 65.42 68.47 68.97 68.24 68.19
70.55 70.39 70.22 71.00 70.85 71.15 71.68 71.20 70.54 69.65 69.16 68.70 67.97 67.72 68.77 70.84 72.05 73.45 73.73 73.01 73.08 72.80 71.97 71.25 71.90 70.18 70.28 66.43 65.90 63.93 61.94 61.30 60.91 60.83 60.05 59.95 59.97 61.73 63.87 64.54 67.24 68.29 67.37

GFSSE_sfc_wetblb_045.txt.gz
Wetbulb
69.87 72.29 77.02 77.24 76.78 77.26 77.29 77.25 77.39 77.43 77.32 77.32 77.19 76.88 76.69 76.42 76.71 76.64 76.94 76.46 76.08 76.04 76.37 75.56 74.46 74.02 74.82 75.48 75.09 75.34 75.76 76.18 76.52 76.53 76.45 76.47 76.52 76.47 76.51 76.34 75.82 74.39 76.01
71.43 73.85 77.25 77.65 76.81 77.30 76.89 77.24 77.09 77.43 77.08 77.36 76.85 76.63 76.40 76.76 76.84 77.14 76.68 76.85 76.06 76.43 76.48 75.99 75.09 74.90 74.49 75.09 75.39 75.75 75.85 75.87 75.98 75.95 75.99 75.81 75.92 76.48 76.11 76.23 76.15 74.86 75.78
72.50 74.25 75.82 77.26 77.06 77.12 77.14 77.32 77.05 77.51 77.27 77.38 77.27 77.05 76.79 76.87 77.01 76.86 76.44 76.51 76.62 76.62 76.44 76.19 75.62 75.04 75.75 75.23 75.20 75.26 75.47 75.52 75.48 75.76 75.66 72.88 73.56 75.98 76.25 76.25 76.09 75.72 75.64
73.59 74.06 75.64 77.21 77.46 76.86 77.21 77.05 77.12 76.80 76.86 76.94 77.21 77.02 76.96 76.88 76.88 76.66 76.61 76.33 76.41 76.41 76.29 76.29 75.95 75.16 75.09 74.94 74.86 74.93 75.12 75.75 75.31 74.67 70.95 71.84 73.11 76.33 76.21 76.18 75.81 75.53 75.31
73.49 74.02 75.54 77.60 77.64 76.80 77.02 77.01 77.48 77.14 76.62 77.04 76.88 77.23 76.93 77.24 76.79 76.66 76.63 76.58 76.35 76.06 75.54 75.69 75.48 75.43 74.74 74.98 75.01 74.98 74.99 75.14 75.01 72.30 70.45 70.72 72.18 75.15 75.90 75.54 75.40 75.28 75.24
73.88 74.03 76.71 76.97 77.15 76.70 76.84 77.04 77.54 76.66 76.69 76.86 77.68 77.11 77.04 76.88 77.05 76.86 76.67 76.69 76.58 76.12 76.01 75.63 75.31 75.03 74.88 74.74 74.52 74.80 75.37 75.57 73.84 70.56 71.55 72.95 71.74 75.62 75.77 75.53 75.44 75.11 75.23
72.90 74.64 75.18 77.73 77.47 77.31 76.70 76.84 76.81 76.58 76.98 77.12 77.63 76.98 77.24 76.94 77.01 77.05 77.05 76.89 76.67 76.53 76.22 76.00 75.86 75.12 74.89 74.77 74.96 75.40 75.52 74.48 71.74 71.75 71.70 72.41 73.69 76.04 75.14 75.46 75.52 75.24 75.06
73.69 74.89 75.24 77.19 77.08 77.23 76.61 76.74 76.49 76.65 76.97 76.85 77.13 77.47 77.07 77.11 77.03 77.17 76.98 76.82 76.60 76.37 76.30 75.90 75.73 75.01 74.82 75.12 75.10 75.57 75.65 74.89 72.94 71.91 72.42 72.54 74.94 75.31 74.62 75.43 75.21 75.26 75.09
74.48 74.32 74.66 75.17 75.31 76.83 77.06 76.57 76.58 76.76 76.93 76.85 77.02 77.21 77.06 76.96 76.95 76.97 76.93 76.74 76.54 76.35 75.96 76.09 75.43 75.35 74.93 74.78 74.81 75.32 75.90 74.85 71.27 72.05 73.00 72.70 75.55 74.51 74.67 75.36 75.35 75.01 74.86
73.71 74.14 73.72 73.61 73.29 73.62 74.72 76.58 76.78 76.85 76.99 76.80 76.62 76.62 76.61 76.56 76.71 76.54 77.37 77.68 76.52 76.18 75.90 75.63 75.88 76.01 75.73 75.48 75.32 75.86 75.41 75.00 71.58 72.26 72.68 73.02 75.41 74.89 74.30 74.98 75.05 74.85 74.67
73.12 72.98 72.44 72.48 72.91 73.16 73.83 74.89 76.57 77.00 76.97 76.79 76.34 76.65 74.19 71.57 72.75 74.24 75.69 76.79 75.79 75.98 76.07 76.31 75.97 76.20 76.34 76.32 76.09 76.31 75.49 70.94 71.18 71.98 72.40 75.09 75.66 75.27 75.02 74.78 74.97 74.88 74.43
70.95 72.71 71.86 72.15 72.35 72.84 74.82 73.33 73.41 74.57 74.23 73.70 72.16 70.12 70.26 70.00 71.51 74.02 74.87 76.15 75.54 74.98 75.99 73.44 75.07 75.27 74.57 71.94 72.23 75.11 70.58 71.11 71.50 71.86 72.47 75.49 75.81 74.68 75.23 75.43 74.77 74.50 74.58
70.95 72.46 71.90 71.58 71.72 72.23 72.82 72.26 72.56 73.33 73.41 72.98 68.76 68.48 69.03 69.89 70.66 71.52 71.94 73.03 71.70 73.23 70.74 70.28 70.55 71.31 71.29 71.91 71.88 72.16 70.91 71.00 70.95 71.74 73.62 75.84 75.76 74.32 74.64 74.39 74.88 74.75 74.59
70.60 71.58 71.70 71.47 71.13 70.92 71.28 71.88 72.00 72.34 72.33 71.70 70.13 67.30 67.93 69.53 70.35 70.78 70.47 70.71 71.49 70.22 70.02 69.69 70.23 71.39 69.77 70.34 70.61 70.82 71.25 70.68 69.97 71.28 73.51 75.51 75.58 74.60 73.33 74.27 74.75 74.51 74.13
69.73 71.02 71.12 70.75 70.62 70.27 70.58 70.91 71.27 71.38 71.71 71.50 68.96 67.30 68.22 68.79 69.79 70.54 70.92 71.06 70.96 71.07 70.04 70.41 69.79 70.09 69.22 67.66 68.80 70.71 70.04 69.43 70.80 72.14 72.65 75.55 75.51 75.48 73.71 72.86 72.94 73.41 73.50
70.01 70.22 70.45 69.99 70.54 69.79 69.59 69.08 70.11 70.53 71.01 71.45 70.77 68.50 69.45 69.43 70.47 70.43 70.60 69.87 70.13 70.38 70.02 69.83 70.22 69.81 68.18 67.62 67.20 70.29 68.31 69.69 70.89 72.18 72.46 73.63 76.06 76.06 75.15 74.07 73.26 72.83 73.01
69.30 69.82 69.09 69.40 70.23 69.31 69.38 68.33 69.26 70.12 70.58 70.84 71.43 69.96 69.76 69.70 71.10 71.28 70.60 70.47 69.91 70.27 70.18 68.81 67.95 68.64 66.74 66.78 66.73 67.41 67.68 68.40 69.97 71.42 71.93 71.65 74.15 75.45 75.06 74.86 74.66 74.18 74.38
68.77 68.36 68.80 70.79 70.28 69.43 68.89 67.98 68.71 69.25 69.73 70.26 71.22 71.42 70.83 70.66 71.75 71.33 71.13 71.09 70.57 70.96 70.85 70.91 69.58 66.92 66.81 65.87 65.25 65.96 66.31 67.23 68.49 69.93 70.38 70.66 72.18 73.50 75.36 75.54 75.23 74.95 74.77
68.03 67.91 67.81 69.61 69.75 69.30 69.06 68.82 69.59 69.53 69.21 70.28 71.63 71.87 71.49 71.92 72.71 71.37 71.41 71.67 71.39 70.62 70.34 71.48 69.68 67.78 68.09 66.96 65.42 64.68 65.54 66.31 66.79 69.16 68.86 69.77 70.66 71.31 72.30 74.54 75.24 75.17 74.85
67.38 67.57 68.18 69.36 69.82 69.07 69.65 68.82 69.20 69.39 70.04 70.17 70.86 71.48 72.14 72.94 73.11 71.03 70.85 70.94 71.05 70.91 69.90 69.46 68.84 66.98 66.44 66.18 66.31 64.84 64.55 66.19 67.00 67.39 67.55 69.07 69.22 70.19 70.46 71.14 71.27 71.92 74.11
67.35 66.57 67.78 68.51 69.44 69.31 68.99 67.75 67.23 67.13 67.97 69.53 70.42 71.48 71.57 72.58 73.31 71.84 70.95 70.93 71.60 69.86 70.19 68.18 67.62 65.24 63.54 63.12 62.69 61.62 61.62 63.28 65.27 66.74 67.27 67.75 68.38 68.28 68.59 69.95 70.34 70.22 70.95
67.62 66.67 67.79 68.43 69.04 69.94 69.96 69.97 67.72 67.12 67.82 69.07 69.55 70.71 71.43 72.07 72.95 72.53 71.75 71.40 71.38 70.57 69.88 69.55 67.81 66.50 63.68 63.11 61.57 58.51 57.36 59.56 62.63 64.29 66.73 68.20 67.22 67.90 68.29 69.15 69.28 69.14 69.85
67.58 67.55 67.63 68.14 68.78 70.27 70.12 68.66 69.12 69.04 68.20 68.12 68.18 69.97 71.11 72.19 73.05 72.54 71.96 71.08 71.33 70.53 70.09 69.44 68.78 66.27 61.25 63.76 64.28 61.04 56.84 55.69 58.54 61.94 63.59 66.26 66.86 66.29 66.70 67.74 68.15 68.75 69.40
67.63 68.73 68.49 68.32 68.62 70.21 69.76 69.15 68.32 67.74 66.54 66.50 67.56 68.40 70.93 72.25 72.55 73.21 72.25 71.44 71.36 70.61 69.19 70.03 69.92 68.01 61.88 62.23 62.46 66.59 63.35 60.42 56.94 58.07 60.53 62.29 64.15 65.58 65.44 66.87 67.80 68.33 69.03
68.84 68.67 68.84 68.65 68.37 69.77 69.67 69.69 68.87 66.86 66.56 68.18 67.73 67.70 70.21 71.45 72.51 73.26 72.47 71.74 71.71 71.40 70.30 70.36 69.74 68.75 62.00 61.62 60.49 63.26 62.72 63.15 59.77 57.24 55.81 59.53 62.50 63.03 63.29 65.59 67.89 67.76 67.95
69.13 68.96 69.02 68.45 68.37 68.90 69.44 69.32 68.60 67.96 67.54 67.73 67.55 67.00 68.04 70.34 71.55 72.39 72.80 71.78 71.56 71.66 71.12 70.27 70.40 69.37 67.41 64.17 62.15 62.63 61.68 61.46 60.85 59.35 58.27 58.16 59.39 61.24 62.50 65.03 66.70 68.06 67.61

GFSSE_sfc_wetblb_048.txt.gz
Wetbulb
69.28 72.05 76.70 76.57 77.12 76.61 77.40 77.23 77.26 77.06 77.06 76.78 76.61 76.30 76.45 76.52 76.58 76.61 76.42 76.08 75.61 76.10 75.22 74.47 74.12 74.69 75.36 75.59 75.80 75.86 76.21 76.73 76.67 76.60 76.94 77.11 76.44 76.53 76.48 76.36 75.58 74.47 75.79
70.92 73.45 76.87 76.98 76.95 76.85 77.10 77.28 77.02 77.02 77.07 77.04 76.82 76.49 76.31 76.53 76.45 76.60 76.27 76.05 76.03 76.18 75.41 74.96 74.42 74.45 75.03 75.14 75.38 75.48 75.86 76.14 76.22 76.46 76.51 76.63 76.63 76.20 76.36 76.09 76.11 74.77 75.98
71.86 73.89 75.13 77.09 77.15 77.08 76.54 77.40 76.79 77.12 76.90 76.82 76.72 76.54 76.60 76.52 76.29 76.51 76.46 76.05 76.30 76.41 75.88 75.24 75.28 75.33 74.86 75.22 75.21 75.85 75.74 75.71 75.53 75.52 76.17 74.74 75.16 76.41 76.43 76.37 76.01 75.86 75.44
73.05 73.96 74.65 76.56 77.46 76.81 76.77 77.47 76.89 77.18 77.12 77.11 76.29 76.31 76.51 76.25 76.57 76.18 76.36 76.47 75.65 75.70 75.99 75.58 75.14 75.22 75.00 75.22 75.55 75.63 75.24 75.43 75.51 74.76 72.84 73.58 74.83 76.32 76.31 76.17 75.66 75.69 75.48
73.11 74.45 74.55 77.17 77.51 76.65 77.03 77.20 76.52 76.79 76.95 76.83 76.56 76.84 76.63 76.58 76.71 76.73 76.57 76.28 75.56 75.78 75.08 75.44 75.36 74.75 74.42 74.59 74.54 74.98 75.37 74.91 74.59 73.09 72.93 73.92 75.00 75.40 75.92 75.71 75.45 75.50 75.53
73.45 74.26 76.10 77.11 76.70 76.58 77.19 77.16 76.54 76.70 76.58 76.58 76.87 76.58 76.63 76.81 76.82 76.68 76.60 76.17 76.29 76.15 75.85 75.35 75.28 74.89 74.89 74.71 74.50 74.72 75.20 75.15 73.61 72.56 73.60 74.56 74.43 75.97 75.49 75.24 74.95 75.40 75.28
72.62 73.98 74.67 77.51 77.32 76.55 77.14 77.02 76.60 76.56 76.34 76.91 76.74 77.05 77.01 76.66 76.55 76.78 76.84 76.65 76.46 76.41 75.90 75.39 75.08 74.67 74.70 74.70 75.30 75.30 75.44 75.24 72.54 72.95 73.28 74.18 75.26 76.16 75.87 75.53 75.24 75.08 75.08
73.22 74.06 74.53 76.68 77.40 76.61 76.80 76.63 76.54 76.90 76.56 76.96 77.20 77.30 77.14 77.11 76.87 76.91 76.60 76.52 76.41 76.19 75.77 75.31 74.97 74.67 74.86 74.72 75.25 75.43 74.97 74.27 73.41 73.50 73.93 74.37 75.53 75.34 75.55 75.23 74.99 75.02 74.97
74.32 73.92 74.18 73.70 76.25 76.38 76.40 76.32 76.67 76.94 76.75 77.04 77.39 77.29 77.10 77.17 76.95 76.69 76.55 76.22 76.19 75.77 75.61 75.18 75.14 74.89 75.14 74.44 75.14 75.70 75.24 74.71 72.90 73.50 73.50 73.99 75.30 75.03 75.41 75.27 75.07 74.89 74.72
73.63 73.74 73.64 73.08 73.06 74.13 74.13 76.28 76.37 76.79 76.79 76.89 77.06 77.10 76.97 77.01 76.60 76.52 75.11 76.22 75.83 75.97 75.66 75.06 75.39 75.83 75.38 75.38 75.95 75.86 75.33 74.96 73.18 73.68 73.85 73.85 74.77 74.50 75.34 74.99 74.64 74.78 74.85
72.80 72.77 72.79 72.20 72.76 73.55 73.87 74.99 76.46 76.99 76.77 76.74 76.41 76.29 74.55 73.42 74.12 74.94 75.78 76.03 75.67 75.97 76.11 75.97 75.97 76.76 76.55 75.66 76.12 75.50 74.88 73.02 73.33 73.51 73.95 74.64 75.10 74.63 74.82 74.70 74.93 74.78 74.49
71.11 72.46 71.95 72.10 72.42 73.12 74.84 73.89 74.15 75.05 74.28 74.37 73.65 71.66 71.71 72.04 73.43 74.34 75.25 75.47 75.21 75.66 74.61 75.50 75.77 75.61 74.32 73.67 75.70 75.57 72.41 72.69 73.44 73.43 74.14 75.24 75.76 75.20 74.68 74.93 74.55 74.53 74.17
70.26 72.44 71.64 71.91 72.31 72.66 73.50 72.92 73.32 73.67 73.83 73.18 71.13 70.40 71.19 71.32 72.34 72.92 73.09 73.84 73.24 73.37 71.67 71.82 72.21 72.78 72.88 72.88 73.42 72.25 72.11 72.39 73.30 73.55 74.21 75.18 75.36 74.44 73.70 74.64 74.56 74.38 74.40
69.83 71.39 71.77 71.85 71.73 71.95 72.29 72.28 72.58 72.94 73.23 72.51 70.39 69.02 69.67 70.51 71.66 72.34 72.35 72.50 73.05 71.71 71.41 71.72 72.15 72.66 70.86 72.73 72.12 72.85 72.33 71.96 72.29 73.28 74.52 75.47 75.17 73.73 74.08 74.79 74.86 74.09 73.92
69.41 71.18 71.63 71.42 71.18 71.38 71.11 71.95 72.00 72.22 72.59 72.31 71.07 68.49 69.68 70.07 71.36 72.27 72.04 71.64 72.26 72.36 71.65 72.19 72.65 71.99 70.88 69.79 71.80 72.18 72.03 71.34 72.19 72.98 74.10 74.51 75.27 74.44 72.93 73.55 73.73 73.63 73.48
69.97 70.72 71.44 71.04 70.87 70.52 70.07 70.91 71.15 71.53 72.02 72.24 70.15 68.63 69.56 70.14 71.04 71.92 71.47 72.06 71.48 72.25 71.88 72.03 72.81 71.38 69.90 69.17 70.44 72.13 71.30 71.44 72.29 73.33 73.95 75.45 75.52 75.74 73.65 72.85 72.57 72.68 72.83
69.51 70.56 70.40 70.28 70.36 69.57 69.64 69.86 70.36 71.02 71.63 71.65 72.03 70.78 69.86 70.92 71.41 72.55 72.42 72.09 71.54 72.41 71.91 71.80 69.90 70.29 69.24 69.06 69.92 70.88 70.53 71.48 72.22 73.10 73.94 74.23 75.01 74.82 74.90 74.60 73.97 73.35 73.31
69.61 69.62 70.01 71.18 69.98 69.27 69.12 68.97 69.40 70.31 70.80 70.97 71.86 71.92 70.73 71.76 71.39 72.74 72.94 72.66 72.21 72.57 72.74 72.44 71.97 69.77 69.02 68.82 68.80 69.27 69.61 70.32 71.60 72.54 72.96 73.31 74.61 75.10 75.33 74.40 73.91 74.38 74.40
69.41 69.12 68.69 69.42 68.95 69.06 69.11 68.95 68.80 69.83 69.86 70.47 71.67 72.03 71.86 72.16 72.84 72.92 72.66 73.22 73.47 73.27 72.68 72.73 71.59 70.58 69.71 68.90 67.48 68.12 68.34 68.76 69.66 71.02 71.52 72.09 72.98 73.75 74.20 74.50 75.00 74.95 74.35
69.02 68.63 68.46 68.71 68.92 68.88 68.86 68.96 69.58 69.96 70.30 70.25 71.50 72.16 72.46 72.53 73.50 72.42 72.80 72.66 72.91 73.00 72.69 71.34 70.84 68.92 69.55 67.71 67.02 66.41 67.59 68.80 69.06 69.87 69.82 70.98 71.45 72.56 73.05 73.48 73.75 73.67 74.45
68.36 67.49 67.45 68.16 68.25 68.54 68.32 67.75 68.37 68.53 69.74 70.84 71.14 72.66 72.71 73.12 73.93 72.11 72.35 72.20 73.29 72.19 72.37 71.23 69.99 68.00 66.27 66.73 66.10 65.18 64.92 66.09 68.28 69.51 69.78 69.93 70.08 71.30 71.32 72.06 72.59 72.73 72.84
66.99 66.86 67.25 68.09 68.46 69.37 69.44 69.11 68.98 68.40 69.18 70.90 71.30 72.19 72.65 73.26 74.23 73.25 72.42 72.52 73.20 72.23 71.25 71.39 70.79 69.26 66.00 66.46 64.81 63.81 62.23 64.80 65.69 67.03 69.41 69.90 69.87 70.49 70.71 70.91 71.60 71.87 71.99
66.20 66.10 66.87 67.85 68.46 69.68 69.51 69.06 68.96 69.03 69.16 69.57 70.02 70.93 71.85 72.76 74.10 74.09 73.26 72.90 72.66 72.18 71.33 71.57 71.02 69.55 65.23 67.13 67.23 64.53 61.52 61.16 62.30 65.30 67.15 69.02 69.83 69.68 69.90 70.24 70.47 70.95 71.48
67.10 67.07 67.23 67.88 68.02 69.68 69.85 69.26 69.01 67.88 67.14 67.84 69.27 70.28 71.36 72.63 73.04 73.85 73.56 72.78 72.93 72.17 72.18 72.40 71.68 70.25 66.58 66.72 66.50 68.28 66.28 64.65 62.88 63.50 65.11 66.09 67.88 68.63 69.51 69.60 70.20 70.54 71.27
68.39 67.94 67.22 67.73 67.98 69.34 69.66 69.65 68.97 68.71 67.63 68.10 68.88 69.74 71.07 72.18 72.94 73.79 73.72 73.08 72.67 73.07 72.31 72.27 71.95 70.91 66.36 66.32 66.07 66.82 66.42 65.33 63.41 62.75 62.43 64.54 65.88 67.47 68.61 68.90 69.68 70.68 71.07
68.90 68.37 68.17 67.42 67.41 68.65 69.64 69.60 69.04 68.43 67.32 67.94 68.04 68.17 69.32 71.12 72.02 73.31 73.85 73.30 73.21 73.45 72.97 71.96 72.55 71.45 69.08 66.78 65.97 67.22 66.66 66.71 64.99 63.32 62.36 62.59 63.56 66.33 66.80 67.12 68.17 69.79 71.01

GFSSE_sfc_wetblb_051.txt.gz
Wetbulb
72.33 75.14 76.93 77.06 77.09 77.56 77.24 77.30 77.23 77.07 77.07 77.49 77.41 76.92 76.18 76.09 76.14 76.59 76.66 75.89 75.68 75.70 74.82 74.41 74.88 75.29 75.91 76.27 76.20 76.47 76.40 76.71 77.28 77.08 76.78 76.77 76.68 76.81 76.47 76.24 76.54 75.75 76.17
73.14 75.54 76.96 77.40 77.30 77.81 77.69 77.57 77.32 77.43 76.93 76.81 76.43 76.64 76.72 76.73 76.91 76.77 76.04 75.81 76.26 75.73 74.90 74.71 74.91 75.51 74.93 75.40 76.06 76.16 76.55 76.63 76.93 76.86 76.79 76.66 76.70 76.51 76.52 76.22 76.63 75.90 76.02
73.90 75.18 76.37 77.41 77.65 77.47 77.43 77.62 77.28 77.37 77.40 77.02 76.91 76.76 76.77 76.79 76.83 76.35 75.90 76.11 76.37 75.96 75.35 75.77 75.07 74.93 75.53 75.99 75.81 76.09 76.29 75.95 76.36 76.38 75.93 76.33 76.24 76.48 76.09 76.35 76.38 75.76 75.47
74.21 74.72 76.10 77.40 77.49 76.86 77.34 77.57 77.64 77.29 77.11 77.03 76.87 76.82 76.64 76.42 76.62 76.26 75.88 75.49 75.84 76.08 75.74 75.41 75.43 75.35 75.55 75.60 75.79 75.32 75.73 76.19 75.96 75.84 75.79 75.81 75.85 75.90 76.10 76.08 75.74 75.74 75.33
74.47 75.20 76.28 77.68 77.04 77.26 77.07 77.24 77.63 77.28 77.09 76.41 76.44 76.65 76.34 76.54 76.17 75.95 75.92 75.55 75.90 75.18 75.68 75.54 75.05 74.80 74.80 75.07 75.64 75.65 75.46 75.27 75.07 75.39 76.10 76.31 76.16 76.18 75.95 76.04 75.44 75.74 75.82
74.68 74.76 76.37 77.29 76.61 77.23 77.35 77.14 77.19 76.93 76.60 76.81 76.76 76.40 76.49 76.76 76.37 76.45 76.06 76.09 76.12 75.96 75.29 75.32 75.32 75.23 74.74 74.55 74.96 75.23 75.40 74.92 74.77 75.39 75.56 75.54 75.95 75.69 75.80 75.20 75.64 75.50 75.42
73.78 75.29 76.39 77.60 77.22 76.90 77.29 76.72 77.20 76.76 76.66 76.64 76.62 76.77 77.03 77.07 76.99 76.53 76.70 76.43 76.43 75.96 75.41 75.35 75.19 75.13 74.69 74.99 74.85 75.39 75.72 74.49 74.75 75.22 75.53 75.86 76.04 75.69 75.97 75.73 75.50 75.35 75.31
73.24 74.73 76.11 77.00 77.14 76.57 77.36 76.68 76.95 76.90 76.87 77.14 76.92 77.59 77.76 76.86 77.25 77.07 76.65 76.21 75.91 75.35 75.07 74.85 75.21 75.30 74.99 75.10 75.51 75.72 74.98 73.77 74.03 74.95 75.51 75.72 75.37 76.28 75.70 75.34 75.31 75.40 74.47
73.70 75.09 75.49 76.73 76.46 77.00 77.05 76.70 77.11 77.04 76.95 76.87 77.30 77.63 77.43 77.22 77.12 76.99 76.43 76.24 75.88 75.37 75.14 75.11 75.27 75.27 75.10 75.43 76.08 75.54 75.11 74.74 75.24 75.22 74.36 74.56 75.57 75.75 75.68 75.20 75.31 75.19 75.07
73.50 75.02 74.86 76.65 75.26 75.71 76.14 76.79 77.01 77.12 77.27 77.24 77.50 77.49 77.22 77.15 76.82 76.48 76.50 76.02 76.04 75.53 75.31 75.42 75.54 75.41 75.71 76.03 76.22 75.70 75.32 74.71 74.37 74.34 74.53 74.43 75.54 75.35 75.25 75.23 75.00 74.52 74.83
72.79 74.66 74.18 75.72 75.44 76.38 76.03 76.12 76.07 76.88 77.18 77.10 77.25 77.13 76.74 76.84 76.50 75.95 76.35 76.10 75.65 75.93 75.72 75.36 75.51 75.93 76.15 76.18 76.11 75.73 74.74 74.08 73.59 74.04 74.45 74.53 74.97 74.65 75.37 75.09 75.03 74.68 74.78
71.24 73.61 73.70 74.76 75.25 75.39 75.16 76.81 77.15 76.87 76.55 76.87 76.98 76.74 76.42 76.62 76.87 75.68 75.92 76.21 75.74 75.55 75.43 76.07 75.79 75.93 75.50 75.15 75.66 75.27 74.76 74.63 74.00 73.88 74.83 75.43 75.62 74.93 74.73 75.06 74.74 74.53 74.47
71.43 73.20 74.13 74.49 75.92 75.36 75.48 75.85 76.13 76.40 76.41 76.63 76.02 75.62 75.92 76.31 76.91 76.08 76.24 76.41 76.19 74.60 75.34 75.23 75.70 75.17 74.47 74.65 75.34 75.24 75.01 75.00 74.74 73.90 74.99 75.32 75.04 75.19 75.38 74.78 74.43 74.39 74.37
71.60 72.81 74.27 74.54 75.18 75.52 75.73 75.52 75.98 75.69 75.85 75.20 75.03 75.10 75.38 75.55 76.39 76.96 75.51 75.72 75.83 75.99 75.67 76.08 75.81 75.63 75.08 75.22 75.03 74.91 74.94 75.25 75.19 73.94 74.83 74.45 74.14 73.66 73.78 74.64 74.72 74.41 74.40
70.67 71.77 74.08 74.68 74.83 75.65 75.95 75.43 75.55 75.78 75.42 75.25 74.53 73.51 75.21 75.30 75.74 75.99 75.81 75.54 76.49 76.91 76.46 76.37 76.35 75.29 75.14 75.09 74.86 75.16 74.97 75.34 74.72 74.45 74.53 74.35 74.11 73.11 73.03 74.12 74.38 73.82 73.67
71.16 72.09 74.16 74.42 74.73 75.27 75.07 75.90 75.45 75.71 75.66 75.70 75.48 73.70 73.69 75.07 75.85 76.24 76.56 76.30 76.10 76.65 76.60 77.21 76.38 74.56 74.28 74.22 74.83 74.84 74.93 75.03 74.63 74.46 74.47 74.75 73.98 74.16 72.76 72.15 72.43 72.48 72.77
71.57 72.73 73.55 74.26 74.41 74.77 74.91 75.30 74.83 74.94 75.07 75.05 74.52 73.88 73.76 75.02 75.78 76.61 76.27 75.80 75.63 76.06 76.29 76.18 75.04 74.36 73.38 73.98 75.06 75.06 75.07 75.00 74.09 74.32 75.23 75.81 75.51 74.13 74.11 73.32 72.83 72.72 72.80
71.74 72.62 73.60 73.35 73.46 73.82 73.79 74.12 74.01 74.25 74.70 75.58 76.08 76.43 75.07 75.21 76.05 76.88 76.02 75.91 76.19 76.19 76.50 75.58 74.56 73.01 73.10 72.93 73.52 73.97 74.68 74.82 73.98 74.36 75.31 75.92 76.46 75.84 74.86 74.06 74.00 74.35 74.19
72.26 72.47 73.05 73.53 73.06 73.08 73.84 73.72 73.64 74.21 74.35 75.02 75.59 75.74 76.63 75.71 75.77 77.10 77.27 76.71 76.96 76.69 76.17 76.09 75.28 74.06 72.45 72.52 72.52 73.31 73.56 73.13 73.52 73.62 74.41 74.99 75.60 75.29 76.19 74.92 74.82 74.45 74.13
72.66 72.81 73.14 73.17 73.45 73.67 73.41 73.94 73.23 72.67 73.84 74.91 74.92 75.43 76.38 76.37 76.10 76.77 77.61 76.99 76.76 76.88 75.93 75.25 75.57 71.77 74.41 73.20 71.05 71.64 72.97 73.82 73.83 74.67 74.28 74.00 74.77 75.35 75.72 75.59 75.83 75.25 73.76
72.83 72.64 72.56 72.77 73.38 72.63 72.19 71.61 71.92 71.56 72.90 74.01 75.11 76.10 76.46 76.63 76.77 77.29 77.06 77.16 76.67 77.95 77.34 75.37 73.54 72.68 70.66 72.08 70.66 70.23 67.99 69.94 72.93 73.67 75.07 74.73 73.75 74.60 74.78 75.22 75.06 75.05 74.60
71.91 72.47 72.58 72.65 73.32 73.00 72.48 73.61 73.22 73.72 74.07 75.67 76.00 76.26 76.84 76.71 77.41 77.18 76.63 76.27 77.12 76.73 76.01 75.54 74.99 71.40 71.40 71.71 70.63 69.76 67.37 68.66 71.67 72.32 73.60 73.72 74.30 75.15 74.98 74.45 74.69 75.04 74.89
71.12 71.78 72.42 72.90 73.64 73.63 74.18 73.53 73.54 74.10 74.19 73.78 74.75 75.24 76.27 76.82 77.58 77.98 77.17 76.60 77.45 78.57 75.47 75.99 75.18 73.73 69.81 71.70 71.89 70.24 66.13 65.39 69.01 71.40 71.71 73.12 73.79 73.91 74.57 74.41 73.81 74.31 74.76
71.10 72.00 72.64 73.25 73.55 73.75 74.58 73.61 74.29 72.21 71.41 73.20 74.50 75.44 76.01 76.96 77.07 78.00 78.15 77.42 77.16 77.10 77.08 76.21 75.82 74.93 72.82 70.59 71.68 72.77 71.21 70.55 67.06 66.27 70.48 71.47 72.62 72.98 73.51 73.83 73.71 73.90 74.39
71.16 71.17 71.90 73.29 74.06 74.72 74.30 74.87 73.27 73.54 73.21 73.82 73.94 75.49 76.56 76.94 77.08 76.96 77.63 77.39 76.87 76.49 77.30 76.65 76.50 75.83 73.30 71.84 71.21 71.81 72.56 70.88 70.43 68.70 66.72 69.08 71.02 72.15 73.08 73.25 73.00 73.47 74.34
71.72 71.08 71.30 72.98 73.60 74.44 74.34 74.58 75.21 74.85 74.14 72.70 73.41 73.03 74.09 75.01 75.84 76.71 77.10 77.27 77.47 77.02 76.85 76.65 76.93 76.51 74.59 72.20 71.72 72.59 71.53 70.89 69.49 68.45 67.41 69.33 68.35 71.35 72.11 72.93 72.78 72.87 73.69

GFSSE_sfc_wetblb_054.txt.gz
Wetbulb
74.16 75.13 76.97 76.99 77.00 76.85 76.63 76.49 76.85 77.27 77.43 77.86 77.33 77.03 76.36 76.02 76.45 77.00 76.36 76.13 75.79 75.12 74.91 75.37 75.63 76.31 76.51 76.45 76.57 76.58 76.64 76.85 77.14 76.91 76.52 76.82 76.60 76.45 76.27 75.99 76.54 75.50 76.17
75.00 75.22 77.70 77.76 77.29 77.20 77.29 77.07 76.87 77.00 77.04 76.96 76.86 76.41 76.52 76.94 77.04 76.59 76.12 76.57 76.07 75.53 75.10 75.46 75.63 75.07 76.04 76.40 76.77 75.65 75.76 76.85 76.49 76.95 77.02 77.00 76.71 75.99 76.78 75.91 76.77 76.26 76.17
73.47 76.18 76.70 77.35 77.65 77.43 77.73 77.64 77.31 76.83 76.83 76.78 76.60 76.78 77.00 77.13 76.60 76.01 76.26 76.52 75.96 75.85 76.14 75.16 75.10 75.67 75.90 75.85 76.17 76.47 76.41 76.56 76.68 76.25 76.21 76.37 76.25 76.17 76.49 76.28 75.94 75.94 75.82
73.80 75.90 75.90 76.82 77.42 77.40 77.60 77.47 77.59 77.54 77.27 77.12 77.19 77.14 76.92 76.88 76.67 76.29 75.74 75.54 76.37 76.04 75.71 75.96 75.82 75.46 75.85 76.01 75.89 76.09 76.39 76.29 76.19 75.59 75.66 75.57 75.65 75.86 76.16 75.93 76.03 75.70 75.82
73.98 75.76 77.00 77.25 77.76 77.35 77.47 77.36 77.40 77.29 77.19 77.11 77.05 76.66 76.71 76.83 76.21 75.96 75.96 75.93 75.66 76.32 76.07 75.27 75.41 75.49 74.96 75.88 75.79 75.88 75.97 75.56 74.99 75.96 76.54 76.38 76.90 76.07 76.13 76.11 75.59 75.68 76.11
74.09 75.39 77.10 77.20 77.15 77.23 77.57 77.40 77.35 77.37 76.95 76.70 76.74 76.47 76.61 76.73 76.51 76.15 76.10 76.24 75.99 75.68 75.85 75.74 75.65 74.96 74.90 75.27 75.62 75.46 75.32 74.63 75.83 75.25 75.94 75.82 75.70 75.89 75.54 75.86 75.96 75.69 75.41
73.70 75.47 77.12 77.69 77.40 77.25 77.25 77.36 77.18 76.85 76.85 76.98 77.10 76.94 76.61 76.71 76.68 76.73 76.57 76.52 76.27 75.80 75.63 75.43 75.35 75.32 75.31 75.09 75.38 75.68 74.62 73.93 75.06 75.28 75.72 75.93 76.20 76.23 76.16 75.92 75.74 75.65 75.36
73.62 75.10 75.89 77.00 77.26 77.62 77.39 77.32 77.05 76.89 76.96 76.95 76.88 76.90 77.00 77.16 77.04 76.82 76.46 76.10 75.51 75.48 75.35 75.51 75.32 75.46 75.46 75.95 76.21 75.62 74.33 74.04 75.07 75.30 75.28 74.34 75.79 76.21 75.85 75.76 75.60 74.87 74.28
74.33 74.51 75.36 76.99 77.38 77.08 77.12 77.20 77.42 76.83 77.03 77.03 77.56 77.12 77.55 77.29 76.96 76.63 76.18 75.76 75.67 75.41 75.13 75.45 75.29 75.63 75.91 76.12 75.78 75.33 74.43 74.29 75.18 74.92 74.37 74.51 75.67 75.93 75.74 75.68 75.50 75.49 75.31
73.90 74.21 75.31 75.60 77.24 76.54 76.83 77.24 77.50 77.06 76.89 76.82 77.23 77.73 77.57 77.07 76.24 75.44 76.47 76.21 75.55 75.50 75.34 75.11 75.30 75.63 75.85 76.43 76.18 75.26 75.25 75.13 73.90 74.03 74.44 74.76 75.98 75.60 75.55 75.44 74.98 75.09 75.17
73.04 73.97 75.61 74.67 75.56 76.50 76.70 76.87 77.26 77.17 77.43 77.78 77.54 77.45 77.55 76.00 75.64 76.36 76.65 76.09 75.72 75.58 75.37 75.33 75.40 76.13 76.57 76.20 76.07 75.23 75.71 73.67 73.25 74.13 73.63 74.66 75.88 75.61 75.35 75.22 75.08 74.90 74.67
71.48 72.73 74.85 74.66 75.26 75.78 75.75 76.91 77.31 77.30 77.02 77.17 77.05 77.31 76.19 76.66 76.80 76.20 76.54 76.12 75.99 75.82 76.15 75.33 75.62 75.85 76.73 75.84 75.66 75.44 74.96 74.53 73.62 74.50 74.34 74.46 75.32 75.21 75.01 75.10 75.03 74.70 74.68
71.65 72.52 73.83 74.67 75.82 75.34 76.24 76.29 76.33 76.29 76.83 77.25 77.73 77.22 76.82 76.15 75.70 76.45 76.30 76.75 76.34 76.20 76.06 76.14 76.22 75.31 74.96 74.85 75.89 75.14 75.26 75.15 73.72 74.22 75.16 75.05 75.05 75.20 74.96 74.90 74.91 74.29 74.57
71.31 72.52 73.36 74.82 75.85 75.81 76.30 75.88 75.92 75.55 75.96 75.56 76.10 77.42 77.00 75.93 76.02 76.37 76.52 76.42 77.00 76.54 76.52 76.91 76.01 76.16 76.53 76.86 75.82 75.46 75.02 75.01 73.83 73.75 75.01 74.31 74.46 73.99 74.57 74.96 74.70 74.70 74.68
70.87 72.52 73.16 74.55 76.01 76.24 76.52 75.94 75.61 75.56 75.30 75.35 75.89 76.65 76.65 76.13 76.41 76.20 76.71 77.89 77.09 77.23 76.24 76.35 76.12 76.20 76.50 75.71 76.02 75.73 74.97 74.88 74.61 74.20 74.79 74.31 73.82 73.23 74.07 74.64 74.33 73.97 74.02
71.31 72.38 73.77 74.32 75.57 76.30 76.33 77.01 76.22 76.30 76.46 76.00 75.37 75.60 77.25 76.87 77.33 76.51 77.32 77.35 77.05 77.00 76.46 76.63 76.38 75.09 74.46 74.38 75.60 75.77 75.47 75.04 75.00 75.84 74.78 74.64 74.47 73.25 72.56 72.31 72.48 72.84 72.75
71.95 72.81 73.54 74.34 74.98 75.90 76.34 76.84 76.39 76.19 76.07 75.92 76.04 76.71 76.30 77.16 78.23 78.46 76.79 78.43 77.02 77.69 77.74 76.71 76.02 75.59 73.07 73.67 75.14 75.71 75.38 74.93 74.82 75.06 76.48 74.92 74.54 74.77 74.01 72.87 72.57 72.37 72.54
72.23 72.52 74.08 73.69 74.03 75.13 75.70 76.30 75.47 75.75 75.79 75.62 75.67 76.23 76.80 77.47 78.44 78.16 77.74 76.31 77.17 76.38 75.39 74.89 73.94 72.99 72.72 72.84 73.57 74.40 74.75 74.56 74.85 75.03 75.67 75.25 75.45 75.20 74.38 74.25 73.90 74.09 73.86
72.75 73.17 73.75 74.03 73.62 74.45 75.84 75.75 75.87 76.64 76.26 76.71 77.04 77.24 78.29 77.54 77.85 76.95 76.51 76.50 78.11 75.64 75.29 73.83 73.48 72.94 72.20 71.57 72.41 73.58 74.21 73.56 74.69 73.71 74.45 75.97 75.23 75.35 74.72 75.07 74.48 74.10 73.91
72.89 73.78 74.16 73.97 74.39 75.03 74.71 75.44 75.09 75.48 76.22 76.79 76.68 77.05 78.50 78.01 77.76 76.98 77.01 76.64 76.92 75.11 74.46 74.55 74.45 75.57 73.20 73.07 70.83 72.00 73.49 74.09 75.08 74.45 73.62 73.81 74.01 75.34 75.42 75.85 75.77 74.26 74.49
72.97 73.22 74.03 73.68 74.83 74.18 73.23 72.87 73.66 73.55 74.79 75.70 76.38 77.84 78.43 78.03 78.29 77.69 76.51 76.59 76.33 75.77 76.74 76.81 75.14 74.57 72.56 73.95 70.68 71.00 72.74 73.99 73.65 75.10 75.47 74.88 73.70 74.85 75.06 75.71 75.12 74.89 74.63
72.63 73.31 73.82 74.23 74.83 74.69 73.19 74.02 74.29 74.57 74.99 75.81 76.94 78.11 78.69 78.32 78.75 78.30 78.31 76.80 76.17 74.80 76.30 76.17 75.76 72.81 72.68 73.31 70.40 69.96 67.36 68.72 71.47 72.88 74.36 74.68 74.62 75.37 75.14 74.18 74.77 75.65 74.60
72.26 73.24 73.95 74.70 75.12 75.16 75.48 73.94 74.75 75.74 76.04 75.85 76.42 76.67 78.05 78.54 78.62 79.16 78.76 78.33 77.09 76.71 74.18 75.47 76.49 74.87 71.17 72.93 74.27 70.10 66.30 66.19 69.23 71.51 72.78 73.42 74.44 73.89 75.49 75.01 74.91 74.68 75.18
71.94 74.15 74.66 75.37 75.53 75.41 75.98 74.84 76.52 74.06 72.93 73.92 75.49 75.78 77.02 78.71 78.61 78.78 79.14 78.71 77.56 77.60 77.13 75.72 76.43 75.82 74.99 71.20 72.60 72.53 73.73 72.34 66.82 67.41 71.06 72.34 73.48 72.95 73.78 74.01 73.85 74.05 74.45
72.30 72.86 74.59 75.79 76.32 76.63 76.49 76.58 74.34 75.25 73.61 74.37 74.86 77.53 78.61 79.15 78.98 78.27 79.12 78.94 78.49 76.33 76.98 77.41 77.18 76.75 74.46 73.02 71.09 71.68 73.16 71.35 72.64 68.49 67.39 69.24 71.65 72.48 73.22 73.48 73.58 74.13 74.70
72.90 72.99 73.86 75.67 76.36 76.57 76.18 74.82 76.80 76.61 76.14 73.96 75.40 74.92 75.19 75.93 77.58 78.78 78.69 79.02 78.94 77.51 77.19 77.04 77.46 77.35 76.72 75.26 73.09 73.77 71.37 70.42 70.14 69.84 68.58 70.04 69.61 72.24 73.18 73.10 73.26 73.31 73.81

GFSSE_sfc_wetblb_057.txt.gz
Wetbulb
74.21 75.73 76.01 76.58 77.25 77.09 76.93 77.13 77.29 77.59 77.53 77.66 77.20 76.66 76.28 76.20 76.97 76.70 76.16 76.17 75.13 75.05 75.65 75.69 76.61 76.48 76.82 76.90 76.86 76.83 76.95 77.17 77.13 76.72 77.05 77.01 76.55 76.55 76.09 75.59 77.50 75.17 76.11
74.94 75.92 76.60 76.94 77.10 76.99 76.74 77.00 77.21 77.57 77.65 77.45 76.90 76.50 76.64 77.18 76.94 76.07 76.36 76.04 75.71 75.27 75.98 75.88 75.49 76.53 76.46 76.37 75.77 75.91 76.49 76.58 77.08 76.97 76.89 76.76 76.40 76.47 76.43 77.40 77.44 75.92 76.20
74.06 76.22 76.83 77.40 77.42 77.26 76.94 77.00 76.91 77.08 77.01 76.76 76.83 76.88 77.15 76.98 76.21 76.45 76.09 76.21 76.07 76.05 75.35 75.63 75.67 75.49 76.21 76.24 76.37 75.98 76.55 76.55 76.23 76.32 75.61 75.42 75.99 76.41 76.29 76.45 76.24 76.12 75.72
73.99 74.31 75.70 77.69 77.76 77.57 77.72 77.51 76.95 76.96 76.87 76.79 77.12 77.23 77.07 76.84 76.46 75.96 75.82 76.08 76.24 76.21 76.29 76.21 75.91 76.38 76.12 76.14 76.28 76.65 76.63 76.25 75.95 75.62 75.80 75.25 74.88 75.98 76.20 76.16 76.02 75.68 75.97
73.60 75.05 77.04 77.08 77.70 77.59 77.38 77.62 77.15 77.36 77.39 77.14 77.23 76.96 77.08 76.53 76.29 76.24 76.27 76.02 76.77 76.07 75.77 75.94 75.43 75.49 76.16 76.15 76.05 76.12 75.68 75.72 75.18 75.28 75.38 76.79 74.89 75.67 75.74 75.86 75.13 75.58 76.09
73.45 75.52 77.10 77.56 77.36 77.40 77.34 77.53 77.33 77.06 77.28 77.18 76.83 77.06 76.73 76.68 76.30 76.13 76.35 75.96 75.71 76.24 76.19 75.88 75.35 75.27 75.35 75.80 75.35 75.42 75.02 75.01 77.04 75.65 75.94 75.14 75.17 76.02 75.86 76.25 75.83 76.02 75.17
73.84 75.66 76.54 77.49 77.40 77.66 77.66 77.43 77.27 77.29 77.16 76.71 76.91 77.00 76.99 76.59 76.54 76.71 76.74 76.58 75.82 75.74 75.65 75.55 75.60 75.48 75.23 75.38 75.65 74.60 74.02 74.80 75.69 75.27 75.01 75.38 75.63 76.03 76.01 75.72 75.58 75.36 74.80
73.37 74.46 76.30 77.35 77.41 77.54 77.57 77.37 77.02 76.91 77.16 77.33 77.09 76.99 76.84 76.84 76.93 76.58 76.04 75.71 75.59 75.57 75.57 75.71 75.65 75.82 76.03 75.82 75.67 73.83 74.02 75.12 74.98 74.77 75.11 74.89 75.51 75.56 75.77 75.58 74.83 74.32 75.09
73.77 74.21 76.22 77.15 77.43 77.51 77.19 77.38 77.11 77.11 77.16 77.06 77.14 77.08 77.14 76.99 76.66 76.29 76.04 76.03 75.69 75.44 75.54 75.37 75.60 75.82 76.10 75.95 75.32 74.08 73.82 75.72 75.05 74.91 73.74 74.83 75.50 75.67 75.65 75.55 75.39 75.48 75.03
73.42 73.69 75.36 76.66 76.18 76.51 77.39 77.49 77.28 77.12 77.24 76.96 77.31 77.46 77.02 76.34 75.48 75.48 76.70 76.43 75.76 75.36 75.60 75.57 75.88 75.96 76.48 76.27 74.96 74.69 75.66 75.95 73.21 73.90 74.66 75.00 75.75 75.51 75.75 75.27 75.53 75.16 75.01
71.86 73.01 73.88 75.15 75.48 76.06 77.39 77.71 77.32 77.09 77.13 77.67 77.41 77.38 77.27 75.30 75.65 75.74 76.66 76.02 75.66 75.59 75.42 75.41 75.79 76.16 76.59 76.14 75.59 75.54 75.71 73.86 73.29 72.99 73.44 75.26 75.85 75.61 75.66 75.50 75.25 74.82 74.54
71.11 72.37 72.55 73.94 74.73 75.40 75.32 77.35 77.71 77.18 77.01 76.52 75.48 77.55 75.80 76.34 77.16 75.85 76.43 76.28 75.83 75.93 75.58 75.50 75.93 76.15 76.66 75.63 75.89 76.16 75.05 73.13 73.66 72.95 74.40 76.42 75.99 75.69 75.69 75.23 75.06 74.92 74.92
71.75 72.08 72.79 73.97 75.08 74.87 75.65 76.08 75.70 75.44 75.43 76.89 76.89 76.81 76.22 75.53 75.55 75.77 75.82 76.18 76.21 76.37 75.44 75.36 75.38 75.57 74.63 75.38 75.40 73.97 73.48 73.04 73.48 73.80 75.51 76.33 75.67 75.52 74.90 75.29 74.69 74.87 74.36
71.37 71.72 72.86 74.43 75.05 76.11 75.10 74.53 76.85 74.19 75.67 74.88 75.99 76.92 76.30 76.61 75.84 75.69 74.19 76.47 75.08 76.21 76.07 74.80 72.84 75.24 75.79 73.20 75.05 74.89 73.95 73.05 72.65 73.48 74.47 75.86 75.67 74.94 75.34 75.27 75.10 75.27 74.67
71.01 71.36 72.94 74.60 75.83 76.76 78.88 76.43 76.26 75.29 74.68 75.24 76.22 76.66 76.26 75.13 74.92 75.93 76.93 73.95 74.27 74.75 74.55 74.14 76.41 76.18 74.75 74.92 74.83 74.94 73.27 73.81 73.41 74.22 73.54 74.41 74.02 74.65 75.33 75.43 74.37 74.45 73.99
71.67 71.71 73.21 74.31 75.91 76.24 77.10 78.71 76.78 76.19 76.22 74.73 74.89 75.88 76.75 77.09 76.42 76.49 76.89 74.93 76.94 76.46 76.36 76.27 76.91 75.19 75.29 74.02 74.88 74.84 73.54 73.98 75.11 74.60 73.69 74.63 74.37 73.42 73.14 73.31 73.03 72.87 72.90
71.57 72.43 73.13 74.40 75.37 76.08 76.98 76.46 76.45 75.69 75.14 75.61 74.96 77.02 76.81 77.88 77.83 77.28 75.87 75.13 76.49 77.00 77.45 75.92 74.62 73.99 72.29 73.89 74.20 75.32 73.81 75.24 74.42 75.06 74.57 74.77 75.05 74.61 74.05 73.61 73.12 72.70 72.76
71.80 72.29 73.60 73.79 74.76 75.54 76.26 76.47 75.98 75.65 75.81 75.62 75.94 76.33 77.24 77.81 78.29 78.21 76.61 75.62 75.95 77.02 75.30 72.35 74.28 74.33 72.21 74.10 72.71 73.73 73.73 73.99 74.37 74.61 74.34 75.19 74.78 75.46 74.63 74.83 74.71 74.30 73.89
72.38 72.71 73.44 74.30 74.25 75.21 76.75 76.48 76.33 77.41 76.62 76.14 75.53 76.70 77.98 78.10 77.83 77.65 76.88 76.66 77.53 76.00 74.09 75.18 76.06 73.83 71.52 72.20 71.82 73.22 74.41 72.88 74.43 72.44 73.57 74.95 74.38 73.96 75.05 75.54 75.30 74.60 74.32
72.64 73.00 73.84 74.04 76.02 77.01 76.29 76.64 75.71 75.40 75.70 77.06 75.44 76.32 78.67 77.71 77.36 77.80 76.77 76.90 77.41 76.02 74.17 75.49 74.73 74.97 73.24 71.58 70.40 71.58 73.53 73.04 73.12 73.11 72.27 72.83 73.06 73.82 74.67 75.52 74.62 73.88 75.24
72.56 72.77 73.84 74.85 77.76 75.67 74.59 73.96 74.20 73.69 75.36 75.42 77.20 78.18 78.55 78.48 77.83 78.21 76.68 76.87 76.91 76.33 72.24 75.97 73.24 74.00 71.46 72.15 70.16 70.25 71.11 71.96 72.32 72.52 72.55 72.63 72.73 73.17 73.03 73.64 74.57 75.48 74.71
72.21 72.80 74.98 75.62 77.78 76.24 75.12 76.21 76.06 76.41 74.78 75.29 75.86 78.36 78.17 77.80 78.44 77.57 76.78 76.86 77.11 76.38 76.75 75.96 76.07 71.54 72.49 72.77 70.49 70.53 67.57 69.00 70.78 71.87 72.10 71.83 72.57 73.45 72.99 73.15 73.45 73.88 73.60
71.77 72.90 75.11 76.69 77.60 77.07 77.48 76.20 76.43 76.98 76.48 74.62 76.26 76.15 77.74 78.17 78.14 78.78 77.84 77.97 77.52 77.55 75.07 76.37 75.96 77.78 71.94 71.73 74.30 71.91 67.35 64.63 69.04 70.58 71.71 72.47 73.33 73.39 73.58 73.87 73.54 73.62 74.18
71.81 73.50 75.91 76.56 77.84 77.04 77.99 75.36 77.33 74.03 72.79 73.84 75.98 75.91 77.19 78.50 78.21 78.26 78.41 77.90 78.70 77.35 78.36 76.97 76.44 76.57 76.21 71.62 71.32 71.47 75.02 72.16 68.11 67.79 70.71 71.62 72.64 72.45 73.60 73.52 73.86 73.68 74.43
72.46 73.42 74.02 77.03 77.91 77.93 77.40 77.37 75.29 75.76 74.06 74.44 74.56 79.37 81.24 80.49 78.65 77.90 78.83 78.19 78.16 76.63 77.75 76.79 77.18 77.75 75.13 74.40 71.28 70.90 73.23 70.61 73.77 70.27 67.81 69.13 71.52 72.23 72.83 73.71 73.07 73.82 75.08
72.62 73.35 74.70 77.03 77.99 78.33 77.88 77.02 77.90 76.00 76.37 73.54 74.92 75.69 74.73 76.60 77.31 78.68 78.48 79.59 78.73 78.16 77.68 77.71 78.15 77.47 78.25 76.72 74.94 73.88 71.04 70.61 69.55 68.99 67.79 69.98 68.81 71.10 72.20 72.70 73.08 73.11 73.69

GFSSE_sfc_wetblb_060.txt.gz
Wetbulb
73.61 74.47 76.16 76.35 76.61 76.54 77.05 77.51 77.83 77.89 77.64 77.73 77.52 76.84 76.52 77.26 76.53 76.79 76.58 75.55 75.48 75.86 75.84 76.78 76.83 77.05 77.17 76.96 77.10 77.24 77.43 77.85 78.04 77.86 77.22 76.77 77.23 77.02 77.10 77.20 77.10 74.50 76.37
74.02 74.89 76.80 77.65 77.12 76.72 77.11 77.55 77.83 78.14 77.24 77.63 77.32 76.96 77.13 77.13 76.33 76.20 76.49 75.80 75.65 76.38 76.09 75.60 76.60 76.78 76.59 76.09 76.42 76.74 77.11 77.96 77.89 76.91 76.84 76.91 76.26 76.34 77.23 77.00 76.67 75.00 76.26
74.23 75.70 76.49 77.52 76.97 77.04 77.00 77.30 77.35 77.57 77.46 77.65 77.45 77.36 77.21 76.39 76.90 76.51 76.50 76.39 75.74 76.18 76.10 75.97 76.01 76.56 76.61 76.31 76.47 76.85 76.88 77.03 76.38 76.07 77.65 73.84 75.04 76.53 76.60 76.60 76.31 76.18 75.71
74.65 75.64 75.64 77.62 78.21 77.27 77.20 77.23 77.28 77.13 77.00 77.16 77.40 77.44 77.23 76.58 76.45 76.28 76.14 76.43 76.54 76.53 76.63 76.37 76.23 76.15 76.28 76.66 76.86 76.92 76.65 76.59 75.79 76.28 75.06 73.62 74.19 76.37 76.41 75.92 76.10 75.61 75.16
72.93 74.70 76.13 77.91 78.37 77.77 77.61 78.02 77.45 77.32 77.17 77.41 77.22 77.23 76.95 77.00 77.00 76.54 76.54 76.53 76.07 76.29 76.12 75.57 76.18 75.90 76.50 76.30 76.04 76.08 76.06 75.47 76.01 76.64 74.30 73.85 73.44 75.29 75.63 75.33 75.57 76.06 75.87
73.76 75.02 76.86 78.29 78.02 77.86 77.42 77.42 77.42 77.60 77.46 77.25 77.12 76.96 76.95 76.92 76.65 76.46 76.07 76.07 76.34 76.32 75.93 75.65 75.49 75.63 75.88 75.40 75.42 75.73 75.73 76.65 75.80 74.06 73.54 74.98 73.89 75.76 76.01 75.82 75.86 75.90 75.52
74.07 74.99 76.05 78.25 77.68 77.84 77.16 78.02 77.48 77.46 77.30 77.03 77.23 77.46 77.17 76.59 76.71 76.84 76.93 75.99 76.32 76.07 75.71 75.85 75.65 75.54 75.52 75.51 74.66 74.68 75.49 76.48 74.98 74.18 73.94 73.86 74.61 76.54 75.72 75.77 74.86 75.17 75.65
73.05 74.14 75.36 77.31 77.46 77.42 77.49 77.60 77.46 77.55 77.22 77.49 77.37 77.23 77.13 77.61 77.34 76.57 75.99 76.13 76.07 76.01 75.93 75.79 76.07 75.90 75.60 75.23 74.07 74.30 74.50 76.15 75.02 74.21 73.66 73.61 75.36 76.25 75.95 74.89 74.99 75.40 74.14
72.93 74.30 74.69 75.30 77.01 77.53 77.44 77.72 77.61 77.58 77.53 78.15 77.82 77.77 77.98 77.53 76.90 76.60 76.79 76.49 76.15 76.01 75.87 75.93 75.82 76.03 75.83 75.17 73.94 74.35 74.96 77.02 73.93 72.75 73.51 73.68 75.61 75.93 75.28 75.68 75.46 75.36 75.28
72.71 73.64 74.98 74.85 75.90 75.99 76.24 77.29 77.46 77.56 77.94 77.21 77.38 78.04 77.72 77.41 76.12 76.24 77.49 77.21 76.03 75.92 75.84 76.24 76.32 76.22 76.05 75.48 74.82 75.07 75.68 75.65 72.73 73.53 73.55 74.49 75.90 76.02 75.50 75.71 75.36 74.97 75.27
71.75 73.22 73.73 73.74 75.48 76.93 76.85 76.91 77.36 77.50 77.55 77.72 77.26 77.54 76.73 74.69 75.28 75.29 77.10 77.30 76.02 75.89 75.92 75.73 75.96 76.69 76.03 75.35 75.38 75.38 75.73 74.16 71.83 73.20 73.40 75.73 76.16 75.77 75.68 75.42 74.68 74.77 74.53
69.71 71.39 72.70 73.83 74.61 75.78 74.87 77.18 77.20 76.60 76.29 76.23 76.09 74.94 76.28 77.42 76.38 74.96 76.22 77.63 76.62 76.23 75.92 75.93 75.98 75.38 75.43 74.51 74.52 75.73 74.77 72.04 72.07 73.10 74.03 76.44 76.40 75.83 75.43 75.06 74.96 74.98 74.69
70.25 70.00 72.90 74.62 74.71 75.47 75.11 76.78 76.31 76.10 76.63 76.26 77.07 74.70 75.86 76.73 75.82 72.85 75.73 74.86 75.59 76.46 74.23 75.28 75.12 75.69 74.10 74.70 73.74 74.87 74.02 72.81 73.11 73.33 75.12 76.35 76.37 75.06 75.70 74.66 74.91 74.59 74.24
70.66 69.64 72.58 73.71 76.89 74.67 75.43 76.02 73.00 75.85 76.02 75.22 75.58 76.49 78.95 75.60 73.44 71.25 74.16 76.89 73.14 75.88 74.88 72.24 74.33 73.95 71.09 72.01 75.18 72.64 72.37 72.06 72.11 73.06 75.38 76.59 76.44 75.57 75.19 75.09 75.19 74.69 74.46
69.65 70.65 72.53 73.88 75.71 75.37 76.56 76.79 74.70 73.22 74.86 75.84 75.99 78.20 73.08 75.20 73.36 73.42 74.12 73.13 73.22 74.93 73.14 72.96 73.40 74.70 72.06 73.54 74.21 73.33 72.73 73.46 71.54 71.91 73.30 76.28 76.39 76.23 75.59 74.59 74.47 74.30 74.14
70.20 71.80 73.64 74.06 76.00 75.96 76.10 75.74 73.01 75.64 74.52 75.40 75.07 75.55 73.20 75.84 74.86 74.87 74.09 73.97 71.94 73.61 75.98 75.67 73.55 74.13 71.27 73.37 71.78 73.72 72.26 73.73 73.03 72.15 72.20 73.52 75.40 75.70 75.77 74.29 73.69 73.36 73.08
71.14 72.53 73.06 73.81 75.24 77.35 76.43 78.24 78.82 77.12 76.80 75.49 76.34 77.71 78.70 75.37 76.58 77.90 74.43 77.32 76.95 71.59 77.24 74.46 75.50 74.28 73.22 73.17 73.36 72.72 74.93 74.42 73.46 74.04 72.29 72.94 73.68 75.15 74.98 74.47 73.95 73.41 73.19
71.63 72.93 72.74 72.59 74.21 75.75 75.07 79.41 74.57 78.08 76.17 76.85 77.34 77.13 78.45 79.08 78.59 74.26 73.47 71.67 74.98 77.66 71.48 71.18 74.13 71.87 72.54 71.11 72.18 70.60 71.95 73.83 73.99 74.28 74.73 73.91 73.92 73.42 74.93 75.22 74.99 74.41 73.57
72.83 73.60 72.94 74.86 74.45 75.11 77.50 77.56 72.66 76.91 76.90 74.28 77.00 76.61 79.34 78.63 79.57 73.52 71.54 73.28 78.35 73.54 75.80 72.78 74.99 74.24 68.97 72.39 70.28 71.05 72.43 73.20 71.57 73.13 74.23 75.10 75.10 73.01 73.54 75.65 75.82 75.71 74.57
72.98 73.65 73.61 74.98 75.84 76.48 77.31 78.47 76.33 75.60 75.65 78.83 77.59 76.45 79.24 78.95 79.04 77.94 77.02 78.64 79.08 72.75 74.56 75.98 71.98 73.92 72.64 70.10 69.99 70.16 70.06 73.04 72.49 73.22 72.20 73.70 74.07 74.52 74.34 73.31 74.19 73.90 75.46
72.57 72.58 74.40 75.40 76.19 75.34 75.26 74.59 73.16 74.01 72.28 77.07 75.60 75.75 79.34 79.12 79.36 79.82 78.61 77.66 76.24 71.17 74.21 75.89 75.23 72.21 71.49 72.35 70.31 71.41 71.16 71.76 71.40 72.88 72.36 72.05 72.17 73.66 73.91 74.60 73.59 73.94 72.88
71.96 72.42 74.30 75.34 75.89 75.13 75.70 76.06 76.91 73.58 72.86 71.61 76.48 76.86 78.67 78.47 79.14 79.09 78.73 78.47 74.90 74.06 75.78 75.83 71.32 71.36 74.21 73.08 71.09 69.05 66.63 68.30 71.16 68.52 72.48 72.12 72.33 72.14 72.12 73.00 73.46 73.80 74.22
71.73 72.16 73.36 75.32 75.67 75.43 77.13 75.99 77.93 78.58 76.01 73.17 76.43 76.84 78.45 79.37 78.61 79.73 79.26 79.25 78.53 77.45 76.53 76.15 73.74 75.39 72.84 71.42 73.58 70.74 67.01 63.05 67.90 70.88 70.68 71.95 72.23 70.58 72.81 73.08 73.06 72.99 72.87
72.11 73.18 73.83 75.40 76.30 75.43 77.50 75.18 76.92 74.93 74.75 74.57 75.56 75.18 77.39 79.28 78.80 78.95 79.43 79.76 79.52 74.58 77.83 77.24 77.08 75.99 70.40 72.10 73.18 72.90 72.43 70.78 66.56 65.17 71.27 71.67 72.04 72.01 72.60 73.74 72.34 72.72 73.55
72.76 72.93 74.00 74.96 76.38 75.30 75.47 76.82 75.35 75.57 75.00 75.93 74.96 74.66 77.57 79.66 79.64 78.52 78.72 79.56 78.08 78.19 78.49 78.13 77.28 77.32 76.61 72.14 73.13 71.81 72.49 72.17 72.66 68.37 65.94 69.11 71.30 72.42 73.22 72.93 72.99 72.62 73.43
72.69 72.84 73.86 74.26 75.15 75.84 75.15 75.46 76.65 74.53 76.33 75.72 75.76 74.50 76.17 77.04 78.25 79.45 78.56 79.29 79.91 78.28 77.40 78.30 78.82 78.26 77.83 77.27 74.21 74.51 71.16 69.92 70.19 69.79 68.23 68.68 69.14 70.56 72.25 73.07 72.29 72.32 73.74

GFSSE_sfc_wetblb_063.txt.gz
Wetbulb
72.20 74.70 77.15 76.21 76.21 76.40 76.72 77.29 77.65 77.96 77.32 77.45 76.72 76.52 77.27 76.68 76.94 75.94 75.55 75.53 76.08 76.70 77.08 77.10 77.29 77.10 77.16 77.26 77.71 77.22 77.18 77.86 78.10 77.91 77.47 76.44 76.96 77.16 77.10 76.71 75.89 74.49 76.06
72.78 74.54 77.08 77.13 76.87 77.11 77.14 77.35 77.47 77.47 77.17 77.20 76.89 77.44 76.81 76.93 76.48 76.28 76.32 75.78 76.68 76.72 76.26 77.02 76.87 76.40 76.43 76.89 77.17 77.47 77.35 77.57 78.05 77.68 76.88 76.84 76.70 76.98 77.24 76.24 75.90 75.18 75.73
73.02 75.04 76.12 77.30 76.97 77.03 77.46 77.30 77.45 77.50 76.89 77.42 77.57 77.49 76.74 77.13 76.73 76.66 76.65 75.90 75.96 76.53 76.15 76.38 76.50 76.65 76.45 76.81 77.04 76.93 76.55 76.74 76.86 77.07 76.86 74.11 74.22 76.50 76.33 76.46 76.11 75.55 75.67
74.12 74.60 75.24 77.25 77.42 77.04 77.35 77.91 78.16 77.29 77.07 77.54 77.42 77.77 77.30 76.58 76.52 76.45 76.56 76.54 76.73 77.14 76.43 76.21 76.43 76.51 76.59 77.28 77.05 76.51 76.09 76.29 76.68 77.50 72.97 73.02 73.78 76.13 75.99 75.88 74.95 74.99 75.60
73.98 74.29 75.17 78.29 78.00 77.21 77.13 77.48 77.69 77.61 77.13 77.53 77.40 77.33 76.71 76.85 76.70 77.00 76.43 76.16 76.56 76.07 76.35 76.35 76.18 76.28 76.42 76.41 76.37 76.28 76.29 76.67 77.21 74.63 72.51 72.13 72.51 74.90 75.99 75.79 75.55 75.69 75.30
73.77 75.13 77.48 78.21 77.76 77.54 77.68 77.70 77.40 77.50 77.64 77.37 77.37 76.93 76.94 76.87 76.54 76.16 76.68 76.38 76.27 75.94 75.80 75.71 76.10 75.74 75.98 75.95 76.34 76.37 76.65 76.76 76.41 73.39 73.21 74.41 73.05 76.47 76.09 75.52 75.92 75.53 75.29
73.35 75.21 76.49 78.51 78.31 77.62 77.38 77.74 77.50 77.62 77.16 77.04 77.65 76.91 76.98 76.74 76.82 76.54 76.13 76.46 75.99 75.71 75.77 75.58 75.44 75.55 75.71 75.38 75.68 75.65 76.33 77.02 72.88 72.71 72.90 73.11 73.69 76.14 75.69 74.81 75.79 75.59 73.73
73.20 74.67 75.56 77.67 77.82 77.45 77.62 77.26 77.72 77.22 77.27 77.29 77.55 76.80 77.08 77.25 76.71 76.27 76.08 76.30 76.13 76.13 75.94 75.88 75.71 75.52 75.38 74.77 74.80 75.46 76.98 77.41 73.64 72.33 72.38 72.86 75.27 76.20 75.65 75.75 75.30 73.77 74.30
73.17 73.83 74.84 75.25 76.38 77.43 77.85 77.57 77.37 77.46 77.19 77.30 77.15 77.07 76.97 76.57 76.57 76.27 76.52 76.38 76.02 75.91 75.80 75.55 75.57 75.46 75.35 74.88 74.88 75.71 76.21 76.74 72.27 72.31 73.07 73.16 75.80 75.14 75.49 74.99 75.10 75.31 75.16
72.86 73.10 73.08 74.30 74.55 74.37 74.96 77.56 77.62 77.74 77.61 77.34 77.28 77.06 76.79 76.66 76.55 76.38 77.46 77.23 76.16 75.88 75.93 75.66 75.35 75.45 74.66 74.66 74.69 75.77 76.94 75.71 72.70 72.73 73.10 73.78 75.98 75.82 75.62 75.45 74.78 75.29 74.96
71.31 71.45 72.92 73.69 73.40 74.04 74.42 75.97 77.53 77.76 77.27 77.39 77.00 76.81 75.33 72.38 72.91 74.51 76.43 76.99 76.10 75.80 75.88 75.83 75.96 75.62 75.60 75.60 75.52 74.83 75.93 72.27 71.97 72.69 72.73 75.20 76.26 75.42 75.55 74.77 75.29 73.89 74.12
70.03 70.88 71.59 72.80 73.40 73.87 75.23 74.32 74.28 74.97 74.75 74.44 74.00 73.63 73.30 72.98 71.74 74.29 75.75 77.35 76.01 75.99 75.88 76.05 76.35 75.79 74.86 73.11 72.66 74.16 73.52 71.71 72.16 72.31 73.42 76.05 76.48 75.42 75.42 75.10 74.92 74.83 74.27
70.20 71.10 70.56 72.65 73.24 72.09 73.60 73.99 73.93 73.41 73.59 72.39 73.05 73.45 72.75 73.65 71.52 72.65 73.06 73.17 72.41 75.20 72.89 74.79 73.57 72.05 72.77 72.82 72.80 72.60 72.03 71.04 71.71 72.67 75.12 76.32 76.01 75.17 74.94 75.24 75.00 74.07 74.21
68.38 70.40 71.59 71.78 72.78 71.90 73.71 73.63 73.38 73.40 73.30 72.12 72.16 72.28 72.77 71.47 69.40 69.29 71.55 73.55 71.84 72.48 71.40 70.27 72.62 73.15 72.68 71.42 70.85 72.38 71.93 72.38 71.94 72.67 74.96 76.60 75.80 75.48 75.10 74.62 74.56 74.37 74.22
68.91 70.55 70.23 71.86 71.66 73.22 72.59 71.42 71.08 71.50 72.55 72.24 71.66 71.66 71.92 71.95 70.22 71.25 72.49 71.44 71.29 72.34 71.84 70.43 71.39 71.40 69.98 70.58 71.45 71.38 70.25 70.49 71.49 72.56 72.52 76.38 76.46 75.88 75.23 75.22 74.54 74.76 74.14
69.42 69.19 70.87 70.56 70.92 72.10 70.02 71.99 71.25 71.32 71.75 72.73 71.35 70.75 71.05 71.79 70.91 71.55 71.75 72.17 71.35 70.64 71.60 70.23 71.20 72.46 70.88 70.72 69.93 71.26 69.62 69.74 70.51 71.25 72.07 73.80 76.52 76.33 75.37 74.28 74.46 73.91 73.27
69.24 70.00 70.74 69.87 71.28 72.26 71.66 71.72 70.96 72.98 73.17 70.85 72.29 71.79 71.99 73.02 70.60 72.55 72.61 71.54 71.37 72.52 73.57 70.32 72.31 70.50 69.83 70.55 70.21 70.38 71.22 70.19 70.05 70.68 70.68 71.06 73.11 76.14 75.55 74.46 74.58 74.30 73.33
69.78 69.63 70.37 72.54 72.86 72.15 71.61 73.50 71.13 71.42 72.53 73.28 72.91 72.82 73.84 74.02 72.64 72.06 70.22 71.79 71.76 72.41 70.42 68.56 71.17 69.56 70.58 69.33 69.59 70.52 70.62 71.16 71.28 70.71 70.80 71.18 71.28 71.48 74.72 75.41 75.25 74.89 73.75
69.41 69.55 68.81 69.87 70.90 70.61 71.67 71.97 70.35 71.39 71.98 70.09 72.53 72.96 73.61 74.59 73.05 70.75 68.96 70.74 73.12 70.12 69.85 70.92 69.31 70.38 67.09 67.61 68.48 68.44 68.59 70.64 71.61 71.65 71.67 71.92 71.15 71.35 71.27 74.81 75.29 75.09 74.02
69.47 69.15 69.35 70.93 71.10 71.19 71.69 71.96 71.35 71.67 72.43 73.97 73.60 73.28 75.28 73.87 73.66 72.40 71.46 69.34 71.95 70.42 70.43 71.89 67.56 68.97 68.68 68.44 69.80 68.98 68.20 68.96 69.33 69.66 70.73 73.12 72.15 71.26 71.25 71.64 73.25 73.86 75.62
69.52 68.97 69.35 70.54 71.09 72.16 72.11 71.13 70.93 70.16 69.39 72.57 72.88 74.69 75.16 74.23 75.05 72.74 73.06 72.86 72.08 69.07 69.07 71.94 69.70 69.29 67.47 68.59 66.53 67.61 67.26 68.14 69.02 68.81 68.86 69.90 71.15 71.87 71.64 70.61 71.80 71.32 72.18
69.35 68.70 69.76 71.26 71.34 71.99 71.47 71.79 70.98 71.42 70.51 70.91 73.40 72.66 75.57 74.79 74.79 73.94 72.06 72.94 72.43 70.26 70.16 69.61 69.45 66.85 69.70 67.45 66.12 65.64 63.35 63.44 66.91 66.50 68.20 68.28 67.93 71.56 71.91 72.13 71.62 71.05 70.07
68.49 69.60 70.23 72.11 71.45 72.21 71.51 71.50 72.91 71.74 70.31 69.58 72.26 73.08 74.57 75.28 74.77 75.05 73.63 73.17 71.13 72.54 71.52 70.49 70.85 71.11 67.66 68.18 66.78 67.08 63.50 61.08 64.78 66.77 65.09 66.66 66.45 68.32 68.39 69.27 71.76 70.67 70.93
68.51 70.07 71.40 72.42 71.85 71.69 72.67 70.34 70.63 71.06 68.99 70.21 72.21 73.08 74.29 75.22 74.70 75.07 74.83 73.90 72.81 71.08 72.20 71.20 72.59 70.75 67.88 66.09 68.16 67.63 67.46 65.99 63.44 60.65 65.77 67.30 66.99 68.19 68.10 68.55 69.21 68.92 69.36
69.50 69.25 71.41 72.57 72.04 71.71 72.42 70.80 70.64 70.50 72.34 70.78 72.53 73.25 73.47 74.56 74.88 74.87 74.50 74.60 73.53 71.94 72.35 72.31 71.42 72.56 71.80 70.48 68.16 66.47 66.48 65.33 67.42 63.47 61.09 64.96 66.62 67.00 68.02 68.80 68.68 68.89 69.30
69.87 69.73 70.93 72.41 71.25 71.41 71.58 72.57 70.31 70.83 70.51 71.59 71.41 72.17 73.61 74.35 74.42 75.70 74.75 74.45 73.69 73.59 72.86 72.74 73.44 71.92 71.25 72.27 71.47 70.07 65.20 64.39 64.68 64.61 63.79 63.67 63.56 65.68 68.17 68.69 67.97 69.36 69.81

GFSSE_sfc_wetblb_066.txt.gz
Wetbulb
70.85 72.97 76.55 75.97 76.36 76.65 77.20 77.69 77.09 77.26 76.42 76.13 77.01 76.67 76.61 76.63 75.27 75.30 75.58 75.68 76.83 77.04 77.16 77.17 77.11 77.31 77.67 77.31 77.06 77.25 77.26 77.54 77.68 76.95 76.45 76.19 75.84 76.31 76.76 76.06 75.69 73.92 74.55
73.15 74.87 77.33 76.95 76.76 76.75 77.45 77.32 77.21 77.20 76.23 76.45 77.34 76.44 77.07 76.36 75.65 75.55 76.50 76.68 75.75 76.67 76.71 76.74 76.52 76.82 77.18 77.54 77.42 77.22 77.38 77.69 77.89 77.25 76.90 76.64 76.24 76.07 76.33 75.06 75.51 74.43 73.69
73.15 74.61 75.88 77.67 77.21 77.29 77.37 77.58 77.16 76.89 76.38 77.05 77.16 76.75 76.86 76.73 76.47 76.47 75.57 76.01 76.35 75.77 76.34 76.42 76.48 76.75 76.86 77.21 77.00 76.65 76.86 77.24 77.60 76.61 76.40 73.83 73.81 76.04 75.95 75.74 75.67 75.59 74.62
73.95 74.67 75.33 77.29 77.84 77.24 77.01 77.40 77.66 76.88 76.85 77.41 76.82 77.12 76.80 76.54 76.80 76.85 76.43 76.77 76.44 76.14 76.37 76.64 76.38 76.70 77.09 76.64 76.35 76.18 76.29 76.88 77.49 75.83 72.62 72.64 73.25 75.65 74.79 74.78 75.70 74.47 74.99
73.82 74.37 75.27 77.68 77.85 77.19 77.66 77.62 77.69 77.09 77.07 77.15 76.80 76.89 76.68 76.43 76.86 76.24 76.34 76.43 76.28 76.30 76.29 76.62 76.54 76.42 76.43 76.01 76.05 75.91 76.79 76.80 76.23 73.92 72.16 71.81 72.53 74.95 75.89 75.90 75.21 74.97 73.08
73.65 74.27 76.96 77.59 76.92 77.10 77.33 77.25 77.17 77.21 77.35 77.12 77.08 76.95 76.55 76.43 76.67 76.32 76.13 76.24 75.63 75.91 76.48 76.21 75.90 76.04 76.15 76.51 76.33 76.52 77.06 76.33 75.58 73.02 73.00 74.12 73.28 75.75 75.66 75.53 75.31 74.30 73.06
73.75 75.25 76.16 78.26 78.16 77.73 77.23 77.45 77.31 77.04 77.20 77.00 76.89 76.69 76.67 76.42 75.99 76.59 76.38 75.88 75.69 75.52 75.25 75.44 75.72 75.71 76.20 76.01 75.80 76.44 77.48 75.95 72.46 72.20 72.39 72.31 73.50 75.58 75.63 75.59 75.28 73.46 73.11
74.16 75.22 75.83 77.71 77.87 77.89 77.61 77.58 77.31 77.32 77.01 77.09 77.09 76.69 76.77 76.72 76.54 76.10 76.24 75.94 75.91 76.00 75.61 75.33 75.30 75.55 75.60 75.73 76.23 77.16 76.36 75.59 73.18 72.00 72.26 72.75 75.49 75.68 75.35 75.28 73.42 74.54 74.79
74.67 74.44 74.53 75.27 76.45 77.65 77.98 77.40 77.21 77.21 77.34 77.13 76.85 77.10 76.56 76.27 76.22 76.13 76.33 76.24 75.88 75.72 75.55 75.25 75.13 75.19 75.04 75.27 75.38 77.20 76.08 75.11 71.57 71.96 72.91 72.94 75.20 74.45 74.69 74.09 74.68 74.75 74.00
73.57 73.94 73.58 73.95 73.94 74.46 75.38 77.41 77.47 77.16 77.36 77.09 76.88 76.54 76.60 76.85 76.44 76.49 76.79 76.75 75.99 75.83 75.55 75.44 75.45 75.48 75.37 74.91 75.16 76.54 76.38 75.11 71.52 72.01 72.45 73.62 76.06 75.48 75.23 74.59 74.95 74.65 74.48
72.78 72.88 73.21 73.31 73.08 73.58 74.26 76.01 77.57 77.59 77.31 77.10 76.72 76.46 75.74 72.23 73.05 73.73 75.84 76.88 76.02 75.91 75.83 75.61 75.57 75.81 75.76 75.55 75.02 75.22 75.02 71.25 71.99 72.12 72.36 75.27 75.99 75.42 75.24 75.17 74.04 73.99 73.85
69.57 71.69 72.63 72.56 72.70 73.36 75.42 74.26 73.77 74.77 73.76 73.81 73.71 73.00 72.00 71.71 71.83 73.78 75.09 76.52 75.97 75.88 75.86 75.97 75.75 75.46 74.34 72.11 72.26 73.86 72.36 71.14 71.60 71.95 72.73 76.10 76.01 75.25 74.43 74.04 73.76 74.22 74.07
69.26 71.44 71.97 72.55 73.09 72.67 73.61 73.38 73.13 73.28 73.63 72.88 72.49 71.88 71.80 71.83 72.08 71.99 72.38 72.81 71.94 74.59 72.53 73.43 71.76 71.78 70.89 71.92 71.53 71.09 70.83 71.96 71.47 72.25 74.51 76.30 76.09 74.84 74.69 74.46 74.44 73.83 74.01
69.04 70.09 71.62 72.75 71.99 71.55 73.22 73.14 72.65 72.73 72.62 71.67 71.37 71.99 71.52 70.22 69.24 70.90 71.34 71.95 71.27 71.87 70.95 71.24 71.35 72.26 72.03 71.47 70.19 70.49 70.08 71.43 70.89 72.22 74.15 76.14 75.86 74.88 74.34 74.87 73.63 73.85 73.65
68.95 69.21 71.16 71.94 70.97 71.35 72.75 72.14 72.37 71.79 72.09 71.06 71.18 71.87 71.89 69.95 69.19 71.15 71.21 70.78 70.70 71.42 70.45 68.58 69.61 70.55 70.53 69.90 70.76 70.76 71.58 71.23 71.78 72.64 72.49 75.28 75.83 75.71 74.84 74.70 74.37 74.25 73.69
69.20 69.22 70.56 70.93 70.82 71.92 71.34 70.90 70.08 70.78 71.72 71.08 70.21 71.04 70.88 71.33 70.05 71.07 70.34 70.36 70.41 70.45 70.82 69.85 70.38 70.88 70.24 69.95 68.86 69.38 69.24 70.83 71.66 71.87 72.05 73.14 76.24 76.13 75.03 74.53 74.12 74.13 73.55
69.35 69.47 70.17 70.58 71.69 71.32 69.77 70.89 69.51 70.27 71.40 70.39 70.06 68.69 71.24 71.38 70.89 71.91 69.60 70.08 69.93 70.18 70.98 69.12 70.44 70.96 69.35 69.39 70.17 68.40 68.13 68.50 70.17 71.24 71.52 71.97 74.23 75.76 75.37 74.23 74.11 73.86 73.21
68.64 69.43 70.22 72.38 71.59 70.01 70.46 70.30 71.62 71.54 71.11 70.48 71.03 70.79 72.63 71.60 71.22 71.17 70.42 70.75 71.22 71.59 70.20 68.44 69.87 68.22 68.33 68.72 69.00 69.13 68.73 68.70 68.30 69.44 69.97 70.25 70.85 72.58 75.27 75.40 75.03 74.23 73.50
69.51 69.37 68.82 70.11 70.88 69.99 72.03 70.00 70.85 71.12 71.20 71.41 71.29 71.69 73.23 72.76 73.04 69.44 69.69 70.19 71.89 70.23 68.50 68.16 68.70 69.01 67.53 67.53 67.64 67.99 68.59 69.54 68.78 70.04 69.46 69.75 69.78 70.13 70.12 74.02 75.17 75.07 73.76
69.51 69.12 69.73 70.87 69.58 69.64 70.72 69.83 68.64 70.13 70.46 70.98 70.95 71.89 73.37 72.94 71.42 70.89 68.81 69.89 69.98 68.75 69.24 70.12 66.11 67.83 67.24 66.93 68.66 67.88 67.03 68.29 69.43 68.79 69.87 71.02 70.14 70.78 70.04 70.29 72.18 72.76 75.04
68.78 67.87 68.63 69.04 68.19 70.23 69.12 69.26 68.54 68.74 70.37 71.79 71.70 72.75 73.23 73.20 73.36 71.89 71.80 71.19 70.19 68.17 69.01 69.31 68.08 68.97 66.95 66.93 65.39 65.42 65.84 67.53 67.20 68.02 69.39 69.89 70.88 71.13 70.32 70.56 70.83 71.73 71.95
67.70 68.18 68.51 69.41 68.68 70.88 69.84 69.90 69.72 69.68 69.82 71.47 72.15 73.45 73.60 73.43 73.67 72.56 71.61 71.40 70.54 67.82 70.04 68.01 66.64 66.47 67.94 65.99 64.26 63.76 60.60 61.42 64.75 66.56 67.22 68.50 68.38 71.00 70.93 70.78 70.14 70.37 69.78
67.05 67.79 68.93 69.55 69.18 70.89 70.31 70.62 71.33 70.32 69.06 69.77 70.89 70.74 73.81 73.59 74.07 72.72 72.53 71.98 70.35 69.86 69.49 68.80 68.47 68.45 65.88 66.80 65.36 66.01 60.68 58.55 62.15 64.31 64.70 65.73 66.78 68.38 70.19 70.63 71.10 70.48 70.06
67.06 68.25 69.67 70.24 69.51 70.63 70.07 69.54 70.05 68.59 66.82 67.51 70.40 71.59 72.47 74.02 73.50 74.07 73.23 72.26 71.10 70.37 70.33 69.86 72.06 68.68 66.24 64.82 66.50 66.26 65.50 63.86 59.66 59.31 63.42 65.59 65.17 67.39 67.43 67.19 69.58 70.54 69.90
68.04 67.90 70.61 70.30 69.99 70.65 70.29 69.21 69.75 68.88 68.85 68.82 70.47 70.93 71.99 73.28 73.05 73.75 73.74 72.73 71.06 70.31 70.71 70.82 70.12 70.64 69.84 68.81 66.93 66.59 64.72 64.04 64.36 61.67 59.99 63.38 65.20 65.68 66.64 66.64 67.17 67.76 67.47
68.76 68.93 70.86 70.04 69.63 70.55 70.65 69.03 68.96 69.49 69.41 69.31 69.13 70.38 71.38 72.97 72.79 73.08 73.20 73.18 71.91 71.05 71.44 71.56 71.44 70.77 70.19 70.50 69.55 68.74 65.54 63.89 62.93 63.40 61.52 62.11 62.43 63.92 66.21 66.81 66.96 67.51 67.83

GFSSE_sfc_wetblb_069.txt.gz
Wetbulb
69.34 71.97 75.99 75.92 76.58 77.09 76.78 76.70 76.32 75.50 76.15 76.96 76.03 76.55 75.73 75.32 75.11 75.35 76.01 76.96 76.67 76.84 77.05 77.09 77.11 76.98 76.64 76.88 76.70 76.94 76.93 76.48 76.41 76.48 76.35 76.15 75.88 75.97 75.97 75.89 74.45 72.49 75.31
70.12 73.43 76.53 76.57 76.48 77.09 77.29 76.61 76.58 75.63 76.26 76.97 76.30 76.95 75.64 75.25 75.46 76.60 75.69 75.81 76.63 76.73 76.69 76.82 76.97 77.05 76.94 76.86 76.96 77.24 76.87 76.51 76.39 76.73 76.58 76.10 76.06 75.24 74.83 75.44 74.32 72.22 74.88
71.70 74.26 75.66 77.27 76.86 77.09 77.30 76.87 76.62 75.77 76.76 76.59 76.41 76.43 75.99 76.26 75.87 76.03 75.65 75.52 76.11 76.41 76.27 76.43 76.88 76.92 77.26 76.90 76.92 76.72 76.80 76.76 76.63 76.57 76.29 73.24 73.12 75.91 75.58 75.76 74.49 73.87 72.97
73.26 74.00 75.11 77.20 77.63 77.35 77.23 76.99 76.45 76.27 77.09 76.45 76.74 76.54 76.21 76.71 76.14 75.83 76.15 76.01 75.72 76.10 76.29 76.44 76.44 76.88 76.63 76.36 76.31 76.18 76.72 76.59 76.07 75.53 72.22 72.48 72.94 74.29 75.25 75.24 74.28 75.46 75.14
73.42 74.05 74.75 77.13 77.52 77.17 77.06 77.02 76.72 76.46 77.06 76.29 76.84 76.19 76.28 76.40 76.60 76.23 76.36 75.87 75.91 75.93 75.91 76.21 76.29 76.57 76.24 75.98 76.03 75.56 76.12 76.11 75.73 73.72 71.95 71.91 71.56 74.51 75.28 75.42 73.29 73.80 74.82
73.42 73.90 76.36 76.96 76.82 77.09 77.13 77.06 76.95 76.71 76.64 76.52 76.68 76.39 76.28 76.27 75.65 76.19 75.62 75.72 75.87 75.81 76.08 75.97 75.86 76.08 76.42 76.03 76.04 76.33 76.71 76.04 74.99 72.61 73.01 74.26 72.95 75.03 75.13 74.98 73.08 73.05 73.66
72.77 74.35 75.26 77.51 77.09 77.40 77.15 77.04 76.87 76.75 76.57 76.54 76.13 76.17 75.94 76.38 76.16 76.09 75.95 75.48 75.29 75.31 75.40 75.40 75.75 76.13 76.11 75.90 76.18 76.44 76.42 75.57 72.08 71.93 71.99 72.45 72.79 75.84 75.21 74.92 73.16 72.67 72.63
73.84 74.56 75.26 77.26 76.99 76.78 76.88 77.11 76.91 76.67 76.66 76.49 76.39 76.45 76.14 75.92 76.12 75.83 75.79 75.70 75.54 75.18 75.15 75.45 75.59 75.63 75.96 76.17 77.17 76.58 76.18 75.38 73.04 71.82 72.09 72.49 74.35 75.45 75.80 73.35 74.58 74.59 74.48
74.60 74.18 74.43 74.92 76.22 76.94 77.06 76.92 77.12 76.76 76.83 76.49 76.20 76.24 76.24 76.15 75.86 76.20 75.81 75.90 75.53 75.32 75.12 75.18 75.19 75.38 75.75 75.81 76.00 76.34 75.31 74.87 71.29 71.86 72.99 72.16 75.71 75.54 73.73 74.31 74.42 73.73 73.35
73.49 73.68 73.16 73.94 74.39 74.42 74.78 77.08 77.05 76.88 77.06 76.50 76.48 76.06 76.08 75.82 76.15 76.28 76.51 76.52 75.70 75.37 75.43 75.53 75.25 75.33 75.01 75.61 76.08 76.06 75.13 74.79 71.03 71.82 72.06 72.62 75.51 74.81 75.15 74.96 74.66 74.66 73.44
72.74 72.36 72.63 72.89 73.23 73.75 74.09 75.35 76.58 76.91 76.51 76.36 75.91 76.32 74.72 71.51 72.94 73.80 75.63 76.09 75.84 75.57 75.40 75.40 75.15 75.29 75.31 75.37 75.90 76.23 74.92 71.25 71.43 71.67 72.06 75.31 75.83 75.17 74.73 74.66 74.31 73.86 73.86
70.78 71.94 72.07 72.29 72.58 73.34 75.19 74.13 73.70 74.33 73.93 73.77 73.05 71.62 71.49 71.48 71.44 73.36 74.83 75.98 75.59 75.73 75.79 75.83 75.46 75.56 73.93 71.46 71.94 74.59 70.51 71.16 71.19 71.57 72.24 75.48 75.98 74.47 74.88 73.46 73.71 74.07 73.69
70.79 72.42 71.57 71.84 72.46 72.66 73.20 72.91 72.62 73.07 72.99 72.66 72.08 71.27 71.39 71.37 72.09 72.02 72.13 71.81 71.76 74.13 72.32 72.54 72.37 71.10 70.75 71.54 70.62 71.09 70.37 70.93 71.01 71.88 73.48 75.81 75.71 74.73 74.59 74.32 74.01 73.39 73.64
69.66 70.70 71.75 72.10 71.89 71.55 72.84 72.26 71.89 72.45 72.58 71.25 71.01 70.79 70.40 69.95 69.95 70.28 70.73 70.83 70.93 71.07 70.42 70.52 69.89 71.05 71.20 70.53 69.55 69.33 70.44 70.76 70.53 71.75 73.33 75.53 75.85 74.27 74.63 74.52 73.17 73.60 73.19
68.73 70.15 71.05 71.91 70.74 71.27 71.93 71.58 71.71 71.44 72.08 71.39 70.55 71.52 70.45 69.11 68.84 69.88 70.64 70.84 70.25 70.95 70.04 69.23 68.96 69.76 69.65 69.91 69.71 69.28 70.03 70.33 71.09 71.90 71.94 74.68 75.72 74.75 74.17 74.13 73.76 73.64 73.55
68.37 69.11 70.74 70.85 70.12 71.13 71.12 70.86 71.12 71.22 71.80 70.72 70.46 71.14 70.76 69.31 69.38 70.42 70.05 69.82 69.91 69.53 70.72 69.25 68.89 69.48 69.89 69.69 68.76 69.78 70.12 70.44 71.31 71.77 71.89 72.24 74.98 75.32 74.70 74.63 74.06 74.28 73.27
68.43 68.67 70.01 69.98 70.27 70.88 71.23 71.18 70.55 70.44 71.27 70.17 70.19 69.77 70.73 70.27 69.73 70.24 69.56 68.93 69.06 69.22 70.11 69.52 68.95 70.16 69.99 68.93 68.23 68.38 68.81 69.80 70.79 71.29 71.51 71.61 73.04 75.28 74.92 74.07 73.98 73.77 73.34
68.45 68.42 69.57 71.79 70.67 70.62 70.04 70.37 69.75 69.70 70.35 69.88 69.66 68.57 71.67 71.19 71.11 70.90 68.75 69.33 70.17 70.24 69.87 69.26 68.24 68.71 67.88 67.33 67.09 66.66 66.86 68.02 68.96 70.07 70.35 70.69 71.38 72.77 74.63 75.50 74.99 73.94 73.20
68.48 68.73 69.13 70.29 70.26 69.96 69.96 69.88 70.57 69.66 70.21 69.78 70.21 70.26 71.48 71.36 71.49 70.94 69.49 69.82 70.31 70.13 69.49 67.06 68.40 67.22 66.89 67.08 67.46 67.82 67.46 67.40 67.10 68.81 68.84 69.08 69.38 70.10 69.63 72.60 75.53 74.96 73.63
68.74 69.11 69.43 69.99 69.96 69.53 70.65 68.53 69.36 70.69 69.40 70.04 70.46 70.86 72.59 71.87 71.83 68.64 69.32 69.94 69.80 68.33 68.09 68.19 66.34 66.83 66.65 66.67 68.01 67.55 66.80 68.05 68.89 67.90 68.12 69.32 68.98 69.27 69.21 69.23 69.68 72.02 74.51
68.73 68.56 68.84 69.46 68.36 69.74 68.48 67.64 67.45 68.29 68.95 69.55 70.12 71.59 71.96 71.93 71.09 69.54 68.75 69.57 69.02 68.05 68.83 68.09 66.49 66.69 65.57 65.59 64.80 64.40 65.10 66.10 66.82 68.15 68.29 69.02 69.94 70.21 70.05 69.70 69.17 70.18 70.89
68.12 68.36 68.91 69.28 67.79 69.35 69.00 68.99 68.69 68.68 69.70 70.48 70.80 71.49 71.65 72.59 72.36 71.49 71.05 70.97 67.95 67.67 67.92 67.04 65.63 66.63 65.97 65.46 63.23 62.30 59.85 60.46 63.16 66.33 66.75 67.85 68.61 70.08 70.32 70.28 69.81 70.00 69.77
67.31 67.33 68.88 68.80 68.03 69.31 68.87 69.74 69.43 68.76 68.83 69.95 70.21 70.89 72.77 72.07 72.86 72.23 71.27 71.28 70.16 68.09 67.67 66.12 67.00 66.68 64.11 65.57 64.59 63.70 59.63 57.59 60.86 62.71 63.71 65.21 66.49 66.79 69.03 69.93 70.19 69.99 69.21
66.98 67.80 68.95 68.87 68.01 69.32 69.01 69.35 68.76 67.96 66.53 67.75 69.96 69.74 72.22 73.09 73.04 71.82 71.99 71.00 70.22 69.60 69.33 69.26 70.29 67.37 64.91 63.76 65.27 65.36 64.37 62.53 59.28 58.51 61.67 64.07 64.79 64.83 66.23 67.86 68.97 69.87 70.15
67.44 67.83 68.19 68.56 68.16 69.52 69.20 69.40 69.29 67.88 67.31 67.55 69.53 69.58 70.73 72.28 72.70 73.45 72.39 71.23 70.46 69.60 69.65 69.62 69.79 69.15 68.53 66.67 65.70 65.95 63.58 63.13 62.86 60.26 58.81 61.46 64.35 65.16 65.69 66.53 66.80 67.17 68.46
67.34 68.05 68.54 68.47 68.16 69.10 69.33 68.20 68.75 68.76 68.42 67.68 67.59 68.84 69.87 71.12 71.96 71.89 72.98 71.83 70.79 69.85 70.07 70.04 69.81 69.86 69.52 69.48 68.14 67.58 64.53 62.30 61.75 62.67 60.52 60.76 61.62 63.64 64.59 66.06 65.86 66.50 66.99

GFSSE_sfc_wetblb_072.txt.gz
Wetbulb
68.36 71.75 75.91 75.99 76.74 76.61 76.44 75.76 75.63 76.54 76.40 75.91 76.03 75.72 75.40 75.32 75.63 76.45 76.72 76.56 77.02 77.27 77.17 77.22 77.59 76.69 76.52 76.60 76.82 76.33 76.48 76.81 76.37 76.16 76.03 76.16 76.13 75.99 74.82 74.60 75.22 72.26 74.87
69.55 72.69 76.07 76.40 77.05 76.61 76.53 76.12 75.57 76.62 76.85 76.39 76.85 75.28 75.06 75.11 75.39 75.47 76.43 76.61 76.65 76.67 76.91 77.00 76.88 76.50 76.09 76.48 77.05 76.69 76.74 76.51 76.60 76.35 75.86 76.27 75.14 75.21 75.57 73.87 74.86 74.31 74.59
71.08 73.65 75.24 77.05 77.01 77.27 76.47 76.33 75.63 76.69 76.68 76.53 76.43 76.09 75.82 75.66 76.69 76.16 75.38 76.40 76.41 76.37 76.54 76.66 76.66 76.69 76.88 76.67 76.79 76.58 76.36 76.29 76.63 75.97 75.94 73.84 74.26 75.69 74.80 74.26 73.32 73.05 72.75
72.70 73.78 75.03 77.19 77.48 77.15 76.82 76.45 75.88 76.45 76.58 76.43 76.48 76.30 76.61 75.83 75.63 76.33 76.04 75.55 75.95 76.29 76.19 76.20 76.54 76.64 76.77 76.47 76.31 76.67 76.54 76.26 75.77 75.25 73.32 72.45 73.11 75.30 74.68 75.12 74.78 74.63 74.24
73.14 73.84 74.49 76.96 77.53 76.94 76.81 76.49 76.29 76.62 76.26 76.37 76.44 76.29 76.66 76.49 76.10 76.15 75.91 75.71 75.41 75.82 76.13 76.27 76.07 76.57 76.33 75.81 76.10 76.18 76.36 76.07 75.70 73.90 72.94 73.03 73.34 74.69 74.62 73.34 74.61 75.15 74.31
73.20 73.84 76.47 77.11 77.03 77.19 76.97 76.58 76.57 76.70 76.07 76.03 76.11 76.08 76.04 75.72 76.20 75.86 75.94 75.59 75.78 75.54 75.85 75.93 76.33 75.55 75.94 76.33 76.41 76.45 75.99 75.60 75.02 73.90 74.42 74.98 74.24 74.73 75.33 72.91 73.61 74.67 74.65
72.56 73.80 74.86 77.33 77.24 77.23 77.03 76.83 76.41 76.36 76.15 76.16 76.07 75.89 75.75 75.67 75.84 75.64 75.53 75.75 75.46 75.36 75.75 75.73 76.16 75.89 76.23 76.11 76.58 76.50 75.86 75.42 73.42 73.47 73.40 73.57 74.76 75.64 74.19 73.35 72.77 72.99 73.19
73.24 73.86 74.65 76.57 77.23 77.05 76.97 76.92 76.19 76.32 75.93 76.00 75.67 75.98 75.72 75.83 75.54 75.39 75.34 75.09 74.89 75.31 75.70 76.02 75.63 75.79 76.25 76.47 76.66 76.48 75.61 75.37 73.29 73.10 73.40 73.04 75.10 75.26 73.63 74.90 74.47 74.77 74.53
74.38 74.31 74.43 74.66 75.41 76.76 76.71 76.25 76.33 76.44 76.05 75.90 76.21 75.94 75.41 75.61 75.59 75.78 75.52 75.59 75.17 75.25 75.45 75.52 75.73 76.10 76.29 76.23 76.41 75.90 75.25 74.78 72.85 73.55 73.82 74.08 75.61 74.08 74.33 74.87 73.71 73.37 73.22
73.47 73.77 73.74 74.02 73.91 74.22 74.77 76.56 76.68 76.57 76.49 75.90 75.83 75.79 75.75 75.28 75.14 75.65 75.50 76.30 75.34 75.34 75.51 75.61 75.83 75.41 76.13 76.43 75.66 75.69 74.90 74.68 72.90 73.10 72.65 73.53 75.16 75.09 75.14 74.90 74.73 73.47 73.54
72.68 72.33 72.83 73.26 73.47 73.91 74.17 75.33 76.33 76.95 76.21 76.02 75.58 75.56 74.16 73.16 74.27 74.38 75.40 75.78 75.45 75.31 75.39 75.53 75.53 75.53 75.84 75.84 76.34 75.77 74.60 72.56 72.65 72.93 73.84 75.00 75.65 74.44 75.12 74.94 74.27 73.74 73.66
70.47 72.12 72.34 72.70 73.02 73.72 75.31 73.69 73.74 74.55 74.17 74.18 73.27 72.29 72.39 72.75 72.84 73.93 75.17 75.73 75.45 75.17 74.98 74.81 75.12 75.58 73.70 72.82 74.62 75.21 72.24 72.53 72.76 72.98 73.92 75.37 75.64 75.02 74.28 73.11 73.91 74.15 73.72
70.41 72.43 71.87 72.12 72.76 73.20 73.54 73.19 73.33 73.24 73.33 73.02 72.20 71.88 72.17 72.08 72.88 72.98 72.82 72.62 73.28 74.57 74.37 73.31 72.68 72.45 72.11 72.72 72.01 72.43 71.91 72.34 72.53 73.20 74.04 75.62 75.43 74.11 73.93 74.29 73.37 73.39 73.48
69.54 71.64 71.66 72.20 72.38 72.44 73.20 72.90 72.64 72.79 72.74 71.83 72.04 72.15 71.71 71.31 71.76 72.18 71.94 72.54 72.55 72.21 72.05 72.15 71.73 72.53 72.60 71.81 71.23 71.57 71.78 72.16 72.31 73.15 74.12 75.44 75.61 73.77 73.87 73.84 72.90 73.14 73.14
69.45 70.69 71.23 71.93 71.51 72.05 72.37 72.01 72.35 72.33 72.52 71.74 71.65 72.07 71.72 70.90 70.92 71.32 71.77 72.24 71.76 72.49 71.79 70.34 71.46 71.18 71.23 71.25 71.31 71.32 71.39 71.94 72.34 73.15 74.09 74.24 74.71 73.70 73.55 73.61 73.12 73.28 73.16
69.25 69.76 70.81 71.25 70.95 71.44 71.67 71.48 71.50 72.08 72.62 72.18 71.69 72.03 71.73 70.73 70.65 71.50 71.67 71.47 71.97 71.40 72.15 71.14 71.07 71.04 71.58 70.86 71.03 71.12 71.42 71.84 72.65 72.94 73.72 73.95 74.68 74.96 74.32 74.26 73.68 73.93 73.40
68.48 69.79 70.29 70.46 70.45 70.84 71.48 71.45 71.39 71.70 72.21 71.81 71.35 71.65 71.92 71.07 70.78 71.69 71.37 71.10 71.27 71.58 71.99 71.67 71.00 71.66 71.25 70.45 70.58 70.81 71.51 71.62 72.19 72.68 73.20 73.53 74.01 74.54 74.70 74.51 74.01 73.84 73.67
67.76 68.76 70.27 72.00 70.32 70.67 71.03 71.29 71.19 71.30 71.53 71.41 71.18 70.58 71.72 71.89 71.64 71.83 71.07 71.01 71.27 71.58 71.60 71.52 70.05 70.87 70.02 69.83 69.53 69.29 69.80 70.53 71.47 72.09 72.38 72.43 72.86 73.97 74.45 75.46 74.89 74.04 73.57
67.83 68.67 69.56 70.31 69.87 70.33 70.77 70.91 70.61 70.64 70.75 71.00 71.03 70.12 71.77 72.65 72.33 71.69 70.77 71.49 72.22 72.42 71.40 70.16 70.31 70.13 69.38 69.51 69.68 69.53 69.43 69.26 69.78 70.15 70.70 71.40 71.71 72.57 72.12 72.29 74.05 75.09 74.04
68.21 68.75 69.98 70.16 70.00 69.91 70.52 70.17 70.48 70.62 70.59 70.61 70.96 71.03 72.34 72.32 72.08 71.73 71.14 71.85 72.40 71.04 70.18 69.92 70.18 69.35 69.65 69.38 69.31 69.73 69.63 70.17 70.73 69.92 69.58 70.35 70.52 71.02 71.09 71.30 71.46 71.63 73.70
67.97 67.94 68.86 69.38 69.38 69.68 69.21 68.10 68.73 69.18 69.44 70.44 70.91 72.30 73.25 72.75 72.57 70.39 70.98 71.36 71.18 70.73 70.91 70.68 69.48 70.05 68.58 68.70 68.63 68.17 68.48 68.89 69.20 70.46 70.96 70.60 71.17 71.70 71.99 72.11 71.93 71.82 71.95
67.54 68.14 68.22 69.32 68.65 69.96 70.20 69.02 69.61 69.65 70.66 71.14 71.36 72.44 73.24 73.17 72.00 71.36 70.87 72.30 70.62 70.55 70.62 70.31 70.15 69.15 68.44 68.43 67.03 65.40 64.19 65.35 65.85 67.72 69.50 69.97 70.43 71.55 72.16 72.78 72.64 72.66 72.51
67.39 67.75 67.96 69.21 68.71 70.02 69.70 69.44 69.42 69.64 70.35 70.84 71.32 71.63 73.02 73.30 73.47 72.50 72.62 72.64 70.47 71.04 69.76 69.46 69.77 69.78 67.59 67.94 68.39 67.50 64.25 62.74 63.73 66.57 67.76 67.87 69.06 69.41 70.47 71.58 72.58 72.73 72.75
67.43 68.45 68.75 69.10 68.63 69.48 69.53 69.54 69.01 68.15 68.30 69.95 70.72 71.66 72.99 73.44 73.64 73.89 72.43 72.26 71.84 70.84 70.95 70.56 71.53 70.47 69.05 67.77 68.49 67.70 67.60 66.54 64.58 63.88 66.40 67.19 68.33 68.16 69.00 69.65 70.63 71.88 72.87
68.08 67.87 68.92 69.16 68.55 69.40 69.42 70.07 69.00 68.32 69.01 69.46 70.87 71.05 71.95 73.56 73.88 73.42 73.10 72.58 72.02 71.45 72.10 72.47 72.16 71.30 70.97 68.57 68.88 69.02 67.39 66.48 66.00 64.74 64.11 65.73 68.30 68.97 69.37 69.49 70.55 70.79 71.44
67.91 67.97 68.51 68.46 68.13 69.10 69.42 69.01 69.01 68.70 68.35 68.21 69.36 70.18 70.71 72.12 73.19 73.61 73.83 73.55 72.78 72.08 71.86 71.97 72.48 72.41 72.47 72.04 70.50 70.12 68.71 67.44 66.69 66.56 64.71 65.27 65.22 68.58 68.58 69.44 69.66 70.09 70.53

GFSSE_sfc_wetblb_075.txt.gz
Wetbulb
71.90 75.06 76.39 76.82 76.51 76.21 75.94 76.46 76.59 76.32 76.29 75.99 75.83 75.75 75.89 76.16 76.98 76.79 76.70 77.27 77.06 77.45 77.60 77.85 77.63 77.17 77.27 76.93 76.75 76.84 76.19 76.71 76.90 76.30 76.02 75.75 75.23 75.05 75.24 74.45 75.44 74.92 75.37
73.39 75.23 76.90 77.48 76.64 76.52 75.93 76.00 76.96 76.53 76.70 76.57 75.44 75.49 75.30 75.25 75.94 76.87 76.56 76.64 76.81 76.94 77.09 76.72 76.53 75.77 77.02 76.89 76.94 76.80 76.59 76.06 77.19 76.32 75.42 75.67 75.55 74.11 75.40 75.32 75.20 75.14 74.79
73.48 75.16 75.83 77.74 76.95 76.80 76.18 75.97 77.11 76.49 77.12 76.58 75.90 75.53 76.01 76.87 75.70 75.78 76.50 76.32 76.59 76.78 76.57 76.92 76.43 76.97 77.24 76.92 76.32 76.59 76.59 76.73 76.61 75.99 75.81 75.01 75.24 74.84 73.78 73.37 73.09 73.10 72.77
73.85 75.07 75.96 77.39 77.89 76.80 76.59 76.09 77.02 76.62 76.92 76.62 76.80 76.51 75.92 75.71 76.00 75.88 76.03 76.38 76.11 76.51 76.64 76.69 76.49 77.10 76.52 76.39 76.75 76.78 76.54 76.10 75.69 75.22 73.37 74.95 73.81 75.52 75.43 75.34 75.34 74.95 75.08
74.40 75.52 76.36 77.07 77.47 77.19 76.92 76.39 77.04 76.62 76.43 76.49 76.00 75.76 76.09 75.88 75.71 76.38 76.04 76.01 76.34 76.43 76.84 76.74 76.60 76.52 76.08 76.15 76.78 76.55 76.16 75.98 75.37 73.84 73.49 75.14 75.10 73.50 74.62 75.46 74.63 75.20 73.39
74.37 75.36 76.64 77.19 77.20 77.09 76.82 76.70 76.92 76.56 76.49 76.27 76.39 75.97 76.28 76.02 76.19 76.30 76.17 75.93 76.01 76.28 76.59 76.43 76.27 75.84 76.00 75.99 76.72 76.25 76.00 75.82 75.31 75.87 75.13 75.03 74.93 73.68 73.54 74.59 75.34 74.07 73.79
74.29 75.77 76.64 77.86 77.31 77.08 76.83 76.84 76.74 76.41 76.55 76.10 75.97 76.12 75.99 76.29 75.77 76.10 75.98 76.03 75.85 75.85 75.99 76.16 76.14 76.24 76.57 76.98 76.76 76.09 75.67 75.67 75.75 75.15 74.65 75.11 75.10 74.21 73.21 73.46 73.51 74.58 74.88
74.26 75.39 76.26 77.27 77.33 77.45 77.05 76.71 76.54 76.41 76.16 76.01 75.96 76.15 75.84 75.86 75.41 75.70 75.31 75.53 75.50 75.97 76.14 76.05 75.80 76.08 76.73 76.75 76.65 75.84 75.80 75.07 74.65 74.13 74.77 75.02 75.05 74.86 75.34 74.97 75.28 74.82 74.58
74.92 75.16 75.86 76.52 77.45 77.19 76.94 76.62 76.46 76.38 76.16 76.17 76.12 76.20 76.19 75.71 75.60 75.69 75.39 75.77 75.47 76.11 76.02 75.95 76.62 76.35 76.72 76.72 76.44 75.69 75.30 74.75 74.76 74.72 74.11 75.30 75.00 75.11 75.00 73.99 73.41 73.48 73.67
74.44 74.81 74.61 75.42 76.57 76.37 76.39 76.59 76.50 76.47 76.30 76.47 75.88 76.19 75.79 75.80 75.42 75.27 75.54 76.44 75.69 75.92 76.00 76.10 75.96 76.73 76.40 76.34 75.93 75.25 75.15 74.20 74.57 73.26 73.40 73.98 75.68 75.49 75.21 74.87 73.79 73.83 73.99
73.32 74.86 75.82 75.64 76.18 76.90 76.80 76.64 76.63 76.52 76.23 76.06 76.00 76.43 76.14 76.04 75.45 75.27 75.92 75.97 75.64 75.92 75.89 75.51 75.92 76.44 76.16 75.97 76.11 75.50 73.48 73.97 73.43 74.25 75.14 75.00 75.55 75.15 75.00 74.75 73.87 74.37 73.12
72.24 73.95 75.23 75.63 75.99 76.33 75.91 77.20 77.20 75.87 76.72 77.00 76.55 76.39 76.09 76.28 75.80 75.45 76.10 75.72 75.36 75.47 75.45 75.39 75.80 75.33 74.49 75.69 77.11 75.33 74.79 74.16 74.21 74.45 74.50 74.98 75.30 75.11 73.40 73.46 74.54 74.02 74.27
72.19 73.56 74.55 75.42 76.14 75.71 76.22 75.49 75.49 75.98 75.97 76.07 76.00 75.92 76.00 75.60 76.08 75.64 75.79 75.33 75.82 75.44 75.70 75.68 75.52 75.08 74.94 75.17 75.30 75.84 75.14 74.43 74.37 74.72 74.91 74.45 74.40 73.91 73.85 74.32 73.39 74.06 73.79
70.76 73.08 74.66 75.33 75.68 76.14 76.03 74.63 75.53 75.18 75.42 74.90 75.27 76.09 75.57 74.70 75.28 76.08 75.14 75.76 75.47 75.58 75.23 75.79 75.27 75.39 75.18 74.99 75.62 76.12 75.58 74.53 74.12 74.79 75.07 74.46 74.40 73.58 73.95 73.83 73.27 73.37 73.50
69.92 72.66 74.23 75.43 75.95 76.40 76.24 75.27 75.30 75.00 74.87 75.12 75.66 75.75 75.95 74.60 74.64 75.18 75.02 75.21 75.55 76.21 75.40 74.42 75.24 75.19 75.35 75.01 75.08 75.01 74.95 73.98 73.52 74.68 75.45 74.28 74.36 73.94 73.93 73.62 73.18 73.54 73.26
71.25 72.61 73.62 74.14 75.59 76.34 75.45 75.85 75.16 75.15 75.21 75.31 75.56 76.08 75.62 74.80 75.06 74.43 74.70 75.03 76.22 76.41 75.66 75.59 75.27 75.13 75.32 74.79 74.52 74.68 74.44 73.77 74.29 74.66 75.21 75.37 74.12 74.91 74.47 74.61 74.04 73.99 73.92
71.84 73.02 73.20 74.19 75.02 75.53 75.80 75.20 74.81 74.82 75.23 75.81 76.34 76.06 75.92 75.47 75.38 76.34 76.01 75.62 76.02 76.28 76.53 76.61 75.84 76.39 74.82 74.60 74.33 74.66 75.32 74.83 74.13 74.48 74.96 75.37 75.91 74.40 74.79 74.79 74.31 74.03 73.89
71.83 72.58 73.58 73.57 74.31 74.96 74.90 74.86 74.53 75.14 75.93 76.29 76.26 76.37 76.00 75.91 75.31 76.11 75.87 75.62 75.95 76.29 76.50 76.30 75.71 74.98 74.07 73.92 73.85 74.22 75.04 74.70 74.10 74.39 74.92 74.59 74.77 74.63 75.07 75.16 75.58 74.83 74.10
71.77 72.41 72.85 73.90 73.65 74.44 75.26 74.69 75.05 75.64 75.53 76.57 76.79 75.87 75.79 75.92 75.74 76.07 76.13 75.77 76.80 76.67 76.24 75.29 74.91 75.29 73.45 73.80 73.94 74.91 74.71 74.60 74.64 73.89 74.28 73.95 74.48 74.42 74.81 74.78 73.21 73.83 74.57
71.18 72.60 73.32 73.84 73.87 74.56 74.69 74.65 74.37 75.03 75.30 76.13 75.85 75.95 75.14 76.45 75.74 76.40 75.78 76.16 76.80 76.23 75.76 74.51 75.52 74.59 74.51 74.13 73.01 73.66 74.95 74.89 75.23 74.90 74.65 74.31 74.60 74.51 74.85 75.32 75.14 75.30 72.79
70.64 71.92 72.96 73.25 74.14 73.79 73.14 72.66 73.48 73.08 74.21 74.75 75.55 76.08 75.67 76.72 75.74 75.78 75.39 75.69 76.07 75.70 75.54 74.93 74.42 74.38 73.91 74.89 73.79 73.14 73.26 74.03 73.77 74.08 74.90 74.79 74.74 74.96 75.18 75.66 75.96 75.70 75.69
70.16 71.34 72.83 73.46 74.13 73.99 73.59 74.39 74.40 74.47 74.71 74.80 75.65 75.83 76.33 76.66 76.62 75.53 74.87 75.55 75.78 74.89 75.75 75.19 74.99 73.69 73.82 73.97 72.23 71.78 68.45 70.44 72.53 73.10 73.86 73.82 74.47 74.81 74.78 75.33 75.96 76.19 76.32
70.25 71.26 72.31 73.53 74.14 74.26 74.48 74.30 74.46 74.76 75.08 74.01 74.30 74.75 75.60 76.81 76.68 76.48 75.76 76.39 75.86 75.80 74.47 74.95 74.29 74.23 72.13 73.28 72.68 71.11 68.54 66.41 69.42 72.76 73.14 74.01 73.84 73.91 74.32 74.77 75.08 76.01 76.34
70.68 72.02 72.55 73.62 74.10 74.41 74.99 74.06 74.15 72.97 72.40 73.65 74.65 75.29 75.58 76.92 77.00 76.85 76.93 76.60 76.25 75.58 75.06 74.44 75.07 75.13 74.09 71.96 72.95 73.13 73.19 71.80 67.84 67.40 72.75 73.12 74.11 73.41 74.67 74.46 74.19 74.90 75.77
71.13 71.74 72.34 73.45 74.03 74.91 74.66 75.33 73.72 74.21 74.00 74.69 74.84 75.52 76.24 77.28 77.23 77.25 76.86 76.93 76.58 75.57 76.24 76.44 75.82 75.15 74.77 72.85 72.75 73.85 73.51 72.51 72.17 69.93 68.16 70.87 74.01 74.87 75.25 74.83 74.62 74.92 75.25
71.01 71.39 71.85 72.76 73.85 74.14 74.47 74.66 74.36 74.55 74.31 73.57 74.38 74.25 74.43 75.48 76.76 77.36 77.25 77.34 76.66 76.36 75.69 76.08 76.85 76.12 76.56 76.02 75.26 75.22 74.20 71.57 71.09 71.07 70.52 71.75 70.95 73.64 74.44 74.95 75.31 75.49 75.64

GFSSE_sfc_wetblb_078.txt.gz
Wetbulb
74.02 75.47 76.76 76.92 76.16 76.57 76.80 76.67 76.44 76.36 76.16 76.16 76.20 76.14 76.62 77.17 76.91 76.95 77.56 77.19 77.73 78.06 78.19 78.25 78.22 78.31 77.43 77.21 76.73 76.40 76.89 76.40 75.99 76.16 75.90 75.58 75.37 75.54 75.30 75.43 76.88 75.62 75.26
75.35 75.75 77.43 77.51 76.47 76.15 76.56 76.86 76.49 76.80 76.20 75.71 75.69 75.64 75.62 76.60 77.09 76.65 76.82 77.05 77.38 77.53 76.88 77.00 77.50 77.25 77.26 76.91 76.81 76.57 76.37 76.30 77.14 76.02 76.05 74.64 75.73 75.36 75.78 75.91 76.05 74.72 73.81
74.87 76.06 77.26 77.52 76.97 76.15 76.57 77.41 76.72 77.26 76.51 75.64 75.62 76.31 76.65 75.68 76.43 77.00 76.80 76.92 77.00 77.12 77.12 76.66 77.13 77.01 77.22 76.74 76.64 76.75 76.67 76.49 75.73 76.02 76.56 73.86 74.04 73.76 73.44 73.42 73.31 73.95 74.18
75.02 75.91 76.83 77.58 77.47 76.29 76.49 77.35 76.59 77.28 76.67 77.05 76.74 76.06 76.34 76.28 75.72 76.58 76.59 76.46 76.85 76.96 77.07 76.98 76.98 76.66 76.75 76.91 77.01 76.65 76.30 75.93 75.80 75.15 73.76 73.00 75.46 75.56 75.62 75.30 75.28 75.31 74.13
75.19 75.86 77.64 78.01 77.31 76.62 76.57 77.38 76.59 77.18 76.90 76.30 76.39 76.44 75.87 76.01 76.24 76.38 76.32 76.31 76.79 76.48 76.81 77.08 76.82 76.41 76.54 76.89 76.76 76.45 76.16 75.25 75.64 75.52 75.60 75.03 72.31 75.39 75.34 75.31 73.95 73.89 75.23
75.12 75.95 77.11 77.68 77.38 77.23 76.79 77.31 76.71 77.05 76.72 76.48 76.53 76.60 76.14 76.56 76.45 76.43 76.32 76.40 76.50 76.89 76.87 76.52 76.13 76.22 76.41 76.90 76.48 76.27 75.89 75.35 77.61 74.73 74.83 75.21 72.47 74.20 75.55 74.82 73.84 74.93 75.31
75.04 76.42 77.02 78.13 77.43 77.24 77.07 77.05 76.69 76.95 76.54 76.12 76.21 76.48 75.88 76.38 76.26 76.35 76.30 76.38 76.49 76.60 76.52 76.38 76.53 76.69 77.17 76.86 76.24 75.89 75.50 74.98 74.20 74.42 75.05 74.68 73.46 74.11 73.73 74.27 75.19 75.02 74.52
75.21 76.36 76.90 77.69 77.42 77.33 76.86 76.94 76.74 76.52 76.35 76.21 76.48 76.21 76.17 75.93 75.89 75.64 76.13 76.11 76.33 76.47 76.52 76.36 76.52 76.93 77.00 76.65 76.14 76.03 75.36 75.28 74.53 75.41 75.17 73.61 75.17 75.50 75.39 75.68 75.27 74.22 74.54
75.87 76.06 76.70 77.44 77.89 77.18 77.00 76.70 76.72 76.58 76.41 76.10 76.44 76.39 75.81 76.38 76.27 75.75 75.23 76.22 76.47 76.52 76.27 76.77 76.95 77.02 77.03 76.48 76.02 75.74 74.87 73.81 74.28 74.94 73.47 73.17 75.43 75.24 74.46 73.59 73.74 74.36 74.43
75.64 75.77 76.27 76.87 77.18 77.28 77.11 76.23 76.80 76.45 76.13 76.03 76.24 76.13 76.27 75.77 75.80 75.58 76.66 76.74 76.53 76.35 76.55 76.77 76.65 76.82 76.62 76.09 75.76 75.34 74.71 75.08 73.34 73.75 73.62 75.24 74.77 75.34 75.33 74.18 73.98 73.46 74.80
74.57 74.94 74.93 75.36 76.32 77.29 76.75 77.07 76.66 76.50 76.17 76.25 76.09 75.86 76.62 75.45 75.84 75.36 76.50 76.27 76.55 76.35 76.30 76.60 76.47 76.36 76.57 76.58 75.72 74.68 75.33 73.61 73.41 74.53 74.70 75.51 75.45 75.10 75.33 74.42 75.07 73.96 73.45
73.02 73.97 75.34 76.20 76.37 76.74 75.78 77.04 77.20 76.67 77.06 76.48 76.11 76.72 75.45 75.98 76.41 75.49 76.29 76.16 76.22 76.05 76.05 76.36 76.02 74.70 77.04 75.60 76.29 75.56 73.39 74.25 73.60 73.75 75.59 75.98 75.18 74.03 74.03 74.91 74.00 73.83 73.47
73.17 73.57 75.16 75.92 76.72 76.25 76.44 75.94 75.35 75.77 76.31 76.36 76.85 76.55 75.83 75.21 75.80 74.90 75.47 76.14 76.28 76.46 76.05 76.90 76.44 76.17 76.36 76.03 75.00 73.47 73.58 73.38 73.70 73.75 74.76 75.26 74.81 74.77 74.91 73.72 73.73 74.22 74.22
72.62 73.68 74.92 76.33 76.33 76.23 75.13 75.36 75.23 74.81 74.95 74.78 75.92 76.47 75.99 74.28 74.93 75.27 74.97 75.97 76.24 75.80 76.17 76.93 75.89 76.76 76.76 76.57 76.09 74.79 72.92 72.16 73.31 73.88 74.47 74.92 74.49 74.19 74.60 73.42 73.51 73.43 73.56
71.98 73.76 74.72 75.94 76.53 76.02 75.61 75.77 75.31 74.80 74.36 75.02 75.32 76.20 75.47 74.72 75.27 75.55 75.98 76.07 76.36 77.27 75.83 76.09 76.47 76.74 77.15 76.18 76.01 75.54 74.16 73.05 73.35 74.12 74.54 74.02 74.12 73.78 73.85 73.69 73.33 73.67 73.30
72.28 73.56 74.87 75.39 76.47 76.31 76.21 76.84 75.86 75.69 75.84 75.54 75.38 75.80 76.47 75.13 75.79 75.48 76.00 75.90 76.40 76.94 76.39 76.70 76.62 76.44 75.76 76.02 75.87 75.84 74.67 74.32 74.65 75.76 75.38 75.28 74.52 74.75 74.30 74.36 74.11 73.66 73.82
72.58 74.00 74.42 75.07 75.75 76.02 76.50 76.78 76.07 75.73 76.02 76.01 76.33 77.77 77.39 76.63 77.09 77.71 76.19 77.11 76.48 77.11 77.72 77.56 77.66 76.88 75.04 74.98 75.38 75.36 75.35 74.68 74.80 75.02 76.24 75.27 75.27 74.16 74.80 74.63 74.13 73.75 73.81
72.77 73.76 74.70 74.36 74.75 75.60 76.31 76.57 76.05 76.14 76.65 76.80 76.85 77.03 77.71 77.78 77.51 77.60 77.14 77.07 76.69 77.26 77.43 76.45 77.03 74.40 74.51 74.05 74.01 74.24 74.44 75.02 75.47 75.47 75.72 75.93 75.47 75.49 75.14 74.99 75.25 75.30 74.75
72.91 74.04 74.39 75.03 74.30 74.98 76.41 76.28 76.62 77.48 76.89 77.07 77.33 77.22 77.86 77.65 77.72 78.62 77.97 76.47 77.61 77.29 76.53 76.75 75.41 75.32 73.84 73.42 73.02 73.73 74.46 75.12 75.72 74.79 76.06 76.76 76.04 76.10 75.01 75.09 73.51 73.95 74.10
72.76 73.77 74.69 74.96 75.02 75.33 75.68 76.12 75.71 75.80 76.29 76.89 77.48 76.78 77.30 77.87 77.90 78.12 76.62 77.44 77.57 76.48 75.41 75.69 76.33 75.77 75.03 74.18 72.56 72.83 75.17 75.54 76.56 76.29 75.96 75.71 76.11 76.99 76.76 77.26 76.74 75.65 74.43
72.04 73.05 74.07 74.59 75.39 75.29 74.79 73.88 73.78 73.63 75.15 75.65 76.89 77.39 77.45 77.85 77.70 77.85 76.92 77.25 77.48 77.04 76.40 77.16 75.94 75.53 72.98 75.32 71.65 72.01 72.14 73.20 73.66 75.35 75.96 75.99 75.13 76.10 77.14 77.64 76.93 76.21 75.94
71.13 72.71 73.94 74.90 75.52 75.68 74.80 74.84 75.05 75.29 75.46 76.06 76.77 77.54 77.49 77.58 78.09 77.62 77.58 76.89 77.58 76.18 77.45 77.46 76.69 74.13 73.59 75.00 71.48 71.07 68.79 69.89 71.79 73.15 74.50 74.60 75.03 75.99 76.29 76.19 76.71 77.63 77.38
70.67 72.20 73.85 75.01 75.56 75.52 76.12 76.15 76.59 77.13 77.45 75.58 75.92 76.31 77.08 77.58 77.55 78.03 77.39 77.64 77.60 77.07 74.65 77.04 76.32 75.59 71.66 75.32 75.08 72.09 68.85 66.44 70.58 72.22 73.46 73.79 74.93 75.03 75.79 76.42 76.38 77.18 78.12
71.56 72.39 74.14 75.34 75.62 75.74 76.95 76.29 76.36 74.10 72.81 74.07 75.24 75.88 76.80 77.90 77.55 77.53 77.89 77.86 77.94 76.95 76.88 76.52 76.64 76.63 76.06 71.99 73.88 74.73 74.90 73.56 68.57 68.10 71.54 72.20 73.27 72.87 74.16 75.51 75.50 75.63 77.60
72.95 72.88 73.91 75.45 76.42 76.17 76.75 76.86 75.64 75.34 74.61 75.16 75.23 77.44 78.04 78.41 77.36 77.46 77.70 78.03 77.96 76.89 77.84 77.55 77.35 77.17 75.58 73.49 73.25 73.87 75.03 74.18 74.30 70.85 67.65 68.93 71.35 73.31 74.53 76.01 75.32 76.46 77.49
73.53 73.58 74.13 75.02 75.91 76.79 76.70 76.72 76.63 76.02 75.60 74.35 75.00 75.22 75.59 76.21 76.89 77.77 77.20 77.65 78.07 77.48 77.83 77.11 77.17 77.38 77.00 76.52 74.68 74.09 72.56 71.13 71.25 71.78 70.84 71.10 70.87 72.92 75.07 75.55 75.84 76.31 77.00

GFSSE_sfc_wetblb_081.txt.gz
Wetbulb
73.89 75.24 76.87 76.42 76.81 77.30 76.92 76.67 76.52 76.44 76.39 76.36 76.42 76.91 77.17 76.95 77.10 77.66 77.84 77.95 78.44 78.53 78.21 78.25 78.41 77.89 76.94 76.94 77.03 76.62 76.10 76.26 76.85 76.02 76.08 75.27 75.35 75.32 75.88 75.35 76.69 72.76 75.27
74.80 75.27 77.52 76.86 76.71 77.13 76.43 76.34 76.44 76.22 76.23 75.88 75.81 75.81 76.89 77.06 77.00 76.96 77.17 77.55 77.40 77.87 77.35 78.15 77.57 77.21 76.92 76.94 76.81 76.82 76.37 76.79 76.00 75.66 76.60 75.83 75.92 75.57 74.78 74.80 75.27 73.78 75.43
74.32 75.28 76.44 77.24 76.08 76.93 77.23 76.50 76.69 76.11 75.64 75.62 76.02 75.81 75.93 76.66 77.10 77.14 77.09 77.25 77.36 77.29 77.16 76.98 77.06 76.94 76.94 76.95 76.92 76.75 76.15 76.55 75.99 75.87 77.57 71.24 71.96 73.77 73.49 74.22 74.38 74.95 75.38
74.92 74.99 75.40 77.18 76.74 76.68 77.41 76.68 77.21 76.88 76.77 76.27 76.17 76.46 76.45 75.82 76.80 76.93 76.94 77.29 77.32 77.32 77.03 76.88 76.57 77.14 76.95 76.95 76.85 76.47 75.88 75.63 74.30 74.85 74.91 74.63 74.70 75.70 75.60 75.42 74.63 75.03 75.13
74.87 74.73 76.28 77.68 76.66 76.76 77.02 76.56 76.66 77.02 76.60 76.60 76.46 76.31 76.62 76.43 76.57 76.57 76.76 77.04 77.06 77.04 77.16 76.54 76.65 76.98 76.93 76.57 76.42 75.82 75.12 73.86 74.64 75.99 72.28 72.92 74.93 75.29 74.93 73.81 74.72 75.16 75.23
74.53 76.27 77.39 77.46 76.71 76.99 76.98 76.88 76.76 76.99 76.67 76.67 76.74 76.67 76.86 76.67 76.79 76.65 76.87 76.95 76.81 77.13 77.02 76.22 76.06 76.65 76.90 76.52 76.20 75.69 74.96 74.71 78.07 74.47 72.14 72.04 73.88 75.41 74.08 75.04 75.35 74.99 74.95
73.97 76.21 77.43 77.92 77.39 77.02 77.13 76.94 77.14 76.88 76.42 76.81 76.68 76.51 76.85 76.49 76.60 76.52 76.51 76.82 77.02 76.69 76.77 76.83 76.68 77.03 76.67 76.28 75.98 75.56 75.13 76.82 75.00 74.68 72.30 72.11 72.76 74.59 75.41 75.29 74.80 74.94 74.63
74.41 74.58 76.27 76.98 77.36 77.12 76.85 76.88 76.81 76.33 76.47 76.26 76.58 76.37 76.46 76.24 76.49 76.66 76.58 76.66 76.91 76.66 76.63 76.72 77.16 77.13 76.58 76.33 76.13 75.18 74.88 76.09 74.50 73.81 72.92 75.18 75.16 75.34 75.34 74.78 74.61 74.53 74.65
74.80 75.29 76.31 76.90 77.52 77.12 77.13 77.01 76.68 76.54 76.46 76.52 76.29 76.07 76.43 76.30 75.91 76.19 76.46 76.80 76.66 76.71 76.88 77.08 77.19 76.99 76.47 75.99 75.44 73.97 74.13 75.28 72.86 73.87 72.95 74.09 75.42 74.86 73.97 74.34 74.77 74.86 75.07
74.02 74.60 75.55 76.14 75.74 76.37 76.74 76.79 76.67 76.60 76.20 76.29 76.07 76.57 76.29 76.24 76.30 76.21 76.93 76.74 76.49 76.55 76.83 76.72 76.74 76.96 76.18 75.66 74.99 74.47 75.35 76.22 73.74 73.11 74.58 74.64 76.19 75.23 74.54 74.20 73.42 74.50 74.88
73.49 74.43 75.61 74.36 75.20 76.56 76.38 76.75 76.74 76.21 76.51 76.49 75.69 76.16 76.18 75.23 75.79 75.45 77.26 76.79 76.77 76.74 76.91 76.72 76.66 76.88 76.68 76.19 75.57 75.46 75.77 74.01 72.56 73.39 73.87 75.27 76.04 74.85 74.70 75.35 74.47 74.05 73.69
72.19 72.82 73.81 74.89 75.18 75.57 74.60 77.11 76.34 75.84 75.25 76.11 76.47 76.54 76.39 75.46 75.03 74.77 76.64 76.69 76.69 76.77 76.83 76.60 76.69 77.02 76.89 75.76 75.63 75.99 73.97 72.91 73.16 74.24 74.38 76.16 74.81 74.27 74.73 74.37 74.35 74.16 73.51
72.70 73.43 74.10 75.62 76.78 75.66 75.38 75.65 74.92 75.27 75.22 75.66 76.74 76.34 75.22 74.64 74.66 74.79 75.77 75.94 76.59 76.66 75.95 76.03 75.14 74.84 74.95 74.73 72.77 72.40 72.90 73.20 73.13 72.54 75.52 75.92 75.06 74.71 74.16 73.64 73.79 74.47 74.10
72.48 73.35 74.27 75.32 76.19 74.90 75.20 75.35 74.35 74.69 74.58 74.68 74.93 76.00 75.60 74.08 74.84 77.11 75.36 75.10 74.26 76.16 75.89 74.66 75.57 76.41 76.14 75.57 73.65 72.48 72.19 72.60 73.27 72.68 74.96 74.77 74.24 74.98 74.52 73.20 73.61 73.28 73.44
71.94 73.13 74.86 75.62 76.32 75.82 77.90 74.68 74.73 73.94 74.32 74.60 75.32 75.74 75.66 75.38 75.57 76.12 75.31 74.35 76.30 76.21 75.26 75.81 76.62 75.88 75.05 75.12 74.68 73.95 72.16 72.80 73.34 73.72 72.64 74.79 74.55 73.58 73.70 73.59 73.17 73.58 73.74
72.56 73.43 74.99 75.09 75.79 75.83 77.89 77.50 75.82 75.50 74.51 74.81 74.90 75.62 76.67 76.23 76.57 75.88 76.07 76.40 75.80 77.70 76.08 77.36 74.94 78.16 75.31 74.58 75.26 74.57 73.80 74.15 74.85 75.50 75.21 74.70 76.04 75.11 74.11 74.12 74.04 73.36 73.20
72.75 74.18 74.55 74.95 75.55 76.40 76.39 76.09 75.95 74.74 75.01 74.78 75.21 76.99 76.88 77.04 77.88 80.19 76.21 74.37 76.08 76.85 77.66 76.78 76.95 77.76 74.97 74.37 74.89 74.56 74.07 74.90 74.29 74.91 75.40 75.73 75.27 75.42 74.82 74.30 73.74 73.44 73.41
72.92 73.90 74.77 74.27 74.76 75.72 76.22 77.59 76.99 75.11 74.45 76.72 75.35 75.91 76.97 77.48 77.29 78.26 75.67 75.07 76.22 78.22 75.73 76.57 77.77 76.42 74.26 74.07 73.70 74.54 73.51 74.16 74.52 74.34 74.32 75.39 74.49 75.84 75.52 75.39 75.17 74.88 74.80
73.31 74.29 74.39 74.80 74.31 75.68 77.00 76.63 76.06 78.22 75.66 78.26 76.17 75.93 77.67 77.71 77.34 77.61 75.93 76.02 77.59 76.21 75.33 73.59 75.04 74.96 74.00 73.40 73.23 72.94 73.45 73.35 74.64 73.60 74.48 74.96 74.19 74.82 74.99 76.24 75.77 75.23 74.83
73.33 74.59 74.94 74.67 74.87 76.49 76.38 76.83 76.03 75.37 76.54 76.57 77.63 75.91 77.96 77.47 77.95 77.87 76.08 76.63 76.20 75.59 74.51 74.69 77.31 74.33 72.13 73.92 70.61 71.55 73.06 73.49 73.93 73.55 74.08 74.43 74.54 75.43 75.19 75.84 76.55 75.78 75.65
72.80 73.73 74.70 74.71 76.15 75.16 74.90 73.84 73.46 73.09 74.89 74.71 75.71 77.66 77.72 77.79 78.03 77.90 76.90 76.78 76.29 74.83 74.60 76.15 75.23 74.94 74.23 73.37 72.71 71.53 71.12 72.44 73.02 73.00 74.29 74.20 74.08 74.67 74.42 75.28 76.17 75.64 75.40
71.87 73.14 74.46 75.14 75.74 75.65 75.26 76.28 74.75 77.50 73.94 76.25 75.63 77.52 77.60 77.88 78.25 77.60 78.15 77.10 77.55 74.36 77.04 76.40 75.56 74.89 70.85 74.46 71.33 70.22 69.07 69.67 70.99 71.85 72.70 72.72 73.12 74.14 73.74 74.96 74.83 76.13 76.64
70.84 72.26 74.11 75.52 75.96 76.42 77.42 75.58 76.39 76.95 76.64 74.54 75.55 75.77 77.17 77.54 77.69 77.96 77.55 77.89 77.67 77.20 75.04 76.66 75.99 72.89 72.34 72.64 76.09 71.53 68.33 67.20 69.44 71.85 72.71 72.16 73.08 72.79 73.79 74.11 74.56 75.86 76.84
70.99 72.86 74.63 75.59 76.15 76.02 77.04 77.46 78.16 74.08 72.29 74.12 75.38 75.96 77.08 77.85 77.66 77.38 77.82 77.92 78.21 76.12 76.49 76.73 75.12 77.67 77.02 72.31 73.28 73.28 75.16 74.15 70.09 68.78 70.41 70.87 72.08 72.44 73.43 73.74 74.14 74.77 76.15
71.52 72.64 74.35 75.87 76.98 77.75 77.44 78.53 76.15 75.25 74.42 75.51 74.22 78.15 76.90 78.81 77.70 76.86 78.16 78.09 77.67 76.62 78.96 77.55 76.88 77.48 74.85 73.80 72.88 72.55 73.51 72.17 73.13 70.48 66.95 68.32 70.86 72.32 73.48 74.45 74.24 74.94 76.10
72.27 72.21 73.81 75.85 77.18 77.04 76.88 77.16 77.70 76.96 76.55 75.41 75.18 74.85 75.20 76.06 76.49 77.69 77.32 77.97 78.21 77.71 77.93 77.38 77.74 77.36 77.20 77.86 75.76 74.14 71.69 68.98 70.55 71.91 69.43 71.42 70.04 72.72 73.71 74.42 74.90 75.64 76.06

GFSSE_sfc_wetblb_084.txt.gz
Wetbulb
72.90 74.82 77.31 77.39 76.90 77.30 77.08 77.07 76.98 76.92 76.82 76.74 77.18 77.39 77.28 77.51 77.91 78.40 78.29 78.74 78.76 78.68 78.70 78.46 77.91 77.33 77.51 76.91 76.33 76.57 76.09 76.55 76.56 76.44 76.33 76.10 76.14 76.41 75.97 76.50 76.13 74.05 76.20
73.86 75.29 77.24 77.26 77.46 76.97 76.90 76.93 76.60 76.44 76.18 76.10 76.22 77.27 77.21 77.07 77.16 77.91 78.07 78.36 78.23 78.47 78.38 77.46 77.25 77.37 77.00 77.03 76.49 76.49 76.31 76.67 77.43 76.49 75.97 75.77 75.27 74.64 75.43 74.83 76.02 74.58 75.17
73.63 74.60 75.80 77.58 77.59 76.94 77.03 76.97 76.39 75.84 75.78 76.37 75.84 76.11 77.15 77.02 77.28 77.77 77.82 77.24 77.08 77.49 77.18 77.20 77.20 77.20 77.08 76.68 76.49 76.29 76.18 76.37 76.07 77.39 74.95 70.25 71.86 75.14 74.80 75.23 75.88 75.61 74.73
73.11 73.20 74.10 76.95 77.51 77.36 77.18 76.47 77.31 76.86 76.63 76.57 76.33 76.75 76.32 76.85 76.61 77.45 77.00 77.20 77.13 77.55 77.32 77.29 77.23 77.23 77.09 76.81 76.04 75.64 75.91 75.66 76.08 74.44 73.48 72.89 73.74 75.51 75.23 75.20 75.04 75.21 74.58
73.10 73.87 75.07 77.36 77.52 77.63 77.64 77.24 77.23 77.09 76.66 76.87 76.63 76.55 77.23 77.11 76.93 76.99 77.14 77.12 77.03 77.42 76.81 77.13 77.38 76.86 76.47 76.22 75.35 75.64 75.66 75.94 76.81 73.63 71.70 73.28 72.88 74.53 74.75 75.54 75.05 75.28 75.34
72.96 74.48 76.83 77.47 77.27 77.16 77.44 76.99 77.07 77.11 76.87 77.18 77.01 77.02 77.18 77.37 77.02 77.13 76.86 76.98 77.37 76.72 76.83 76.35 77.10 77.00 76.28 75.86 75.75 75.80 76.44 76.47 75.88 70.37 70.17 73.94 72.85 74.80 75.73 75.18 74.79 74.93 75.18
73.31 74.20 76.06 77.76 77.68 77.35 77.45 76.82 76.63 76.83 76.69 76.82 76.72 77.24 76.82 76.82 76.96 76.96 77.24 77.27 77.08 76.72 76.96 76.63 77.07 76.49 76.02 75.88 75.49 75.27 75.89 75.14 73.92 71.12 70.54 71.48 73.33 75.61 75.43 75.23 74.78 75.09 74.13
73.74 74.40 75.33 77.20 77.13 76.98 77.31 77.09 76.79 76.50 76.68 77.17 77.25 77.03 77.04 77.18 76.88 77.21 76.97 77.02 76.80 76.89 76.91 77.17 76.95 76.23 76.01 75.54 74.97 74.78 75.38 77.44 72.90 73.45 73.50 73.33 75.20 75.51 74.41 74.98 74.88 75.03 74.38
74.36 74.32 74.65 75.70 76.85 77.37 77.09 76.82 76.52 77.10 76.89 76.78 76.34 76.95 77.12 76.96 76.83 76.94 77.29 76.80 76.97 77.19 77.19 77.29 76.64 76.37 75.86 75.38 74.89 74.64 74.78 77.44 72.40 72.58 73.24 73.32 75.58 74.41 74.74 74.97 75.18 74.99 74.25
73.50 74.17 74.90 75.56 75.53 75.11 75.81 76.70 76.67 76.42 76.70 76.18 76.65 76.58 76.86 76.72 76.50 76.77 77.59 77.71 77.11 77.14 77.03 77.16 76.81 76.18 75.87 75.32 74.69 74.69 75.58 76.74 72.61 73.07 73.37 74.18 75.80 74.93 74.16 73.53 73.95 74.54 73.99
73.24 73.59 74.38 74.76 74.58 76.55 76.16 76.16 76.52 76.13 76.09 76.38 76.22 76.01 76.08 75.35 75.05 75.24 77.31 77.46 76.77 77.70 76.83 77.00 76.78 75.90 75.38 75.72 76.51 76.14 75.51 74.44 72.32 72.88 73.66 75.71 75.58 74.90 75.62 74.42 74.03 73.83 72.97
71.66 72.95 73.41 74.65 74.77 75.27 74.14 76.36 76.47 76.11 76.21 76.49 75.35 75.39 74.91 76.25 74.97 74.89 76.55 77.43 76.92 77.78 77.50 77.43 77.44 74.47 76.74 74.30 74.73 76.02 74.47 72.27 73.33 72.82 74.40 75.62 75.32 74.63 74.33 74.63 74.64 73.99 73.26
71.79 74.06 74.50 74.68 75.52 75.52 75.27 75.97 74.95 75.68 75.28 76.14 76.98 76.35 76.58 73.76 74.06 74.58 75.47 75.41 76.30 76.14 75.38 75.61 76.60 75.39 74.72 74.36 73.58 71.78 71.93 72.11 72.13 72.65 74.26 75.89 75.57 75.12 73.65 73.88 73.98 74.24 73.22
71.83 73.93 73.65 74.10 72.96 76.48 75.62 75.53 73.80 73.99 74.73 74.68 76.45 73.78 74.58 76.41 73.10 76.04 75.29 74.55 74.66 73.80 72.16 73.02 75.62 76.54 75.69 74.34 72.51 72.10 71.37 71.61 71.73 73.19 74.52 75.79 75.80 75.28 73.81 73.48 73.45 72.93 73.23
72.83 73.14 73.59 73.85 72.34 78.23 75.03 74.66 74.01 73.24 74.46 73.51 74.02 75.96 75.25 73.23 76.68 74.34 70.77 74.48 72.35 75.10 72.53 72.92 73.75 72.77 74.07 74.70 73.88 72.28 71.52 73.36 72.00 71.27 72.74 75.67 75.79 75.55 74.33 73.70 72.99 73.59 73.58
72.75 72.04 74.26 75.19 77.01 77.34 79.75 78.45 76.81 73.31 74.94 75.40 74.46 73.64 76.41 77.17 77.18 72.33 73.42 73.63 74.68 77.47 73.95 70.05 74.98 76.64 72.74 74.41 73.77 73.97 73.15 73.58 74.80 72.39 72.33 74.29 75.93 75.49 75.43 74.90 74.30 73.20 72.90
72.93 73.86 74.24 73.95 75.71 77.79 78.46 75.08 78.53 74.50 73.85 74.83 75.39 78.71 77.26 76.97 75.82 73.58 71.78 73.97 74.63 78.59 78.43 73.32 76.46 74.63 74.85 73.86 74.72 72.73 74.25 74.14 74.03 74.64 73.85 73.46 75.01 76.70 76.02 75.44 74.39 73.97 73.77
73.50 73.90 74.51 73.00 74.99 76.16 77.41 77.81 72.88 72.25 73.83 76.90 75.88 77.24 78.95 78.67 78.89 77.67 73.56 73.71 76.29 74.06 75.57 71.74 76.27 75.19 74.17 74.40 72.98 73.04 74.09 73.42 74.33 74.60 74.30 74.86 73.97 73.72 75.62 76.37 75.90 75.31 74.96
73.87 74.34 74.74 73.96 74.71 74.99 76.66 79.01 72.65 73.67 72.89 75.02 77.51 74.96 78.06 78.58 79.24 79.39 76.82 74.90 77.79 73.39 76.07 74.02 74.48 74.65 73.50 71.88 70.40 73.99 73.86 73.66 73.51 73.71 74.20 74.77 72.91 74.48 74.40 76.02 76.28 76.27 75.62
73.77 74.75 75.94 74.21 76.71 76.83 76.96 75.83 76.16 73.76 74.01 75.04 76.13 76.60 79.31 78.87 79.19 76.60 78.13 77.97 71.79 77.26 75.70 71.28 76.27 73.50 74.67 69.12 70.50 71.81 73.12 72.65 74.08 73.87 73.57 74.25 73.89 74.33 74.73 75.34 74.84 74.65 76.05
73.00 74.20 75.65 74.93 77.30 76.49 76.59 75.05 73.51 74.30 74.19 74.63 76.31 79.38 76.03 75.87 79.49 79.66 78.27 77.37 72.82 76.07 71.35 77.89 76.75 75.69 74.75 75.47 75.28 72.60 72.40 71.96 72.38 73.16 73.99 72.62 73.73 74.37 74.10 74.83 76.04 74.75 74.02
72.58 73.89 75.69 75.58 76.07 77.22 75.66 77.05 77.83 74.65 75.82 75.05 75.35 78.72 77.98 77.26 79.53 78.75 75.72 76.54 73.71 74.28 77.70 76.97 71.13 75.25 73.84 75.33 72.41 72.67 67.48 69.92 71.36 71.78 72.55 72.67 72.14 73.58 73.78 74.90 74.66 74.83 75.16
72.13 73.45 75.06 75.79 75.62 76.74 77.72 78.14 79.80 77.28 75.77 75.83 75.16 76.63 78.36 78.29 79.07 76.02 78.48 77.43 77.08 77.41 74.86 76.98 77.72 75.44 72.93 74.55 75.55 70.95 68.61 66.38 71.37 71.56 71.70 71.45 72.00 73.09 72.73 72.83 74.63 75.30 75.44
71.88 73.55 75.23 76.64 75.82 76.27 78.29 77.39 79.06 76.66 75.54 74.79 74.91 76.87 78.31 78.46 78.45 78.62 79.43 77.76 75.46 74.00 72.96 76.09 76.46 74.18 76.44 73.69 74.98 74.52 74.26 70.20 69.58 67.82 70.92 70.15 72.36 71.68 72.48 74.19 73.40 74.92 75.01
71.31 72.51 74.76 76.36 76.15 76.62 78.23 77.91 77.11 77.44 72.35 72.99 75.06 76.56 78.03 80.28 79.61 77.78 79.38 79.43 77.56 75.73 74.49 75.40 78.03 78.31 76.07 73.88 72.98 73.43 73.81 74.08 72.43 70.50 67.33 68.30 71.50 72.43 72.70 73.58 73.44 73.73 75.19
71.76 72.55 74.35 75.69 76.33 77.41 76.97 77.88 77.40 77.16 71.92 70.38 73.29 73.51 75.36 78.01 77.83 78.93 78.98 79.14 78.44 73.26 72.76 78.48 78.79 78.43 77.23 78.17 76.78 75.26 73.54 69.48 70.14 70.73 69.97 70.25 69.60 71.95 73.76 73.45 73.48 74.99 75.23

GFSSE_sfc_wetblb_087.txt.gz
Wetbulb
70.97 74.49 76.92 77.18 77.09 77.20 77.16 77.03 76.89 76.64 76.75 77.61 77.91 77.66 77.82 77.93 78.43 78.58 78.60 78.67 78.57 78.28 77.79 77.59 78.22 77.44 76.73 76.46 76.13 76.45 75.84 76.69 77.25 76.61 76.10 75.73 76.11 76.63 76.72 75.84 75.59 74.08 75.87
73.07 74.80 77.28 77.30 77.02 76.71 76.43 76.22 76.05 76.03 76.15 76.50 77.57 77.32 77.55 77.82 77.75 78.11 78.35 78.50 77.85 78.02 77.69 77.58 77.30 77.29 76.44 76.76 76.55 76.15 76.24 76.85 77.49 76.35 75.50 75.12 74.81 75.35 76.03 75.82 74.93 73.72 75.59
73.65 74.79 75.62 77.61 76.63 76.34 76.38 75.95 75.86 75.53 76.04 75.92 76.55 77.10 77.23 77.32 77.77 77.80 77.24 77.21 77.47 78.07 77.27 77.35 77.31 76.77 76.50 76.66 76.53 76.16 75.74 76.17 76.92 75.11 74.78 72.86 73.03 75.60 75.78 75.78 75.53 74.25 74.86
73.85 74.01 75.17 77.53 77.26 76.56 76.49 76.51 76.88 76.62 76.75 76.56 76.76 76.86 77.09 76.88 77.70 77.36 77.33 76.94 77.29 78.08 77.37 77.23 77.23 77.07 76.86 76.36 76.08 75.64 75.50 76.03 76.12 76.13 72.39 72.28 72.29 75.57 75.43 75.53 75.32 74.81 75.27
71.32 73.04 75.01 77.69 77.83 77.44 77.42 77.07 76.77 77.23 77.06 76.69 76.40 76.47 77.05 76.95 77.00 77.13 77.32 77.12 76.98 77.56 77.76 77.16 76.53 76.36 75.67 75.25 75.70 76.82 77.53 77.25 76.14 74.45 71.88 71.29 71.39 74.94 75.61 75.34 75.30 75.29 74.29
71.82 73.43 76.80 77.20 77.08 77.22 77.18 76.97 77.14 76.94 76.77 76.70 76.93 76.97 77.06 76.84 77.35 76.98 77.12 77.22 76.75 76.45 76.82 77.08 76.75 76.00 76.11 76.22 76.30 76.47 76.72 75.86 73.46 71.44 71.01 72.62 71.46 75.40 74.88 74.60 75.70 75.39 74.87
72.54 73.89 75.53 77.84 77.90 77.18 76.97 76.93 76.89 76.90 76.76 76.57 77.39 77.05 77.15 76.85 77.02 77.04 77.05 77.03 77.14 76.81 77.03 76.83 76.50 76.11 76.27 76.40 75.91 76.07 76.28 74.97 69.32 69.96 71.33 72.40 73.27 75.59 75.36 75.18 75.34 74.12 74.45
72.83 73.86 74.85 76.96 77.32 77.32 76.86 76.66 76.68 76.65 76.65 76.76 76.96 76.76 76.99 77.04 77.22 77.22 76.75 77.03 77.06 76.14 77.39 76.52 76.36 75.88 75.77 75.96 75.72 75.91 76.67 76.18 73.26 72.66 72.38 72.87 75.10 74.96 74.99 75.51 75.14 73.79 74.03
73.59 73.54 74.36 74.87 76.20 77.22 76.95 76.66 76.69 76.57 76.74 76.58 76.57 76.54 77.03 77.12 77.11 77.08 76.95 76.92 77.06 77.23 77.03 76.16 75.80 75.80 75.63 75.41 75.34 75.50 77.31 76.00 71.47 71.85 72.33 72.47 75.02 75.03 74.97 75.34 74.56 74.06 73.91
72.60 73.34 73.64 74.30 74.56 74.14 74.32 76.64 76.88 76.83 76.43 76.53 76.51 76.25 77.41 77.08 76.97 76.75 77.30 78.12 77.26 76.98 76.97 76.11 75.36 74.84 74.37 74.23 75.01 76.06 76.41 76.14 72.02 72.58 72.76 73.61 75.51 73.76 73.70 73.90 74.25 73.78 73.25
71.74 72.61 73.08 73.30 73.08 73.07 73.63 75.00 76.01 76.78 76.28 76.31 76.15 76.30 76.21 72.65 73.12 74.85 76.81 77.88 76.95 76.70 76.34 76.41 75.69 75.05 74.76 74.73 75.31 75.20 74.20 72.04 71.68 72.30 73.06 75.11 75.65 75.81 74.32 73.98 73.64 72.72 72.40
70.44 71.84 72.44 73.04 72.86 73.12 74.47 73.24 72.88 73.57 73.01 73.07 72.96 73.09 72.28 71.94 72.08 74.37 75.78 77.47 77.09 76.48 75.92 76.48 77.00 76.03 76.16 72.74 72.58 76.11 72.93 72.08 72.26 72.52 72.27 74.79 76.03 74.54 74.37 74.68 73.81 73.14 72.72
71.04 72.14 71.98 72.21 72.37 71.41 72.75 72.96 71.73 72.55 73.03 73.22 71.70 72.33 72.49 71.81 72.79 73.16 73.30 73.81 73.31 74.01 72.93 73.41 73.94 72.86 72.43 72.75 72.72 72.65 72.20 71.35 71.42 72.19 73.81 75.58 75.82 73.65 74.15 74.00 74.68 73.48 72.86
69.85 70.97 72.28 72.48 72.31 72.43 72.81 72.24 71.46 71.85 72.45 70.94 73.36 71.36 70.84 70.85 71.48 71.74 73.19 72.61 70.85 71.13 70.08 71.86 72.34 73.41 73.91 73.98 73.59 69.26 70.78 71.44 71.09 71.97 74.04 76.08 76.08 74.08 73.70 73.67 73.42 73.17 73.08
70.98 71.10 71.03 70.99 70.99 72.00 73.14 71.72 71.24 72.00 70.63 71.49 70.99 71.48 72.39 71.53 71.48 70.37 70.65 72.25 71.59 70.31 70.58 68.09 69.66 71.24 70.01 71.60 67.79 67.76 69.49 69.55 70.66 72.08 71.80 75.65 76.48 76.03 74.03 73.57 73.77 74.02 73.56
70.49 71.02 69.97 69.88 71.52 73.09 73.39 72.04 72.25 70.50 69.47 70.70 70.79 72.20 73.47 72.35 71.89 71.52 71.20 71.80 70.51 71.89 70.84 67.76 69.50 71.76 69.77 69.92 69.94 68.41 69.34 70.06 69.72 70.41 71.31 72.78 76.28 76.29 75.35 74.62 74.24 73.64 73.21
70.43 71.53 70.83 71.10 72.94 73.23 71.21 72.05 71.66 72.44 71.96 71.47 72.61 72.07 72.45 72.22 70.32 70.71 68.27 69.71 71.07 72.84 71.38 71.48 71.20 73.04 70.48 71.42 69.47 69.50 69.82 69.88 69.95 69.97 70.90 71.89 73.74 75.92 75.52 75.60 75.92 75.03 73.98
70.77 70.00 69.60 73.47 72.11 71.64 71.81 71.05 70.88 72.51 71.69 71.11 72.61 73.07 74.44 72.64 72.02 70.94 70.19 70.87 71.84 70.11 72.00 69.89 70.23 69.25 68.82 69.61 68.32 68.73 70.04 69.69 69.54 70.67 71.48 71.68 72.45 72.92 75.62 76.41 76.23 75.90 74.81
71.40 70.21 69.20 71.19 70.64 72.38 72.85 72.12 71.02 70.48 70.40 72.52 72.27 72.97 72.93 73.59 73.59 73.15 71.79 70.98 73.17 71.01 71.34 71.14 69.91 70.49 69.32 68.65 69.00 69.95 69.53 68.83 69.65 72.06 70.74 71.80 71.41 71.84 71.63 74.56 76.26 76.05 75.68
70.95 70.70 71.48 71.65 70.63 70.77 72.59 72.06 71.32 71.03 71.99 73.45 73.17 73.93 74.71 74.25 73.96 72.50 73.90 71.46 71.90 71.29 71.16 69.47 69.65 69.31 70.15 67.67 68.29 68.81 68.71 69.61 69.76 69.52 69.82 70.75 71.07 71.86 71.83 71.72 73.36 74.11 75.92
70.24 70.26 70.89 71.96 72.42 71.58 72.16 69.28 70.30 68.84 70.63 72.88 73.80 74.16 72.90 72.62 74.80 73.84 73.29 70.77 71.49 71.26 69.46 72.37 71.33 71.09 70.82 70.92 69.25 67.64 67.94 66.39 66.65 69.48 69.80 69.99 69.79 71.71 72.04 72.23 72.29 72.15 72.71
69.50 69.62 72.15 72.17 71.83 71.60 71.46 72.05 71.63 71.29 71.38 72.27 74.10 74.28 73.79 74.05 73.97 74.30 72.99 72.25 71.67 70.97 72.16 70.65 68.54 69.80 69.39 69.08 67.14 65.71 62.91 65.50 67.70 67.35 68.39 69.68 68.83 70.09 71.03 71.35 71.86 72.42 71.48
69.85 70.63 71.68 71.33 71.58 71.80 71.95 72.79 74.19 73.40 72.68 72.15 73.24 73.03 74.75 75.20 74.73 73.91 73.46 73.27 70.40 70.90 69.51 70.46 72.00 68.91 67.23 69.69 69.51 66.31 63.84 61.98 65.98 66.74 65.90 66.86 65.94 68.53 69.32 69.83 71.34 71.12 71.40
70.10 71.84 72.54 71.78 70.77 70.84 73.14 70.59 71.02 69.50 69.48 70.12 70.79 72.77 73.03 75.27 75.21 74.74 74.01 73.66 73.67 70.56 69.04 70.28 73.49 71.10 68.01 67.33 68.03 69.91 68.76 66.24 64.06 62.83 66.00 65.29 66.84 68.28 67.81 68.55 70.10 71.08 71.67
70.66 71.48 73.06 72.08 71.19 70.70 72.55 72.49 71.85 70.80 69.47 70.14 72.53 71.77 73.67 73.86 75.51 74.41 74.06 73.25 72.54 72.12 71.27 71.70 72.10 71.71 71.15 71.27 71.05 69.60 68.99 68.88 69.62 65.17 62.89 62.68 66.15 67.10 67.48 68.70 70.18 70.39 70.97
70.49 71.33 72.86 72.05 71.50 71.30 72.91 72.18 71.84 70.99 69.40 69.66 69.83 72.19 71.17 72.44 72.87 73.04 74.97 73.64 73.40 70.97 69.03 69.32 72.31 72.10 72.42 71.84 72.71 70.29 69.19 65.77 64.64 67.04 65.15 65.38 63.15 66.89 67.50 69.56 67.55 70.50 71.41

GFSSE_sfc_wetblb_093.txt.gz
Wetbulb
70.54 73.65 76.50 76.64 76.76 76.83 76.47 76.66 76.52 76.36 76.72 77.04 77.26 77.37 77.38 77.46 77.38 77.28 77.08 76.94 76.67 77.00 76.52 75.96 76.62 74.89 75.14 75.59 75.97 76.29 76.39 76.09 75.65 75.06 75.99 75.69 75.51 75.37 75.51 75.38 75.27 73.43 75.22
72.58 73.58 76.47 76.52 76.78 76.66 76.50 76.37 76.71 76.93 76.40 76.96 77.11 76.88 76.97 76.99 77.10 77.22 77.01 77.00 77.23 77.22 76.11 76.14 76.00 75.56 76.15 76.24 76.14 75.68 75.87 75.53 75.63 75.14 75.03 75.54 75.03 74.71 75.45 75.41 75.10 73.77 75.00
72.64 74.01 74.52 76.51 76.58 75.85 75.69 75.64 75.70 76.48 76.74 76.64 76.72 77.00 76.60 76.60 76.97 77.05 77.01 76.72 77.35 77.25 76.41 76.56 75.62 75.94 75.92 75.64 75.39 75.31 75.40 74.93 74.50 74.53 75.47 72.67 73.15 74.34 74.20 74.99 75.34 75.31 75.09
72.97 73.47 74.85 76.72 76.00 75.80 75.43 75.24 75.36 75.49 76.38 77.05 76.60 76.99 76.79 76.74 77.06 76.97 77.11 77.06 77.20 77.34 76.57 76.66 76.44 75.91 75.70 75.45 75.30 75.14 75.25 75.38 74.97 74.37 71.02 72.37 73.44 75.28 74.55 75.28 75.21 75.05 75.30
72.94 73.77 73.76 76.39 76.09 75.86 76.38 76.66 76.52 76.00 75.95 76.89 76.64 76.88 76.86 76.94 76.74 77.17 77.08 77.14 77.20 76.96 76.85 76.56 76.36 75.64 75.45 75.09 75.14 75.28 75.36 74.99 74.49 72.71 71.44 71.72 72.22 74.41 75.29 73.93 73.68 73.86 74.19
72.70 73.13 75.35 76.58 76.88 76.70 76.52 76.71 76.76 76.66 76.08 76.42 76.62 76.66 76.98 76.96 76.81 76.74 76.93 77.34 77.13 76.30 76.22 76.33 76.03 75.56 75.29 75.52 75.75 75.97 75.93 75.24 73.87 71.52 72.08 72.30 70.37 75.07 75.35 75.22 73.74 73.65 73.53
71.98 73.96 74.66 77.67 76.95 76.87 76.76 76.85 76.77 76.87 76.75 76.53 76.58 76.70 77.00 77.03 77.05 76.69 76.66 76.61 76.69 76.20 75.67 76.00 76.03 75.45 75.64 76.75 76.29 76.28 75.38 74.34 71.11 71.57 71.71 71.84 71.71 75.47 73.64 74.84 73.59 73.54 73.41
73.16 73.93 74.66 76.77 77.04 76.91 76.85 76.80 76.61 76.83 76.93 76.97 76.85 76.86 76.99 76.97 77.01 77.01 76.97 76.58 76.59 76.34 76.17 75.94 75.64 75.53 75.81 75.78 76.00 74.40 73.71 74.11 72.52 71.86 71.85 71.47 74.43 75.58 74.55 73.28 73.64 73.42 73.28
73.87 73.43 73.81 74.25 75.50 76.46 76.33 76.56 76.48 76.35 76.27 76.68 76.78 76.57 76.79 77.07 76.99 77.19 76.60 76.19 76.53 75.81 75.73 76.02 75.69 75.17 75.39 75.56 76.05 75.75 75.13 74.28 70.54 70.85 71.38 71.40 75.30 75.43 74.38 73.61 73.65 74.03 74.39
72.52 73.21 72.75 72.99 73.55 73.24 73.50 76.41 76.41 76.52 76.06 76.44 76.53 76.81 76.85 76.75 76.86 77.08 77.29 77.31 76.06 75.53 75.20 75.20 75.01 75.07 75.00 75.22 76.26 75.99 74.82 73.62 70.28 70.39 70.88 71.93 75.42 75.63 74.70 73.24 73.03 73.04 72.81
72.03 71.46 71.88 72.16 71.99 72.11 73.15 74.38 75.42 75.98 75.72 75.58 75.95 76.78 74.41 72.50 73.76 74.48 76.43 77.00 76.09 75.48 75.23 74.87 74.62 74.53 74.86 75.06 76.72 75.91 75.08 70.72 70.85 71.31 71.34 74.24 74.61 72.96 72.69 72.59 72.09 71.86 71.76
69.84 71.01 71.89 71.33 71.44 71.93 74.17 72.41 71.37 72.52 72.17 72.36 72.41 71.71 71.20 71.36 72.13 74.40 75.24 76.64 76.31 76.11 75.81 75.97 75.17 74.92 74.38 71.24 71.53 74.73 70.60 70.54 71.09 71.31 71.42 75.16 75.10 73.26 73.22 72.82 71.81 71.64 71.58
69.92 71.21 71.27 70.87 71.34 71.73 71.72 71.37 71.34 70.89 70.66 70.96 71.68 71.04 70.62 71.22 72.27 72.02 71.86 72.06 69.69 72.87 71.47 71.87 71.76 70.34 71.14 71.28 72.04 70.44 71.11 70.93 70.77 70.75 71.48 75.24 74.64 73.42 73.98 74.30 73.09 72.40 72.46
69.76 70.39 70.78 71.14 70.82 69.92 71.50 70.96 70.42 70.56 70.74 70.17 70.28 70.52 69.88 70.53 70.76 71.01 71.37 70.54 70.01 69.99 68.66 69.79 70.34 70.62 71.45 72.41 72.02 71.23 70.45 70.61 70.58 70.54 70.70 74.47 74.51 73.26 73.20 73.02 73.42 73.10 72.83
69.32 70.01 70.24 70.59 70.59 70.16 70.93 70.09 69.55 70.26 70.83 70.61 69.90 69.99 70.17 69.52 69.45 70.17 69.93 69.85 68.98 67.67 69.25 67.83 68.25 68.96 69.69 67.88 70.01 71.19 69.38 69.35 69.82 70.50 70.60 74.59 75.00 73.97 73.28 73.23 73.30 73.48 73.65
69.55 69.67 70.11 70.35 70.51 70.28 70.34 69.47 68.98 70.27 69.68 69.81 70.03 69.36 70.04 69.89 69.63 68.45 69.36 69.68 69.61 69.69 69.49 68.37 67.42 69.63 69.48 66.24 67.73 68.31 68.18 69.08 69.77 69.94 70.91 71.38 75.13 75.04 74.70 73.62 73.74 73.85 73.95
69.52 69.94 69.69 70.13 70.49 70.47 70.26 69.62 69.41 69.58 68.45 68.84 69.66 70.48 70.79 70.54 68.89 68.53 69.38 69.15 69.68 71.26 70.25 69.26 69.59 69.70 67.93 68.08 66.77 67.32 67.57 68.18 68.45 69.12 69.49 69.70 71.35 74.99 75.14 74.91 74.78 75.02 74.95
69.42 69.03 69.47 71.98 70.90 70.59 70.40 69.75 69.55 69.12 69.07 69.93 70.70 71.11 70.85 70.44 70.00 68.40 67.34 68.13 70.33 70.46 70.31 68.30 68.46 68.33 67.53 67.47 66.54 66.66 67.25 67.63 67.59 67.96 68.16 69.11 69.63 70.98 72.45 75.33 76.07 75.82 75.34
69.35 68.35 68.37 70.45 70.09 70.27 69.94 69.49 69.78 69.83 69.62 70.17 70.34 70.75 70.84 70.74 70.70 69.63 68.03 69.46 69.75 69.74 68.97 69.37 68.67 67.49 67.53 66.73 66.59 67.91 67.77 67.72 67.38 68.99 67.85 68.69 68.78 70.44 70.19 71.95 74.96 76.06 75.77
68.63 68.22 69.03 69.32 69.30 69.07 69.17 68.83 69.10 69.72 70.21 70.31 70.41 71.13 71.38 71.61 72.22 71.70 70.35 69.75 70.19 69.86 69.13 69.47 68.47 67.88 67.00 65.55 66.67 67.93 66.22 67.53 67.48 67.29 68.67 70.14 69.52 69.57 69.51 69.46 69.21 70.67 74.61
68.04 67.67 68.50 68.09 69.35 69.03 68.30 67.54 67.67 68.14 69.07 70.23 69.92 71.87 71.81 71.60 72.95 71.81 71.69 69.59 69.25 67.38 68.14 69.97 69.01 67.78 68.33 67.95 65.69 65.53 64.33 65.29 66.53 67.33 67.81 68.18 68.71 70.15 69.94 70.10 69.50 70.25 70.94
67.45 67.99 67.37 67.86 68.78 69.24 68.71 68.24 69.24 68.78 70.25 70.74 71.41 72.10 72.39 72.57 72.90 72.42 70.74 68.53 69.38 69.76 69.72 69.80 69.06 66.60 66.66 67.58 65.49 62.00 61.14 62.08 65.26 65.78 66.30 67.77 67.30 67.47 69.40 70.49 70.26 70.58 70.52
67.31 67.87 67.46 67.85 68.56 69.92 69.74 69.62 70.46 70.34 70.34 70.46 70.68 71.09 71.21 71.65 72.82 72.92 71.82 70.40 69.27 69.01 68.04 68.61 70.02 68.07 65.71 67.00 67.58 64.42 61.06 59.26 62.18 63.57 63.38 65.79 66.68 66.20 66.86 67.98 69.48 69.86 70.33
67.76 68.85 68.11 68.62 68.20 69.40 70.42 69.68 69.17 68.57 67.62 68.53 69.68 70.90 71.54 72.45 72.78 72.20 71.91 71.40 69.85 68.23 67.73 68.08 71.51 68.20 66.98 67.28 67.51 68.81 66.19 63.69 62.85 60.76 62.74 64.16 64.24 64.47 64.93 66.65 68.19 68.68 69.26
68.42 68.99 69.12 68.65 68.03 69.18 69.57 70.10 69.34 67.83 68.37 68.87 69.63 70.47 69.83 71.45 73.19 72.37 72.23 71.24 70.27 68.86 67.50 68.90 70.43 69.64 70.02 69.07 68.26 67.49 66.58 64.50 64.95 62.65 61.08 61.45 62.87 63.75 65.39 65.74 66.17 66.56 67.44
69.02 69.57 69.68 68.89 67.61 68.98 69.82 70.29 69.69 68.73 67.90 68.44 69.17 69.83 70.17 70.23 71.10 72.19 72.26 71.05 70.44 69.97 68.97 68.98 70.74 70.16 69.91 69.57 69.34 68.48 67.22 65.99 66.18 65.07 63.13 63.11 62.61 63.82 65.45 65.98 66.87 67.07 68.44

GFSSE_sfc_wetblb_096.txt.gz
Wetbulb
70.09 73.21 76.53 76.10 76.49 76.61 76.20 76.40 76.31 76.66 77.16 77.34 77.48 76.80 77.06 76.81 76.52 76.68 77.15 76.76 76.58 77.01 76.32 74.79 75.67 75.26 75.56 76.40 76.54 76.37 76.00 75.27 75.94 75.83 75.80 76.06 75.70 75.65 75.62 75.54 75.27 74.10 75.27
72.08 74.16 76.48 76.03 76.40 76.12 76.70 76.54 75.94 76.69 76.89 77.10 77.03 76.60 76.82 76.95 77.06 76.81 76.41 76.27 76.50 76.81 76.26 74.98 76.16 76.40 76.13 76.13 76.18 76.25 75.74 76.01 75.91 76.14 75.85 75.03 75.21 75.67 75.60 75.50 75.41 74.40 74.94
72.33 73.55 75.14 76.71 76.39 76.18 75.81 75.85 76.58 76.26 76.84 76.99 76.82 76.84 76.75 76.40 76.86 76.99 76.54 76.65 76.33 76.89 75.59 75.51 75.37 75.65 75.45 75.56 75.88 75.87 75.26 74.96 75.22 75.50 75.44 73.77 72.91 74.73 75.57 75.59 75.38 75.28 75.52
73.08 73.60 74.54 76.66 75.73 75.54 75.32 75.22 75.95 76.41 76.08 76.61 76.73 76.50 76.45 76.56 76.64 76.19 76.37 76.91 76.58 76.39 76.53 76.20 76.17 75.97 75.90 75.59 74.76 74.87 74.89 74.89 74.79 75.01 73.25 73.72 73.68 74.91 75.48 75.22 75.05 75.29 75.39
72.88 73.67 73.67 75.72 75.31 75.17 75.38 75.60 75.42 75.92 76.09 76.42 75.95 76.41 76.59 76.74 76.88 76.88 76.79 76.87 76.79 76.38 76.41 76.07 75.81 75.56 75.31 75.62 75.45 75.96 74.94 74.63 74.78 73.80 73.37 73.57 73.99 74.48 73.81 73.82 73.95 74.48 74.22
72.74 72.35 74.89 75.78 75.92 76.31 76.32 76.41 76.02 75.73 76.25 76.59 76.71 76.70 76.74 76.94 76.82 77.19 77.08 76.80 76.78 76.78 76.42 75.97 75.78 75.56 75.58 75.20 74.98 75.15 75.29 74.72 74.66 73.28 72.56 73.23 73.22 75.15 75.05 73.70 73.78 73.49 74.35
71.54 73.11 74.44 76.45 76.23 76.08 75.99 76.22 76.51 75.98 76.21 76.29 76.39 76.18 76.60 76.76 76.81 76.70 77.05 76.56 76.12 76.20 76.34 75.93 75.59 75.58 76.15 76.17 76.13 75.97 74.84 74.65 72.40 72.72 72.78 72.95 74.36 74.03 74.86 73.60 73.52 73.38 73.80
72.76 73.65 74.81 75.97 76.33 75.99 75.81 76.29 76.08 76.03 76.37 76.11 76.29 76.84 77.06 76.59 76.60 76.75 76.83 76.89 76.29 76.09 75.84 75.20 75.48 75.45 75.56 75.26 75.28 74.72 73.92 74.21 72.92 72.70 72.60 73.05 75.00 74.94 73.46 73.47 73.38 73.31 72.93
73.50 73.43 73.82 74.36 74.91 76.00 76.14 76.29 76.23 76.42 75.92 76.33 76.73 76.75 76.66 76.24 76.44 76.88 76.75 76.56 76.20 76.01 75.70 75.26 75.62 75.34 75.48 75.59 75.06 74.73 74.48 74.14 72.14 72.18 72.26 73.08 75.43 74.94 73.77 73.53 73.76 74.24 74.28
72.72 73.19 72.87 73.32 73.28 73.15 73.89 76.20 76.14 76.33 75.95 75.58 76.38 76.37 76.73 76.71 76.87 76.36 76.93 76.77 75.98 75.79 75.51 75.53 75.45 75.36 75.23 75.77 75.75 75.15 74.09 73.70 71.06 71.39 72.31 73.42 75.59 75.39 73.36 72.89 72.76 72.84 72.73
72.07 71.91 71.97 72.16 72.31 72.82 73.61 74.76 75.35 75.61 75.47 75.63 75.60 76.07 74.49 73.82 74.62 75.07 77.02 76.48 75.70 75.26 75.04 74.90 74.62 74.54 75.36 76.03 75.81 75.51 74.56 71.91 71.88 72.06 72.43 73.95 74.28 72.42 72.36 72.22 71.90 71.81 71.95
70.20 71.17 71.80 71.65 71.61 72.25 74.11 72.12 72.10 73.00 72.63 72.79 72.53 72.08 72.14 72.75 74.24 75.07 76.14 76.66 76.39 75.99 75.09 74.42 74.25 74.42 73.72 72.45 72.69 75.12 71.93 71.93 72.01 72.23 72.36 74.40 74.24 72.80 72.69 72.50 71.79 71.69 71.80
69.99 71.47 71.57 71.09 71.44 71.93 71.89 71.59 71.73 70.80 71.14 71.96 71.84 71.59 71.72 72.65 73.14 73.44 73.07 71.89 72.06 73.64 72.26 72.08 72.03 72.50 72.31 73.05 73.40 72.37 72.34 71.78 72.19 72.71 72.47 74.22 74.86 73.18 73.73 74.17 73.33 73.00 72.90
69.60 70.68 71.15 71.29 71.00 70.73 71.89 71.31 70.77 70.45 70.96 70.96 71.65 71.63 71.25 71.52 72.00 72.00 72.13 71.61 71.79 70.19 70.17 70.58 71.47 71.82 72.35 73.03 73.25 72.91 72.26 71.99 71.62 71.74 71.15 73.58 74.35 73.44 73.32 72.93 73.19 73.29 73.30
69.04 70.12 70.40 71.10 70.48 70.42 71.14 70.59 70.46 70.82 71.42 71.26 70.82 71.45 71.35 71.16 71.24 71.86 71.35 71.11 70.97 71.24 70.83 70.22 70.46 70.92 71.89 69.27 70.91 72.70 71.83 71.19 71.63 71.78 71.45 73.36 74.49 74.84 73.57 73.48 73.51 73.72 73.90
69.33 69.74 70.31 70.65 70.73 70.44 70.55 69.86 69.74 70.92 71.49 70.87 71.33 70.76 71.10 70.98 71.11 70.99 71.08 71.26 71.40 71.63 72.10 70.62 69.99 71.67 71.00 68.60 70.35 70.92 70.90 70.96 71.19 71.14 71.62 72.23 74.62 74.97 75.11 74.68 74.20 74.20 74.37
69.28 69.86 69.93 70.37 70.79 70.09 70.52 70.30 69.60 70.88 69.50 70.25 71.22 71.12 71.71 71.96 70.80 70.99 70.98 70.94 71.51 73.08 72.28 71.24 71.41 71.13 70.21 69.91 70.29 70.11 70.27 70.79 70.68 70.90 71.06 71.34 71.92 73.60 75.01 75.07 74.97 75.25 75.56
69.29 69.24 70.00 71.74 70.65 70.34 70.36 69.83 69.94 70.04 69.36 70.63 71.11 71.60 71.92 71.90 71.55 71.20 70.20 70.83 71.28 72.09 71.45 71.60 70.83 70.85 69.92 70.16 69.82 70.12 70.06 69.98 70.38 70.51 70.18 70.20 71.20 71.31 72.04 73.17 74.64 75.84 75.86
69.31 69.08 69.11 70.40 70.31 70.51 70.85 70.09 70.39 70.45 70.32 71.12 71.49 71.81 71.93 71.77 71.67 71.53 70.30 71.57 72.78 71.77 71.49 71.26 71.09 70.09 70.12 69.28 68.95 70.11 70.37 70.46 70.23 70.36 70.56 70.49 70.88 71.76 72.03 72.09 73.34 74.11 74.74
69.09 68.88 69.17 70.08 70.36 70.50 70.07 69.50 70.28 70.13 70.62 71.02 71.78 71.75 72.34 72.84 72.80 72.89 71.95 72.04 72.15 71.82 71.12 72.35 71.67 71.30 70.68 70.23 69.84 69.80 70.08 70.01 70.69 70.06 70.58 71.40 71.96 72.21 72.18 72.35 72.39 72.43 73.19
68.49 68.16 69.10 68.97 68.99 69.17 68.93 68.45 68.91 69.16 70.43 71.19 71.80 72.95 72.83 73.09 73.85 73.37 72.75 72.23 71.51 70.96 71.61 71.39 70.56 71.20 70.29 69.81 69.53 68.87 67.85 68.41 68.60 70.24 70.35 70.61 71.10 71.68 72.25 72.88 72.62 72.76 72.92
67.53 68.25 68.62 68.95 68.98 68.95 69.08 69.13 69.73 69.62 70.90 71.82 71.66 72.67 73.33 73.45 73.98 73.43 72.18 71.16 71.75 72.16 72.53 72.20 70.54 69.71 69.52 70.17 68.73 65.62 65.33 66.74 69.00 69.42 68.96 70.04 70.69 70.73 70.73 71.71 72.55 73.41 73.45
67.14 67.57 68.31 68.50 69.17 68.94 69.15 70.45 70.60 71.00 71.16 71.41 71.83 72.57 72.60 72.20 73.62 72.83 71.77 71.66 71.85 71.85 71.03 71.75 72.32 70.75 69.29 70.25 69.67 68.23 65.53 64.48 65.12 67.64 68.75 68.76 69.71 70.21 70.77 70.59 71.02 72.31 73.07
67.55 68.43 68.43 68.19 69.21 69.54 69.80 70.05 69.88 68.79 68.35 69.87 70.87 72.53 73.17 73.34 73.95 74.22 73.47 72.05 71.79 71.18 71.56 71.79 72.93 70.34 71.12 69.93 70.38 70.04 68.91 67.80 66.84 65.99 68.17 68.01 68.13 68.91 69.75 69.53 70.07 71.25 71.90
68.47 68.14 68.22 68.20 68.64 69.89 70.22 70.41 69.56 69.44 69.71 70.57 70.81 71.28 72.11 72.36 73.60 72.93 73.63 72.93 72.90 71.39 71.45 71.81 73.18 72.72 73.32 72.19 70.50 69.90 70.11 68.36 68.20 66.55 65.97 67.75 69.74 67.83 68.75 69.64 69.95 70.65 71.54
68.80 68.42 68.51 68.12 67.92 69.34 70.03 70.07 70.04 69.52 69.04 69.71 70.60 70.89 71.75 72.38 73.20 73.84 73.81 72.67 72.69 72.28 71.53 71.86 73.21 73.18 72.65 72.16 71.61 71.11 70.11 69.73 69.01 68.48 66.97 66.92 67.36 69.24 70.18 71.36 70.83 71.53 72.45

GFSSE_sfc_wetblb_102.txt.gz
Wetbulb
72.67 74.54 74.01 74.56 74.92 75.92 76.12 76.36 76.85 77.26 77.30 77.20 77.23 77.32 77.08 77.17 76.94 76.80 77.36 75.91 76.51 77.02 77.21 76.49 76.20 76.32 76.29 76.28 76.37 76.14 76.32 76.14 76.31 76.41 76.48 76.31 76.30 76.05 76.07 75.92 76.95 75.84 75.73
73.93 74.84 75.38 75.78 75.47 76.52 76.27 76.38 76.69 77.06 77.15 77.24 77.32 77.44 77.17 77.04 76.85 77.02 77.02 75.81 76.30 76.52 76.77 76.50 76.56 76.21 76.20 76.15 75.99 76.10 76.30 76.04 74.90 75.51 76.37 76.48 76.14 75.90 75.69 75.90 76.36 75.56 75.71
74.05 75.44 76.14 76.20 76.19 76.79 76.57 76.06 76.48 76.74 77.17 77.08 76.86 77.12 77.09 76.88 76.83 77.15 76.44 76.56 76.60 76.50 76.59 76.42 76.01 76.39 76.08 75.06 74.98 76.34 76.05 75.88 75.36 74.04 73.76 75.78 76.03 76.14 75.84 75.81 75.89 75.69 75.28
74.75 75.25 75.85 76.29 75.90 75.90 76.52 76.06 76.50 76.70 76.79 76.66 76.93 76.82 76.83 76.39 76.79 76.80 76.39 76.42 76.56 76.49 76.02 76.20 76.17 75.70 76.08 76.00 75.83 75.19 75.76 75.73 75.34 75.32 74.81 73.55 74.18 75.56 75.48 75.63 75.71 75.47 75.69
75.11 75.45 76.70 75.80 75.61 75.10 75.85 76.38 76.13 76.45 76.30 76.53 76.65 76.71 76.05 76.47 76.86 77.22 76.89 76.83 76.27 76.37 76.16 76.05 75.61 76.14 76.16 76.24 75.53 74.97 75.62 75.36 74.39 76.03 75.37 75.95 73.14 74.37 74.96 75.01 75.83 75.84 75.75
75.52 75.67 75.24 75.38 75.24 75.84 75.55 76.15 76.17 76.59 76.04 76.25 76.56 76.54 76.79 76.72 77.03 77.11 76.91 76.54 76.59 76.36 76.31 76.51 76.20 76.12 75.95 76.14 75.97 75.44 75.49 74.01 74.65 74.66 74.14 75.67 74.36 74.20 74.48 74.52 75.69 75.21 74.93
73.79 74.01 75.66 76.22 76.37 76.46 76.01 76.02 76.28 76.17 76.70 76.65 76.34 76.44 76.77 76.81 76.83 76.72 76.54 76.58 76.76 76.28 76.42 76.37 76.31 76.56 76.57 76.83 75.49 74.87 74.73 74.14 74.05 75.38 74.36 73.42 73.80 74.61 74.23 74.00 73.81 74.14 74.20
72.90 75.58 76.26 76.43 76.24 76.31 76.45 76.32 76.37 76.42 76.42 76.26 76.54 76.35 76.58 77.08 76.59 76.51 76.73 76.81 76.20 76.34 76.28 76.12 76.06 75.89 75.84 75.01 74.15 74.36 74.77 74.06 73.88 75.01 75.21 74.73 75.02 74.59 74.60 75.61 75.65 75.62 74.87
74.11 75.49 76.20 76.50 76.77 76.25 75.97 76.63 76.49 76.47 76.42 76.51 76.32 76.23 76.54 76.78 76.70 76.62 76.78 76.73 76.05 76.14 76.06 75.87 76.09 75.83 75.67 75.19 75.00 74.81 74.57 73.72 72.82 74.22 74.46 75.42 75.15 73.98 73.94 73.96 73.57 73.43 73.21
74.83 75.00 75.62 75.41 76.33 76.09 76.50 76.59 76.43 76.51 76.37 76.93 76.47 76.75 76.56 76.90 76.75 76.62 77.35 76.95 75.80 75.94 75.78 75.73 75.70 76.11 75.94 76.04 75.14 74.74 73.38 73.32 72.66 73.04 73.84 75.47 75.37 73.79 73.43 73.07 72.85 72.68 72.83
73.73 74.55 74.66 75.25 76.12 76.52 76.57 76.73 76.42 76.52 76.82 76.41 76.56 76.12 76.73 76.28 75.69 76.51 76.51 76.20 76.11 75.56 75.25 74.85 75.14 75.56 75.73 76.05 75.68 74.89 74.99 72.24 71.63 73.21 72.96 74.30 73.88 73.79 73.59 72.82 72.28 72.38 72.53
72.59 73.44 74.51 74.87 74.98 75.51 74.99 76.57 76.82 76.31 76.85 76.71 77.40 76.03 75.16 76.04 76.78 76.19 76.79 76.47 76.25 75.50 75.34 74.87 75.20 75.01 75.19 75.95 76.33 76.42 74.26 74.25 72.91 72.42 73.44 74.58 74.51 73.76 74.16 73.97 73.37 73.26 73.29
72.93 73.34 74.06 74.63 74.88 74.80 74.92 74.92 74.80 75.73 76.10 76.80 76.67 75.75 75.85 75.70 75.74 75.01 75.40 75.76 75.64 75.16 76.02 76.48 76.33 75.95 75.96 76.53 75.55 75.24 75.51 74.57 73.02 72.33 73.07 74.43 74.21 73.70 73.63 73.24 73.29 73.64 73.64
72.50 72.88 73.52 74.07 74.90 74.90 74.66 73.78 74.02 75.13 75.24 74.85 75.53 77.01 76.54 75.18 75.32 75.65 75.48 75.89 77.20 75.99 76.84 76.67 75.95 76.65 76.15 76.71 76.33 75.70 75.32 74.58 73.51 72.66 72.36 72.89 73.59 73.41 73.35 73.49 73.57 73.62 73.92
71.89 72.37 72.99 74.28 75.37 75.91 75.32 73.91 74.19 74.50 75.17 75.08 75.40 76.51 76.19 75.44 75.80 75.91 76.54 76.75 77.08 77.13 75.95 76.40 76.63 75.90 75.58 75.15 75.49 75.46 75.04 75.19 74.35 73.41 72.47 73.11 73.88 74.06 74.12 74.05 74.09 74.34 74.77
72.11 72.22 73.21 73.98 75.36 75.88 75.44 75.78 75.11 75.32 75.52 74.96 75.28 76.19 76.68 76.11 77.09 75.88 76.33 76.15 76.78 77.07 76.80 77.05 76.79 75.44 74.94 74.68 75.08 75.13 75.08 75.06 75.47 75.47 74.16 74.56 73.79 74.44 74.57 74.82 75.00 74.96 75.07
72.27 72.73 73.48 74.47 75.63 75.78 75.84 75.94 75.24 75.29 75.17 74.68 75.27 76.81 77.03 77.32 77.45 77.93 76.22 76.56 76.74 77.81 78.60 77.93 77.29 76.66 74.44 74.59 75.29 75.45 75.65 75.21 74.72 75.07 75.36 75.28 74.89 73.46 73.75 74.30 74.57 74.90 75.41
72.23 72.82 74.07 73.86 74.70 75.16 75.52 75.92 75.33 75.28 75.15 75.02 75.80 76.59 76.98 77.43 77.59 77.63 76.26 76.17 77.57 77.68 77.90 76.10 76.04 74.30 75.08 75.09 74.97 75.51 75.32 75.41 75.44 75.52 75.69 76.76 76.56 76.42 75.00 74.53 74.07 74.89 75.39
73.10 73.49 73.56 74.37 73.95 75.12 76.48 76.00 75.96 76.70 76.00 75.95 76.05 76.70 77.62 77.07 76.89 77.94 77.19 77.00 78.37 77.18 76.70 76.61 75.36 75.70 74.79 75.00 74.17 75.00 74.94 75.36 75.40 74.32 75.32 76.68 75.99 77.36 77.21 75.49 74.93 75.03 75.43
73.83 74.12 74.44 74.32 75.44 76.13 76.10 76.13 75.84 75.73 76.18 76.22 76.22 76.33 77.46 76.73 76.97 77.81 76.73 77.76 77.60 76.59 76.30 76.23 77.19 76.14 75.02 74.45 73.00 73.06 73.93 74.80 75.53 75.43 74.96 75.28 75.92 76.48 76.71 78.03 78.33 77.67 76.44
73.87 74.25 74.77 74.80 76.13 75.75 74.68 73.93 74.20 73.65 75.07 75.58 76.22 77.27 77.65 77.47 77.14 77.81 77.61 77.42 77.67 76.74 77.04 77.90 77.01 75.61 73.78 75.72 73.02 72.25 72.44 73.96 74.12 74.69 75.24 75.77 74.95 75.88 76.90 77.43 78.05 77.27 77.46
73.67 74.37 75.08 75.40 76.65 76.26 75.83 76.13 75.92 74.95 74.91 75.36 76.14 77.28 77.42 77.29 76.99 77.28 78.39 77.45 77.99 76.02 77.91 77.78 77.27 74.70 74.84 76.22 72.14 72.38 69.32 70.42 72.66 73.34 74.97 74.79 75.14 76.34 76.26 76.96 77.88 77.67 78.06
73.24 74.11 74.90 75.93 76.53 77.08 77.26 77.10 76.66 76.96 76.70 75.40 75.60 75.45 76.90 77.44 77.14 77.34 77.59 78.15 77.88 77.16 75.48 78.01 77.02 77.00 72.77 75.66 76.79 73.30 68.82 68.93 70.65 72.53 73.22 73.79 75.03 75.80 76.93 77.07 77.12 77.60 78.19
73.81 74.42 75.01 75.97 76.18 77.08 77.98 76.47 76.87 74.42 74.54 74.76 75.64 75.88 76.04 76.52 76.84 77.10 77.53 77.62 78.53 77.94 77.88 77.78 77.44 77.52 77.29 73.66 75.33 75.90 77.12 76.29 70.33 68.35 71.72 73.09 73.51 73.70 75.38 76.03 76.80 76.83 78.84
74.39 74.47 75.02 76.26 76.44 76.55 77.44 77.45 76.62 75.09 74.35 75.10 75.89 76.45 76.71 76.81 77.30 77.23 77.49 78.33 78.21 76.73 77.62 78.00 78.13 77.10 77.23 75.13 74.35 76.09 76.15 76.30 76.15 71.51 69.33 71.32 72.32 75.32 77.03 77.38 76.79 76.95 78.47
74.54 74.72 74.79 76.00 76.70 76.88 76.88 76.80 76.51 75.56 75.72 74.61 75.32 74.59 74.37 76.18 75.79 76.40 76.60 77.20 78.14 78.10 77.73 76.89 77.94 76.32 78.23 76.94 75.77 75.51 73.65 72.98 72.68 72.59 72.11 72.81 72.06 74.58 77.05 78.36 78.48 77.61 78.70

GFSSE_sfc_wetblb_105.txt.gz
Wetbulb
72.69 74.26 75.24 75.47 74.86 75.27 75.65 76.69 76.80 77.28 77.53 77.19 77.16 76.97 77.18 76.85 76.89 76.98 76.82 76.67 77.22 77.11 76.47 76.26 76.55 76.66 76.60 76.44 76.65 76.36 76.27 76.24 76.58 76.25 76.30 76.31 75.66 75.82 75.70 75.72 77.13 75.19 75.66
74.37 74.93 75.87 76.09 75.72 76.12 76.47 76.72 76.99 77.29 77.26 77.29 76.65 77.04 76.91 76.79 76.75 76.59 76.72 76.30 76.63 76.68 76.70 76.41 76.27 75.89 76.26 76.02 76.30 76.39 75.09 74.62 76.23 76.07 76.55 76.51 76.60 76.60 76.13 76.03 76.49 75.60 75.67
73.99 74.68 76.44 76.33 76.77 76.28 76.06 76.49 76.73 77.29 77.11 77.17 77.05 76.97 77.13 76.86 76.66 76.58 76.31 76.47 76.57 76.55 76.56 76.10 75.95 75.22 74.86 75.89 76.22 76.03 75.75 75.42 75.22 73.78 74.89 75.21 75.53 76.26 76.13 76.12 75.65 75.58 75.64
73.61 75.11 75.65 76.81 76.62 76.75 76.27 76.72 76.79 77.06 76.89 77.01 77.06 76.94 76.87 76.91 76.57 77.06 76.28 76.35 76.06 76.44 76.50 75.97 76.17 76.42 76.17 75.50 75.71 75.72 75.45 75.03 75.77 77.95 73.43 72.88 74.96 75.62 75.65 75.84 75.72 75.48 75.50
75.31 76.28 76.47 76.02 75.60 76.24 76.38 76.06 76.56 76.62 76.76 76.92 76.74 76.73 77.01 76.93 76.82 76.69 76.41 76.27 76.07 75.89 75.83 76.28 76.21 76.07 76.11 75.64 75.52 75.67 75.48 75.31 75.73 76.17 75.05 73.32 72.79 74.83 75.80 75.77 76.30 75.76 75.86
74.70 74.84 75.56 75.30 75.36 75.14 76.44 76.53 76.85 76.32 76.64 76.91 76.45 76.89 76.70 76.65 77.02 77.05 76.69 76.64 76.58 76.59 76.56 76.56 76.25 76.25 76.69 75.80 75.60 75.15 74.01 73.92 75.55 74.20 74.07 73.38 73.22 74.31 74.93 74.71 74.74 74.64 74.83
73.78 73.13 75.32 76.64 76.51 76.16 76.13 76.56 76.37 76.84 76.89 76.62 76.66 76.56 76.91 76.94 77.14 77.05 76.75 76.75 76.73 76.78 76.53 76.48 76.64 76.58 76.41 75.31 74.67 74.69 74.04 74.77 73.84 73.78 72.28 72.67 73.59 74.75 74.95 74.72 75.40 75.09 74.38
72.44 74.83 76.26 76.57 76.64 76.50 76.21 76.48 76.72 76.73 76.30 76.53 76.94 76.63 76.91 77.03 77.36 76.94 76.98 76.61 76.67 76.28 76.31 76.45 76.20 75.95 75.06 74.62 74.83 74.33 74.14 75.25 74.92 73.91 73.39 72.62 75.10 74.83 74.91 75.05 74.96 75.10 74.37
73.86 74.90 75.41 76.57 76.57 76.49 76.83 76.62 76.81 76.73 76.36 76.98 76.94 77.05 76.92 76.86 76.73 77.03 76.59 76.56 76.67 76.30 76.28 76.36 76.14 76.05 75.74 75.47 74.92 73.46 73.12 74.00 73.77 73.94 74.23 73.01 74.53 73.73 73.57 73.31 72.96 72.82 72.93
73.02 74.13 74.78 75.20 75.13 76.29 76.07 76.74 76.87 76.90 76.88 76.77 76.81 76.75 77.11 77.09 76.89 77.20 76.89 76.34 76.27 76.13 75.94 75.91 76.14 76.11 76.26 75.57 75.10 74.48 74.00 74.67 72.66 72.63 72.76 73.35 74.92 73.27 72.88 72.52 72.44 72.58 72.73
72.34 74.13 73.55 73.84 74.92 76.70 76.28 76.62 76.67 76.91 77.07 76.82 76.53 76.78 77.47 76.42 76.09 76.54 76.67 76.06 75.82 75.63 75.26 75.14 74.93 76.14 76.38 76.45 76.16 75.94 75.47 72.15 72.03 71.96 71.66 74.33 74.30 73.87 73.40 72.80 72.68 73.03 73.11
70.67 72.19 73.52 74.39 74.33 75.32 73.64 76.88 76.42 76.00 76.27 76.56 76.34 77.16 76.96 76.36 75.50 74.93 76.17 75.69 75.28 75.31 75.33 75.31 75.83 76.27 76.64 76.40 76.73 76.78 73.54 72.89 72.21 72.03 72.93 74.84 73.70 73.62 73.98 73.86 73.50 73.69 73.42
71.34 72.61 72.53 73.92 74.18 74.01 74.34 74.54 74.79 75.67 75.91 75.68 75.83 75.38 75.46 74.79 75.27 74.45 75.63 75.64 75.76 76.56 74.65 76.24 76.03 75.29 74.54 75.14 73.26 73.08 73.65 72.80 71.48 71.06 73.83 74.85 73.55 73.35 73.34 72.99 73.13 73.40 73.70
71.11 71.82 72.95 73.57 75.01 74.21 73.78 73.73 74.26 73.87 74.26 74.07 75.30 76.67 76.89 75.41 74.49 78.23 74.64 74.89 77.69 74.66 75.87 77.14 74.71 75.65 75.28 75.13 73.76 73.59 73.38 72.40 71.70 70.03 72.10 73.80 73.53 73.15 73.15 73.24 73.54 74.06 74.42
71.04 71.95 72.66 73.87 76.11 76.19 74.83 73.34 74.96 74.72 74.45 74.58 75.89 75.71 76.89 75.95 75.58 75.06 76.81 75.60 76.43 77.72 74.60 75.14 74.82 74.62 75.22 74.73 74.14 74.28 73.44 73.45 72.77 70.62 70.63 73.73 73.70 73.62 73.72 73.79 74.20 74.53 75.03
71.72 72.00 73.13 73.85 75.32 75.99 74.84 75.79 74.49 73.64 74.65 75.16 75.39 75.95 77.31 75.47 76.82 75.43 76.63 75.27 75.08 76.58 75.56 75.75 76.00 74.37 74.09 73.63 74.23 74.46 74.18 73.61 74.48 73.67 72.88 73.97 74.48 74.17 74.19 74.44 74.86 74.92 75.36
72.04 72.70 73.42 74.13 74.44 74.81 74.93 75.32 74.77 74.74 74.21 74.29 75.05 76.91 76.85 77.42 77.67 77.14 74.99 74.40 75.64 76.43 77.51 76.33 75.71 75.57 73.36 73.46 74.72 74.88 73.81 74.36 74.14 74.93 74.91 74.79 74.35 74.91 75.14 75.03 74.67 74.73 75.11
72.67 72.87 73.72 73.91 74.00 74.20 75.17 76.13 75.92 76.08 75.26 75.24 75.27 76.17 77.22 77.77 77.49 77.90 74.80 75.29 75.77 76.56 75.97 74.83 74.51 73.41 73.50 73.40 74.14 74.17 73.64 73.93 74.85 75.25 75.43 76.11 76.28 75.39 75.56 76.05 75.25 75.47 75.87
73.14 73.46 73.55 73.60 74.03 74.77 75.96 76.12 76.52 77.33 75.71 75.48 75.59 75.56 77.61 77.58 77.27 78.55 76.44 76.31 78.39 76.25 75.23 76.80 72.80 76.09 72.75 73.53 73.00 73.63 74.10 73.74 74.97 74.37 75.51 75.81 75.71 76.17 76.12 76.22 77.20 76.87 76.38
73.61 73.98 74.01 73.81 75.04 77.16 76.42 76.91 75.39 75.62 75.18 75.48 75.31 75.81 77.46 76.97 77.14 77.75 76.84 76.87 78.05 76.38 75.09 75.13 77.79 74.86 74.19 73.41 72.22 72.48 73.50 73.87 74.47 74.67 74.66 74.71 75.60 76.36 75.75 77.85 78.31 77.30 77.76
73.44 73.46 73.89 74.21 75.68 75.64 74.07 73.78 73.73 74.68 76.00 76.75 75.74 77.30 77.46 77.40 77.56 78.24 76.44 76.95 77.62 77.57 77.33 76.90 76.12 75.39 73.13 74.19 73.53 71.57 71.97 73.43 74.07 73.84 74.13 74.24 74.42 74.98 75.75 76.76 77.36 77.24 77.38
72.86 73.27 73.96 75.26 75.98 76.44 75.17 78.56 77.87 74.30 74.98 74.85 75.36 77.23 78.09 77.28 77.56 77.08 79.02 77.42 75.87 76.19 77.26 77.66 77.55 74.98 72.58 73.55 72.39 71.95 68.33 70.56 72.34 72.82 73.44 73.36 74.27 74.60 75.08 76.50 76.80 78.07 78.34
72.61 73.45 74.25 75.49 76.10 76.65 77.53 77.38 76.85 77.08 76.88 74.25 75.30 75.75 76.57 77.29 77.30 77.86 77.71 78.27 77.60 77.77 75.74 77.84 76.72 77.15 72.09 73.12 76.91 74.39 69.79 69.22 69.61 71.91 72.82 73.12 74.35 74.42 75.58 75.56 76.20 77.48 78.41
73.05 73.99 75.30 76.00 76.36 76.62 77.63 78.18 75.37 74.67 72.76 74.94 75.54 75.98 76.34 77.29 76.92 77.39 77.78 77.76 78.41 78.38 79.04 77.35 77.19 78.57 78.08 72.11 73.41 74.10 77.05 75.78 71.75 68.55 70.95 72.66 73.15 73.29 74.67 74.80 75.25 76.85 77.80
73.46 73.86 74.79 76.22 77.03 77.42 77.94 76.45 75.99 75.93 73.25 72.41 74.58 77.42 78.47 77.86 77.19 76.85 77.78 77.95 77.97 76.89 77.99 78.38 77.34 78.53 76.69 75.67 74.16 73.17 75.53 73.78 74.37 71.27 69.03 70.67 71.78 72.98 75.29 75.49 75.22 75.60 78.00
73.41 73.09 74.60 75.71 76.87 76.77 77.21 76.91 77.13 76.33 76.02 73.35 75.49 75.11 75.28 75.52 76.29 77.24 77.18 77.77 77.87 78.00 77.45 76.58 77.84 77.52 78.07 78.61 76.37 75.76 72.61 71.38 71.91 72.73 71.08 71.78 72.02 73.86 74.94 76.54 76.41 76.20 77.21

GFSSE_sfc_wetblb_108.txt.gz
Wetbulb
71.82 73.48 76.27 75.07 75.24 75.49 76.36 76.75 76.91 77.25 77.29 77.21 77.91 76.95 77.01 77.16 76.83 77.68 77.80 77.57 76.63 76.97 76.78 77.02 77.05 76.66 76.71 76.58 76.61 76.60 76.59 76.62 76.48 76.41 76.40 76.26 75.51 75.60 76.28 76.27 77.06 74.19 75.63
72.87 74.18 76.68 75.43 75.11 76.51 76.68 76.95 77.41 77.03 77.24 77.42 77.33 77.26 76.96 77.09 76.96 77.49 77.52 76.65 76.62 76.78 76.68 76.54 76.70 76.41 76.60 76.61 76.00 75.11 75.72 75.59 76.37 76.09 76.89 76.66 76.68 76.44 76.28 76.45 76.05 75.05 76.22
72.87 74.56 75.48 77.17 76.19 76.46 76.54 76.75 76.97 77.03 77.20 77.01 76.96 77.34 77.45 77.32 76.58 76.48 76.54 76.61 76.66 76.46 76.33 75.78 75.36 75.53 76.34 76.04 76.04 75.99 75.59 75.23 75.14 75.24 76.53 74.09 74.63 76.39 76.01 75.90 75.91 76.09 75.93
73.07 74.19 74.95 77.25 77.19 76.28 76.86 76.61 76.69 76.94 77.05 77.05 76.91 76.80 76.71 77.43 77.52 77.25 76.62 76.65 77.14 77.23 76.19 76.63 76.33 75.75 75.39 75.82 75.49 75.37 75.75 76.20 76.34 76.69 72.89 73.48 73.45 76.04 76.23 76.00 75.85 75.22 75.58
73.42 74.62 75.70 76.86 77.09 76.66 76.48 76.70 76.71 76.73 76.96 76.69 76.51 77.07 76.96 77.13 76.48 76.51 76.32 76.03 76.19 76.33 76.29 76.60 76.49 75.86 75.53 75.58 75.11 75.24 75.31 76.56 77.49 74.01 72.23 72.07 73.04 75.15 75.92 76.26 75.87 75.58 75.54
74.85 74.74 75.58 75.98 75.90 76.85 76.28 76.59 76.42 76.86 76.78 76.84 77.37 77.33 77.65 77.48 76.99 76.94 76.60 76.50 76.81 76.53 76.41 76.46 76.77 76.25 75.33 75.08 74.06 74.81 75.25 76.70 76.86 71.98 71.35 72.65 72.33 74.39 74.60 74.72 74.66 74.72 74.50
72.73 72.28 74.85 77.18 76.07 76.50 76.61 76.78 76.79 76.92 76.90 77.46 77.83 77.80 77.75 77.18 77.19 76.72 76.86 76.81 76.89 76.73 76.75 76.53 76.69 75.47 74.98 74.39 74.09 74.56 75.44 77.11 71.61 71.08 71.37 71.89 73.62 75.82 75.59 75.88 75.18 74.30 73.57
71.90 74.19 75.25 76.91 76.69 76.68 76.93 77.00 76.74 76.65 77.36 78.11 77.40 76.95 77.12 77.51 77.22 77.55 76.92 76.98 76.61 76.67 76.61 76.25 75.92 75.28 74.64 74.17 73.40 73.79 74.34 75.16 73.76 71.63 71.56 72.42 75.06 74.87 74.64 74.33 74.38 73.80 73.20
73.71 73.97 74.96 75.24 76.36 76.95 76.86 77.12 77.25 77.59 77.16 77.20 77.90 77.77 78.19 77.60 77.22 77.22 77.50 77.20 76.64 76.61 76.56 76.36 76.22 75.90 75.60 74.67 73.00 73.50 74.55 76.39 73.19 72.40 71.51 71.58 75.00 73.78 73.13 72.93 72.71 72.87 73.03
73.58 74.48 73.75 74.99 74.86 75.04 75.37 77.01 76.77 77.61 77.15 76.96 77.81 77.92 78.05 77.78 77.53 76.75 77.35 77.49 76.45 76.42 76.25 76.36 76.50 76.49 76.15 75.90 74.84 73.88 74.67 75.44 72.73 71.23 71.33 72.63 74.70 72.88 72.60 72.50 72.52 72.95 73.10
72.89 73.84 73.97 74.20 74.80 76.63 76.25 76.28 76.96 77.13 77.32 77.32 76.69 77.92 76.75 75.41 75.29 75.53 77.28 76.67 76.39 75.99 75.76 76.31 76.72 76.74 76.51 76.02 76.13 75.89 75.86 74.10 70.41 70.27 71.21 74.63 75.00 73.73 73.15 72.74 72.98 73.24 73.38
71.36 72.23 72.59 74.19 73.85 74.45 74.35 76.16 76.73 76.31 75.75 76.20 76.19 75.37 77.68 75.82 75.60 74.01 76.23 76.92 76.18 75.67 76.44 77.34 77.44 77.03 76.42 75.54 75.31 76.71 75.14 71.73 70.82 70.86 72.24 75.08 74.56 73.82 73.62 73.37 73.26 73.48 73.56
70.52 71.60 71.49 74.95 74.54 74.04 75.52 75.72 75.32 75.50 75.97 75.12 77.57 73.40 77.05 74.53 74.20 74.22 75.50 74.45 74.89 76.56 73.90 75.49 75.71 75.17 74.67 74.91 74.48 75.13 71.89 71.79 70.05 70.34 74.13 75.49 73.99 73.32 73.20 73.09 73.12 73.70 74.14
70.72 71.27 72.42 71.45 74.84 71.45 75.15 73.33 74.70 74.97 74.64 75.17 76.44 79.05 78.40 73.87 76.06 73.28 73.30 72.75 76.98 74.86 70.04 72.53 74.85 75.65 74.47 73.13 72.97 73.17 72.03 71.03 68.46 69.22 73.40 74.96 73.88 72.93 73.01 73.15 73.65 74.31 74.94
70.62 71.73 73.10 75.13 75.89 77.86 74.10 73.12 74.29 74.10 75.50 74.76 72.68 74.95 77.97 73.70 74.49 74.09 66.56 72.50 76.01 74.76 74.99 75.33 75.83 74.57 75.08 74.86 74.54 73.59 72.18 73.08 69.18 69.13 70.39 74.67 74.86 73.59 73.59 73.62 74.56 75.08 75.47
71.28 72.52 73.64 73.88 76.46 76.10 78.16 76.77 73.71 75.35 76.44 74.57 73.06 72.86 72.00 77.53 76.11 75.02 74.17 74.81 72.18 76.86 77.05 73.53 74.52 74.17 74.50 73.31 74.17 74.19 73.19 73.15 74.21 70.65 71.13 72.89 75.61 75.19 74.56 74.56 75.33 75.52 75.96
71.50 73.46 72.97 73.63 73.58 75.88 77.73 76.41 72.69 74.50 75.68 76.17 75.87 71.97 72.55 78.52 79.89 74.69 73.83 76.06 76.78 77.33 77.31 77.76 76.91 74.42 74.17 74.23 74.42 75.41 73.79 73.96 74.17 74.52 72.74 72.45 73.59 76.42 76.46 76.63 76.61 76.54 76.41
71.88 73.32 73.40 72.69 73.48 74.44 76.30 75.97 76.21 73.00 74.70 73.12 75.65 77.55 77.75 79.61 78.99 77.26 76.88 73.39 77.37 78.53 77.70 76.30 76.64 74.55 71.63 74.43 73.86 74.04 74.42 73.88 74.93 75.36 75.34 74.52 74.00 73.59 76.25 77.16 77.08 77.11 77.29
72.77 73.35 72.17 74.16 72.87 74.49 77.59 77.33 74.20 78.12 75.30 76.75 76.69 77.30 78.56 78.89 79.35 74.65 76.43 78.08 78.99 75.71 72.85 73.82 73.73 74.61 73.29 72.26 73.39 74.19 74.55 73.61 74.86 74.65 75.22 76.00 75.41 75.11 74.65 76.01 76.76 77.15 77.95
73.33 73.95 71.43 73.72 74.14 77.14 75.64 78.71 78.61 74.72 76.67 75.95 76.67 75.00 79.66 78.63 79.11 78.96 76.90 78.46 75.72 75.16 73.64 75.39 76.31 74.75 76.59 71.24 71.68 73.25 74.21 74.60 74.68 74.33 74.62 74.61 75.04 75.60 75.94 76.69 75.52 75.94 77.31
73.12 73.31 72.83 74.00 75.72 74.11 75.16 71.16 76.39 71.11 75.68 75.29 75.12 78.22 79.61 79.24 79.56 78.68 78.57 76.72 73.15 72.03 78.26 77.98 77.56 76.16 75.75 75.95 75.70 73.03 72.36 73.93 74.30 74.28 73.99 73.51 74.11 75.03 75.79 76.08 77.56 77.29 75.50
72.69 73.70 75.10 73.95 75.55 76.32 75.43 74.06 75.92 75.59 75.58 75.49 77.03 78.65 76.70 78.15 79.73 78.69 79.01 75.52 74.72 77.10 78.23 78.82 78.59 76.66 74.91 74.60 72.97 71.46 69.62 70.93 72.05 72.57 73.81 73.21 73.18 73.88 74.87 76.10 76.79 76.38 77.48
72.27 73.45 74.70 75.13 76.36 77.05 77.84 75.12 77.85 74.39 78.07 74.84 74.84 76.74 76.69 77.25 78.45 74.59 79.55 75.60 78.29 77.46 77.17 79.27 78.78 76.83 74.51 74.28 76.94 74.76 69.72 68.18 70.15 71.89 72.19 73.29 72.38 74.42 74.68 74.76 76.20 77.17 76.95
72.48 73.47 75.62 76.20 76.28 76.70 75.87 75.71 72.70 75.56 72.93 75.21 76.91 75.89 77.76 78.09 77.47 78.75 79.69 79.51 78.26 73.10 73.95 78.55 77.91 78.09 76.41 74.44 74.87 74.50 76.11 69.14 64.24 66.78 71.01 71.66 72.75 73.80 73.79 73.98 74.14 76.37 76.91
71.62 73.28 75.02 76.34 76.34 77.29 74.92 78.29 76.83 76.92 71.76 72.48 72.96 73.72 79.50 79.55 79.15 77.15 79.27 79.32 79.58 78.18 78.07 78.81 77.30 78.02 77.24 76.59 73.85 74.77 72.58 75.42 70.14 69.70 64.16 65.71 71.63 73.04 74.39 74.89 73.80 74.59 71.70
71.89 73.32 75.05 75.97 76.05 76.71 76.39 76.07 76.76 73.22 71.54 72.63 71.07 71.76 76.02 75.89 77.13 78.93 77.62 79.13 79.81 79.06 75.71 77.76 79.17 77.95 77.62 78.43 76.61 75.95 71.27 67.72 66.89 68.04 65.45 65.84 66.14 70.99 70.33 70.98 70.09 69.53 72.04

GFSSE_sfc_wetblb_111.txt.gz
Wetbulb
68.91 71.80 76.10 75.72 75.92 76.18 76.80 76.87 76.98 77.21 77.09 76.85 76.88 77.38 76.26 77.14 77.37 77.60 77.29 77.23 76.91 76.93 77.16 76.80 76.77 76.74 76.82 76.97 76.85 76.50 76.39 76.32 76.72 76.42 76.28 76.09 75.89 75.78 76.51 75.98 75.67 74.12 75.75
71.31 74.09 76.53 76.16 76.57 76.89 77.07 76.66 76.78 76.98 76.77 76.64 77.38 77.51 76.62 77.27 77.15 76.64 76.74 76.53 76.78 76.71 76.82 76.51 76.80 76.64 76.08 75.78 76.11 75.72 75.77 76.30 77.07 77.23 76.66 76.28 76.45 76.38 76.54 76.09 76.15 75.11 75.95
72.41 73.72 74.78 77.21 76.95 76.95 77.00 77.23 77.13 77.02 76.92 76.45 77.66 77.63 76.54 76.67 76.82 76.90 76.71 76.55 76.41 76.62 74.80 75.28 76.43 76.24 76.13 76.24 76.01 75.52 75.47 75.57 76.07 76.33 76.34 74.30 74.13 75.82 75.85 76.24 76.26 76.07 76.09
73.21 73.57 75.02 76.78 77.30 76.93 76.97 76.98 76.97 77.13 76.99 76.80 76.90 77.83 76.92 77.09 77.24 77.25 76.63 76.27 76.27 76.87 76.74 76.22 75.44 75.64 75.86 75.99 75.84 75.91 75.69 76.50 76.22 76.33 72.43 73.29 73.70 76.24 76.11 75.72 75.57 75.71 75.81
72.49 73.85 74.86 77.58 77.30 77.07 76.91 76.67 76.94 76.90 76.84 76.82 77.03 77.48 77.17 76.51 76.18 76.22 76.30 76.57 76.61 76.60 76.60 76.38 75.33 75.33 75.47 75.49 75.11 75.39 77.07 77.14 76.25 73.01 70.68 71.70 72.69 75.45 76.12 76.03 75.44 75.64 75.23
72.91 73.99 76.44 77.25 76.49 76.52 76.57 76.75 76.82 76.71 76.67 76.86 77.06 77.01 76.73 76.93 76.93 76.79 76.71 76.69 76.41 76.57 76.48 76.62 75.36 74.86 74.70 74.28 74.72 75.82 76.44 77.00 73.66 70.16 70.14 72.81 70.79 74.71 74.52 74.73 74.64 74.32 74.03
71.40 72.49 73.75 76.99 77.09 76.81 76.76 76.82 77.04 76.77 76.92 76.89 77.03 77.01 77.08 76.85 76.83 77.03 76.89 77.02 76.91 76.66 76.53 76.57 75.03 74.50 74.14 73.56 74.64 75.08 76.72 75.57 69.88 69.52 70.50 72.05 73.48 75.92 75.85 74.70 73.94 73.21 73.44
71.50 73.58 73.84 76.64 76.99 77.35 76.54 76.74 77.01 77.10 77.29 77.34 77.19 77.55 77.34 77.04 76.97 77.65 76.78 76.58 76.42 76.31 76.14 75.50 74.81 74.28 73.98 73.37 73.28 73.80 76.28 76.32 71.57 70.20 71.23 71.76 74.82 74.98 74.52 74.07 73.61 73.00 73.21
73.12 73.48 73.96 73.87 75.00 76.76 77.58 76.73 77.00 77.19 77.13 76.94 77.60 77.41 77.14 76.99 76.89 77.17 76.58 76.64 76.64 76.47 76.14 75.69 75.06 74.72 74.28 73.55 73.04 73.04 74.67 76.10 69.68 69.96 71.23 71.10 74.70 73.61 72.93 72.65 72.70 72.75 72.77
72.54 73.08 72.89 73.33 74.01 73.73 74.47 76.92 76.90 76.98 77.08 77.25 77.28 77.37 77.86 77.33 76.67 76.80 77.38 77.37 76.53 76.44 76.31 75.86 75.25 75.08 74.95 74.75 74.64 74.91 74.90 75.83 69.85 70.08 71.01 72.02 74.22 72.71 72.47 72.25 72.30 72.53 72.61
71.85 72.03 72.42 72.91 72.69 72.96 74.03 75.26 76.41 76.85 76.93 77.11 76.95 77.10 76.97 73.81 73.63 74.73 76.17 77.08 76.28 76.02 76.16 76.17 75.80 75.77 75.95 76.23 76.04 75.86 74.81 72.34 68.02 69.66 70.63 74.15 74.81 73.26 72.69 72.60 72.67 72.88 72.94
68.78 71.43 71.53 72.62 72.98 72.86 74.06 73.68 73.82 74.55 73.46 73.03 69.81 71.95 72.65 72.36 71.62 73.90 75.45 76.61 75.91 75.68 75.66 75.86 75.11 75.48 76.52 74.12 73.91 76.14 73.66 68.70 68.71 69.80 71.74 74.77 75.09 73.95 73.43 73.31 73.09 73.17 73.39
69.34 70.93 70.59 71.12 72.16 70.79 72.42 72.79 73.16 73.20 73.11 70.80 67.40 68.25 72.21 72.11 70.99 68.64 71.89 73.20 72.84 74.81 67.34 72.34 68.71 71.53 73.12 73.93 74.15 73.34 73.06 67.61 67.89 69.33 73.24 75.02 74.80 73.78 73.24 73.10 73.21 73.75 74.13
69.41 69.40 70.45 71.53 70.32 71.12 73.08 72.47 71.65 72.24 71.97 71.36 71.26 72.38 71.92 69.38 66.13 66.53 69.79 71.90 71.54 68.57 65.12 70.23 71.10 70.96 72.57 72.95 72.58 72.88 70.15 66.72 67.02 69.78 73.37 75.16 74.78 73.75 73.65 73.59 73.98 74.46 74.92
68.99 69.38 69.44 71.49 71.10 69.49 71.40 72.39 71.67 71.26 71.49 70.74 71.54 71.30 71.16 70.42 69.89 68.59 67.07 70.73 67.43 71.55 70.77 69.86 70.81 70.99 70.83 70.71 69.97 69.03 68.50 65.60 66.39 68.52 70.11 74.56 74.94 74.63 74.17 74.25 74.74 75.34 75.45
69.61 70.39 71.02 71.02 71.85 72.90 71.64 72.23 71.17 71.37 71.20 70.05 70.14 70.31 70.54 70.57 70.82 69.61 66.14 70.72 69.92 71.23 71.39 69.81 70.19 71.27 71.09 69.44 70.46 69.14 69.44 67.25 66.24 67.45 68.69 71.11 75.67 75.53 75.68 75.29 75.56 76.26 76.03
70.15 70.60 70.20 69.94 70.99 72.18 70.68 70.55 69.10 70.65 72.56 69.98 66.89 65.49 66.60 69.54 72.84 70.50 71.27 70.22 71.36 72.64 72.46 72.67 71.87 72.40 68.98 70.89 69.31 70.59 69.33 69.97 67.67 68.09 68.71 69.30 72.54 76.12 76.36 76.93 77.01 77.27 77.42
69.77 69.02 70.55 71.28 70.58 69.96 70.78 72.19 70.86 71.21 71.84 72.01 69.43 68.22 68.38 72.97 74.15 72.44 72.73 71.16 71.68 71.68 71.42 72.43 71.73 70.99 69.42 69.00 68.99 68.62 69.50 70.04 70.28 70.01 69.92 70.04 70.63 71.60 75.04 77.24 77.27 77.16 77.52
69.68 69.40 70.35 69.66 69.14 69.93 71.10 72.22 71.25 70.40 69.94 71.47 72.71 73.88 73.37 73.21 75.25 71.26 71.79 73.13 73.26 73.04 71.23 69.98 70.61 69.56 68.65 68.20 69.96 69.52 68.82 69.36 70.19 72.44 70.93 71.17 70.53 71.54 71.27 74.44 76.64 76.52 77.48
70.50 70.22 69.69 69.97 68.87 71.27 71.53 74.08 72.42 71.96 72.31 74.10 73.30 73.68 73.83 72.63 74.97 74.02 74.13 69.32 66.86 69.50 72.76 73.42 71.75 71.98 72.28 69.19 70.10 69.73 69.23 69.36 70.17 70.23 70.48 72.89 71.17 71.99 71.66 71.67 72.75 74.51 76.92
69.52 70.10 71.02 69.84 72.08 70.26 71.09 69.03 69.45 69.22 71.82 72.17 72.72 73.92 73.59 73.35 73.92 73.75 73.28 65.42 65.95 69.15 70.12 73.37 72.74 71.87 71.89 70.81 69.40 68.96 66.89 68.59 69.73 69.74 70.87 70.86 70.60 71.97 72.68 72.63 73.11 72.75 74.19
68.77 68.53 70.82 71.04 71.21 69.49 71.88 70.90 71.92 70.96 72.30 72.84 73.14 73.53 73.47 74.53 73.64 74.19 73.21 69.94 69.93 71.11 72.66 72.75 73.19 72.76 71.18 69.28 66.79 68.27 63.40 65.66 67.94 69.64 69.51 71.03 69.20 70.66 72.27 72.68 73.54 73.03 73.81
69.04 70.26 70.21 71.97 70.43 72.00 72.70 72.24 72.06 70.96 73.31 71.93 71.67 72.54 73.85 74.56 74.02 73.22 73.81 72.26 71.36 71.02 70.20 72.96 73.63 72.45 71.40 71.43 70.43 69.65 65.88 65.61 66.31 66.42 67.11 68.61 68.61 70.51 70.81 70.24 70.38 73.23 72.87
69.70 71.26 70.94 71.33 71.01 72.37 72.27 72.39 70.14 69.70 68.17 70.44 70.53 72.70 72.99 74.23 74.55 73.60 73.73 73.89 72.52 71.93 71.13 72.96 73.40 73.42 72.85 71.11 71.06 72.26 68.65 66.46 61.39 63.76 68.62 66.45 69.04 69.30 69.31 69.51 68.43 68.74 70.87
70.55 70.50 71.88 71.88 71.47 72.09 71.27 72.38 70.88 69.20 69.89 70.61 70.74 70.39 70.61 73.51 74.83 74.78 73.47 73.05 73.58 73.24 72.35 72.67 73.83 72.75 73.34 72.52 71.35 71.55 69.09 68.24 68.55 63.07 61.54 63.34 66.36 69.45 70.68 69.04 68.96 68.19 69.44
70.32 71.05 72.02 71.64 71.19 72.11 70.30 72.30 70.73 69.48 68.41 69.30 69.37 70.36 70.05 71.25 72.51 73.57 74.29 74.18 73.24 73.04 72.91 72.72 72.75 72.00 72.97 72.59 73.02 70.23 67.03 65.86 65.20 64.53 62.51 63.17 62.86 67.83 69.25 67.95 66.04 68.19 67.45

GFSSE_sfc_wetblb_117.txt.gz
Wetbulb
67.82 70.61 74.21 74.32 75.35 75.97 76.53 76.63 76.59 76.53 76.12 76.45 76.22 75.48 75.51 76.38 76.25 76.24 76.13 76.35 76.44 76.57 76.46 76.52 76.43 76.22 76.16 76.45 76.37 76.07 76.11 76.40 76.18 76.01 75.86 75.97 75.65 75.16 75.19 75.21 75.28 73.85 74.88
69.77 72.88 74.94 75.59 75.94 76.28 76.76 76.53 76.52 76.33 76.22 76.35 76.38 76.10 75.92 76.30 76.15 76.24 76.24 76.41 76.49 76.52 76.45 76.06 76.24 75.97 76.05 75.88 75.93 76.06 76.24 75.91 76.05 76.27 76.39 76.31 76.03 75.61 75.47 75.59 75.45 73.60 74.33
69.63 72.57 74.82 76.31 76.14 76.43 76.59 76.45 76.68 76.37 75.78 76.25 76.09 75.94 76.21 76.30 76.42 76.49 76.46 76.31 76.22 76.19 75.83 75.82 75.87 75.90 75.89 75.64 75.89 76.07 76.33 76.08 75.97 75.91 75.88 73.03 73.99 76.01 76.13 75.67 75.62 75.52 75.08
71.55 72.18 73.97 76.85 76.65 76.41 76.59 76.73 76.53 76.61 75.95 76.22 76.04 75.96 76.14 76.34 76.02 76.14 75.36 74.59 74.84 75.79 75.56 76.13 76.13 75.97 75.83 75.72 75.17 75.14 75.59 76.09 75.84 75.48 72.66 73.32 73.39 75.81 75.49 75.70 75.56 75.31 75.16
71.69 72.69 73.72 76.30 76.56 76.39 76.77 76.74 76.62 76.22 76.18 76.12 76.22 75.94 75.70 76.05 75.39 75.17 76.49 76.03 75.44 74.98 75.33 75.50 75.68 75.72 75.39 75.54 76.11 76.00 75.38 75.63 75.54 73.73 72.08 72.35 72.68 74.34 75.16 75.02 74.70 74.73 75.10
72.27 73.19 74.90 76.31 76.08 76.11 76.58 76.53 76.41 76.39 76.61 76.49 76.22 75.95 76.07 76.05 76.21 76.19 76.18 75.94 76.10 75.58 74.67 75.00 75.33 75.17 75.09 75.75 76.03 77.19 75.91 75.52 74.30 71.60 70.87 72.33 71.72 75.57 75.08 74.70 74.30 74.36 74.79
72.41 73.55 74.00 76.34 76.20 76.41 76.17 76.58 76.61 76.46 76.57 76.32 76.18 76.28 76.27 76.07 75.97 75.78 75.64 75.72 75.71 75.96 74.42 74.39 74.59 74.37 74.86 75.47 76.36 75.23 74.67 74.24 69.69 69.94 70.31 71.32 72.40 74.56 74.04 73.45 73.25 73.02 72.73
72.22 73.21 73.90 76.14 76.14 76.36 76.49 76.62 76.63 76.69 76.71 76.75 76.60 76.39 76.62 76.52 76.63 76.49 76.00 75.56 75.53 75.61 74.25 73.84 73.61 73.81 74.48 74.56 76.18 75.50 74.04 72.88 71.22 71.30 71.68 72.29 75.35 75.37 73.65 73.42 72.42 72.17 72.34
71.74 71.90 73.13 73.87 75.42 76.71 76.62 76.56 76.75 76.65 76.51 76.51 76.55 76.22 76.42 76.38 76.06 75.89 75.64 75.42 75.25 74.89 74.45 73.98 73.73 73.98 74.37 74.25 74.53 75.45 74.53 73.24 69.46 70.31 71.25 70.61 74.60 73.17 72.50 71.97 72.01 72.02 72.31
71.16 72.13 71.74 72.31 73.43 73.02 73.90 76.71 76.66 76.73 76.78 76.74 76.52 76.43 76.32 76.00 75.83 75.77 76.24 76.22 75.28 75.06 75.03 74.70 74.39 74.66 75.43 75.11 74.67 74.89 74.26 73.51 68.74 68.54 69.55 70.09 74.40 71.84 71.62 71.70 71.91 72.27 72.63
71.73 70.92 71.14 72.09 71.60 72.13 73.24 75.03 76.30 76.78 76.86 76.75 76.26 76.05 76.00 72.42 73.07 73.75 75.00 75.72 75.56 75.81 75.72 75.70 75.16 74.82 75.17 75.56 75.47 75.39 75.06 69.76 68.15 69.00 69.38 73.03 73.32 71.67 71.73 72.08 72.58 73.12 73.44
69.42 70.25 70.95 71.17 71.46 72.25 74.39 72.91 72.55 74.86 73.87 73.50 73.29 72.49 71.42 70.88 71.96 73.55 74.60 75.90 76.06 75.91 75.40 75.81 75.52 75.79 75.23 73.48 72.66 74.54 72.63 71.71 67.74 68.02 69.11 73.88 73.53 72.88 72.77 72.98 73.64 73.89 73.96
69.52 70.49 70.74 70.47 71.17 71.76 71.72 71.92 72.06 71.39 70.89 69.34 70.03 70.84 71.02 70.57 68.11 69.04 70.11 70.83 70.43 73.48 69.30 66.84 68.99 68.46 69.63 70.26 71.53 71.75 72.15 68.10 67.19 68.22 70.72 74.65 74.28 74.07 73.51 73.54 73.72 74.07 74.60
69.01 69.77 70.28 70.72 70.64 69.68 71.98 71.28 71.40 70.66 67.96 67.32 67.74 69.33 69.03 65.72 65.75 66.43 68.52 68.54 67.26 69.60 69.31 66.30 68.35 68.82 69.34 70.02 70.71 70.61 70.35 66.49 66.78 67.71 69.71 74.41 74.56 74.60 74.42 74.20 74.25 74.60 75.22
68.50 69.16 69.91 70.12 69.80 69.99 71.19 70.96 70.73 70.79 69.28 69.87 69.96 70.57 68.19 63.49 63.81 65.68 66.81 67.02 68.00 66.07 68.58 69.13 69.05 69.45 69.62 69.76 70.69 71.01 70.25 66.03 66.60 67.63 69.05 74.37 75.04 74.40 74.17 74.28 74.70 75.33 76.02
68.00 68.80 69.51 69.38 69.40 70.25 70.11 70.26 70.16 69.97 69.84 70.36 70.09 69.99 69.10 67.63 65.92 67.68 66.66 65.24 66.54 68.09 70.23 69.74 69.93 68.99 69.10 68.51 68.17 66.72 67.05 65.42 65.27 65.90 67.35 68.20 75.10 75.27 74.36 74.66 75.37 75.94 76.29
67.58 68.34 68.71 68.73 69.41 69.28 69.29 69.82 69.69 69.11 69.28 68.67 69.71 69.51 69.42 69.94 69.28 68.93 67.35 67.10 68.99 70.27 70.92 70.30 70.28 70.48 69.41 68.65 67.15 66.98 64.31 63.99 64.71 64.72 65.57 66.55 67.93 74.01 75.66 76.19 77.06 77.51 77.57
67.61 67.85 68.42 70.85 70.03 69.05 69.51 69.46 69.71 69.22 68.38 66.81 65.85 66.99 68.34 71.27 70.79 69.17 68.62 69.71 70.40 71.03 70.80 69.76 68.66 68.53 67.71 67.59 66.94 67.42 66.02 65.00 64.51 64.93 65.24 66.26 66.78 69.03 70.63 73.28 74.61 75.54 76.82
67.92 67.37 67.78 68.64 68.46 69.07 68.60 68.43 68.65 69.87 69.79 68.14 65.53 68.09 69.43 72.44 71.95 70.06 70.59 69.32 68.65 69.24 70.69 71.41 69.68 67.39 66.65 66.93 67.69 67.98 67.56 67.88 66.61 68.61 67.44 68.08 67.87 69.35 70.29 72.35 74.37 74.57 75.50
67.57 67.20 67.37 67.44 67.73 68.89 69.45 68.64 68.82 69.03 69.09 69.81 69.80 70.51 71.46 71.81 72.85 71.96 70.71 67.07 67.46 69.57 71.34 71.20 70.28 70.64 67.62 66.79 68.74 68.87 67.95 67.40 67.59 67.97 68.37 70.24 70.20 70.93 71.48 72.85 73.10 73.63 75.23
67.39 66.45 66.57 65.89 66.97 68.69 68.85 68.43 67.83 67.70 69.52 69.60 71.32 71.48 71.91 71.66 72.44 71.77 67.63 65.49 70.11 70.57 71.05 72.07 71.51 70.50 69.20 67.79 66.13 66.41 65.43 66.94 66.58 68.38 68.94 68.81 69.31 69.52 69.20 69.73 72.75 72.10 72.63
66.95 66.96 66.47 65.63 67.82 68.43 68.30 68.73 67.92 68.93 69.26 69.87 71.43 71.24 71.75 72.04 72.78 72.50 70.82 69.08 69.85 69.27 70.88 71.52 71.02 70.04 70.06 69.38 67.88 64.17 61.22 64.17 65.29 67.25 68.70 68.79 68.22 68.94 69.33 69.07 69.25 70.75 68.71
66.70 66.84 66.92 66.43 68.17 68.06 69.32 70.24 69.00 70.16 70.06 69.55 69.72 69.76 70.67 71.73 72.44 72.68 71.41 70.54 69.93 68.50 69.86 70.68 71.14 70.40 68.51 67.81 67.35 66.70 63.03 60.99 62.54 65.03 65.67 67.73 68.62 68.77 68.96 69.51 69.12 68.85 68.01
67.21 68.18 67.20 67.63 67.07 69.24 70.09 69.15 68.03 67.75 66.97 68.11 68.35 69.80 70.72 72.13 71.66 72.41 72.16 71.55 70.57 70.28 70.07 71.49 71.92 70.76 69.77 67.77 68.25 69.12 66.14 64.36 60.56 60.98 64.52 64.64 67.43 68.39 68.52 68.82 69.13 68.66 67.54
67.98 68.30 68.17 67.78 68.62 70.01 70.15 69.04 67.90 67.32 67.78 68.22 68.51 68.72 69.52 70.29 71.72 73.01 71.62 71.88 70.90 70.46 70.75 70.81 70.92 70.50 70.97 68.62 67.10 66.12 65.03 64.41 62.35 60.28 58.39 61.43 64.58 66.86 68.34 68.73 68.51 68.17 67.58
68.01 68.40 68.45 67.60 68.48 69.21 69.71 69.28 68.72 67.96 67.64 68.09 68.00 68.36 68.99 68.70 70.06 71.09 72.27 71.53 71.34 70.67 70.75 71.03 70.36 71.09 70.44 70.75 69.19 67.46 66.05 63.86 62.84 60.15 58.88 59.50 60.55 64.32 67.91 68.48 68.20 67.26 66.76

GFSSE_sfc_wetblb_120.txt.gz
Wetbulb
67.62 70.30 73.57 74.52 74.72 75.01 75.75 76.57 76.25 76.73 76.43 76.31 76.70 75.77 76.31 76.12 76.27 76.19 76.24 76.37 76.19 76.20 76.45 76.85 76.55 76.64 76.15 76.34 75.95 76.10 76.08 76.12 76.33 76.05 76.01 75.69 75.35 75.37 75.64 75.89 75.19 73.31 74.73
68.70 71.80 74.24 74.89 75.22 75.73 76.72 76.46 76.43 76.52 76.47 76.66 75.99 76.16 76.15 76.27 76.28 76.19 76.31 76.24 76.13 76.13 75.87 75.99 76.39 76.23 76.19 76.12 75.56 75.78 76.10 75.95 76.09 75.99 76.42 76.18 75.89 75.74 75.70 75.84 74.71 73.81 74.54
69.66 72.54 74.40 75.52 76.14 76.31 76.28 76.59 76.23 76.00 76.53 76.53 76.35 76.41 76.31 76.24 76.24 76.62 76.20 75.79 76.02 76.02 75.92 76.13 76.16 76.07 76.11 76.03 76.28 76.43 76.14 76.32 76.20 76.57 76.38 74.84 75.08 75.65 75.89 76.01 75.92 75.27 74.98
70.61 72.48 73.72 75.65 76.17 76.28 76.55 76.43 76.37 76.06 76.18 76.13 76.07 76.44 76.36 76.31 76.34 75.74 74.83 75.57 75.88 75.83 76.05 75.57 75.61 75.60 75.48 75.41 75.37 76.15 76.33 75.91 75.76 75.61 74.06 74.20 74.50 75.85 75.80 75.76 75.70 75.66 74.94
71.35 72.54 73.77 75.92 76.42 76.31 76.36 76.15 76.11 76.25 76.17 76.37 76.15 76.39 76.24 76.24 75.44 76.14 76.15 75.71 75.30 75.57 76.10 76.01 75.93 75.50 75.93 75.88 75.74 75.64 75.78 75.59 75.53 74.30 73.91 74.36 74.23 74.92 75.24 75.06 75.05 75.11 75.48
71.64 73.04 74.67 75.90 76.23 76.28 76.20 76.37 76.16 76.23 76.28 76.22 76.40 76.26 76.07 75.85 76.07 76.22 76.08 76.07 75.41 75.11 75.43 75.41 75.56 75.73 76.16 76.61 76.24 76.12 75.93 75.18 74.45 72.20 72.20 73.53 74.00 75.40 74.82 74.36 74.56 74.89 74.67
71.62 72.55 73.94 76.03 75.92 76.10 76.31 76.47 76.27 76.44 76.51 76.14 75.97 75.90 75.80 75.85 75.97 75.80 75.82 75.95 76.15 75.00 74.83 74.89 75.00 75.44 75.60 76.30 75.50 75.18 74.81 74.35 71.14 71.53 72.34 73.59 73.91 74.38 73.79 73.51 73.41 73.10 72.95
72.01 73.07 73.65 75.61 75.80 76.04 76.40 76.41 76.40 76.34 76.20 76.31 76.16 75.78 75.67 75.68 75.89 76.04 75.74 75.83 75.91 74.97 74.53 74.42 74.42 74.61 74.97 76.06 75.14 74.44 73.51 73.19 72.64 72.71 73.11 73.81 75.30 74.49 74.08 73.06 72.65 72.75 72.87
72.48 72.93 72.95 74.03 74.58 76.25 76.50 76.56 76.52 76.49 76.39 76.33 75.96 75.90 75.76 76.07 75.86 75.94 75.72 75.55 75.17 74.83 74.30 74.19 74.36 74.64 74.86 74.92 75.44 74.86 74.03 73.57 71.63 71.90 72.07 72.29 74.05 72.82 72.41 72.23 72.27 72.54 72.75
71.07 72.35 72.35 72.77 73.66 73.58 73.68 76.47 76.42 76.55 76.26 76.29 76.15 75.98 76.18 76.08 76.13 76.11 75.81 76.16 75.50 75.19 74.74 74.19 74.30 74.94 75.47 75.41 75.30 75.63 74.39 73.27 70.44 70.17 70.89 71.35 73.43 71.64 71.56 71.70 72.17 72.60 73.05
70.88 71.12 71.18 72.14 72.19 72.05 72.78 75.20 76.01 76.43 76.63 76.52 75.72 75.97 74.45 73.24 73.77 74.18 76.05 76.02 76.03 76.00 75.80 75.55 75.97 76.02 75.79 75.40 75.35 75.25 74.46 70.67 69.78 70.19 70.50 71.88 72.50 71.81 71.72 72.08 72.80 73.37 73.90
69.26 69.98 70.85 71.57 72.00 72.41 74.73 73.35 72.82 75.03 74.24 73.91 73.26 72.30 72.15 72.36 74.10 74.21 75.13 75.32 75.28 75.36 74.20 72.79 74.90 73.25 71.53 72.46 73.60 74.38 73.64 72.85 69.93 69.77 70.01 72.12 72.85 72.95 72.90 73.20 73.75 73.88 74.15
69.37 70.24 70.72 70.97 71.81 71.94 71.64 72.08 72.02 71.65 71.62 71.23 71.93 71.91 71.93 70.93 69.17 70.49 70.79 70.66 69.61 72.40 70.90 68.51 69.51 69.76 70.41 71.24 71.90 72.38 73.42 71.67 69.60 69.56 70.47 72.61 73.87 74.35 73.95 73.59 74.05 74.34 74.99
68.85 69.80 70.61 70.79 71.21 70.89 72.02 71.90 71.31 70.23 68.46 68.82 70.03 71.29 70.41 68.02 67.51 67.94 69.70 69.49 69.59 68.31 69.44 69.96 69.86 70.77 71.26 71.41 71.23 71.94 72.01 69.34 68.87 69.04 69.63 72.95 74.41 74.51 74.65 74.36 74.61 74.88 75.52
68.37 69.40 70.01 70.69 70.64 70.40 71.40 71.49 71.15 70.70 68.18 69.05 69.42 70.80 69.48 66.76 65.91 67.42 68.11 68.73 69.01 68.91 70.37 70.60 71.14 71.36 71.45 71.34 70.75 72.10 71.86 68.34 68.78 69.00 69.61 72.06 74.72 74.47 74.29 74.53 75.32 75.97 76.32
68.64 68.96 70.00 70.07 70.34 70.64 70.86 70.97 71.17 71.20 70.84 71.25 71.31 71.50 69.78 67.76 66.10 69.01 68.93 68.43 69.13 70.99 71.61 71.34 71.81 71.70 70.67 71.04 70.49 69.09 69.88 69.43 68.59 68.48 69.15 69.79 73.07 75.46 74.18 74.38 75.28 75.82 76.60
68.12 68.95 69.16 69.65 69.96 70.10 70.60 70.90 70.63 70.20 70.83 70.62 70.49 70.79 70.79 71.15 69.82 70.56 70.00 70.48 71.48 72.36 72.98 72.74 72.14 71.93 71.36 70.63 70.28 69.63 68.20 68.17 67.32 67.26 67.69 67.85 69.30 70.56 73.41 74.68 75.39 76.75 76.78
67.93 68.40 69.21 70.87 69.40 69.39 69.66 70.17 70.65 69.63 70.07 69.83 69.40 70.51 69.96 71.34 71.73 71.22 71.24 72.07 72.71 72.90 73.16 72.86 71.14 70.62 69.95 70.67 70.13 70.42 68.70 67.66 67.51 67.81 68.31 68.36 69.39 70.17 71.02 73.15 74.77 75.78 75.89
67.68 68.02 68.17 69.30 69.40 69.60 70.00 69.86 69.94 69.56 69.22 68.20 67.12 68.86 70.21 73.23 72.78 72.22 72.29 71.30 71.01 72.38 73.11 73.25 72.17 70.25 69.83 70.13 70.24 70.51 70.30 70.50 70.16 70.49 71.13 70.58 70.85 71.84 72.49 73.09 74.90 75.41 75.61
67.80 68.03 68.18 68.62 68.80 69.07 68.86 68.92 69.58 70.03 70.55 69.78 68.82 70.47 71.70 73.10 73.21 73.28 71.24 69.84 71.54 73.31 73.76 73.49 72.80 71.33 70.43 70.37 69.54 68.97 69.29 69.48 70.32 70.69 70.70 71.86 72.24 72.58 73.60 74.65 75.51 75.26 76.49
67.39 66.97 67.22 67.01 68.20 69.41 69.25 68.24 68.60 68.67 69.93 70.34 71.16 72.55 73.04 73.08 73.70 71.55 66.91 70.32 72.85 73.11 73.21 74.27 73.39 72.56 71.61 70.86 70.30 68.18 68.30 68.89 69.55 70.51 70.79 70.69 70.97 71.17 71.22 72.64 74.33 73.02 73.35
66.65 66.84 66.65 66.74 67.68 69.34 69.61 69.15 69.05 69.45 70.42 71.02 72.22 72.75 73.48 72.64 73.50 72.80 70.99 71.78 72.28 72.37 73.34 73.46 72.93 71.68 70.29 69.60 70.82 66.47 65.89 67.97 68.47 68.75 70.25 70.55 70.42 70.25 70.96 71.12 70.91 70.95 71.25
66.34 66.34 66.60 66.09 67.86 68.90 69.76 69.51 70.16 70.85 70.93 70.77 71.50 71.87 72.92 73.61 73.56 73.78 72.44 71.82 72.01 72.21 72.93 73.42 73.18 72.49 69.94 69.43 69.52 70.36 66.27 65.20 65.72 68.49 68.19 69.06 69.99 70.40 71.04 71.43 71.41 71.35 71.13
66.73 67.22 67.05 66.49 67.83 68.75 70.48 69.61 69.54 68.76 68.34 69.59 70.25 71.38 72.33 73.41 73.39 73.79 73.43 72.97 73.15 72.78 73.48 74.34 73.54 73.09 72.10 69.74 69.97 69.13 68.63 68.32 66.47 66.45 67.94 68.80 69.07 68.93 70.82 71.23 71.24 71.05 70.50
67.41 67.36 67.37 67.25 67.50 69.32 70.17 70.03 69.05 68.70 69.31 69.98 70.13 70.86 72.10 72.49 73.69 74.08 73.51 73.50 73.28 73.38 73.32 73.53 73.71 73.59 72.82 71.32 70.65 69.39 67.92 67.08 65.91 65.65 63.50 64.73 67.35 69.05 70.00 70.49 70.95 71.05 70.50
67.57 67.89 68.02 67.23 67.53 69.64 70.03 69.60 69.11 68.98 68.74 69.34 69.54 69.78 70.38 71.18 72.00 73.31 73.71 73.36 73.40 72.90 73.40 73.38 73.37 73.46 73.07 72.93 71.85 70.39 69.47 68.62 67.32 64.49 63.77 64.07 64.07 67.69 70.18 71.03 71.37 71.20 70.67

GFSSE_sfc_wetblb_123.txt.gz
Wetbulb
68.97 70.95 74.24 74.13 73.71 74.16 75.90 75.97 76.11 76.33 75.91 76.29 76.59 76.62 76.45 76.25 76.25 76.30 76.36 76.15 76.55 77.21 77.20 76.57 76.49 76.30 76.37 76.37 76.00 75.95 76.09 76.12 76.21 75.94 75.62 75.75 76.01 76.10 75.96 75.12 75.02 74.58 75.36
69.33 71.86 73.77 74.08 74.34 74.41 75.29 76.54 76.13 76.21 75.92 76.07 76.29 76.89 76.46 76.55 76.53 76.18 76.23 76.47 76.56 76.23 76.23 76.49 76.73 76.55 76.24 76.19 76.04 76.15 76.14 76.11 75.97 75.97 76.25 76.13 75.80 76.05 75.48 75.07 75.00 75.01 74.83
71.20 73.62 73.54 74.41 74.64 75.21 75.73 76.71 76.41 76.36 76.09 76.54 76.59 76.65 76.59 76.55 76.24 76.36 75.99 75.93 76.60 76.45 76.36 76.36 76.51 76.26 76.56 76.64 76.55 76.59 76.31 76.04 76.38 76.45 75.80 75.81 75.96 76.38 75.96 75.70 75.61 75.14 75.42
72.86 74.42 74.59 75.47 75.63 75.96 75.99 76.48 76.14 76.51 76.38 76.50 76.59 76.70 76.33 76.39 75.80 75.91 76.13 76.18 76.45 75.88 76.02 76.01 75.53 75.53 75.69 76.10 76.64 76.42 76.32 76.09 76.07 75.22 75.36 74.80 75.14 76.01 75.81 75.92 75.87 75.61 75.42
73.63 74.97 75.25 75.39 75.97 75.95 75.97 76.24 76.35 76.39 76.54 76.38 76.67 76.25 76.28 75.91 76.71 76.38 75.80 75.86 76.47 76.20 76.28 75.86 75.78 76.11 76.20 76.00 76.17 76.16 75.89 75.88 75.62 75.53 75.87 75.63 76.23 75.24 75.29 75.00 75.40 75.76 75.08
73.67 75.57 75.36 76.00 76.21 76.13 76.13 76.01 76.48 76.49 76.21 76.47 76.29 76.51 75.70 76.56 76.04 76.53 76.20 75.61 75.77 75.97 75.99 75.80 76.35 76.66 76.84 76.50 76.32 76.35 75.58 75.34 74.59 75.69 75.93 75.41 75.40 74.96 74.40 74.20 74.82 74.62 74.23
73.51 74.77 75.62 76.05 76.21 76.26 75.88 76.32 76.05 76.37 76.36 76.17 76.08 76.29 76.24 76.24 76.27 76.22 76.22 76.14 75.25 75.48 75.61 75.53 75.97 76.27 76.45 75.64 75.42 74.96 74.76 74.41 72.98 73.57 75.03 75.13 74.36 74.16 73.67 73.31 73.33 73.07 73.04
73.32 74.32 75.38 75.70 75.74 76.20 76.17 76.45 76.54 76.28 76.31 76.09 76.09 75.92 75.89 75.99 76.24 76.16 76.16 75.95 75.08 75.00 75.14 75.00 75.34 75.56 76.33 75.42 75.00 73.95 73.40 72.49 73.98 74.85 75.76 75.08 75.38 74.19 73.21 72.84 72.88 72.91 73.04
72.79 73.81 75.14 74.93 76.14 75.91 76.34 76.50 76.52 76.34 76.09 76.21 75.81 75.93 75.89 76.00 76.28 76.19 75.75 75.28 74.91 74.43 74.63 74.70 75.17 75.42 75.25 75.56 75.39 74.67 73.21 73.71 73.19 73.99 73.42 73.90 73.47 72.55 72.33 72.41 72.54 72.92 73.11
73.34 73.55 74.44 75.64 75.79 75.84 76.73 76.33 76.54 76.77 76.45 75.98 76.12 76.32 76.13 76.41 76.36 76.43 76.41 76.41 75.21 74.64 74.07 74.45 75.00 75.34 75.39 75.36 75.83 75.32 74.16 72.65 72.79 70.96 71.87 71.99 72.43 71.95 71.86 72.03 72.76 73.27 73.74
72.82 73.49 74.76 75.08 75.77 75.95 76.74 76.48 76.55 76.61 76.35 76.09 76.40 76.42 76.53 76.10 75.63 75.66 76.42 76.22 76.06 75.73 75.52 74.95 75.04 75.67 75.45 75.02 75.06 75.23 74.69 75.51 74.23 71.67 71.63 71.41 72.04 72.11 72.08 72.53 73.23 73.97 74.33
70.64 72.63 74.31 74.61 74.47 75.75 76.38 76.90 77.03 77.12 77.20 76.95 76.48 76.39 76.06 76.20 76.47 76.11 75.14 74.21 75.23 74.39 73.97 72.05 73.29 72.33 72.96 75.32 76.09 75.79 76.90 76.75 75.45 72.99 71.76 71.16 72.73 73.79 73.73 74.06 74.22 74.42 74.77
70.04 72.53 73.60 74.64 75.11 75.37 76.24 76.48 76.46 76.58 75.97 76.30 76.10 75.70 75.78 75.10 74.45 74.96 75.15 74.00 74.54 72.37 73.91 73.31 73.51 74.53 73.50 74.76 75.80 76.21 75.76 74.80 74.65 72.88 72.09 71.24 73.50 74.50 74.75 74.70 75.05 75.24 75.55
70.53 71.81 73.48 74.15 74.97 75.01 75.19 75.58 75.19 74.47 74.73 74.29 75.16 75.83 75.22 73.68 73.19 74.09 74.32 73.77 74.08 74.39 75.16 76.03 75.68 76.10 75.96 75.96 75.82 76.32 75.47 73.56 72.89 72.32 72.33 71.88 73.82 74.47 74.71 75.16 75.38 75.95 76.44
70.39 71.73 73.04 74.09 74.92 75.16 75.15 75.22 73.98 73.58 73.52 74.07 75.06 75.58 75.32 73.37 72.97 73.24 73.14 73.97 74.41 75.32 76.10 76.45 76.68 76.67 76.18 75.30 74.15 75.26 75.09 73.70 73.23 72.41 72.15 71.09 73.66 74.61 74.38 74.61 75.47 76.14 76.57
70.65 71.72 72.83 73.35 74.63 74.89 74.47 75.06 74.70 74.67 73.95 75.18 75.40 75.96 74.67 73.48 72.25 73.66 74.49 74.78 75.81 76.65 77.13 77.07 76.75 76.67 75.71 74.73 73.74 73.64 74.20 73.99 73.15 71.23 71.83 72.71 70.82 73.80 74.61 74.75 75.65 76.30 76.58
71.48 72.37 72.54 72.98 73.80 74.65 75.07 75.27 75.59 76.43 75.71 75.51 75.56 75.44 75.09 75.59 75.59 75.84 75.46 75.85 76.67 77.54 77.92 78.01 76.94 76.76 74.52 73.89 74.09 73.17 73.32 72.26 71.45 71.23 72.19 72.63 73.14 71.70 72.87 74.21 75.58 76.12 76.12
71.69 72.25 73.26 72.64 73.32 74.02 74.73 75.27 75.34 75.78 75.51 75.60 75.43 75.78 74.85 75.67 76.22 76.19 75.99 76.51 76.83 78.20 78.44 77.56 76.11 74.44 73.60 74.08 74.30 74.16 73.28 73.26 73.24 73.29 73.99 73.62 74.05 73.94 75.17 74.27 75.26 76.42 76.47
72.37 72.56 72.96 73.69 73.65 74.12 74.86 74.76 75.00 74.56 74.83 74.76 74.70 74.92 75.56 76.73 76.34 76.92 76.67 75.71 76.81 78.24 78.08 77.64 75.84 75.33 73.63 73.82 73.70 74.49 75.15 74.86 74.85 74.72 75.07 75.43 75.43 75.39 76.29 77.00 75.66 75.49 76.38
72.35 73.18 73.61 73.57 74.23 74.90 74.48 74.55 74.82 74.23 74.58 74.08 73.22 74.63 75.81 77.37 76.91 77.59 76.31 75.50 77.70 77.88 77.30 76.41 76.23 75.64 75.29 75.27 73.43 73.75 75.39 75.38 75.89 76.01 75.48 75.48 76.13 75.86 75.94 76.96 77.62 76.96 76.29
72.00 72.31 73.21 73.20 73.90 73.71 73.09 72.69 72.99 72.42 73.83 73.41 74.23 75.47 76.28 76.95 77.40 77.20 75.42 76.61 77.84 77.63 77.53 77.99 77.26 76.17 74.71 75.38 73.44 72.97 73.57 74.97 75.50 75.84 76.15 75.58 75.43 75.16 75.03 75.76 76.44 75.88 75.02
71.64 72.29 72.76 72.90 73.86 74.06 73.51 73.95 74.13 74.13 74.53 74.98 75.20 76.31 76.78 76.28 77.26 77.25 75.78 76.88 77.30 77.52 77.56 77.62 77.45 76.07 74.67 75.72 74.96 73.01 70.51 71.56 74.14 74.58 75.80 75.08 75.33 75.14 75.01 74.92 74.92 74.61 74.41
71.01 71.89 72.44 72.96 73.67 74.14 74.65 73.85 74.32 74.70 74.99 74.31 75.71 77.16 76.31 76.74 76.83 77.11 76.36 76.70 76.95 77.69 76.85 77.42 77.18 76.28 73.92 74.04 74.62 74.26 70.40 68.77 72.01 73.68 73.31 73.53 74.26 74.56 74.82 74.63 74.61 74.69 74.39
70.89 72.16 72.58 72.85 73.20 73.86 74.98 74.00 74.35 72.71 72.66 74.91 77.22 76.89 76.72 77.09 76.69 76.94 76.70 76.89 77.69 77.36 78.04 77.93 77.28 76.82 76.68 73.65 74.39 73.36 73.76 73.18 70.49 69.60 73.17 73.07 73.42 72.55 73.26 73.34 73.82 74.56 74.58
71.11 71.32 71.95 72.78 72.90 73.89 74.52 74.88 74.70 73.79 73.92 75.14 74.65 75.42 76.93 77.11 76.86 76.83 77.47 76.98 77.04 76.95 78.07 77.76 77.64 77.52 76.44 75.43 74.58 73.60 72.91 72.07 72.10 70.05 67.69 69.08 72.85 73.03 74.32 74.77 75.09 75.36 75.59
71.20 71.32 71.61 71.94 72.52 73.37 74.10 74.89 74.67 74.32 74.14 73.35 73.99 73.64 74.46 75.62 75.99 77.23 77.04 77.45 77.86 77.03 77.14 77.42 77.79 76.89 77.51 77.03 75.63 74.97 73.58 72.04 71.85 70.39 69.32 70.85 70.39 72.92 74.97 75.75 76.03 76.25 76.73

GFSSE_sfc_wetblb_126.txt.gz
Wetbulb
69.39 72.69 72.70 72.82 72.81 73.00 74.73 75.10 75.34 76.25 76.22 76.38 76.25 76.13 76.18 76.54 76.38 76.55 76.35 76.45 76.25 76.55 76.61 76.90 76.89 76.68 76.57 76.54 76.53 76.50 76.47 76.39 76.05 75.97 76.32 76.31 76.25 75.81 75.23 74.84 76.46 75.51 75.93
69.94 72.09 74.19 73.65 73.71 73.53 75.02 75.79 75.84 76.14 76.09 76.01 75.95 76.17 76.34 76.37 76.49 76.60 76.85 76.50 76.60 76.51 76.41 76.77 76.47 76.19 76.55 76.60 76.63 76.58 76.22 76.18 76.40 76.58 76.32 76.45 76.36 75.36 75.53 76.20 77.04 74.92 74.64
71.61 73.06 73.44 74.20 74.67 74.01 75.09 75.78 75.82 75.95 75.60 76.48 76.58 76.46 76.63 76.48 76.29 76.36 76.64 76.76 76.71 76.35 76.67 76.32 76.52 76.88 76.95 76.74 76.83 76.83 76.74 76.63 76.20 76.24 76.77 75.88 76.29 76.16 75.67 75.72 75.65 75.75 75.38
73.23 74.00 74.22 75.06 75.18 74.45 76.08 75.76 76.32 76.20 75.92 75.86 75.84 76.37 76.32 76.32 76.62 76.55 76.89 76.54 76.12 75.94 75.93 75.90 75.88 76.20 76.83 76.78 76.55 76.09 76.13 76.00 75.29 75.11 75.31 75.63 75.84 75.92 76.10 76.13 75.89 75.60 75.37
74.36 74.86 75.14 75.50 75.82 75.62 76.05 76.21 76.46 76.21 75.96 76.22 76.52 76.36 76.45 76.66 76.48 75.98 76.45 76.50 76.33 75.98 76.12 76.54 76.63 76.46 76.45 76.67 76.49 76.22 76.21 75.90 75.04 77.46 75.94 76.20 74.77 75.37 75.24 75.85 75.88 75.17 75.53
74.33 74.69 75.38 75.88 75.91 76.17 76.24 76.38 76.44 76.02 76.04 76.26 76.06 76.34 76.54 76.36 76.54 75.93 76.09 76.45 76.26 76.20 76.51 76.65 76.82 76.74 76.49 76.54 76.59 75.61 75.37 74.70 75.73 74.73 74.34 74.16 74.36 74.37 74.23 74.44 74.67 74.17 73.70
74.00 74.43 75.99 76.09 76.12 75.91 76.55 76.53 76.51 76.34 76.48 76.32 76.49 76.41 76.53 76.54 76.38 76.43 76.13 75.82 76.01 76.18 76.18 76.37 76.76 76.32 75.90 75.40 75.15 74.97 74.84 73.18 74.51 75.02 74.25 73.94 73.83 73.66 73.39 73.11 73.21 73.13 73.02
73.33 74.55 75.02 76.12 76.21 76.07 76.39 76.36 76.57 76.17 76.37 76.53 76.46 76.24 76.48 76.32 76.59 76.56 76.07 75.46 75.68 75.82 75.76 75.85 76.40 76.60 76.01 75.45 74.41 73.63 73.28 73.53 74.80 74.73 75.29 74.08 74.33 73.33 73.03 73.03 72.86 72.78 72.86
73.19 74.21 74.57 75.07 76.31 76.09 76.58 76.49 76.25 76.20 76.15 76.16 76.22 76.38 76.42 76.37 76.10 75.88 75.43 74.92 74.98 75.25 75.39 75.65 75.82 75.82 75.96 76.15 75.21 73.88 72.98 72.75 73.01 73.87 73.35 72.70 72.72 72.72 72.45 72.51 72.73 73.14 73.65
72.64 73.56 74.20 75.22 75.99 76.76 76.47 76.56 76.52 76.29 76.30 76.14 76.05 76.51 76.43 76.38 76.15 75.79 76.44 75.62 74.61 74.55 74.65 75.25 75.43 75.76 75.76 75.90 75.95 74.82 74.24 74.08 71.42 71.96 72.39 72.04 72.76 72.38 72.32 72.75 73.36 73.87 74.54
72.26 73.71 74.45 74.91 75.62 76.41 77.06 76.49 76.48 76.16 76.40 76.39 76.12 75.72 76.18 74.57 75.22 75.71 76.43 76.18 75.75 75.22 74.67 74.69 75.31 75.43 74.98 75.38 75.52 75.46 75.93 74.71 72.54 72.14 72.42 71.78 72.56 73.30 73.15 73.74 74.35 74.69 74.95
71.41 73.25 74.23 74.82 74.87 75.82 75.57 76.96 77.28 76.17 76.03 75.61 75.55 75.94 75.01 76.13 76.68 75.53 75.61 75.12 75.35 74.57 73.79 73.90 73.96 73.63 74.58 75.74 75.92 76.33 76.03 74.60 74.36 72.79 72.37 72.20 73.08 74.12 74.44 74.60 74.60 75.22 75.60
72.06 73.27 74.25 75.03 75.76 75.70 76.07 75.99 75.51 75.08 74.91 75.53 76.36 76.04 76.22 75.73 76.48 76.32 75.88 74.97 75.69 74.18 75.11 74.50 74.98 75.75 75.38 76.04 75.86 74.23 73.48 74.27 73.95 73.17 72.28 71.74 73.18 74.36 75.04 75.56 75.75 75.86 76.34
71.67 72.84 73.80 74.76 75.46 75.40 75.29 74.59 74.56 74.49 74.52 73.95 75.67 76.67 75.97 74.83 75.33 76.70 75.16 75.51 76.71 75.97 76.22 77.73 76.10 77.30 77.52 77.42 76.23 74.84 73.30 73.19 73.48 73.57 72.20 71.85 73.06 74.01 74.52 75.18 75.61 76.30 76.81
70.93 72.70 73.88 75.16 75.72 75.91 75.27 73.69 73.71 73.62 73.78 74.42 75.18 76.22 76.29 75.40 74.95 75.46 75.81 76.69 77.72 77.89 76.54 77.00 77.48 76.87 76.65 74.79 74.84 74.52 73.42 73.61 73.49 73.95 74.34 71.86 72.32 74.16 74.65 74.74 75.32 76.22 76.87
71.55 72.55 74.13 74.75 75.72 75.52 75.69 76.18 74.97 74.76 74.84 75.03 75.30 75.99 76.18 75.97 75.91 76.63 76.62 76.28 77.28 78.72 78.10 78.14 78.11 76.54 75.45 73.81 74.04 74.43 74.01 74.35 74.10 75.21 74.61 74.61 71.69 72.92 74.21 75.12 75.81 76.35 76.60
72.23 72.91 73.63 74.34 75.31 75.66 75.78 75.94 75.26 75.29 74.53 74.61 75.08 76.64 76.92 78.06 77.41 78.67 76.82 77.73 77.85 78.99 79.57 78.35 77.30 77.23 74.40 73.41 74.70 75.20 74.94 74.57 74.29 74.90 76.50 76.69 75.81 73.57 73.58 74.19 75.41 75.51 76.28
72.13 72.85 73.56 73.53 74.54 75.75 76.11 76.08 75.02 75.55 75.77 75.49 75.61 76.07 77.04 77.48 78.43 78.07 76.95 77.37 78.64 79.94 79.52 77.60 75.48 74.61 74.52 73.39 74.34 74.43 74.80 75.39 76.01 76.60 77.67 77.08 77.33 76.53 76.73 75.26 75.04 75.57 76.73
73.10 74.02 73.50 74.36 74.57 75.28 76.57 75.84 75.91 76.53 75.96 75.84 76.32 76.43 77.63 77.71 77.93 78.50 78.06 77.57 80.02 79.51 78.13 76.42 75.61 74.74 74.01 73.99 73.06 74.42 75.54 76.35 76.33 76.16 77.07 77.29 77.96 77.58 77.40 76.82 76.70 75.59 77.48
73.62 74.80 74.87 75.06 75.43 76.10 75.97 76.54 75.80 75.21 75.59 75.83 75.46 76.06 77.06 77.79 78.43 78.59 77.35 78.81 78.93 78.69 76.96 77.33 77.55 77.68 76.89 75.91 73.44 73.92 76.16 76.31 76.73 76.74 76.06 76.23 78.30 77.76 77.86 78.21 78.75 78.11 75.24
73.17 73.69 74.81 75.04 76.11 76.63 74.98 73.78 73.58 73.27 74.34 74.21 75.42 76.15 76.96 78.16 78.57 78.90 77.93 78.00 78.84 77.45 78.90 79.30 77.38 76.90 75.90 78.18 74.51 74.29 75.28 75.69 75.17 75.76 76.52 76.35 77.16 77.02 77.04 77.74 77.79 77.21 76.06
72.83 73.60 74.56 74.89 75.49 76.48 75.42 75.30 75.08 75.85 74.76 74.93 76.11 77.04 77.26 77.19 78.42 78.32 78.36 78.39 78.12 77.73 78.84 79.45 79.03 76.28 77.00 78.52 75.04 73.20 70.34 72.08 73.69 75.03 76.39 76.55 77.02 76.97 77.60 77.09 76.54 77.45 76.93
72.51 73.39 74.36 75.39 75.86 76.74 76.76 76.08 76.19 77.11 77.21 75.42 75.57 75.52 76.78 77.33 77.21 78.87 78.65 78.33 78.80 78.05 76.66 78.78 78.55 77.69 74.73 77.11 77.40 74.86 70.54 69.13 72.14 74.89 75.41 75.95 76.70 76.00 76.22 76.31 75.64 76.01 76.71
72.64 73.80 74.51 75.44 75.88 75.85 76.31 76.21 76.04 73.41 72.22 73.62 75.10 75.37 76.61 77.39 77.52 78.00 78.22 78.94 79.15 77.76 78.42 78.57 78.69 78.42 78.23 75.25 76.50 76.50 76.28 75.38 70.14 69.19 73.97 75.46 75.35 74.34 74.60 75.42 75.99 75.88 76.48
73.24 73.50 74.26 75.51 75.85 76.22 76.56 77.26 74.44 74.05 74.03 74.57 74.62 76.12 76.95 77.45 78.10 77.66 78.14 78.10 78.11 77.01 79.00 78.13 77.75 79.21 78.15 76.07 75.21 75.81 76.04 74.73 74.80 70.98 68.15 70.77 74.43 74.66 76.55 77.11 76.81 77.21 78.51
73.41 73.52 74.12 74.89 75.45 76.25 76.34 75.52 75.25 75.11 74.57 73.44 74.61 74.33 74.38 74.79 75.88 77.56 77.77 78.55 78.65 77.81 77.87 77.77 78.61 77.99 77.47 77.72 76.51 75.99 74.16 72.40 72.79 71.55 70.30 72.23 70.99 73.81 76.72 77.07 77.68 77.14 77.23

GFSSE_sfc_wetblb_129.txt.gz
Wetbulb
70.28 70.24 71.88 72.45 73.14 74.52 74.28 75.12 75.22 75.66 75.91 76.34 76.38 76.60 76.67 76.54 76.34 76.62 76.77 76.87 76.71 76.86 76.62 77.02 76.91 76.74 76.70 76.91 76.69 76.47 76.09 76.09 76.25 76.16 75.95 75.97 75.47 75.37 75.71 74.88 76.79 75.25 75.54
70.81 71.48 73.25 73.00 73.95 75.03 74.85 74.90 76.15 75.90 76.13 76.23 76.54 76.63 76.51 76.57 76.75 76.58 76.54 76.50 76.75 76.70 76.74 76.51 76.51 76.70 76.61 76.87 76.70 76.61 76.54 76.53 76.55 76.31 76.48 75.98 75.54 75.98 76.36 76.87 76.63 74.44 74.81
69.79 72.04 72.95 74.09 73.90 75.14 75.40 76.20 75.59 75.90 76.45 76.42 76.42 76.52 76.36 76.38 76.42 76.60 76.44 76.79 76.64 76.53 76.43 76.73 76.81 76.95 76.73 76.78 76.80 76.81 76.56 76.46 76.09 76.66 77.60 75.17 75.66 75.98 75.67 75.93 75.82 75.62 75.18
70.99 72.38 73.86 74.61 74.31 75.63 75.45 76.09 75.90 76.02 76.33 76.48 76.51 76.70 76.59 76.65 76.46 76.74 76.28 76.11 76.23 76.18 76.24 76.34 76.97 76.95 76.59 76.45 76.49 76.31 75.96 75.40 75.51 76.34 75.36 75.20 74.60 76.06 76.30 76.17 75.75 75.28 75.33
72.52 74.01 73.89 75.05 74.86 76.09 75.44 76.11 75.92 76.24 76.34 76.52 76.31 76.18 76.15 76.53 76.65 76.65 76.36 76.37 76.18 76.48 76.76 76.74 76.40 76.76 76.59 76.23 76.38 76.11 75.28 75.18 76.24 77.22 75.26 75.34 73.94 75.36 76.36 75.98 75.56 75.02 75.35
71.96 74.30 75.12 75.55 75.65 76.40 76.11 76.09 76.13 76.01 75.92 75.95 76.59 76.34 76.39 76.07 76.01 76.36 76.62 76.59 76.57 76.71 76.96 77.62 76.74 76.38 76.76 76.23 75.66 75.24 74.56 75.18 76.46 73.75 73.73 73.74 73.40 74.24 74.13 74.12 73.79 73.60 73.54
73.64 74.22 75.18 75.84 76.16 76.26 76.46 76.12 76.08 76.24 76.57 76.68 76.59 76.61 76.59 76.40 76.88 76.35 76.38 76.49 76.60 76.76 76.85 76.88 76.32 75.85 75.23 74.93 74.71 74.38 73.58 74.81 74.68 74.22 73.50 73.11 73.35 73.80 73.52 73.39 73.28 73.08 72.78
73.53 73.74 74.97 76.33 76.08 76.51 76.34 76.32 76.26 76.46 76.21 76.21 76.36 76.46 76.29 76.59 76.87 76.10 75.79 76.15 76.21 76.29 76.46 76.85 76.51 76.37 75.70 74.35 73.34 72.82 73.01 74.77 75.54 75.17 74.30 72.97 73.85 73.44 72.94 72.86 72.86 73.14 73.41
73.15 72.25 74.01 75.31 76.54 76.54 76.44 76.40 76.49 76.44 76.36 76.35 76.50 76.78 76.56 76.35 76.18 75.59 75.36 75.70 75.86 76.01 76.12 76.13 76.23 76.01 76.23 75.48 74.27 72.10 72.80 73.96 74.26 74.43 73.20 72.19 73.18 72.63 72.48 72.89 73.33 73.72 74.31
72.07 72.45 72.76 74.30 75.04 75.96 76.28 76.19 76.39 76.45 76.42 76.33 76.57 76.40 76.51 75.81 75.43 75.38 76.43 75.28 75.04 75.34 75.63 75.64 75.62 75.46 75.74 76.29 75.34 75.09 75.21 75.34 72.54 72.73 72.29 72.15 72.95 72.51 72.74 73.19 73.85 74.49 75.02
71.48 71.88 74.41 74.55 75.98 76.64 76.26 76.48 76.35 76.42 76.66 76.12 76.07 76.40 76.85 75.56 75.76 75.70 76.62 75.60 75.19 74.66 74.67 74.77 74.77 75.36 75.45 75.93 76.68 76.87 76.80 75.41 71.66 72.73 71.92 73.15 73.11 73.45 73.86 74.68 74.90 75.23 75.68
71.14 71.88 71.97 74.24 73.94 75.00 74.72 76.55 76.22 75.41 75.84 74.87 74.64 76.15 75.75 76.59 75.49 74.68 75.80 75.73 75.56 75.48 76.07 75.93 75.67 75.89 76.02 76.69 76.63 77.59 76.96 74.08 72.65 72.93 72.00 73.35 73.14 74.41 75.02 75.32 75.68 75.95 76.41
71.41 72.34 72.91 74.11 75.55 75.11 75.73 75.39 75.24 74.59 74.07 74.40 75.42 77.74 76.31 75.01 75.21 75.71 75.27 75.78 75.27 75.90 74.31 74.81 75.10 75.19 75.23 75.26 74.93 72.90 74.03 73.48 72.77 72.88 72.58 72.88 72.81 74.10 74.88 75.40 76.00 76.22 76.87
72.01 72.65 73.04 74.90 75.74 74.53 75.15 73.86 74.44 73.41 73.08 73.18 75.28 76.70 76.40 74.69 75.08 75.83 74.15 75.14 75.53 74.22 75.80 75.98 74.75 76.39 76.19 76.15 75.12 73.37 72.90 72.79 72.73 73.11 72.50 73.22 73.05 73.77 74.40 75.18 75.54 76.20 76.93
71.69 72.69 73.52 74.83 76.09 76.22 74.98 73.62 73.94 73.76 73.06 74.40 75.66 76.48 75.87 74.49 74.79 74.84 76.20 76.09 75.74 75.18 74.77 75.26 75.93 75.90 75.35 74.32 74.55 73.79 73.04 73.21 73.10 73.57 73.62 74.63 73.48 74.13 74.99 75.21 75.60 76.37 77.08
72.00 72.84 74.16 74.17 75.63 75.58 74.80 75.27 74.02 75.42 73.53 73.63 74.20 75.83 76.68 74.97 75.64 75.34 75.59 75.18 75.30 75.88 75.87 75.84 76.59 75.73 74.37 73.08 74.12 73.87 73.59 73.74 74.53 74.33 74.51 74.18 75.10 74.90 75.01 75.13 75.62 76.23 76.47
72.12 73.56 73.61 74.64 75.42 75.89 75.67 75.09 74.71 73.62 73.71 73.67 74.53 76.49 76.60 76.69 77.51 79.92 75.25 77.72 75.46 76.67 77.63 76.90 76.67 76.30 73.91 73.13 74.53 74.52 73.88 74.02 74.28 75.05 75.25 75.90 74.95 75.71 76.42 75.71 75.49 75.91 76.26
72.73 73.22 73.97 73.82 74.59 74.83 75.23 75.31 75.15 76.35 74.27 76.59 75.34 75.54 76.43 77.55 77.86 78.32 76.06 76.77 76.51 77.89 76.52 75.70 75.33 74.32 72.93 72.95 73.41 73.79 73.83 74.41 75.41 75.82 76.06 76.32 76.03 75.80 76.30 76.71 75.98 75.74 77.44
73.16 73.46 73.75 74.79 74.13 74.98 75.78 75.94 76.25 76.06 74.96 76.42 74.96 75.18 76.91 76.80 77.27 77.49 75.62 77.72 79.47 77.20 76.90 74.62 74.20 74.73 73.67 73.14 72.85 73.85 74.59 74.45 75.14 74.90 75.61 76.02 76.68 77.23 77.27 77.52 77.66 77.19 78.10
73.36 73.93 74.31 74.24 75.18 75.90 75.37 76.80 75.14 74.78 75.39 74.63 77.04 76.07 77.02 76.84 77.25 78.60 76.64 78.04 78.28 75.90 76.09 77.43 78.89 76.20 75.14 73.60 72.66 72.33 73.71 74.11 74.46 74.30 74.33 74.68 76.02 77.18 76.86 77.93 78.57 78.12 77.63
73.05 73.64 74.58 74.96 75.87 75.32 74.29 73.33 73.92 71.96 74.83 74.59 74.67 76.85 77.19 76.91 77.46 78.34 75.95 77.43 76.54 77.81 79.34 78.37 77.10 77.19 75.13 76.28 73.66 72.44 73.15 73.82 73.74 73.82 74.44 74.40 75.57 76.24 76.74 76.85 77.58 76.85 75.97
72.36 73.57 74.55 75.39 76.32 76.13 75.96 75.67 76.01 73.31 74.01 74.90 75.85 76.55 77.09 76.80 77.50 77.78 78.26 77.26 77.55 76.64 78.69 78.90 79.02 76.78 74.97 76.54 73.37 72.46 69.75 72.01 72.81 73.20 74.27 74.93 75.83 76.37 76.05 76.52 76.50 76.90 77.14
72.00 73.01 74.13 75.18 76.11 76.49 76.48 75.94 75.83 76.53 77.08 74.97 75.62 75.42 76.17 76.94 77.24 77.94 77.58 78.30 78.45 78.42 76.41 77.81 78.26 79.18 73.03 75.12 77.31 73.72 69.89 62.45 62.38 73.55 75.72 75.07 76.06 75.02 75.39 75.56 75.41 76.32 76.81
72.40 73.30 74.29 75.71 76.67 76.07 76.92 75.49 78.05 73.69 72.45 72.93 74.28 75.50 76.80 77.30 77.45 77.36 77.73 77.91 78.41 78.54 78.87 77.57 77.85 78.19 78.64 73.34 74.74 74.96 76.71 74.99 69.63 68.60 71.95 72.67 74.59 73.68 74.92 75.56 75.75 76.75 77.70
72.66 73.29 74.11 75.49 77.34 76.73 76.58 77.07 75.12 75.34 74.13 74.89 75.80 77.71 77.97 79.05 77.72 77.37 77.82 77.83 78.23 77.04 79.23 78.45 77.90 78.66 77.42 75.61 75.11 73.98 76.15 73.27 74.26 70.57 67.47 70.22 73.73 72.30 74.67 75.42 75.75 75.63 78.07
72.84 73.35 73.99 75.37 76.39 77.30 76.58 76.44 76.26 75.84 73.43 74.79 75.64 74.65 74.72 75.07 76.31 77.56 77.88 78.05 78.48 78.28 77.96 77.64 79.12 78.16 78.27 78.21 76.04 76.57 72.94 71.73 72.15 70.82 69.54 71.53 69.71 71.13 73.08 76.19 74.91 74.33 74.52